<?xml version='1.0' encoding='UTF-8'?><gpx version="1.1" creator="JPX - https://github.com/jenetics/jpx" xmlns="http://www.topografix.com/GPX/1/1"><trk><trkseg><trkpt lat="45.1192063" lon="7.2307992"><ele>403.0</ele><time>2026-04-06T10:46:38.852Z</time></trkpt><trkpt lat="45.1191357" lon="7.2307896"><ele>403.0</ele><time>2026-04-06T10:46:41.852Z</time></trkpt><trkpt lat="45.1190696" lon="7.2307572"><ele>403.0</ele><time>2026-04-06T10:46:43.853Z</time></trkpt><trkpt lat="45.1190003" lon="7.2307886"><ele>403.0</ele><time>2026-04-06T10:46:46.853Z</time></trkpt><trkpt lat="45.1189792" lon="7.2308889"><ele>403.0</ele><time>2026-04-06T10:46:49.852Z</time></trkpt><trkpt lat="45.1189924" lon="7.2309981"><ele>403.0</ele><time>2026-04-06T10:47:08.852Z</time></trkpt><trkpt lat="45.118989" lon="7.2310958"><ele>403.0</ele><time>2026-04-06T10:47:10.854Z</time></trkpt><trkpt lat="45.1189591" lon="7.2312035"><ele>403.0</ele><time>2026-04-06T10:47:12.853Z</time></trkpt><trkpt lat="45.1189424" lon="7.2313107"><ele>403.0</ele><time>2026-04-06T10:47:15.852Z</time></trkpt><trkpt lat="45.1189757" lon="7.2313881"><ele>403.0</ele><time>2026-04-06T10:47:18.853Z</time></trkpt><trkpt lat="45.1190451" lon="7.2314673"><ele>403.0</ele><time>2026-04-06T10:47:20.852Z</time></trkpt><trkpt lat="45.119096" lon="7.2315199"><ele>403.0</ele><time>2026-04-06T10:47:21.852Z</time></trkpt><trkpt lat="45.1191556" lon="7.2315873"><ele>403.0</ele><time>2026-04-06T10:47:22.852Z</time></trkpt><trkpt lat="45.1192147" lon="7.2316475"><ele>403.0</ele><time>2026-04-06T10:47:23.853Z</time></trkpt><trkpt lat="45.1192788" lon="7.2316791"><ele>403.00000000000006</ele><time>2026-04-06T10:47:24.852Z</time></trkpt><trkpt lat="45.1193481" lon="7.2316716"><ele>403.0</ele><time>2026-04-06T10:47:25.852Z</time></trkpt><trkpt lat="45.1194085" lon="7.2316341"><ele>403.0</ele><time>2026-04-06T10:47:26.852Z</time></trkpt><trkpt lat="45.1194583" lon="7.2315622"><ele>403.0</ele><time>2026-04-06T10:47:27.852Z</time></trkpt><trkpt lat="45.1194868" lon="7.2314631"><ele>403.00000000000006</ele><time>2026-04-06T10:47:28.852Z</time></trkpt><trkpt lat="45.1194814" lon="7.2313416"><ele>403.0</ele><time>2026-04-06T10:47:29.853Z</time></trkpt><trkpt lat="45.1194578" lon="7.2312041"><ele>403.0</ele><time>2026-04-06T10:47:30.853Z</time></trkpt><trkpt lat="45.1194276" lon="7.2310416"><ele>403.0</ele><time>2026-04-06T10:47:31.853Z</time></trkpt><trkpt lat="45.1194095" lon="7.2308464"><ele>403.0</ele><time>2026-04-06T10:47:32.853Z</time></trkpt><trkpt lat="45.1194059" lon="7.2306362"><ele>403.0</ele><time>2026-04-06T10:47:33.853Z</time></trkpt><trkpt lat="45.1194076" lon="7.2304031"><ele>403.0</ele><time>2026-04-06T10:47:34.853Z</time></trkpt><trkpt lat="45.1194168" lon="7.2301635"><ele>403.0</ele><time>2026-04-06T10:47:35.852Z</time></trkpt><trkpt lat="45.1194262" lon="7.2299065"><ele>403.0</ele><time>2026-04-06T10:47:36.853Z</time></trkpt><trkpt lat="45.1194379" lon="7.2296435"><ele>403.0</ele><time>2026-04-06T10:47:37.852Z</time></trkpt><trkpt lat="45.119448" lon="7.2293721"><ele>403.0</ele><time>2026-04-06T10:47:38.853Z</time></trkpt><trkpt lat="45.1194566" lon="7.2290851"><ele>403.0</ele><time>2026-04-06T10:47:39.854Z</time></trkpt><trkpt lat="45.1194691" lon="7.2287952"><ele>403.6666666666667</ele><time>2026-04-06T10:47:40.853Z</time></trkpt><trkpt lat="45.1194822" lon="7.2284924"><ele>404.33333333333337</ele><time>2026-04-06T10:47:41.853Z</time></trkpt><trkpt lat="45.1195004" lon="7.2281829"><ele>405.0</ele><time>2026-04-06T10:47:42.853Z</time></trkpt><trkpt lat="45.1195135" lon="7.2278861"><ele>405.0</ele><time>2026-04-06T10:47:43.853Z</time></trkpt><trkpt lat="45.1195218" lon="7.227602"><ele>405.0</ele><time>2026-04-06T10:47:44.852Z</time></trkpt><trkpt lat="45.1195315" lon="7.2273313"><ele>405.0</ele><time>2026-04-06T10:47:45.852Z</time></trkpt><trkpt lat="45.1195367" lon="7.2270716"><ele>405.33333333333337</ele><time>2026-04-06T10:47:46.852Z</time></trkpt><trkpt lat="45.1195315" lon="7.2268067"><ele>405.6666666666667</ele><time>2026-04-06T10:47:47.853Z</time></trkpt><trkpt lat="45.1195181" lon="7.2265309"><ele>406.0</ele><time>2026-04-06T10:47:48.852Z</time></trkpt><trkpt lat="45.1195038" lon="7.2262458"><ele>406.0</ele><time>2026-04-06T10:47:49.853Z</time></trkpt><trkpt lat="45.1194843" lon="7.2259558"><ele>406.0</ele><time>2026-04-06T10:47:50.853Z</time></trkpt><trkpt lat="45.1194698" lon="7.2256642"><ele>406.0</ele><time>2026-04-06T10:47:51.852Z</time></trkpt><trkpt lat="45.1194529" lon="7.2253741"><ele>406.0</ele><time>2026-04-06T10:47:52.852Z</time></trkpt><trkpt lat="45.1194369" lon="7.225093"><ele>406.0</ele><time>2026-04-06T10:47:53.853Z</time></trkpt><trkpt lat="45.1194247" lon="7.2248278"><ele>406.0</ele><time>2026-04-06T10:47:54.852Z</time></trkpt><trkpt lat="45.1194091" lon="7.2245889"><ele>405.75</ele><time>2026-04-06T10:47:55.852Z</time></trkpt><trkpt lat="45.1193955" lon="7.224368"><ele>405.5</ele><time>2026-04-06T10:47:56.853Z</time></trkpt><trkpt lat="45.1193844" lon="7.224159"><ele>405.25</ele><time>2026-04-06T10:47:57.853Z</time></trkpt><trkpt lat="45.1193739" lon="7.2239775"><ele>405.0</ele><time>2026-04-06T10:47:58.853Z</time></trkpt><trkpt lat="45.1193654" lon="7.223824"><ele>405.3333333333333</ele><time>2026-04-06T10:47:59.852Z</time></trkpt><trkpt lat="45.119359" lon="7.2237235"><ele>405.66666666666663</ele><time>2026-04-06T10:48:00.853Z</time></trkpt><trkpt lat="45.1193186" lon="7.2236374"><ele>406.0</ele><time>2026-04-06T10:48:02.852Z</time></trkpt><trkpt lat="45.1192134" lon="7.2236642"><ele>406.3333333333333</ele><time>2026-04-06T10:48:04.854Z</time></trkpt><trkpt lat="45.1191283" lon="7.2236847"><ele>406.66666666666663</ele><time>2026-04-06T10:48:05.853Z</time></trkpt><trkpt lat="45.1190235" lon="7.2236992"><ele>407.0</ele><time>2026-04-06T10:48:06.852Z</time></trkpt><trkpt lat="45.1189056" lon="7.2237101"><ele>407.75</ele><time>2026-04-06T10:48:07.852Z</time></trkpt><trkpt lat="45.1187822" lon="7.2237276"><ele>408.5</ele><time>2026-04-06T10:48:08.853Z</time></trkpt><trkpt lat="45.1186501" lon="7.2237503"><ele>409.25</ele><time>2026-04-06T10:48:09.852Z</time></trkpt><trkpt lat="45.1185189" lon="7.2237696"><ele>410.0</ele><time>2026-04-06T10:48:10.853Z</time></trkpt><trkpt lat="45.1183905" lon="7.2237957"><ele>410.0</ele><time>2026-04-06T10:48:11.853Z</time></trkpt><trkpt lat="45.1182585" lon="7.2238425"><ele>410.0</ele><time>2026-04-06T10:48:12.854Z</time></trkpt><trkpt lat="45.1181331" lon="7.2239001"><ele>410.0</ele><time>2026-04-06T10:48:13.853Z</time></trkpt><trkpt lat="45.1179975" lon="7.2239691"><ele>410.0</ele><time>2026-04-06T10:48:14.853Z</time></trkpt><trkpt lat="45.1178654" lon="7.2240286"><ele>410.75</ele><time>2026-04-06T10:48:15.853Z</time></trkpt><trkpt lat="45.1177321" lon="7.2240846"><ele>411.5</ele><time>2026-04-06T10:48:16.852Z</time></trkpt><trkpt lat="45.117607" lon="7.2241414"><ele>412.25</ele><time>2026-04-06T10:48:17.853Z</time></trkpt><trkpt lat="45.1174997" lon="7.2241944"><ele>413.0</ele><time>2026-04-06T10:48:18.853Z</time></trkpt><trkpt lat="45.1173945" lon="7.2242596"><ele>414.4</ele><time>2026-04-06T10:48:19.853Z</time></trkpt><trkpt lat="45.1172951" lon="7.2243187"><ele>415.79999999999995</ele><time>2026-04-06T10:48:20.853Z</time></trkpt><trkpt lat="45.1172037" lon="7.2243936"><ele>417.2</ele><time>2026-04-06T10:48:21.853Z</time></trkpt><trkpt lat="45.1171171" lon="7.2245107"><ele>418.6</ele><time>2026-04-06T10:48:22.854Z</time></trkpt><trkpt lat="45.1170369" lon="7.2246278"><ele>420.0</ele><time>2026-04-06T10:48:23.853Z</time></trkpt><trkpt lat="45.1169435" lon="7.2247468"><ele>419.5</ele><time>2026-04-06T10:48:24.853Z</time></trkpt><trkpt lat="45.1168355" lon="7.2248517"><ele>419.0</ele><time>2026-04-06T10:48:25.854Z</time></trkpt><trkpt lat="45.1167317" lon="7.2249337"><ele>418.5</ele><time>2026-04-06T10:48:26.852Z</time></trkpt><trkpt lat="45.1166215" lon="7.2249902"><ele>418.0</ele><time>2026-04-06T10:48:27.852Z</time></trkpt><trkpt lat="45.1165023" lon="7.225014"><ele>419.75</ele><time>2026-04-06T10:48:28.852Z</time></trkpt><trkpt lat="45.1163808" lon="7.2250058"><ele>421.5</ele><time>2026-04-06T10:48:29.853Z</time></trkpt><trkpt lat="45.1162651" lon="7.2249534"><ele>423.25</ele><time>2026-04-06T10:48:30.853Z</time></trkpt><trkpt lat="45.1161541" lon="7.2248757"><ele>425.0</ele><time>2026-04-06T10:48:31.853Z</time></trkpt><trkpt lat="45.1160426" lon="7.2248032"><ele>425.0</ele><time>2026-04-06T10:48:32.853Z</time></trkpt><trkpt lat="45.1159279" lon="7.2247324"><ele>425.0</ele><time>2026-04-06T10:48:33.853Z</time></trkpt><trkpt lat="45.1158141" lon="7.224663"><ele>425.0</ele><time>2026-04-06T10:48:34.852Z</time></trkpt><trkpt lat="45.1156945" lon="7.2246142"><ele>425.0</ele><time>2026-04-06T10:48:35.852Z</time></trkpt><trkpt lat="45.115564" lon="7.224586"><ele>427.25</ele><time>2026-04-06T10:48:36.852Z</time></trkpt><trkpt lat="45.115431" lon="7.2245564"><ele>429.5</ele><time>2026-04-06T10:48:37.852Z</time></trkpt><trkpt lat="45.1152937" lon="7.2245313"><ele>431.75</ele><time>2026-04-06T10:48:38.853Z</time></trkpt><trkpt lat="45.1151536" lon="7.2245167"><ele>434.0</ele><time>2026-04-06T10:48:39.853Z</time></trkpt><trkpt lat="45.1150154" lon="7.2245066"><ele>436.25</ele><time>2026-04-06T10:48:40.853Z</time></trkpt><trkpt lat="45.1148769" lon="7.2244972"><ele>438.5</ele><time>2026-04-06T10:48:41.853Z</time></trkpt><trkpt lat="45.1147423" lon="7.2244812"><ele>440.75</ele><time>2026-04-06T10:48:42.853Z</time></trkpt><trkpt lat="45.1146077" lon="7.2244765"><ele>443.0</ele><time>2026-04-06T10:48:43.853Z</time></trkpt><trkpt lat="45.1144714" lon="7.2244766"><ele>443.0</ele><time>2026-04-06T10:48:44.853Z</time></trkpt><trkpt lat="45.1143329" lon="7.2244919"><ele>443.0</ele><time>2026-04-06T10:48:45.852Z</time></trkpt><trkpt lat="45.1141996" lon="7.2245047"><ele>443.0</ele><time>2026-04-06T10:48:46.852Z</time></trkpt><trkpt lat="45.114072" lon="7.2245114"><ele>443.0</ele><time>2026-04-06T10:48:47.852Z</time></trkpt><trkpt lat="45.1139495" lon="7.2244971"><ele>444.25</ele><time>2026-04-06T10:48:48.853Z</time></trkpt><trkpt lat="45.1138363" lon="7.2244481"><ele>445.5</ele><time>2026-04-06T10:48:49.853Z</time></trkpt><trkpt lat="45.1137278" lon="7.2243717"><ele>446.75</ele><time>2026-04-06T10:48:50.853Z</time></trkpt><trkpt lat="45.1136208" lon="7.2242801"><ele>448.0</ele><time>2026-04-06T10:48:51.853Z</time></trkpt><trkpt lat="45.113517" lon="7.2241678"><ele>448.0</ele><time>2026-04-06T10:48:52.852Z</time></trkpt><trkpt lat="45.1134353" lon="7.2240584"><ele>447.99999999999994</ele><time>2026-04-06T10:48:53.852Z</time></trkpt><trkpt lat="45.1133556" lon="7.2239819"><ele>447.99999999999994</ele><time>2026-04-06T10:48:54.852Z</time></trkpt><trkpt lat="45.1132728" lon="7.2239488"><ele>448.0</ele><time>2026-04-06T10:48:55.854Z</time></trkpt><trkpt lat="45.1131849" lon="7.2239509"><ele>448.0</ele><time>2026-04-06T10:48:56.853Z</time></trkpt><trkpt lat="45.113098" lon="7.2239897"><ele>449.79999999999995</ele><time>2026-04-06T10:48:57.853Z</time></trkpt><trkpt lat="45.1130067" lon="7.2240508"><ele>451.59999999999997</ele><time>2026-04-06T10:48:58.852Z</time></trkpt><trkpt lat="45.112927" lon="7.2241315"><ele>453.40000000000003</ele><time>2026-04-06T10:48:59.852Z</time></trkpt><trkpt lat="45.1128616" lon="7.2242457"><ele>455.20000000000005</ele><time>2026-04-06T10:49:00.852Z</time></trkpt><trkpt lat="45.1128224" lon="7.2243673"><ele>457.0</ele><time>2026-04-06T10:49:01.853Z</time></trkpt><trkpt lat="45.1127945" lon="7.2245076"><ele>457.0</ele><time>2026-04-06T10:49:02.854Z</time></trkpt><trkpt lat="45.1127697" lon="7.2246431"><ele>457.00000000000006</ele><time>2026-04-06T10:49:03.853Z</time></trkpt><trkpt lat="45.1127496" lon="7.2248035"><ele>457.00000000000006</ele><time>2026-04-06T10:49:04.852Z</time></trkpt><trkpt lat="45.1127323" lon="7.2249641"><ele>457.0</ele><time>2026-04-06T10:49:05.852Z</time></trkpt><trkpt lat="45.1127277" lon="7.2251139"><ele>457.0</ele><time>2026-04-06T10:49:06.853Z</time></trkpt><trkpt lat="45.1127248" lon="7.2252563"><ele>457.0</ele><time>2026-04-06T10:49:07.853Z</time></trkpt><trkpt lat="45.1127013" lon="7.2253891"><ele>457.00000000000006</ele><time>2026-04-06T10:49:08.853Z</time></trkpt><trkpt lat="45.1126633" lon="7.2255214"><ele>457.00000000000006</ele><time>2026-04-06T10:49:09.853Z</time></trkpt><trkpt lat="45.1126184" lon="7.2256552"><ele>457.0</ele><time>2026-04-06T10:49:10.853Z</time></trkpt><trkpt lat="45.1125608" lon="7.2257855"><ele>457.0</ele><time>2026-04-06T10:49:11.852Z</time></trkpt><trkpt lat="45.1124916" lon="7.2258987"><ele>457.1666666666667</ele><time>2026-04-06T10:49:12.852Z</time></trkpt><trkpt lat="45.1124272" lon="7.2260063"><ele>457.33333333333337</ele><time>2026-04-06T10:49:13.853Z</time></trkpt><trkpt lat="45.1123698" lon="7.2261154"><ele>457.5</ele><time>2026-04-06T10:49:14.853Z</time></trkpt><trkpt lat="45.1123222" lon="7.2262169"><ele>457.66666666666663</ele><time>2026-04-06T10:49:15.852Z</time></trkpt><trkpt lat="45.1122762" lon="7.2263101"><ele>457.8333333333333</ele><time>2026-04-06T10:49:16.851Z</time></trkpt><trkpt lat="45.1122269" lon="7.2263839"><ele>458.0</ele><time>2026-04-06T10:49:17.852Z</time></trkpt><trkpt lat="45.1121776" lon="7.2264451"><ele>457.16666666666663</ele><time>2026-04-06T10:49:18.853Z</time></trkpt><trkpt lat="45.1121246" lon="7.2265077"><ele>456.3333333333333</ele><time>2026-04-06T10:49:19.852Z</time></trkpt><trkpt lat="45.1120709" lon="7.2265679"><ele>455.5</ele><time>2026-04-06T10:49:20.852Z</time></trkpt><trkpt lat="45.1120124" lon="7.2266317"><ele>454.66666666666663</ele><time>2026-04-06T10:49:21.851Z</time></trkpt><trkpt lat="45.1119412" lon="7.2267015"><ele>453.8333333333333</ele><time>2026-04-06T10:49:22.851Z</time></trkpt><trkpt lat="45.1118633" lon="7.2267707"><ele>453.0</ele><time>2026-04-06T10:49:23.852Z</time></trkpt><trkpt lat="45.1117874" lon="7.2268295"><ele>453.0</ele><time>2026-04-06T10:49:24.853Z</time></trkpt><trkpt lat="45.1117041" lon="7.2268794"><ele>453.0</ele><time>2026-04-06T10:49:25.852Z</time></trkpt><trkpt lat="45.1116244" lon="7.2269189"><ele>453.0</ele><time>2026-04-06T10:49:26.852Z</time></trkpt><trkpt lat="45.1115483" lon="7.2269513"><ele>453.0</ele><time>2026-04-06T10:49:27.852Z</time></trkpt><trkpt lat="45.1114719" lon="7.2269781"><ele>453.0</ele><time>2026-04-06T10:49:28.852Z</time></trkpt><trkpt lat="45.1113888" lon="7.2269966"><ele>453.0</ele><time>2026-04-06T10:49:29.851Z</time></trkpt><trkpt lat="45.1113031" lon="7.2270189"><ele>452.8333333333333</ele><time>2026-04-06T10:49:30.853Z</time></trkpt><trkpt lat="45.1112169" lon="7.2270383"><ele>452.66666666666663</ele><time>2026-04-06T10:49:31.852Z</time></trkpt><trkpt lat="45.1111355" lon="7.2270386"><ele>452.5</ele><time>2026-04-06T10:49:32.853Z</time></trkpt><trkpt lat="45.1110674" lon="7.2270189"><ele>452.3333333333333</ele><time>2026-04-06T10:49:33.852Z</time></trkpt><trkpt lat="45.1110049" lon="7.2269966"><ele>452.16666666666663</ele><time>2026-04-06T10:49:34.852Z</time></trkpt><trkpt lat="45.1109065" lon="7.2269483"><ele>452.0</ele><time>2026-04-06T10:49:36.851Z</time></trkpt><trkpt lat="45.1108244" lon="7.2269668"><ele>451.99999999999994</ele><time>2026-04-06T10:49:38.851Z</time></trkpt><trkpt lat="45.1107812" lon="7.2270402"><ele>452.0</ele><time>2026-04-06T10:49:40.851Z</time></trkpt><trkpt lat="45.1107053" lon="7.2271079"><ele>452.0</ele><time>2026-04-06T10:49:43.851Z</time></trkpt><trkpt lat="45.110626" lon="7.2271175"><ele>452.0</ele><time>2026-04-06T10:49:46.852Z</time></trkpt><trkpt lat="45.110603" lon="7.2270136"><ele>451.99999999999994</ele><time>2026-04-06T10:49:48.852Z</time></trkpt><trkpt lat="45.1105933" lon="7.2269199"><ele>452.0</ele><time>2026-04-06T10:49:49.851Z</time></trkpt><trkpt lat="45.1105812" lon="7.2268047"><ele>452.20000000000005</ele><time>2026-04-06T10:49:50.852Z</time></trkpt><trkpt lat="45.1105779" lon="7.2266745"><ele>452.40000000000003</ele><time>2026-04-06T10:49:51.852Z</time></trkpt><trkpt lat="45.1105617" lon="7.226539"><ele>452.59999999999997</ele><time>2026-04-06T10:49:52.852Z</time></trkpt><trkpt lat="45.1105394" lon="7.2263962"><ele>452.79999999999995</ele><time>2026-04-06T10:49:53.852Z</time></trkpt><trkpt lat="45.1105254" lon="7.226251"><ele>453.0</ele><time>2026-04-06T10:49:54.853Z</time></trkpt><trkpt lat="45.1105181" lon="7.2261007"><ele>454.3333333333333</ele><time>2026-04-06T10:49:55.851Z</time></trkpt><trkpt lat="45.1105194" lon="7.2259561"><ele>455.66666666666663</ele><time>2026-04-06T10:49:56.852Z</time></trkpt><trkpt lat="45.1105149" lon="7.2258174"><ele>457.0</ele><time>2026-04-06T10:49:57.852Z</time></trkpt><trkpt lat="45.1104895" lon="7.2257047"><ele>458.3333333333333</ele><time>2026-04-06T10:49:58.851Z</time></trkpt><trkpt lat="45.1104448" lon="7.2256119"><ele>459.66666666666663</ele><time>2026-04-06T10:49:59.851Z</time></trkpt><trkpt lat="45.1103852" lon="7.2255477"><ele>461.0</ele><time>2026-04-06T10:50:00.851Z</time></trkpt><trkpt lat="45.1103289" lon="7.225479"><ele>461.99999999999994</ele><time>2026-04-06T10:50:01.851Z</time></trkpt><trkpt lat="45.1102801" lon="7.2253957"><ele>463.0</ele><time>2026-04-06T10:50:02.852Z</time></trkpt><trkpt lat="45.1102338" lon="7.2252991"><ele>464.0</ele><time>2026-04-06T10:50:03.852Z</time></trkpt><trkpt lat="45.1101913" lon="7.2251796"><ele>465.0</ele><time>2026-04-06T10:50:04.852Z</time></trkpt><trkpt lat="45.1101571" lon="7.2250626"><ele>465.99999999999994</ele><time>2026-04-06T10:50:05.851Z</time></trkpt><trkpt lat="45.1101279" lon="7.2249465"><ele>467.0</ele><time>2026-04-06T10:50:06.851Z</time></trkpt><trkpt lat="45.1101" lon="7.2248379"><ele>467.8333333333333</ele><time>2026-04-06T10:50:07.852Z</time></trkpt><trkpt lat="45.1100703" lon="7.2247308"><ele>468.66666666666663</ele><time>2026-04-06T10:50:08.852Z</time></trkpt><trkpt lat="45.1100398" lon="7.2246213"><ele>469.5</ele><time>2026-04-06T10:50:09.852Z</time></trkpt><trkpt lat="45.1100048" lon="7.2245189"><ele>470.33333333333337</ele><time>2026-04-06T10:50:10.852Z</time></trkpt><trkpt lat="45.1099751" lon="7.224418"><ele>471.1666666666667</ele><time>2026-04-06T10:50:11.852Z</time></trkpt><trkpt lat="45.1099376" lon="7.2243154"><ele>472.0</ele><time>2026-04-06T10:50:12.852Z</time></trkpt><trkpt lat="45.1098996" lon="7.2242113"><ele>472.6666666666667</ele><time>2026-04-06T10:50:13.852Z</time></trkpt><trkpt lat="45.1098598" lon="7.2241099"><ele>473.33333333333337</ele><time>2026-04-06T10:50:14.852Z</time></trkpt><trkpt lat="45.1097997" lon="7.2240165"><ele>474.0</ele><time>2026-04-06T10:50:15.852Z</time></trkpt><trkpt lat="45.1097376" lon="7.2239208"><ele>474.66666666666663</ele><time>2026-04-06T10:50:16.852Z</time></trkpt><trkpt lat="45.1096874" lon="7.2238111"><ele>475.3333333333333</ele><time>2026-04-06T10:50:17.852Z</time></trkpt><trkpt lat="45.1096637" lon="7.2236905"><ele>476.0</ele><time>2026-04-06T10:50:18.852Z</time></trkpt><trkpt lat="45.1096527" lon="7.2235641"><ele>477.49999999999994</ele><time>2026-04-06T10:50:19.851Z</time></trkpt><trkpt lat="45.1096359" lon="7.2234569"><ele>479.0</ele><time>2026-04-06T10:50:20.851Z</time></trkpt><trkpt lat="45.1096057" lon="7.2233574"><ele>480.5</ele><time>2026-04-06T10:50:21.852Z</time></trkpt><trkpt lat="45.1095694" lon="7.2232568"><ele>482.0</ele><time>2026-04-06T10:50:22.852Z</time></trkpt><trkpt lat="45.109523" lon="7.2231587"><ele>483.49999999999994</ele><time>2026-04-06T10:50:23.852Z</time></trkpt><trkpt lat="45.1094906" lon="7.2230727"><ele>485.0</ele><time>2026-04-06T10:50:24.852Z</time></trkpt><trkpt lat="45.1094711" lon="7.2229832"><ele>485.8</ele><time>2026-04-06T10:50:25.852Z</time></trkpt><trkpt lat="45.1094646" lon="7.2228941"><ele>486.6</ele><time>2026-04-06T10:50:26.852Z</time></trkpt><trkpt lat="45.109504" lon="7.2227649"><ele>487.4</ele><time>2026-04-06T10:50:28.851Z</time></trkpt><trkpt lat="45.1095957" lon="7.2226241"><ele>488.2</ele><time>2026-04-06T10:50:30.853Z</time></trkpt><trkpt lat="45.1096273" lon="7.2225318"><ele>489.0</ele><time>2026-04-06T10:50:31.852Z</time></trkpt><trkpt lat="45.1096476" lon="7.2224198"><ele>490.2</ele><time>2026-04-06T10:50:32.851Z</time></trkpt><trkpt lat="45.1096492" lon="7.2223043"><ele>491.4</ele><time>2026-04-06T10:50:33.851Z</time></trkpt><trkpt lat="45.1096391" lon="7.2221779"><ele>492.6</ele><time>2026-04-06T10:50:34.852Z</time></trkpt><trkpt lat="45.1096314" lon="7.2220435"><ele>493.8</ele><time>2026-04-06T10:50:35.852Z</time></trkpt><trkpt lat="45.1096309" lon="7.2218973"><ele>495.0</ele><time>2026-04-06T10:50:36.853Z</time></trkpt><trkpt lat="45.1096368" lon="7.2217462"><ele>495.0</ele><time>2026-04-06T10:50:37.852Z</time></trkpt><trkpt lat="45.1096484" lon="7.2215993"><ele>495.0</ele><time>2026-04-06T10:50:38.852Z</time></trkpt><trkpt lat="45.1096584" lon="7.2214716"><ele>495.0</ele><time>2026-04-06T10:50:39.851Z</time></trkpt><trkpt lat="45.1096545" lon="7.2213398"><ele>495.0</ele><time>2026-04-06T10:50:40.851Z</time></trkpt><trkpt lat="45.109647" lon="7.2212295"><ele>495.0</ele><time>2026-04-06T10:50:41.851Z</time></trkpt><trkpt lat="45.1096345" lon="7.2211322"><ele>495.0</ele><time>2026-04-06T10:50:42.851Z</time></trkpt><trkpt lat="45.1096387" lon="7.221042"><ele>495.0</ele><time>2026-04-06T10:50:43.851Z</time></trkpt><trkpt lat="45.1096771" lon="7.2208929"><ele>495.0</ele><time>2026-04-06T10:50:45.853Z</time></trkpt><trkpt lat="45.1097442" lon="7.2207981"><ele>495.0</ele><time>2026-04-06T10:50:47.852Z</time></trkpt><trkpt lat="45.1098691" lon="7.2208018"><ele>495.0</ele><time>2026-04-06T10:50:49.852Z</time></trkpt><trkpt lat="45.109937" lon="7.22081"><ele>495.0</ele><time>2026-04-06T10:50:50.851Z</time></trkpt><trkpt lat="45.1100032" lon="7.2208062"><ele>495.0</ele><time>2026-04-06T10:50:51.851Z</time></trkpt><trkpt lat="45.1101266" lon="7.2208248"><ele>495.0</ele><time>2026-04-06T10:50:53.851Z</time></trkpt><trkpt lat="45.1102004" lon="7.2208729"><ele>495.0</ele><time>2026-04-06T10:50:54.852Z</time></trkpt><trkpt lat="45.110266" lon="7.2209317"><ele>495.0</ele><time>2026-04-06T10:50:55.852Z</time></trkpt><trkpt lat="45.1103344" lon="7.2209781"><ele>495.0</ele><time>2026-04-06T10:50:56.853Z</time></trkpt><trkpt lat="45.1104013" lon="7.2210367"><ele>495.0</ele><time>2026-04-06T10:50:57.852Z</time></trkpt><trkpt lat="45.1104611" lon="7.2210944"><ele>495.0</ele><time>2026-04-06T10:50:58.852Z</time></trkpt><trkpt lat="45.1105157" lon="7.2211603"><ele>495.0</ele><time>2026-04-06T10:50:59.852Z</time></trkpt><trkpt lat="45.1105944" lon="7.2213017"><ele>495.0</ele><time>2026-04-06T10:51:01.852Z</time></trkpt><trkpt lat="45.1106602" lon="7.2214192"><ele>495.0</ele><time>2026-04-06T10:51:03.851Z</time></trkpt><trkpt lat="45.1107332" lon="7.2215338"><ele>495.0</ele><time>2026-04-06T10:51:05.851Z</time></trkpt><trkpt lat="45.1107847" lon="7.2216897"><ele>496.4</ele><time>2026-04-06T10:51:07.852Z</time></trkpt><trkpt lat="45.1108231" lon="7.221819"><ele>497.8</ele><time>2026-04-06T10:51:09.852Z</time></trkpt><trkpt lat="45.1108902" lon="7.2218947"><ele>499.20000000000005</ele><time>2026-04-06T10:51:11.852Z</time></trkpt><trkpt lat="45.1110126" lon="7.2219373"><ele>500.6</ele><time>2026-04-06T10:51:13.852Z</time></trkpt><trkpt lat="45.111088" lon="7.2219471"><ele>502.0</ele><time>2026-04-06T10:51:14.852Z</time></trkpt><trkpt lat="45.1111591" lon="7.2219625"><ele>502.00000000000006</ele><time>2026-04-06T10:51:15.851Z</time></trkpt><trkpt lat="45.1112239" lon="7.2219951"><ele>502.0</ele><time>2026-04-06T10:51:16.852Z</time></trkpt><trkpt lat="45.1113126" lon="7.222077"><ele>502.0</ele><time>2026-04-06T10:51:18.852Z</time></trkpt><trkpt lat="45.1113655" lon="7.2221319"><ele>502.0</ele><time>2026-04-06T10:51:20.852Z</time></trkpt><trkpt lat="45.1113918" lon="7.2220305"><ele>502.00000000000006</ele><time>2026-04-06T10:51:23.852Z</time></trkpt><trkpt lat="45.111375" lon="7.2218864"><ele>502.0</ele><time>2026-04-06T10:51:25.853Z</time></trkpt><trkpt lat="45.1113608" lon="7.2217478"><ele>502.00000000000006</ele><time>2026-04-06T10:51:27.851Z</time></trkpt><trkpt lat="45.1113399" lon="7.2216014"><ele>502.0</ele><time>2026-04-06T10:51:29.852Z</time></trkpt><trkpt lat="45.1112947" lon="7.221532"><ele>502.0</ele><time>2026-04-06T10:51:30.852Z</time></trkpt><trkpt lat="45.1112467" lon="7.2214575"><ele>502.0</ele><time>2026-04-06T10:51:31.852Z</time></trkpt><trkpt lat="45.1112015" lon="7.2213824"><ele>502.00000000000006</ele><time>2026-04-06T10:51:32.852Z</time></trkpt><trkpt lat="45.1111609" lon="7.2213071"><ele>502.0</ele><time>2026-04-06T10:51:33.852Z</time></trkpt><trkpt lat="45.1110906" lon="7.2211814"><ele>504.8</ele><time>2026-04-06T10:51:35.852Z</time></trkpt><trkpt lat="45.1110606" lon="7.2210351"><ele>507.6</ele><time>2026-04-06T10:51:37.851Z</time></trkpt><trkpt lat="45.1110481" lon="7.2208619"><ele>510.40000000000003</ele><time>2026-04-06T10:51:39.851Z</time></trkpt><trkpt lat="45.1110139" lon="7.220704"><ele>513.2</ele><time>2026-04-06T10:51:41.851Z</time></trkpt><trkpt lat="45.1109702" lon="7.220631"><ele>516.0</ele><time>2026-04-06T10:51:42.852Z</time></trkpt><trkpt lat="45.1109327" lon="7.2205565"><ele>519.7142857142857</ele><time>2026-04-06T10:51:43.852Z</time></trkpt><trkpt lat="45.1109105" lon="7.2204678"><ele>523.4285714285714</ele><time>2026-04-06T10:51:44.852Z</time></trkpt><trkpt lat="45.1108937" lon="7.2203646"><ele>527.1428571428571</ele><time>2026-04-06T10:51:45.852Z</time></trkpt><trkpt lat="45.1108788" lon="7.2202607"><ele>530.8571428571429</ele><time>2026-04-06T10:51:46.852Z</time></trkpt><trkpt lat="45.1108706" lon="7.2201584"><ele>534.5714285714286</ele><time>2026-04-06T10:51:47.852Z</time></trkpt><trkpt lat="45.1108588" lon="7.2200483"><ele>538.2857142857142</ele><time>2026-04-06T10:51:48.852Z</time></trkpt><trkpt lat="45.1108508" lon="7.2199397"><ele>542.0</ele><time>2026-04-06T10:51:49.852Z</time></trkpt><trkpt lat="45.1108463" lon="7.2198427"><ele>544.8000000000001</ele><time>2026-04-06T10:51:50.852Z</time></trkpt><trkpt lat="45.1108392" lon="7.219753"><ele>547.6</ele><time>2026-04-06T10:51:51.852Z</time></trkpt><trkpt lat="45.1108447" lon="7.2196114"><ele>550.4000000000001</ele><time>2026-04-06T10:51:53.851Z</time></trkpt><trkpt lat="45.1109037" lon="7.2195313"><ele>553.2</ele><time>2026-04-06T10:51:55.852Z</time></trkpt><trkpt lat="45.1109312" lon="7.2194016"><ele>556.0</ele><time>2026-04-06T10:51:57.852Z</time></trkpt><trkpt lat="45.1109159" lon="7.2192357"><ele>556.0</ele><time>2026-04-06T10:51:59.851Z</time></trkpt><trkpt lat="45.1109077" lon="7.2191292"><ele>556.0</ele><time>2026-04-06T10:52:00.851Z</time></trkpt><trkpt lat="45.1108909" lon="7.2190139"><ele>556.0</ele><time>2026-04-06T10:52:01.852Z</time></trkpt><trkpt lat="45.1108775" lon="7.2188953"><ele>556.0</ele><time>2026-04-06T10:52:02.853Z</time></trkpt><trkpt lat="45.1108712" lon="7.2187949"><ele>556.0</ele><time>2026-04-06T10:52:03.851Z</time></trkpt><trkpt lat="45.1108635" lon="7.2186263"><ele>556.0</ele><time>2026-04-06T10:52:05.852Z</time></trkpt><trkpt lat="45.1108592" lon="7.2184864"><ele>555.8</ele><time>2026-04-06T10:52:07.851Z</time></trkpt><trkpt lat="45.110911" lon="7.2183151"><ele>555.6</ele><time>2026-04-06T10:52:09.852Z</time></trkpt><trkpt lat="45.1109392" lon="7.2182322"><ele>555.4</ele><time>2026-04-06T10:52:10.852Z</time></trkpt><trkpt lat="45.1109727" lon="7.2181479"><ele>555.2</ele><time>2026-04-06T10:52:11.853Z</time></trkpt><trkpt lat="45.1110478" lon="7.2179783"><ele>555.0</ele><time>2026-04-06T10:52:13.851Z</time></trkpt><trkpt lat="45.1110901" lon="7.217883"><ele>554.2857142857143</ele><time>2026-04-06T10:52:14.852Z</time></trkpt><trkpt lat="45.1111327" lon="7.2177939"><ele>553.5714285714286</ele><time>2026-04-06T10:52:15.852Z</time></trkpt><trkpt lat="45.1111608" lon="7.2177053"><ele>552.8571428571429</ele><time>2026-04-06T10:52:16.852Z</time></trkpt><trkpt lat="45.1111838" lon="7.2175931"><ele>552.1428571428571</ele><time>2026-04-06T10:52:17.851Z</time></trkpt><trkpt lat="45.1111975" lon="7.2175037"><ele>551.4285714285714</ele><time>2026-04-06T10:52:18.851Z</time></trkpt><trkpt lat="45.1112186" lon="7.217392"><ele>550.7142857142858</ele><time>2026-04-06T10:52:19.851Z</time></trkpt><trkpt lat="45.1112323" lon="7.2173011"><ele>550.0</ele><time>2026-04-06T10:52:20.851Z</time></trkpt><trkpt lat="45.1112463" lon="7.2171966"><ele>550.0</ele><time>2026-04-06T10:52:21.852Z</time></trkpt><trkpt lat="45.111272" lon="7.2170466"><ele>550.0</ele><time>2026-04-06T10:52:23.851Z</time></trkpt><trkpt lat="45.111279" lon="7.2168832"><ele>550.0</ele><time>2026-04-06T10:52:25.852Z</time></trkpt><trkpt lat="45.1112762" lon="7.216794"><ele>550.0</ele><time>2026-04-06T10:52:26.851Z</time></trkpt><trkpt lat="45.1112655" lon="7.2166577"><ele>550.0</ele><time>2026-04-06T10:52:28.851Z</time></trkpt><trkpt lat="45.1112774" lon="7.2165522"><ele>550.0</ele><time>2026-04-06T10:52:30.853Z</time></trkpt><trkpt lat="45.1113577" lon="7.2165435"><ele>550.0</ele><time>2026-04-06T10:52:33.853Z</time></trkpt><trkpt lat="45.1113801" lon="7.216677"><ele>550.0</ele><time>2026-04-06T10:52:35.852Z</time></trkpt><trkpt lat="45.1113914" lon="7.2167749"><ele>550.0</ele><time>2026-04-06T10:52:36.851Z</time></trkpt><trkpt lat="45.1114076" lon="7.2168624"><ele>550.0</ele><time>2026-04-06T10:52:37.851Z</time></trkpt><trkpt lat="45.1114539" lon="7.2169895"><ele>550.0</ele><time>2026-04-06T10:52:39.853Z</time></trkpt><trkpt lat="45.1115516" lon="7.2170029"><ele>556.6666666666667</ele><time>2026-04-06T10:52:41.852Z</time></trkpt><trkpt lat="45.1116577" lon="7.2169059"><ele>563.3333333333334</ele><time>2026-04-06T10:52:43.851Z</time></trkpt><trkpt lat="45.1117141" lon="7.21684"><ele>570.0</ele><time>2026-04-06T10:52:44.852Z</time></trkpt><trkpt lat="45.1117764" lon="7.2167742"><ele>576.6666666666666</ele><time>2026-04-06T10:52:45.852Z</time></trkpt><trkpt lat="45.1118408" lon="7.2167083"><ele>583.3333333333333</ele><time>2026-04-06T10:52:46.852Z</time></trkpt><trkpt lat="45.111898" lon="7.2166549"><ele>590.0</ele><time>2026-04-06T10:52:47.851Z</time></trkpt><trkpt lat="45.1119499" lon="7.2165907"><ele>590.0</ele><time>2026-04-06T10:52:48.85Z</time></trkpt><trkpt lat="45.1120056" lon="7.2165225"><ele>590.0</ele><time>2026-04-06T10:52:49.85Z</time></trkpt><trkpt lat="45.1120546" lon="7.2164497"><ele>590.0</ele><time>2026-04-06T10:52:50.85Z</time></trkpt><trkpt lat="45.1121003" lon="7.2163755"><ele>590.0</ele><time>2026-04-06T10:52:51.85Z</time></trkpt><trkpt lat="45.1121459" lon="7.2163023"><ele>590.0</ele><time>2026-04-06T10:52:52.85Z</time></trkpt><trkpt lat="45.112191" lon="7.2162223"><ele>590.0</ele><time>2026-04-06T10:52:53.851Z</time></trkpt><trkpt lat="45.1122318" lon="7.2160969"><ele>588.8333333333333</ele><time>2026-04-06T10:52:55.851Z</time></trkpt><trkpt lat="45.1122566" lon="7.2160074"><ele>587.6666666666666</ele><time>2026-04-06T10:52:57.85Z</time></trkpt><trkpt lat="45.1123024" lon="7.215938"><ele>586.5</ele><time>2026-04-06T10:52:59.85Z</time></trkpt><trkpt lat="45.1123728" lon="7.215859"><ele>585.3333333333334</ele><time>2026-04-06T10:53:01.852Z</time></trkpt><trkpt lat="45.1124437" lon="7.2157634"><ele>584.1666666666667</ele><time>2026-04-06T10:53:03.851Z</time></trkpt><trkpt lat="45.112517" lon="7.2156431"><ele>583.0</ele><time>2026-04-06T10:53:05.851Z</time></trkpt><trkpt lat="45.1125652" lon="7.2155095"><ele>587.8</ele><time>2026-04-06T10:53:07.85Z</time></trkpt><trkpt lat="45.1126222" lon="7.215358"><ele>592.5999999999999</ele><time>2026-04-06T10:53:09.851Z</time></trkpt><trkpt lat="45.1126503" lon="7.2152746"><ele>597.4000000000001</ele><time>2026-04-06T10:53:10.85Z</time></trkpt><trkpt lat="45.1127009" lon="7.2151148"><ele>602.2</ele><time>2026-04-06T10:53:12.851Z</time></trkpt><trkpt lat="45.1127479" lon="7.2149544"><ele>607.0</ele><time>2026-04-06T10:53:14.852Z</time></trkpt><trkpt lat="45.1127938" lon="7.2148097"><ele>607.3333333333334</ele><time>2026-04-06T10:53:16.852Z</time></trkpt><trkpt lat="45.1128448" lon="7.2146862"><ele>607.6666666666667</ele><time>2026-04-06T10:53:18.85Z</time></trkpt><trkpt lat="45.1128756" lon="7.2145297"><ele>608.0</ele><time>2026-04-06T10:53:20.851Z</time></trkpt><trkpt lat="45.1128841" lon="7.2144413"><ele>608.3333333333334</ele><time>2026-04-06T10:53:21.85Z</time></trkpt><trkpt lat="45.1128881" lon="7.2143482"><ele>608.6666666666666</ele><time>2026-04-06T10:53:22.85Z</time></trkpt><trkpt lat="45.1128871" lon="7.2142428"><ele>609.0</ele><time>2026-04-06T10:53:23.852Z</time></trkpt><trkpt lat="45.1128832" lon="7.2141392"><ele>609.0</ele><time>2026-04-06T10:53:24.852Z</time></trkpt><trkpt lat="45.1128733" lon="7.2140429"><ele>609.0</ele><time>2026-04-06T10:53:25.851Z</time></trkpt><trkpt lat="45.1128544" lon="7.2139481"><ele>609.0</ele><time>2026-04-06T10:53:26.85Z</time></trkpt><trkpt lat="45.1128423" lon="7.2138584"><ele>609.0</ele><time>2026-04-06T10:53:27.85Z</time></trkpt><trkpt lat="45.1128119" lon="7.2136811"><ele>609.0</ele><time>2026-04-06T10:53:29.85Z</time></trkpt><trkpt lat="45.1127857" lon="7.213594"><ele>609.0</ele><time>2026-04-06T10:53:30.85Z</time></trkpt><trkpt lat="45.1127547" lon="7.2135065"><ele>610.5</ele><time>2026-04-06T10:53:31.85Z</time></trkpt><trkpt lat="45.112724" lon="7.2134129"><ele>612.0</ele><time>2026-04-06T10:53:32.85Z</time></trkpt><trkpt lat="45.1126914" lon="7.2133201"><ele>613.5</ele><time>2026-04-06T10:53:33.85Z</time></trkpt><trkpt lat="45.1126619" lon="7.2132337"><ele>615.0</ele><time>2026-04-06T10:53:34.85Z</time></trkpt><trkpt lat="45.1126364" lon="7.2131419"><ele>616.5</ele><time>2026-04-06T10:53:35.851Z</time></trkpt><trkpt lat="45.1126115" lon="7.2129895"><ele>618.0</ele><time>2026-04-06T10:53:37.85Z</time></trkpt><trkpt lat="45.1125859" lon="7.2128894"><ele>616.6666666666666</ele><time>2026-04-06T10:53:39.852Z</time></trkpt><trkpt lat="45.1125342" lon="7.2128096"><ele>615.3333333333334</ele><time>2026-04-06T10:53:41.851Z</time></trkpt><trkpt lat="45.1124695" lon="7.212759"><ele>614.0</ele><time>2026-04-06T10:53:43.851Z</time></trkpt><trkpt lat="45.1123866" lon="7.2127265"><ele>612.6666666666667</ele><time>2026-04-06T10:53:45.85Z</time></trkpt><trkpt lat="45.1122942" lon="7.2127009"><ele>611.3333333333334</ele><time>2026-04-06T10:53:47.85Z</time></trkpt><trkpt lat="45.1122326" lon="7.2126761"><ele>610.0</ele><time>2026-04-06T10:53:49.851Z</time></trkpt><trkpt lat="45.1121753" lon="7.212605"><ele>610.0</ele><time>2026-04-06T10:53:52.851Z</time></trkpt><trkpt lat="45.112182" lon="7.2126166"><ele>610.0</ele><time>2026-04-06T11:02:26.849Z</time></trkpt><trkpt lat="45.1122508" lon="7.2126634"><ele>610.0</ele><time>2026-04-06T11:02:28.849Z</time></trkpt><trkpt lat="45.1123257" lon="7.2127074"><ele>610.0</ele><time>2026-04-06T11:02:30.849Z</time></trkpt><trkpt lat="45.1124048" lon="7.2127365"><ele>610.0</ele><time>2026-04-06T11:02:32.848Z</time></trkpt><trkpt lat="45.1124816" lon="7.2127757"><ele>610.0</ele><time>2026-04-06T11:02:34.849Z</time></trkpt><trkpt lat="45.1125485" lon="7.2128432"><ele>610.0</ele><time>2026-04-06T11:02:36.849Z</time></trkpt><trkpt lat="45.1125771" lon="7.2129689"><ele>611.6</ele><time>2026-04-06T11:02:38.849Z</time></trkpt><trkpt lat="45.1126034" lon="7.2131165"><ele>613.2</ele><time>2026-04-06T11:02:40.848Z</time></trkpt><trkpt lat="45.1126422" lon="7.213258"><ele>614.8</ele><time>2026-04-06T11:02:42.849Z</time></trkpt><trkpt lat="45.1126929" lon="7.2133968"><ele>616.4</ele><time>2026-04-06T11:02:44.849Z</time></trkpt><trkpt lat="45.1127457" lon="7.213519"><ele>618.0</ele><time>2026-04-06T11:02:46.849Z</time></trkpt><trkpt lat="45.1127926" lon="7.2136629"><ele>618.0</ele><time>2026-04-06T11:02:48.848Z</time></trkpt><trkpt lat="45.11282" lon="7.2138222"><ele>618.0</ele><time>2026-04-06T11:02:50.848Z</time></trkpt><trkpt lat="45.1128359" lon="7.2139217"><ele>618.0</ele><time>2026-04-06T11:02:51.848Z</time></trkpt><trkpt lat="45.1128559" lon="7.2140141"><ele>618.0</ele><time>2026-04-06T11:02:52.849Z</time></trkpt><trkpt lat="45.112866" lon="7.2141139"><ele>618.0</ele><time>2026-04-06T11:02:53.849Z</time></trkpt><trkpt lat="45.1128718" lon="7.2142207"><ele>618.0</ele><time>2026-04-06T11:02:54.849Z</time></trkpt><trkpt lat="45.1128722" lon="7.2143198"><ele>616.1999999999999</ele><time>2026-04-06T11:02:55.848Z</time></trkpt><trkpt lat="45.1128698" lon="7.2144164"><ele>614.4</ele><time>2026-04-06T11:02:56.849Z</time></trkpt><trkpt lat="45.1128644" lon="7.2145078"><ele>612.5999999999999</ele><time>2026-04-06T11:02:57.849Z</time></trkpt><trkpt lat="45.1128524" lon="7.2146827"><ele>610.8</ele><time>2026-04-06T11:02:59.848Z</time></trkpt><trkpt lat="45.1128255" lon="7.2148286"><ele>609.0</ele><time>2026-04-06T11:03:01.848Z</time></trkpt><trkpt lat="45.1128136" lon="7.2149545"><ele>608.6</ele><time>2026-04-06T11:03:03.848Z</time></trkpt><trkpt lat="45.1127945" lon="7.2150926"><ele>608.2</ele><time>2026-04-06T11:03:05.849Z</time></trkpt><trkpt lat="45.11277" lon="7.2152187"><ele>607.8000000000001</ele><time>2026-04-06T11:03:07.848Z</time></trkpt><trkpt lat="45.1127511" lon="7.2153371"><ele>607.4</ele><time>2026-04-06T11:03:09.849Z</time></trkpt><trkpt lat="45.112735" lon="7.2154763"><ele>607.0</ele><time>2026-04-06T11:03:11.848Z</time></trkpt><trkpt lat="45.1127021" lon="7.2156523"><ele>607.6666666666667</ele><time>2026-04-06T11:03:13.849Z</time></trkpt><trkpt lat="45.1126782" lon="7.2157476"><ele>608.3333333333334</ele><time>2026-04-06T11:03:14.849Z</time></trkpt><trkpt lat="45.1126421" lon="7.2158427"><ele>609.0</ele><time>2026-04-06T11:03:15.849Z</time></trkpt><trkpt lat="45.1126088" lon="7.2159417"><ele>609.6666666666666</ele><time>2026-04-06T11:03:16.849Z</time></trkpt><trkpt lat="45.1125697" lon="7.2160312"><ele>610.3333333333333</ele><time>2026-04-06T11:03:17.849Z</time></trkpt><trkpt lat="45.1125368" lon="7.2161207"><ele>611.0</ele><time>2026-04-06T11:03:18.848Z</time></trkpt><trkpt lat="45.1124658" lon="7.2162685"><ele>611.0</ele><time>2026-04-06T11:03:20.849Z</time></trkpt><trkpt lat="45.112432" lon="7.2163579"><ele>611.0</ele><time>2026-04-06T11:03:21.849Z</time></trkpt><trkpt lat="45.1123958" lon="7.2164372"><ele>611.0</ele><time>2026-04-06T11:03:22.849Z</time></trkpt><trkpt lat="45.1123567" lon="7.2165893"><ele>611.0</ele><time>2026-04-06T11:03:24.849Z</time></trkpt><trkpt lat="45.112352" lon="7.2166844"><ele>611.0</ele><time>2026-04-06T11:03:25.849Z</time></trkpt><trkpt lat="45.1123394" lon="7.2167839"><ele>611.0</ele><time>2026-04-06T11:03:26.848Z</time></trkpt><trkpt lat="45.1123118" lon="7.2168855"><ele>608.6666666666666</ele><time>2026-04-06T11:03:27.848Z</time></trkpt><trkpt lat="45.1122747" lon="7.2169903"><ele>606.3333333333333</ele><time>2026-04-06T11:03:28.848Z</time></trkpt><trkpt lat="45.1122331" lon="7.217089"><ele>604.0</ele><time>2026-04-06T11:03:29.849Z</time></trkpt><trkpt lat="45.1121971" lon="7.2171903"><ele>601.6666666666666</ele><time>2026-04-06T11:03:30.849Z</time></trkpt><trkpt lat="45.1121662" lon="7.2172778"><ele>599.3333333333334</ele><time>2026-04-06T11:03:31.849Z</time></trkpt><trkpt lat="45.1121187" lon="7.2173615"><ele>597.0</ele><time>2026-04-06T11:03:32.849Z</time></trkpt><trkpt lat="45.1120723" lon="7.2174329"><ele>597.0</ele><time>2026-04-06T11:03:33.849Z</time></trkpt><trkpt lat="45.1119946" lon="7.217574"><ele>597.0</ele><time>2026-04-06T11:03:35.848Z</time></trkpt><trkpt lat="45.1119327" lon="7.2177143"><ele>597.0</ele><time>2026-04-06T11:03:37.849Z</time></trkpt><trkpt lat="45.1119081" lon="7.2177966"><ele>597.0</ele><time>2026-04-06T11:03:38.849Z</time></trkpt><trkpt lat="45.1118929" lon="7.2178912"><ele>597.0</ele><time>2026-04-06T11:03:39.849Z</time></trkpt><trkpt lat="45.1118823" lon="7.217999"><ele>597.0</ele><time>2026-04-06T11:03:40.849Z</time></trkpt><trkpt lat="45.1118742" lon="7.2181006"><ele>597.0</ele><time>2026-04-06T11:03:41.848Z</time></trkpt><trkpt lat="45.1118615" lon="7.218193"><ele>597.0</ele><time>2026-04-06T11:03:42.849Z</time></trkpt><trkpt lat="45.1118294" lon="7.2183558"><ele>597.0</ele><time>2026-04-06T11:03:44.849Z</time></trkpt><trkpt lat="45.111794" lon="7.2185029"><ele>597.0</ele><time>2026-04-06T11:03:46.85Z</time></trkpt><trkpt lat="45.1117351" lon="7.2185987"><ele>598.1666666666666</ele><time>2026-04-06T11:03:48.848Z</time></trkpt><trkpt lat="45.1116887" lon="7.2186915"><ele>599.3333333333334</ele><time>2026-04-06T11:03:50.848Z</time></trkpt><trkpt lat="45.1116964" lon="7.2187952"><ele>600.5</ele><time>2026-04-06T11:03:52.847Z</time></trkpt><trkpt lat="45.1117552" lon="7.2188486"><ele>601.6666666666667</ele><time>2026-04-06T11:03:54.848Z</time></trkpt><trkpt lat="45.1118493" lon="7.2188133"><ele>602.8333333333334</ele><time>2026-04-06T11:03:56.848Z</time></trkpt><trkpt lat="45.1119183" lon="7.2187774"><ele>604.0</ele><time>2026-04-06T11:03:57.847Z</time></trkpt><trkpt lat="45.1119817" lon="7.2187574"><ele>604.0</ele><time>2026-04-06T11:03:58.847Z</time></trkpt><trkpt lat="45.1120933" lon="7.2187062"><ele>604.0</ele><time>2026-04-06T11:04:00.849Z</time></trkpt><trkpt lat="45.112147" lon="7.2186515"><ele>604.0</ele><time>2026-04-06T11:04:01.848Z</time></trkpt><trkpt lat="45.1122204" lon="7.218515"><ele>604.0</ele><time>2026-04-06T11:04:03.848Z</time></trkpt><trkpt lat="45.1122934" lon="7.2184148"><ele>604.0</ele><time>2026-04-06T11:04:05.848Z</time></trkpt><trkpt lat="45.1123871" lon="7.218374"><ele>603.8333333333334</ele><time>2026-04-06T11:04:07.848Z</time></trkpt><trkpt lat="45.1124861" lon="7.2184425"><ele>603.6666666666667</ele><time>2026-04-06T11:04:09.848Z</time></trkpt><trkpt lat="45.1125487" lon="7.2185048"><ele>603.5</ele><time>2026-04-06T11:04:10.847Z</time></trkpt><trkpt lat="45.1126154" lon="7.2185658"><ele>603.3333333333334</ele><time>2026-04-06T11:04:11.849Z</time></trkpt><trkpt lat="45.1126826" lon="7.2186146"><ele>603.1666666666666</ele><time>2026-04-06T11:04:12.848Z</time></trkpt><trkpt lat="45.1127545" lon="7.2186583"><ele>603.0</ele><time>2026-04-06T11:04:13.847Z</time></trkpt><trkpt lat="45.1128287" lon="7.2186978"><ele>603.0</ele><time>2026-04-06T11:04:14.847Z</time></trkpt><trkpt lat="45.1129044" lon="7.2187379"><ele>603.0</ele><time>2026-04-06T11:04:15.847Z</time></trkpt><trkpt lat="45.1129804" lon="7.218775"><ele>603.0</ele><time>2026-04-06T11:04:16.848Z</time></trkpt><trkpt lat="45.1130533" lon="7.2188137"><ele>603.0</ele><time>2026-04-06T11:04:17.847Z</time></trkpt><trkpt lat="45.1131187" lon="7.2188442"><ele>603.0</ele><time>2026-04-06T11:04:18.847Z</time></trkpt><trkpt lat="45.1131847" lon="7.2188694"><ele>603.0</ele><time>2026-04-06T11:04:19.847Z</time></trkpt><trkpt lat="45.1133008" lon="7.2189179"><ele>602.3333333333334</ele><time>2026-04-06T11:04:21.847Z</time></trkpt><trkpt lat="45.113409" lon="7.2189184"><ele>601.6666666666666</ele><time>2026-04-06T11:04:23.847Z</time></trkpt><trkpt lat="45.1134886" lon="7.2188411"><ele>601.0</ele><time>2026-04-06T11:04:25.849Z</time></trkpt><trkpt lat="45.1135264" lon="7.2187596"><ele>600.3333333333333</ele><time>2026-04-06T11:04:26.847Z</time></trkpt><trkpt lat="45.1135569" lon="7.2186623"><ele>599.6666666666666</ele><time>2026-04-06T11:04:27.848Z</time></trkpt><trkpt lat="45.1135916" lon="7.2185497"><ele>599.0</ele><time>2026-04-06T11:04:28.847Z</time></trkpt><trkpt lat="45.1136288" lon="7.2184338"><ele>599.0</ele><time>2026-04-06T11:04:29.847Z</time></trkpt><trkpt lat="45.1136719" lon="7.2183157"><ele>599.0</ele><time>2026-04-06T11:04:30.848Z</time></trkpt><trkpt lat="45.1137105" lon="7.2182057"><ele>599.0</ele><time>2026-04-06T11:04:31.848Z</time></trkpt><trkpt lat="45.1137455" lon="7.2180909"><ele>599.0</ele><time>2026-04-06T11:04:32.847Z</time></trkpt><trkpt lat="45.1137879" lon="7.2179628"><ele>599.0</ele><time>2026-04-06T11:04:33.848Z</time></trkpt><trkpt lat="45.1138283" lon="7.217843"><ele>600.6</ele><time>2026-04-06T11:04:34.847Z</time></trkpt><trkpt lat="45.11387" lon="7.2177164"><ele>602.2</ele><time>2026-04-06T11:04:35.848Z</time></trkpt><trkpt lat="45.1139185" lon="7.2175918"><ele>603.8000000000001</ele><time>2026-04-06T11:04:36.848Z</time></trkpt><trkpt lat="45.1139565" lon="7.2174698"><ele>605.4</ele><time>2026-04-06T11:04:37.847Z</time></trkpt><trkpt lat="45.1140033" lon="7.2173454"><ele>607.0</ele><time>2026-04-06T11:04:38.847Z</time></trkpt><trkpt lat="45.1140468" lon="7.2172149"><ele>605.4</ele><time>2026-04-06T11:04:39.848Z</time></trkpt><trkpt lat="45.1140867" lon="7.2170861"><ele>603.8000000000001</ele><time>2026-04-06T11:04:40.847Z</time></trkpt><trkpt lat="45.1141313" lon="7.2169556"><ele>602.2</ele><time>2026-04-06T11:04:41.847Z</time></trkpt><trkpt lat="45.1141697" lon="7.2168211"><ele>600.6</ele><time>2026-04-06T11:04:42.847Z</time></trkpt><trkpt lat="45.1142099" lon="7.2167009"><ele>599.0</ele><time>2026-04-06T11:04:43.848Z</time></trkpt><trkpt lat="45.1142379" lon="7.216586"><ele>600.6</ele><time>2026-04-06T11:04:44.847Z</time></trkpt><trkpt lat="45.1142691" lon="7.216467"><ele>602.2</ele><time>2026-04-06T11:04:45.847Z</time></trkpt><trkpt lat="45.1143009" lon="7.2163428"><ele>603.8000000000001</ele><time>2026-04-06T11:04:46.847Z</time></trkpt><trkpt lat="45.1143471" lon="7.2162221"><ele>605.4</ele><time>2026-04-06T11:04:47.847Z</time></trkpt><trkpt lat="45.1143896" lon="7.2161001"><ele>607.0</ele><time>2026-04-06T11:04:48.847Z</time></trkpt><trkpt lat="45.1144462" lon="7.2160135"><ele>607.0</ele><time>2026-04-06T11:04:49.847Z</time></trkpt><trkpt lat="45.1144886" lon="7.2158935"><ele>607.0</ele><time>2026-04-06T11:04:50.848Z</time></trkpt><trkpt lat="45.114536" lon="7.2157764"><ele>607.0</ele><time>2026-04-06T11:04:51.848Z</time></trkpt><trkpt lat="45.1145856" lon="7.215634"><ele>607.0</ele><time>2026-04-06T11:04:52.848Z</time></trkpt><trkpt lat="45.1146374" lon="7.2155107"><ele>607.0</ele><time>2026-04-06T11:04:53.848Z</time></trkpt><trkpt lat="45.1146945" lon="7.2153911"><ele>607.8333333333334</ele><time>2026-04-06T11:04:54.847Z</time></trkpt><trkpt lat="45.1147624" lon="7.2152975"><ele>608.6666666666667</ele><time>2026-04-06T11:04:55.847Z</time></trkpt><trkpt lat="45.1148238" lon="7.2152059"><ele>609.5</ele><time>2026-04-06T11:04:56.848Z</time></trkpt><trkpt lat="45.114879" lon="7.2151139"><ele>610.3333333333334</ele><time>2026-04-06T11:04:57.848Z</time></trkpt><trkpt lat="45.1149231" lon="7.2150167"><ele>611.1666666666666</ele><time>2026-04-06T11:04:58.848Z</time></trkpt><trkpt lat="45.1149498" lon="7.2149167"><ele>612.0</ele><time>2026-04-06T11:04:59.848Z</time></trkpt><trkpt lat="45.1150022" lon="7.2147715"><ele>608.5</ele><time>2026-04-06T11:05:01.847Z</time></trkpt><trkpt lat="45.1150312" lon="7.2146793"><ele>605.0</ele><time>2026-04-06T11:05:04.847Z</time></trkpt><trkpt lat="45.1150219" lon="7.2145472"><ele>601.5</ele><time>2026-04-06T11:05:19.847Z</time></trkpt><trkpt lat="45.1150146" lon="7.2144567"><ele>598.0</ele><time>2026-04-06T11:05:20.848Z</time></trkpt><trkpt lat="45.1150101" lon="7.2143569"><ele>594.5</ele><time>2026-04-06T11:05:21.848Z</time></trkpt><trkpt lat="45.1150089" lon="7.2142501"><ele>591.0</ele><time>2026-04-06T11:05:22.848Z</time></trkpt><trkpt lat="45.1150272" lon="7.2141358"><ele>591.0</ele><time>2026-04-06T11:05:23.848Z</time></trkpt><trkpt lat="45.1150409" lon="7.2140134"><ele>591.0</ele><time>2026-04-06T11:05:24.848Z</time></trkpt><trkpt lat="45.1150544" lon="7.213882"><ele>591.0</ele><time>2026-04-06T11:05:25.848Z</time></trkpt><trkpt lat="45.1150777" lon="7.2137594"><ele>591.0</ele><time>2026-04-06T11:05:26.848Z</time></trkpt><trkpt lat="45.1151053" lon="7.2136415"><ele>591.0</ele><time>2026-04-06T11:05:27.848Z</time></trkpt><trkpt lat="45.115127" lon="7.2135176"><ele>591.0</ele><time>2026-04-06T11:05:28.847Z</time></trkpt><trkpt lat="45.1151521" lon="7.2134155"><ele>592.4</ele><time>2026-04-06T11:05:29.847Z</time></trkpt><trkpt lat="45.1151792" lon="7.2133035"><ele>593.8</ele><time>2026-04-06T11:05:30.847Z</time></trkpt><trkpt lat="45.1152152" lon="7.2131844"><ele>595.1999999999999</ele><time>2026-04-06T11:05:31.848Z</time></trkpt><trkpt lat="45.1152621" lon="7.2130398"><ele>596.6</ele><time>2026-04-06T11:05:32.848Z</time></trkpt><trkpt lat="45.1152936" lon="7.2129112"><ele>598.0</ele><time>2026-04-06T11:05:33.848Z</time></trkpt><trkpt lat="45.1153157" lon="7.2127949"><ele>599.6666666666667</ele><time>2026-04-06T11:05:34.848Z</time></trkpt><trkpt lat="45.1153285" lon="7.2126724"><ele>601.3333333333334</ele><time>2026-04-06T11:05:35.848Z</time></trkpt><trkpt lat="45.1153198" lon="7.2125584"><ele>603.0</ele><time>2026-04-06T11:05:36.847Z</time></trkpt><trkpt lat="45.115303" lon="7.2124376"><ele>604.6666666666666</ele><time>2026-04-06T11:05:37.848Z</time></trkpt><trkpt lat="45.1152848" lon="7.2123216"><ele>606.3333333333333</ele><time>2026-04-06T11:05:38.847Z</time></trkpt><trkpt lat="45.1152685" lon="7.2121913"><ele>608.0</ele><time>2026-04-06T11:05:39.847Z</time></trkpt><trkpt lat="45.1152589" lon="7.2120721"><ele>608.1999999999999</ele><time>2026-04-06T11:05:40.848Z</time></trkpt><trkpt lat="45.1152453" lon="7.2119463"><ele>608.4</ele><time>2026-04-06T11:05:41.848Z</time></trkpt><trkpt lat="45.115226" lon="7.2118212"><ele>608.5999999999999</ele><time>2026-04-06T11:05:42.847Z</time></trkpt><trkpt lat="45.11521" lon="7.2116923"><ele>608.8</ele><time>2026-04-06T11:05:43.848Z</time></trkpt><trkpt lat="45.115197" lon="7.2115647"><ele>609.0</ele><time>2026-04-06T11:05:44.848Z</time></trkpt><trkpt lat="45.115185" lon="7.2114289"><ele>609.1666666666666</ele><time>2026-04-06T11:05:45.848Z</time></trkpt><trkpt lat="45.1151799" lon="7.211295"><ele>609.3333333333334</ele><time>2026-04-06T11:05:46.848Z</time></trkpt><trkpt lat="45.1151843" lon="7.2111663"><ele>609.5</ele><time>2026-04-06T11:05:47.848Z</time></trkpt><trkpt lat="45.1151937" lon="7.2110437"><ele>609.6666666666667</ele><time>2026-04-06T11:05:48.847Z</time></trkpt><trkpt lat="45.1152045" lon="7.2109191"><ele>609.8333333333334</ele><time>2026-04-06T11:05:49.848Z</time></trkpt><trkpt lat="45.1152071" lon="7.2108145"><ele>610.0</ele><time>2026-04-06T11:05:50.848Z</time></trkpt><trkpt lat="45.1152039" lon="7.2107129"><ele>610.2857142857143</ele><time>2026-04-06T11:05:51.848Z</time></trkpt><trkpt lat="45.1151896" lon="7.2106187"><ele>610.5714285714286</ele><time>2026-04-06T11:05:52.848Z</time></trkpt><trkpt lat="45.1151523" lon="7.2105426"><ele>610.8571428571429</ele><time>2026-04-06T11:05:53.848Z</time></trkpt><trkpt lat="45.115104" lon="7.2104642"><ele>611.1428571428571</ele><time>2026-04-06T11:05:54.848Z</time></trkpt><trkpt lat="45.1150539" lon="7.2103812"><ele>611.4285714285714</ele><time>2026-04-06T11:05:55.849Z</time></trkpt><trkpt lat="45.1150146" lon="7.2102834"><ele>611.7142857142857</ele><time>2026-04-06T11:05:56.848Z</time></trkpt><trkpt lat="45.1149873" lon="7.2101746"><ele>612.0</ele><time>2026-04-06T11:05:57.848Z</time></trkpt><trkpt lat="45.1149644" lon="7.210058"><ele>612.0</ele><time>2026-04-06T11:05:58.847Z</time></trkpt><trkpt lat="45.114943" lon="7.2099538"><ele>612.0</ele><time>2026-04-06T11:05:59.847Z</time></trkpt><trkpt lat="45.1149319" lon="7.209844"><ele>612.0</ele><time>2026-04-06T11:06:00.847Z</time></trkpt><trkpt lat="45.1149357" lon="7.2097305"><ele>612.0</ele><time>2026-04-06T11:06:01.848Z</time></trkpt><trkpt lat="45.1149416" lon="7.2096043"><ele>612.0</ele><time>2026-04-06T11:06:02.848Z</time></trkpt><trkpt lat="45.1149558" lon="7.2094765"><ele>612.0</ele><time>2026-04-06T11:06:03.848Z</time></trkpt><trkpt lat="45.1149725" lon="7.2093463"><ele>612.0</ele><time>2026-04-06T11:06:04.847Z</time></trkpt><trkpt lat="45.1149928" lon="7.2092218"><ele>612.0</ele><time>2026-04-06T11:06:05.847Z</time></trkpt><trkpt lat="45.1150085" lon="7.2091074"><ele>612.0</ele><time>2026-04-06T11:06:06.848Z</time></trkpt><trkpt lat="45.115019" lon="7.2090014"><ele>612.0</ele><time>2026-04-06T11:06:07.847Z</time></trkpt><trkpt lat="45.1150288" lon="7.2088924"><ele>612.0</ele><time>2026-04-06T11:06:08.848Z</time></trkpt><trkpt lat="45.1150332" lon="7.2087845"><ele>612.0</ele><time>2026-04-06T11:06:09.847Z</time></trkpt><trkpt lat="45.1150344" lon="7.2086745"><ele>612.0</ele><time>2026-04-06T11:06:10.848Z</time></trkpt><trkpt lat="45.1150337" lon="7.2085655"><ele>612.0</ele><time>2026-04-06T11:06:11.849Z</time></trkpt><trkpt lat="45.1150347" lon="7.208452"><ele>612.0</ele><time>2026-04-06T11:06:12.848Z</time></trkpt><trkpt lat="45.1150467" lon="7.208355"><ele>612.0</ele><time>2026-04-06T11:06:13.848Z</time></trkpt><trkpt lat="45.1150526" lon="7.2082529"><ele>612.0</ele><time>2026-04-06T11:06:14.849Z</time></trkpt><trkpt lat="45.1150439" lon="7.2081613"><ele>612.0</ele><time>2026-04-06T11:06:15.848Z</time></trkpt><trkpt lat="45.1150137" lon="7.2080707"><ele>612.0</ele><time>2026-04-06T11:06:16.849Z</time></trkpt><trkpt lat="45.1149993" lon="7.2079801"><ele>612.5</ele><time>2026-04-06T11:06:17.848Z</time></trkpt><trkpt lat="45.1150018" lon="7.2078383"><ele>613.0</ele><time>2026-04-06T11:06:18.848Z</time></trkpt><trkpt lat="45.115046" lon="7.2077553"><ele>613.5</ele><time>2026-04-06T11:06:19.848Z</time></trkpt><trkpt lat="45.1150728" lon="7.2076366"><ele>614.0</ele><time>2026-04-06T11:06:20.847Z</time></trkpt><trkpt lat="45.1150948" lon="7.2075206"><ele>614.5</ele><time>2026-04-06T11:06:21.848Z</time></trkpt><trkpt lat="45.1151038" lon="7.2074"><ele>615.0</ele><time>2026-04-06T11:06:22.847Z</time></trkpt><trkpt lat="45.1151188" lon="7.2072858"><ele>616.0</ele><time>2026-04-06T11:06:23.848Z</time></trkpt><trkpt lat="45.1151519" lon="7.2071823"><ele>617.0</ele><time>2026-04-06T11:06:24.848Z</time></trkpt><trkpt lat="45.1151795" lon="7.2070688"><ele>618.0</ele><time>2026-04-06T11:06:25.849Z</time></trkpt><trkpt lat="45.1152074" lon="7.2069408"><ele>619.0</ele><time>2026-04-06T11:06:26.847Z</time></trkpt><trkpt lat="45.1152376" lon="7.2068349"><ele>620.0</ele><time>2026-04-06T11:06:27.847Z</time></trkpt><trkpt lat="45.1152743" lon="7.2067225"><ele>621.0</ele><time>2026-04-06T11:06:28.847Z</time></trkpt><trkpt lat="45.1152872" lon="7.2066219"><ele>621.0</ele><time>2026-04-06T11:06:29.848Z</time></trkpt><trkpt lat="45.1153303" lon="7.206532"><ele>621.0</ele><time>2026-04-06T11:06:30.848Z</time></trkpt><trkpt lat="45.1153681" lon="7.2064317"><ele>621.0</ele><time>2026-04-06T11:06:31.848Z</time></trkpt><trkpt lat="45.1153934" lon="7.2063483"><ele>621.0</ele><time>2026-04-06T11:06:32.848Z</time></trkpt><trkpt lat="45.1154023" lon="7.20624"><ele>621.0</ele><time>2026-04-06T11:06:33.849Z</time></trkpt><trkpt lat="45.1153962" lon="7.2061257"><ele>621.0</ele><time>2026-04-06T11:06:34.848Z</time></trkpt><trkpt lat="45.1154001" lon="7.2060086"><ele>621.2</ele><time>2026-04-06T11:06:35.848Z</time></trkpt><trkpt lat="45.1154014" lon="7.205892"><ele>621.4000000000001</ele><time>2026-04-06T11:06:36.847Z</time></trkpt><trkpt lat="45.1153936" lon="7.2057499"><ele>621.6</ele><time>2026-04-06T11:06:37.847Z</time></trkpt><trkpt lat="45.1153771" lon="7.2056033"><ele>621.8000000000001</ele><time>2026-04-06T11:06:38.848Z</time></trkpt><trkpt lat="45.1153689" lon="7.2054955"><ele>622.0</ele><time>2026-04-06T11:06:39.847Z</time></trkpt><trkpt lat="45.1153754" lon="7.2053713"><ele>622.1666666666667</ele><time>2026-04-06T11:06:40.847Z</time></trkpt><trkpt lat="45.1153704" lon="7.2052613"><ele>622.3333333333334</ele><time>2026-04-06T11:06:41.849Z</time></trkpt><trkpt lat="45.1153618" lon="7.2051501"><ele>622.5</ele><time>2026-04-06T11:06:42.848Z</time></trkpt><trkpt lat="45.1153469" lon="7.2050292"><ele>622.6666666666666</ele><time>2026-04-06T11:06:43.848Z</time></trkpt><trkpt lat="45.1153521" lon="7.2049189"><ele>622.8333333333333</ele><time>2026-04-06T11:06:44.849Z</time></trkpt><trkpt lat="45.1153559" lon="7.2048167"><ele>623.0</ele><time>2026-04-06T11:06:45.848Z</time></trkpt><trkpt lat="45.1153932" lon="7.2047295"><ele>623.6666666666666</ele><time>2026-04-06T11:06:46.848Z</time></trkpt><trkpt lat="45.1154008" lon="7.2046218"><ele>624.3333333333333</ele><time>2026-04-06T11:06:47.847Z</time></trkpt><trkpt lat="45.1154156" lon="7.2045185"><ele>625.0</ele><time>2026-04-06T11:06:48.848Z</time></trkpt><trkpt lat="45.115418" lon="7.2044239"><ele>625.6666666666666</ele><time>2026-04-06T11:06:49.848Z</time></trkpt><trkpt lat="45.1154152" lon="7.2043097"><ele>626.3333333333334</ele><time>2026-04-06T11:06:50.847Z</time></trkpt><trkpt lat="45.1154053" lon="7.2041834"><ele>627.0</ele><time>2026-04-06T11:06:51.848Z</time></trkpt><trkpt lat="45.1153979" lon="7.2040494"><ele>627.1666666666666</ele><time>2026-04-06T11:06:52.847Z</time></trkpt><trkpt lat="45.1153917" lon="7.2039186"><ele>627.3333333333334</ele><time>2026-04-06T11:06:53.847Z</time></trkpt><trkpt lat="45.1153795" lon="7.2037882"><ele>627.5</ele><time>2026-04-06T11:06:54.847Z</time></trkpt><trkpt lat="45.1153732" lon="7.203669"><ele>627.6666666666667</ele><time>2026-04-06T11:06:55.848Z</time></trkpt><trkpt lat="45.1153705" lon="7.2035541"><ele>627.8333333333334</ele><time>2026-04-06T11:06:56.848Z</time></trkpt><trkpt lat="45.1153773" lon="7.2034624"><ele>628.0</ele><time>2026-04-06T11:06:57.848Z</time></trkpt><trkpt lat="45.1153726" lon="7.2033504"><ele>628.0</ele><time>2026-04-06T11:06:58.847Z</time></trkpt><trkpt lat="45.1153674" lon="7.203255"><ele>628.0</ele><time>2026-04-06T11:06:59.849Z</time></trkpt><trkpt lat="45.1153764" lon="7.2031536"><ele>628.0</ele><time>2026-04-06T11:07:00.848Z</time></trkpt><trkpt lat="45.1153951" lon="7.2030573"><ele>628.0</ele><time>2026-04-06T11:07:01.848Z</time></trkpt><trkpt lat="45.1154384" lon="7.2029889"><ele>628.0</ele><time>2026-04-06T11:07:02.848Z</time></trkpt><trkpt lat="45.1155035" lon="7.2028446"><ele>628.0</ele><time>2026-04-06T11:07:04.847Z</time></trkpt><trkpt lat="45.1155688" lon="7.2027732"><ele>628.5</ele><time>2026-04-06T11:07:05.847Z</time></trkpt><trkpt lat="45.1156381" lon="7.2026869"><ele>629.0</ele><time>2026-04-06T11:07:06.848Z</time></trkpt><trkpt lat="45.115701" lon="7.2026027"><ele>629.5</ele><time>2026-04-06T11:07:07.848Z</time></trkpt><trkpt lat="45.1157491" lon="7.2025152"><ele>630.0</ele><time>2026-04-06T11:07:08.847Z</time></trkpt><trkpt lat="45.1158021" lon="7.2024135"><ele>630.5</ele><time>2026-04-06T11:07:09.847Z</time></trkpt><trkpt lat="45.1158418" lon="7.2023267"><ele>631.0</ele><time>2026-04-06T11:07:10.848Z</time></trkpt><trkpt lat="45.1158922" lon="7.2022695"><ele>628.1666666666667</ele><time>2026-04-06T11:07:11.848Z</time></trkpt><trkpt lat="45.1159476" lon="7.2022132"><ele>625.3333333333334</ele><time>2026-04-06T11:07:12.848Z</time></trkpt><trkpt lat="45.1160064" lon="7.2021252"><ele>622.5</ele><time>2026-04-06T11:07:13.848Z</time></trkpt><trkpt lat="45.1160605" lon="7.2020504"><ele>619.6666666666666</ele><time>2026-04-06T11:07:14.849Z</time></trkpt><trkpt lat="45.1161145" lon="7.2019674"><ele>616.8333333333333</ele><time>2026-04-06T11:07:15.848Z</time></trkpt><trkpt lat="45.1161659" lon="7.2018792"><ele>614.0</ele><time>2026-04-06T11:07:16.847Z</time></trkpt><trkpt lat="45.1162112" lon="7.2017843"><ele>614.0</ele><time>2026-04-06T11:07:17.847Z</time></trkpt><trkpt lat="45.1162529" lon="7.201676"><ele>614.0</ele><time>2026-04-06T11:07:18.847Z</time></trkpt><trkpt lat="45.1162773" lon="7.2015601"><ele>614.0</ele><time>2026-04-06T11:07:19.847Z</time></trkpt><trkpt lat="45.1163016" lon="7.2014541"><ele>614.0</ele><time>2026-04-06T11:07:20.847Z</time></trkpt><trkpt lat="45.1163278" lon="7.2013488"><ele>614.0</ele><time>2026-04-06T11:07:21.847Z</time></trkpt><trkpt lat="45.1163625" lon="7.2012557"><ele>614.0</ele><time>2026-04-06T11:07:22.847Z</time></trkpt><trkpt lat="45.1164092" lon="7.2011531"><ele>611.8</ele><time>2026-04-06T11:07:23.848Z</time></trkpt><trkpt lat="45.1164632" lon="7.2010576"><ele>609.5999999999999</ele><time>2026-04-06T11:07:24.846Z</time></trkpt><trkpt lat="45.1165068" lon="7.2009666"><ele>607.4</ele><time>2026-04-06T11:07:25.847Z</time></trkpt><trkpt lat="45.1165471" lon="7.2008676"><ele>605.1999999999999</ele><time>2026-04-06T11:07:26.847Z</time></trkpt><trkpt lat="45.1165834" lon="7.2007225"><ele>603.0</ele><time>2026-04-06T11:07:28.848Z</time></trkpt><trkpt lat="45.1166288" lon="7.200596"><ele>603.0</ele><time>2026-04-06T11:07:30.847Z</time></trkpt><trkpt lat="45.1166894" lon="7.2004727"><ele>603.0</ele><time>2026-04-06T11:07:32.847Z</time></trkpt><trkpt lat="45.1167147" lon="7.200391"><ele>603.0</ele><time>2026-04-06T11:07:33.846Z</time></trkpt><trkpt lat="45.1167601" lon="7.2003277"><ele>603.0</ele><time>2026-04-06T11:07:34.846Z</time></trkpt><trkpt lat="45.1168094" lon="7.2002572"><ele>603.0</ele><time>2026-04-06T11:07:35.847Z</time></trkpt><trkpt lat="45.1168587" lon="7.2001593"><ele>603.0</ele><time>2026-04-06T11:07:36.847Z</time></trkpt><trkpt lat="45.1169048" lon="7.2000881"><ele>603.0</ele><time>2026-04-06T11:07:37.848Z</time></trkpt><trkpt lat="45.116931" lon="7.1999817"><ele>603.0</ele><time>2026-04-06T11:07:38.847Z</time></trkpt><trkpt lat="45.1169702" lon="7.1998805"><ele>603.0</ele><time>2026-04-06T11:07:39.847Z</time></trkpt><trkpt lat="45.1169896" lon="7.1997909"><ele>603.0</ele><time>2026-04-06T11:07:40.847Z</time></trkpt><trkpt lat="45.1170071" lon="7.1996922"><ele>603.0</ele><time>2026-04-06T11:07:41.847Z</time></trkpt><trkpt lat="45.1170184" lon="7.1995935"><ele>603.0</ele><time>2026-04-06T11:07:42.847Z</time></trkpt><trkpt lat="45.1170323" lon="7.1994913"><ele>603.0</ele><time>2026-04-06T11:07:43.847Z</time></trkpt><trkpt lat="45.1170458" lon="7.1993851"><ele>604.4</ele><time>2026-04-06T11:07:44.847Z</time></trkpt><trkpt lat="45.1170988" lon="7.1992326"><ele>605.8</ele><time>2026-04-06T11:07:46.846Z</time></trkpt><trkpt lat="45.1171378" lon="7.1991046"><ele>607.2</ele><time>2026-04-06T11:07:47.846Z</time></trkpt><trkpt lat="45.1171648" lon="7.199006"><ele>608.6</ele><time>2026-04-06T11:07:48.847Z</time></trkpt><trkpt lat="45.1172171" lon="7.1988843"><ele>610.0</ele><time>2026-04-06T11:07:49.848Z</time></trkpt><trkpt lat="45.117252" lon="7.1987745"><ele>611.0</ele><time>2026-04-06T11:07:50.847Z</time></trkpt><trkpt lat="45.1172843" lon="7.1986722"><ele>612.0</ele><time>2026-04-06T11:07:51.847Z</time></trkpt><trkpt lat="45.117322" lon="7.1985637"><ele>613.0</ele><time>2026-04-06T11:07:52.847Z</time></trkpt><trkpt lat="45.1173565" lon="7.1984561"><ele>614.0</ele><time>2026-04-06T11:07:53.847Z</time></trkpt><trkpt lat="45.1173894" lon="7.1983559"><ele>615.0</ele><time>2026-04-06T11:07:54.847Z</time></trkpt><trkpt lat="45.1174196" lon="7.1982637"><ele>616.0</ele><time>2026-04-06T11:07:55.846Z</time></trkpt><trkpt lat="45.1174354" lon="7.1981694"><ele>609.1666666666667</ele><time>2026-04-06T11:07:56.847Z</time></trkpt><trkpt lat="45.1174453" lon="7.1980743"><ele>602.3333333333334</ele><time>2026-04-06T11:07:57.847Z</time></trkpt><trkpt lat="45.117428" lon="7.1978995"><ele>595.5</ele><time>2026-04-06T11:07:59.847Z</time></trkpt><trkpt lat="45.1174326" lon="7.197803"><ele>588.6666666666666</ele><time>2026-04-06T11:08:00.846Z</time></trkpt><trkpt lat="45.1174474" lon="7.1977054"><ele>581.8333333333333</ele><time>2026-04-06T11:08:01.846Z</time></trkpt><trkpt lat="45.117472" lon="7.1976065"><ele>575.0</ele><time>2026-04-06T11:08:02.847Z</time></trkpt><trkpt lat="45.1175017" lon="7.1975173"><ele>575.0</ele><time>2026-04-06T11:08:03.847Z</time></trkpt><trkpt lat="45.1175469" lon="7.1974392"><ele>575.0</ele><time>2026-04-06T11:08:04.847Z</time></trkpt><trkpt lat="45.1175952" lon="7.197365"><ele>575.0</ele><time>2026-04-06T11:08:05.847Z</time></trkpt><trkpt lat="45.1176386" lon="7.1972791"><ele>575.0</ele><time>2026-04-06T11:08:06.846Z</time></trkpt><trkpt lat="45.1176734" lon="7.1971742"><ele>575.0</ele><time>2026-04-06T11:08:07.847Z</time></trkpt><trkpt lat="45.1177139" lon="7.1970611"><ele>575.0</ele><time>2026-04-06T11:08:08.846Z</time></trkpt><trkpt lat="45.1177527" lon="7.1969552"><ele>574.8333333333333</ele><time>2026-04-06T11:08:09.846Z</time></trkpt><trkpt lat="45.1177873" lon="7.1968519"><ele>574.6666666666666</ele><time>2026-04-06T11:08:10.846Z</time></trkpt><trkpt lat="45.1178232" lon="7.1967537"><ele>574.5</ele><time>2026-04-06T11:08:11.847Z</time></trkpt><trkpt lat="45.1178583" lon="7.1966563"><ele>574.3333333333334</ele><time>2026-04-06T11:08:12.847Z</time></trkpt><trkpt lat="45.1178798" lon="7.1965382"><ele>574.1666666666667</ele><time>2026-04-06T11:08:13.847Z</time></trkpt><trkpt lat="45.1178818" lon="7.19642"><ele>574.0</ele><time>2026-04-06T11:08:14.847Z</time></trkpt><trkpt lat="45.1178826" lon="7.1962984"><ele>574.5</ele><time>2026-04-06T11:08:15.847Z</time></trkpt><trkpt lat="45.1179007" lon="7.1961814"><ele>575.0</ele><time>2026-04-06T11:08:16.847Z</time></trkpt><trkpt lat="45.1179214" lon="7.1960672"><ele>575.5</ele><time>2026-04-06T11:08:17.847Z</time></trkpt><trkpt lat="45.1179444" lon="7.1959559"><ele>576.0</ele><time>2026-04-06T11:08:18.846Z</time></trkpt><trkpt lat="45.1179615" lon="7.1958401"><ele>576.5</ele><time>2026-04-06T11:08:19.847Z</time></trkpt><trkpt lat="45.117976" lon="7.1957261"><ele>577.0</ele><time>2026-04-06T11:08:20.846Z</time></trkpt><trkpt lat="45.1180002" lon="7.1956114"><ele>577.1666666666667</ele><time>2026-04-06T11:08:21.846Z</time></trkpt><trkpt lat="45.1180283" lon="7.1954939"><ele>577.3333333333334</ele><time>2026-04-06T11:08:22.846Z</time></trkpt><trkpt lat="45.1180609" lon="7.1953797"><ele>577.5</ele><time>2026-04-06T11:08:23.846Z</time></trkpt><trkpt lat="45.1180951" lon="7.1952707"><ele>577.6666666666666</ele><time>2026-04-06T11:08:24.847Z</time></trkpt><trkpt lat="45.118119" lon="7.195157"><ele>577.8333333333333</ele><time>2026-04-06T11:08:25.847Z</time></trkpt><trkpt lat="45.1181442" lon="7.19506"><ele>578.0</ele><time>2026-04-06T11:08:26.847Z</time></trkpt><trkpt lat="45.1181907" lon="7.1949192"><ele>570.6666666666666</ele><time>2026-04-06T11:08:28.846Z</time></trkpt><trkpt lat="45.118243" lon="7.1947827"><ele>563.3333333333333</ele><time>2026-04-06T11:08:30.847Z</time></trkpt><trkpt lat="45.1182641" lon="7.1946961"><ele>556.0</ele><time>2026-04-06T11:08:31.847Z</time></trkpt><trkpt lat="45.1182807" lon="7.1946064"><ele>548.6666666666666</ele><time>2026-04-06T11:08:32.846Z</time></trkpt><trkpt lat="45.1182983" lon="7.1945152"><ele>541.3333333333334</ele><time>2026-04-06T11:08:33.846Z</time></trkpt><trkpt lat="45.1183157" lon="7.1944257"><ele>534.0</ele><time>2026-04-06T11:08:34.846Z</time></trkpt><trkpt lat="45.1183639" lon="7.1943346"><ele>534.0</ele><time>2026-04-06T11:08:35.846Z</time></trkpt><trkpt lat="45.118397" lon="7.1942376"><ele>534.0</ele><time>2026-04-06T11:08:36.847Z</time></trkpt><trkpt lat="45.1184311" lon="7.1941351"><ele>534.0</ele><time>2026-04-06T11:08:37.847Z</time></trkpt><trkpt lat="45.118462" lon="7.194041"><ele>534.0</ele><time>2026-04-06T11:08:38.847Z</time></trkpt><trkpt lat="45.11849" lon="7.1939294"><ele>534.0</ele><time>2026-04-06T11:08:39.847Z</time></trkpt><trkpt lat="45.1185176" lon="7.1938269"><ele>534.0</ele><time>2026-04-06T11:08:40.847Z</time></trkpt><trkpt lat="45.1185464" lon="7.1937469"><ele>533.8333333333334</ele><time>2026-04-06T11:08:41.848Z</time></trkpt><trkpt lat="45.1185663" lon="7.1936487"><ele>533.6666666666666</ele><time>2026-04-06T11:08:42.848Z</time></trkpt><trkpt lat="45.1186101" lon="7.1935805"><ele>533.5</ele><time>2026-04-06T11:08:43.847Z</time></trkpt><trkpt lat="45.1186459" lon="7.1935014"><ele>533.3333333333333</ele><time>2026-04-06T11:08:44.847Z</time></trkpt><trkpt lat="45.118714" lon="7.1933812"><ele>533.1666666666666</ele><time>2026-04-06T11:08:46.846Z</time></trkpt><trkpt lat="45.1187602" lon="7.1932642"><ele>533.0</ele><time>2026-04-06T11:08:48.846Z</time></trkpt><trkpt lat="45.1187811" lon="7.1931077"><ele>532.8</ele><time>2026-04-06T11:08:50.848Z</time></trkpt><trkpt lat="45.1187896" lon="7.1929355"><ele>532.5999999999999</ele><time>2026-04-06T11:08:52.847Z</time></trkpt><trkpt lat="45.1187625" lon="7.1927553"><ele>532.4000000000001</ele><time>2026-04-06T11:08:54.848Z</time></trkpt><trkpt lat="45.1187263" lon="7.192658"><ele>532.2</ele><time>2026-04-06T11:08:55.847Z</time></trkpt><trkpt lat="45.1186856" lon="7.1925469"><ele>532.0</ele><time>2026-04-06T11:08:56.847Z</time></trkpt><trkpt lat="45.1186452" lon="7.1924322"><ele>531.2</ele><time>2026-04-06T11:08:57.848Z</time></trkpt><trkpt lat="45.1186116" lon="7.1923145"><ele>530.4000000000001</ele><time>2026-04-06T11:08:58.847Z</time></trkpt><trkpt lat="45.1185798" lon="7.192187"><ele>529.5999999999999</ele><time>2026-04-06T11:08:59.847Z</time></trkpt><trkpt lat="45.1185464" lon="7.192053"><ele>528.8</ele><time>2026-04-06T11:09:00.848Z</time></trkpt><trkpt lat="45.1185165" lon="7.1919158"><ele>528.0</ele><time>2026-04-06T11:09:01.847Z</time></trkpt><trkpt lat="45.1184987" lon="7.1917737"><ele>528.0</ele><time>2026-04-06T11:09:02.846Z</time></trkpt><trkpt lat="45.1184823" lon="7.1916295"><ele>528.0</ele><time>2026-04-06T11:09:03.846Z</time></trkpt><trkpt lat="45.118494" lon="7.1914977"><ele>528.0</ele><time>2026-04-06T11:09:04.847Z</time></trkpt><trkpt lat="45.1184875" lon="7.191355"><ele>528.0</ele><time>2026-04-06T11:09:05.847Z</time></trkpt><trkpt lat="45.1184761" lon="7.1912102"><ele>528.0</ele><time>2026-04-06T11:09:06.847Z</time></trkpt><trkpt lat="45.118467" lon="7.1910532"><ele>527.8333333333334</ele><time>2026-04-06T11:09:07.847Z</time></trkpt><trkpt lat="45.1184513" lon="7.1909264"><ele>527.6666666666666</ele><time>2026-04-06T11:09:08.847Z</time></trkpt><trkpt lat="45.1184403" lon="7.1907877"><ele>527.5</ele><time>2026-04-06T11:09:09.847Z</time></trkpt><trkpt lat="45.1184286" lon="7.1906505"><ele>527.3333333333333</ele><time>2026-04-06T11:09:10.847Z</time></trkpt><trkpt lat="45.1184238" lon="7.1905468"><ele>527.1666666666666</ele><time>2026-04-06T11:09:11.847Z</time></trkpt><trkpt lat="45.1184247" lon="7.1904522"><ele>527.0</ele><time>2026-04-06T11:09:12.846Z</time></trkpt><trkpt lat="45.1184096" lon="7.1903416"><ele>527.0</ele><time>2026-04-06T11:09:13.847Z</time></trkpt><trkpt lat="45.1184022" lon="7.1902322"><ele>527.0</ele><time>2026-04-06T11:09:14.848Z</time></trkpt><trkpt lat="45.1183652" lon="7.1901098"><ele>527.0</ele><time>2026-04-06T11:09:15.848Z</time></trkpt><trkpt lat="45.1183345" lon="7.1899941"><ele>527.0</ele><time>2026-04-06T11:09:16.847Z</time></trkpt><trkpt lat="45.1183227" lon="7.1898979"><ele>527.0</ele><time>2026-04-06T11:09:17.846Z</time></trkpt><trkpt lat="45.1182925" lon="7.189737"><ele>527.0</ele><time>2026-04-06T11:09:19.846Z</time></trkpt><trkpt lat="45.1182829" lon="7.189646"><ele>526.4</ele><time>2026-04-06T11:09:39.847Z</time></trkpt><trkpt lat="45.1183095" lon="7.189529"><ele>525.8000000000001</ele><time>2026-04-06T11:09:42.846Z</time></trkpt><trkpt lat="45.1183405" lon="7.1893314"><ele>525.2</ele><time>2026-04-06T11:09:44.847Z</time></trkpt><trkpt lat="45.1183559" lon="7.1891546"><ele>524.6</ele><time>2026-04-06T11:09:46.847Z</time></trkpt><trkpt lat="45.1183658" lon="7.1890638"><ele>524.0</ele><time>2026-04-06T11:09:47.847Z</time></trkpt><trkpt lat="45.1184037" lon="7.1889065"><ele>525.3333333333333</ele><time>2026-04-06T11:09:49.847Z</time></trkpt><trkpt lat="45.1184219" lon="7.1888135"><ele>526.6666666666666</ele><time>2026-04-06T11:09:50.846Z</time></trkpt><trkpt lat="45.118434" lon="7.1887229"><ele>528.0</ele><time>2026-04-06T11:09:51.847Z</time></trkpt><trkpt lat="45.1184478" lon="7.1886139"><ele>529.3333333333334</ele><time>2026-04-06T11:09:52.846Z</time></trkpt><trkpt lat="45.1184598" lon="7.1885039"><ele>530.6666666666667</ele><time>2026-04-06T11:09:53.846Z</time></trkpt><trkpt lat="45.1184804" lon="7.1884126"><ele>532.0</ele><time>2026-04-06T11:09:54.846Z</time></trkpt><trkpt lat="45.1185329" lon="7.1882848"><ele>535.25</ele><time>2026-04-06T11:09:56.847Z</time></trkpt><trkpt lat="45.1185912" lon="7.1881065"><ele>538.5</ele><time>2026-04-06T11:09:58.846Z</time></trkpt><trkpt lat="45.1186193" lon="7.1880059"><ele>541.75</ele><time>2026-04-06T11:09:59.847Z</time></trkpt><trkpt lat="45.1186763" lon="7.1878327"><ele>545.0</ele><time>2026-04-06T11:10:01.847Z</time></trkpt><trkpt lat="45.1187256" lon="7.1876789"><ele>545.0</ele><time>2026-04-06T11:10:03.847Z</time></trkpt><trkpt lat="45.1187707" lon="7.1876057"><ele>545.0</ele><time>2026-04-06T11:10:04.847Z</time></trkpt><trkpt lat="45.1188494" lon="7.1874995"><ele>545.0</ele><time>2026-04-06T11:10:06.847Z</time></trkpt><trkpt lat="45.1189145" lon="7.1874055"><ele>545.0</ele><time>2026-04-06T11:10:08.846Z</time></trkpt><trkpt lat="45.1189996" lon="7.1872769"><ele>545.0</ele><time>2026-04-06T11:10:10.847Z</time></trkpt><trkpt lat="45.1190551" lon="7.1871563"><ele>543.6666666666666</ele><time>2026-04-06T11:10:12.848Z</time></trkpt><trkpt lat="45.1190653" lon="7.1870327"><ele>542.3333333333333</ele><time>2026-04-06T11:10:14.847Z</time></trkpt><trkpt lat="45.1190715" lon="7.186876"><ele>541.0</ele><time>2026-04-06T11:10:16.847Z</time></trkpt><trkpt lat="45.1190825" lon="7.1867855"><ele>539.6666666666666</ele><time>2026-04-06T11:10:17.847Z</time></trkpt><trkpt lat="45.1190873" lon="7.1866938"><ele>538.3333333333334</ele><time>2026-04-06T11:10:18.847Z</time></trkpt><trkpt lat="45.1190941" lon="7.1866026"><ele>537.0</ele><time>2026-04-06T11:10:19.847Z</time></trkpt><trkpt lat="45.1191008" lon="7.1865127"><ele>539.0</ele><time>2026-04-06T11:10:20.846Z</time></trkpt><trkpt lat="45.1191372" lon="7.186345"><ele>541.0</ele><time>2026-04-06T11:10:22.846Z</time></trkpt><trkpt lat="45.1191814" lon="7.1861965"><ele>543.0</ele><time>2026-04-06T11:10:24.847Z</time></trkpt><trkpt lat="45.1192078" lon="7.1861107"><ele>545.0</ele><time>2026-04-06T11:10:25.848Z</time></trkpt><trkpt lat="45.1192303" lon="7.1860243"><ele>547.0</ele><time>2026-04-06T11:10:26.847Z</time></trkpt><trkpt lat="45.1192357" lon="7.1858445"><ele>547.0</ele><time>2026-04-06T11:10:28.848Z</time></trkpt><trkpt lat="45.1192346" lon="7.1857529"><ele>547.0</ele><time>2026-04-06T11:10:29.846Z</time></trkpt><trkpt lat="45.1192306" lon="7.1856633"><ele>547.0</ele><time>2026-04-06T11:10:30.846Z</time></trkpt><trkpt lat="45.1192262" lon="7.1855698"><ele>547.0</ele><time>2026-04-06T11:10:31.846Z</time></trkpt><trkpt lat="45.1192257" lon="7.185478"><ele>547.0</ele><time>2026-04-06T11:10:32.847Z</time></trkpt><trkpt lat="45.1192397" lon="7.1853887"><ele>547.0</ele><time>2026-04-06T11:10:33.846Z</time></trkpt><trkpt lat="45.1192762" lon="7.1852193"><ele>547.0</ele><time>2026-04-06T11:10:35.847Z</time></trkpt><trkpt lat="45.1193456" lon="7.1851571"><ele>548.6666666666667</ele><time>2026-04-06T11:10:36.847Z</time></trkpt><trkpt lat="45.1194006" lon="7.1850872"><ele>550.3333333333334</ele><time>2026-04-06T11:10:37.847Z</time></trkpt><trkpt lat="45.119442" lon="7.1850113"><ele>552.0</ele><time>2026-04-06T11:10:38.847Z</time></trkpt><trkpt lat="45.1194973" lon="7.1849577"><ele>553.6666666666666</ele><time>2026-04-06T11:10:39.847Z</time></trkpt><trkpt lat="45.1195512" lon="7.1849084"><ele>555.3333333333333</ele><time>2026-04-06T11:10:40.846Z</time></trkpt><trkpt lat="45.1196312" lon="7.1848199"><ele>557.0</ele><time>2026-04-06T11:10:42.847Z</time></trkpt><trkpt lat="45.1196669" lon="7.1847244"><ele>558.1666666666666</ele><time>2026-04-06T11:10:55.846Z</time></trkpt><trkpt lat="45.1197299" lon="7.1845874"><ele>559.3333333333333</ele><time>2026-04-06T11:10:57.846Z</time></trkpt><trkpt lat="45.1197599" lon="7.1844896"><ele>560.5</ele><time>2026-04-06T11:10:58.847Z</time></trkpt><trkpt lat="45.1197778" lon="7.1843793"><ele>561.6666666666666</ele><time>2026-04-06T11:10:59.846Z</time></trkpt><trkpt lat="45.1197778" lon="7.1842674"><ele>562.8333333333334</ele><time>2026-04-06T11:11:00.845Z</time></trkpt><trkpt lat="45.1197661" lon="7.1841535"><ele>564.0</ele><time>2026-04-06T11:11:01.846Z</time></trkpt><trkpt lat="45.1197588" lon="7.1840351"><ele>564.6</ele><time>2026-04-06T11:11:02.846Z</time></trkpt><trkpt lat="45.1197544" lon="7.1839113"><ele>565.2</ele><time>2026-04-06T11:11:03.846Z</time></trkpt><trkpt lat="45.1197565" lon="7.1837784"><ele>565.8000000000001</ele><time>2026-04-06T11:11:04.846Z</time></trkpt><trkpt lat="45.1197634" lon="7.1836392"><ele>566.4</ele><time>2026-04-06T11:11:05.846Z</time></trkpt><trkpt lat="45.1197748" lon="7.1834972"><ele>567.0</ele><time>2026-04-06T11:11:06.845Z</time></trkpt><trkpt lat="45.119788" lon="7.1833561"><ele>567.0</ele><time>2026-04-06T11:11:07.847Z</time></trkpt><trkpt lat="45.1198015" lon="7.1832247"><ele>567.0</ele><time>2026-04-06T11:11:08.846Z</time></trkpt><trkpt lat="45.1198222" lon="7.1831118"><ele>567.0</ele><time>2026-04-06T11:11:09.846Z</time></trkpt><trkpt lat="45.11985" lon="7.1830178"><ele>567.0</ele><time>2026-04-06T11:11:10.846Z</time></trkpt><trkpt lat="45.1198769" lon="7.1829258"><ele>567.0</ele><time>2026-04-06T11:11:11.845Z</time></trkpt><trkpt lat="45.1199365" lon="7.1828683"><ele>567.0</ele><time>2026-04-06T11:11:12.845Z</time></trkpt><trkpt lat="45.1200042" lon="7.18276"><ele>566.5</ele><time>2026-04-06T11:11:14.845Z</time></trkpt><trkpt lat="45.1200722" lon="7.1827052"><ele>566.0</ele><time>2026-04-06T11:11:17.847Z</time></trkpt><trkpt lat="45.1201341" lon="7.1826859"><ele>565.5</ele><time>2026-04-06T11:11:21.846Z</time></trkpt><trkpt lat="45.1202426" lon="7.1826389"><ele>565.0</ele><time>2026-04-06T11:11:23.846Z</time></trkpt><trkpt lat="45.1203163" lon="7.1826123"><ele>564.5</ele><time>2026-04-06T11:11:24.846Z</time></trkpt><trkpt lat="45.1203877" lon="7.1825666"><ele>564.0</ele><time>2026-04-06T11:11:25.846Z</time></trkpt><trkpt lat="45.1204553" lon="7.1824841"><ele>564.0</ele><time>2026-04-06T11:11:26.846Z</time></trkpt><trkpt lat="45.1205063" lon="7.1823703"><ele>564.0</ele><time>2026-04-06T11:11:27.846Z</time></trkpt><trkpt lat="45.1205418" lon="7.182233"><ele>564.0</ele><time>2026-04-06T11:11:28.846Z</time></trkpt><trkpt lat="45.1205794" lon="7.1820902"><ele>564.0</ele><time>2026-04-06T11:11:29.846Z</time></trkpt><trkpt lat="45.1206169" lon="7.1819437"><ele>564.0</ele><time>2026-04-06T11:11:30.845Z</time></trkpt><trkpt lat="45.1206556" lon="7.1818089"><ele>563.6</ele><time>2026-04-06T11:11:31.846Z</time></trkpt><trkpt lat="45.1206948" lon="7.1816804"><ele>563.2</ele><time>2026-04-06T11:11:32.847Z</time></trkpt><trkpt lat="45.1207433" lon="7.1815511"><ele>562.8000000000001</ele><time>2026-04-06T11:11:33.845Z</time></trkpt><trkpt lat="45.1207944" lon="7.1814303"><ele>562.4</ele><time>2026-04-06T11:11:34.847Z</time></trkpt><trkpt lat="45.1208329" lon="7.1813131"><ele>562.0</ele><time>2026-04-06T11:11:35.845Z</time></trkpt><trkpt lat="45.1208597" lon="7.1811738"><ele>562.0</ele><time>2026-04-06T11:11:36.845Z</time></trkpt><trkpt lat="45.1208685" lon="7.1810222"><ele>562.0</ele><time>2026-04-06T11:11:37.845Z</time></trkpt><trkpt lat="45.1208684" lon="7.1808634"><ele>562.0</ele><time>2026-04-06T11:11:38.845Z</time></trkpt><trkpt lat="45.1208753" lon="7.1806978"><ele>562.0</ele><time>2026-04-06T11:11:39.845Z</time></trkpt><trkpt lat="45.1208896" lon="7.1805343"><ele>562.75</ele><time>2026-04-06T11:11:40.846Z</time></trkpt><trkpt lat="45.1209114" lon="7.1803695"><ele>563.5</ele><time>2026-04-06T11:11:41.845Z</time></trkpt><trkpt lat="45.1209446" lon="7.1802085"><ele>564.25</ele><time>2026-04-06T11:11:42.845Z</time></trkpt><trkpt lat="45.1209771" lon="7.180053"><ele>565.0</ele><time>2026-04-06T11:11:43.845Z</time></trkpt><trkpt lat="45.1210064" lon="7.1798992"><ele>563.6</ele><time>2026-04-06T11:11:44.846Z</time></trkpt><trkpt lat="45.1210318" lon="7.1797446"><ele>562.2</ele><time>2026-04-06T11:11:45.845Z</time></trkpt><trkpt lat="45.1210545" lon="7.1795935"><ele>560.8</ele><time>2026-04-06T11:11:46.846Z</time></trkpt><trkpt lat="45.1210703" lon="7.1794526"><ele>559.4</ele><time>2026-04-06T11:11:47.846Z</time></trkpt><trkpt lat="45.1210721" lon="7.1793165"><ele>558.0</ele><time>2026-04-06T11:11:48.846Z</time></trkpt><trkpt lat="45.1210377" lon="7.1791688"><ele>558.0</ele><time>2026-04-06T11:11:49.846Z</time></trkpt><trkpt lat="45.1209752" lon="7.1790312"><ele>558.0</ele><time>2026-04-06T11:11:50.846Z</time></trkpt><trkpt lat="45.1209011" lon="7.1789058"><ele>558.0</ele><time>2026-04-06T11:11:51.846Z</time></trkpt><trkpt lat="45.1208155" lon="7.1787902"><ele>558.0</ele><time>2026-04-06T11:11:52.846Z</time></trkpt><trkpt lat="45.120715" lon="7.1787047"><ele>559.8</ele><time>2026-04-06T11:11:53.845Z</time></trkpt><trkpt lat="45.1206146" lon="7.1786358"><ele>561.5999999999999</ele><time>2026-04-06T11:11:54.845Z</time></trkpt><trkpt lat="45.1205243" lon="7.1785671"><ele>563.4000000000001</ele><time>2026-04-06T11:11:55.846Z</time></trkpt><trkpt lat="45.1204509" lon="7.1784774"><ele>565.2</ele><time>2026-04-06T11:11:56.846Z</time></trkpt><trkpt lat="45.1204042" lon="7.1783734"><ele>567.0</ele><time>2026-04-06T11:11:57.846Z</time></trkpt><trkpt lat="45.1203845" lon="7.1782678"><ele>566.8000000000001</ele><time>2026-04-06T11:11:58.845Z</time></trkpt><trkpt lat="45.1203662" lon="7.1781592"><ele>566.6</ele><time>2026-04-06T11:11:59.846Z</time></trkpt><trkpt lat="45.120411" lon="7.1780678"><ele>566.4000000000001</ele><time>2026-04-06T11:12:00.846Z</time></trkpt><trkpt lat="45.1206001" lon="7.1781191"><ele>566.2</ele><time>2026-04-06T11:12:01.846Z</time></trkpt><trkpt lat="45.1206988" lon="7.1781046"><ele>566.0</ele><time>2026-04-06T11:12:02.845Z</time></trkpt><trkpt lat="45.1208204" lon="7.1781049"><ele>566.0</ele><time>2026-04-06T11:12:03.847Z</time></trkpt><trkpt lat="45.1209374" lon="7.1781062"><ele>566.0</ele><time>2026-04-06T11:12:04.847Z</time></trkpt><trkpt lat="45.1210627" lon="7.1781007"><ele>566.0</ele><time>2026-04-06T11:12:05.845Z</time></trkpt><trkpt lat="45.1211789" lon="7.17809"><ele>566.0</ele><time>2026-04-06T11:12:06.845Z</time></trkpt><trkpt lat="45.1212926" lon="7.1780287"><ele>566.0</ele><time>2026-04-06T11:12:07.845Z</time></trkpt><trkpt lat="45.1213968" lon="7.1779305"><ele>566.0</ele><time>2026-04-06T11:12:08.846Z</time></trkpt><trkpt lat="45.1214916" lon="7.1778103"><ele>566.0</ele><time>2026-04-06T11:12:09.846Z</time></trkpt><trkpt lat="45.1215899" lon="7.1776744"><ele>566.0</ele><time>2026-04-06T11:12:10.846Z</time></trkpt><trkpt lat="45.1216906" lon="7.1775338"><ele>562.5</ele><time>2026-04-06T11:12:11.845Z</time></trkpt><trkpt lat="45.1217828" lon="7.1773998"><ele>559.0</ele><time>2026-04-06T11:12:12.846Z</time></trkpt><trkpt lat="45.1218729" lon="7.1772628"><ele>555.5</ele><time>2026-04-06T11:12:13.845Z</time></trkpt><trkpt lat="45.1219577" lon="7.1771282"><ele>552.0</ele><time>2026-04-06T11:12:14.845Z</time></trkpt><trkpt lat="45.1220347" lon="7.1769933"><ele>552.0</ele><time>2026-04-06T11:12:15.846Z</time></trkpt><trkpt lat="45.1221211" lon="7.1768597"><ele>552.0</ele><time>2026-04-06T11:12:16.846Z</time></trkpt><trkpt lat="45.1222091" lon="7.1767248"><ele>552.0</ele><time>2026-04-06T11:12:17.845Z</time></trkpt><trkpt lat="45.1223039" lon="7.1765977"><ele>552.0</ele><time>2026-04-06T11:12:18.846Z</time></trkpt><trkpt lat="45.1223782" lon="7.1764622"><ele>547.25</ele><time>2026-04-06T11:12:19.846Z</time></trkpt><trkpt lat="45.1224506" lon="7.1763167"><ele>542.5</ele><time>2026-04-06T11:12:20.846Z</time></trkpt><trkpt lat="45.1225092" lon="7.1761572"><ele>537.75</ele><time>2026-04-06T11:12:21.846Z</time></trkpt><trkpt lat="45.1225644" lon="7.1759873"><ele>533.0</ele><time>2026-04-06T11:12:22.846Z</time></trkpt><trkpt lat="45.1226136" lon="7.1758017"><ele>534.0</ele><time>2026-04-06T11:12:23.846Z</time></trkpt><trkpt lat="45.1226709" lon="7.1756088"><ele>535.0</ele><time>2026-04-06T11:12:24.846Z</time></trkpt><trkpt lat="45.1227175" lon="7.1754185"><ele>536.0</ele><time>2026-04-06T11:12:25.846Z</time></trkpt><trkpt lat="45.1227636" lon="7.1752258"><ele>537.0</ele><time>2026-04-06T11:12:26.846Z</time></trkpt><trkpt lat="45.1228206" lon="7.1750348"><ele>537.75</ele><time>2026-04-06T11:12:27.847Z</time></trkpt><trkpt lat="45.1228802" lon="7.1748463"><ele>538.5</ele><time>2026-04-06T11:12:28.845Z</time></trkpt><trkpt lat="45.1229456" lon="7.17465"><ele>539.25</ele><time>2026-04-06T11:12:29.845Z</time></trkpt><trkpt lat="45.1230115" lon="7.17446"><ele>540.0</ele><time>2026-04-06T11:12:30.846Z</time></trkpt><trkpt lat="45.1230849" lon="7.1742772"><ele>540.0</ele><time>2026-04-06T11:12:31.846Z</time></trkpt><trkpt lat="45.1231505" lon="7.1740913"><ele>540.0</ele><time>2026-04-06T11:12:32.845Z</time></trkpt><trkpt lat="45.1232186" lon="7.1739199"><ele>540.0</ele><time>2026-04-06T11:12:33.845Z</time></trkpt><trkpt lat="45.1232749" lon="7.1737413"><ele>540.0</ele><time>2026-04-06T11:12:34.845Z</time></trkpt><trkpt lat="45.1233242" lon="7.1735742"><ele>534.0</ele><time>2026-04-06T11:12:35.847Z</time></trkpt><trkpt lat="45.1233485" lon="7.1733989"><ele>528.0</ele><time>2026-04-06T11:12:36.847Z</time></trkpt><trkpt lat="45.123349" lon="7.1732265"><ele>522.0</ele><time>2026-04-06T11:12:37.846Z</time></trkpt><trkpt lat="45.1233603" lon="7.1730704"><ele>516.0</ele><time>2026-04-06T11:12:38.846Z</time></trkpt><trkpt lat="45.1233731" lon="7.1729064"><ele>516.0</ele><time>2026-04-06T11:12:39.846Z</time></trkpt><trkpt lat="45.123515" lon="7.1727996"><ele>516.0</ele><time>2026-04-06T11:12:40.847Z</time></trkpt><trkpt lat="45.123591" lon="7.1726758"><ele>516.0</ele><time>2026-04-06T11:12:41.845Z</time></trkpt><trkpt lat="45.1236974" lon="7.1725992"><ele>516.0</ele><time>2026-04-06T11:12:42.846Z</time></trkpt><trkpt lat="45.123787" lon="7.1725609"><ele>516.0</ele><time>2026-04-06T11:12:43.845Z</time></trkpt><trkpt lat="45.1238693" lon="7.172487"><ele>516.0</ele><time>2026-04-06T11:12:44.846Z</time></trkpt><trkpt lat="45.1239291" lon="7.1723906"><ele>516.0</ele><time>2026-04-06T11:12:45.846Z</time></trkpt><trkpt lat="45.1239629" lon="7.1722604"><ele>516.0</ele><time>2026-04-06T11:12:46.845Z</time></trkpt><trkpt lat="45.1239631" lon="7.1721193"><ele>516.0</ele><time>2026-04-06T11:12:47.845Z</time></trkpt><trkpt lat="45.1239717" lon="7.1719833"><ele>517.0</ele><time>2026-04-06T11:12:48.845Z</time></trkpt><trkpt lat="45.1239914" lon="7.1718394"><ele>518.0</ele><time>2026-04-06T11:12:49.845Z</time></trkpt><trkpt lat="45.1240664" lon="7.1717591"><ele>519.0</ele><time>2026-04-06T11:12:50.846Z</time></trkpt><trkpt lat="45.1241369" lon="7.1716804"><ele>520.0</ele><time>2026-04-06T11:12:51.846Z</time></trkpt><trkpt lat="45.1241934" lon="7.1715729"><ele>521.0</ele><time>2026-04-06T11:12:52.846Z</time></trkpt><trkpt lat="45.1242182" lon="7.1714424"><ele>521.0</ele><time>2026-04-06T11:12:53.846Z</time></trkpt><trkpt lat="45.1242041" lon="7.1713175"><ele>521.0</ele><time>2026-04-06T11:12:54.845Z</time></trkpt><trkpt lat="45.1241534" lon="7.1712122"><ele>521.0</ele><time>2026-04-06T11:12:55.845Z</time></trkpt><trkpt lat="45.1241097" lon="7.1711205"><ele>521.0</ele><time>2026-04-06T11:12:56.846Z</time></trkpt><trkpt lat="45.1240786" lon="7.1710292"><ele>521.0</ele><time>2026-04-06T11:12:57.846Z</time></trkpt><trkpt lat="45.124058" lon="7.1708663"><ele>521.0</ele><time>2026-04-06T11:12:59.845Z</time></trkpt><trkpt lat="45.1240921" lon="7.1707341"><ele>516.8333333333333</ele><time>2026-04-06T11:13:01.846Z</time></trkpt><trkpt lat="45.1241623" lon="7.1705832"><ele>512.6666666666666</ele><time>2026-04-06T11:13:03.846Z</time></trkpt><trkpt lat="45.1242083" lon="7.1704958"><ele>508.5</ele><time>2026-04-06T11:13:04.847Z</time></trkpt><trkpt lat="45.1242543" lon="7.1704076"><ele>504.33333333333337</ele><time>2026-04-06T11:13:05.845Z</time></trkpt><trkpt lat="45.1243038" lon="7.170316"><ele>500.1666666666667</ele><time>2026-04-06T11:13:06.845Z</time></trkpt><trkpt lat="45.1243523" lon="7.170232"><ele>496.0</ele><time>2026-04-06T11:13:07.845Z</time></trkpt><trkpt lat="45.1244036" lon="7.1701487"><ele>496.00000000000006</ele><time>2026-04-06T11:13:08.845Z</time></trkpt><trkpt lat="45.1244603" lon="7.1700722"><ele>496.0</ele><time>2026-04-06T11:13:09.845Z</time></trkpt><trkpt lat="45.1245272" lon="7.1700129"><ele>496.0</ele><time>2026-04-06T11:13:10.846Z</time></trkpt><trkpt lat="45.1246034" lon="7.1699761"><ele>496.0</ele><time>2026-04-06T11:13:11.846Z</time></trkpt><trkpt lat="45.1246868" lon="7.1699728"><ele>496.00000000000006</ele><time>2026-04-06T11:13:12.846Z</time></trkpt><trkpt lat="45.1247643" lon="7.1700163"><ele>496.0</ele><time>2026-04-06T11:13:13.846Z</time></trkpt><trkpt lat="45.1248112" lon="7.1701129"><ele>496.0</ele><time>2026-04-06T11:13:14.846Z</time></trkpt><trkpt lat="45.1248257" lon="7.170245"><ele>496.0</ele><time>2026-04-06T11:13:15.846Z</time></trkpt><trkpt lat="45.1248188" lon="7.1703959"><ele>496.0</ele><time>2026-04-06T11:13:16.846Z</time></trkpt><trkpt lat="45.1248074" lon="7.1705583"><ele>496.0</ele><time>2026-04-06T11:13:17.846Z</time></trkpt><trkpt lat="45.1247983" lon="7.1707416"><ele>496.0</ele><time>2026-04-06T11:13:18.845Z</time></trkpt><trkpt lat="45.1247894" lon="7.1709373"><ele>495.25</ele><time>2026-04-06T11:13:19.845Z</time></trkpt><trkpt lat="45.1247801" lon="7.1711435"><ele>494.5</ele><time>2026-04-06T11:13:20.846Z</time></trkpt><trkpt lat="45.1247683" lon="7.1713607"><ele>493.75</ele><time>2026-04-06T11:13:21.846Z</time></trkpt><trkpt lat="45.1247475" lon="7.1715699"><ele>493.0</ele><time>2026-04-06T11:13:22.846Z</time></trkpt><trkpt lat="45.1247222" lon="7.1717711"><ele>492.75</ele><time>2026-04-06T11:13:23.846Z</time></trkpt><trkpt lat="45.1246975" lon="7.1719543"><ele>492.5</ele><time>2026-04-06T11:13:24.845Z</time></trkpt><trkpt lat="45.124671" lon="7.1721318"><ele>492.25</ele><time>2026-04-06T11:13:25.846Z</time></trkpt><trkpt lat="45.1246492" lon="7.1723082"><ele>492.0</ele><time>2026-04-06T11:13:26.847Z</time></trkpt><trkpt lat="45.1246295" lon="7.17248"><ele>491.5</ele><time>2026-04-06T11:13:27.846Z</time></trkpt><trkpt lat="45.1246144" lon="7.1726577"><ele>491.0</ele><time>2026-04-06T11:13:28.846Z</time></trkpt><trkpt lat="45.1246083" lon="7.1728394"><ele>490.5</ele><time>2026-04-06T11:13:29.846Z</time></trkpt><trkpt lat="45.1246102" lon="7.173033"><ele>490.0</ele><time>2026-04-06T11:13:30.845Z</time></trkpt><trkpt lat="45.1246166" lon="7.1732333"><ele>488.0</ele><time>2026-04-06T11:13:31.845Z</time></trkpt><trkpt lat="45.12462" lon="7.1734337"><ele>486.0</ele><time>2026-04-06T11:13:32.845Z</time></trkpt><trkpt lat="45.1246275" lon="7.1736303"><ele>484.0</ele><time>2026-04-06T11:13:33.845Z</time></trkpt><trkpt lat="45.1246354" lon="7.1738141"><ele>482.0</ele><time>2026-04-06T11:13:34.845Z</time></trkpt><trkpt lat="45.1246485" lon="7.1739768"><ele>480.8</ele><time>2026-04-06T11:13:35.845Z</time></trkpt><trkpt lat="45.124659" lon="7.1741354"><ele>479.6</ele><time>2026-04-06T11:13:36.846Z</time></trkpt><trkpt lat="45.1246921" lon="7.1742684"><ele>478.40000000000003</ele><time>2026-04-06T11:13:37.845Z</time></trkpt><trkpt lat="45.1247559" lon="7.1743665"><ele>477.20000000000005</ele><time>2026-04-06T11:13:38.846Z</time></trkpt><trkpt lat="45.1248366" lon="7.1744197"><ele>476.0</ele><time>2026-04-06T11:13:39.846Z</time></trkpt><trkpt lat="45.1249347" lon="7.1744125"><ele>471.0</ele><time>2026-04-06T11:13:40.846Z</time></trkpt><trkpt lat="45.1250375" lon="7.1743695"><ele>466.0</ele><time>2026-04-06T11:13:41.846Z</time></trkpt><trkpt lat="45.1251529" lon="7.1743265"><ele>461.0</ele><time>2026-04-06T11:13:42.846Z</time></trkpt><trkpt lat="45.1252653" lon="7.1742939"><ele>456.0</ele><time>2026-04-06T11:13:43.846Z</time></trkpt><trkpt lat="45.1253754" lon="7.1742599"><ele>456.0</ele><time>2026-04-06T11:13:44.846Z</time></trkpt><trkpt lat="45.1254774" lon="7.1742083"><ele>456.0</ele><time>2026-04-06T11:13:45.846Z</time></trkpt><trkpt lat="45.1255633" lon="7.1741113"><ele>456.0</ele><time>2026-04-06T11:13:46.846Z</time></trkpt><trkpt lat="45.1256254" lon="7.1739781"><ele>456.0</ele><time>2026-04-06T11:13:47.845Z</time></trkpt><trkpt lat="45.1256709" lon="7.1738433"><ele>456.0</ele><time>2026-04-06T11:13:48.845Z</time></trkpt><trkpt lat="45.1257302" lon="7.1737325"><ele>455.4</ele><time>2026-04-06T11:13:49.846Z</time></trkpt><trkpt lat="45.1258086" lon="7.1736639"><ele>454.8</ele><time>2026-04-06T11:13:50.847Z</time></trkpt><trkpt lat="45.125897" lon="7.1736485"><ele>454.19999999999993</ele><time>2026-04-06T11:13:51.845Z</time></trkpt><trkpt lat="45.1259925" lon="7.1736783"><ele>453.59999999999997</ele><time>2026-04-06T11:13:52.845Z</time></trkpt><trkpt lat="45.126087" lon="7.1737443"><ele>453.0</ele><time>2026-04-06T11:13:53.846Z</time></trkpt><trkpt lat="45.1261743" lon="7.1738202"><ele>453.0</ele><time>2026-04-06T11:13:54.847Z</time></trkpt><trkpt lat="45.1262771" lon="7.1738753"><ele>452.99999999999994</ele><time>2026-04-06T11:13:55.846Z</time></trkpt><trkpt lat="45.1263829" lon="7.1739001"><ele>452.99999999999994</ele><time>2026-04-06T11:13:56.846Z</time></trkpt><trkpt lat="45.1264876" lon="7.1738992"><ele>453.0</ele><time>2026-04-06T11:13:57.846Z</time></trkpt><trkpt lat="45.126591" lon="7.1739083"><ele>453.0</ele><time>2026-04-06T11:13:58.846Z</time></trkpt><trkpt lat="45.1266804" lon="7.1739592"><ele>450.79999999999995</ele><time>2026-04-06T11:13:59.847Z</time></trkpt><trkpt lat="45.1267415" lon="7.1740617"><ele>448.59999999999997</ele><time>2026-04-06T11:14:00.846Z</time></trkpt><trkpt lat="45.1267719" lon="7.1742"><ele>446.40000000000003</ele><time>2026-04-06T11:14:01.846Z</time></trkpt><trkpt lat="45.126765" lon="7.1743559"><ele>444.20000000000005</ele><time>2026-04-06T11:14:02.846Z</time></trkpt><trkpt lat="45.1267233" lon="7.1745205"><ele>442.0</ele><time>2026-04-06T11:14:03.846Z</time></trkpt><trkpt lat="45.1266727" lon="7.1746886"><ele>440.75</ele><time>2026-04-06T11:14:04.845Z</time></trkpt><trkpt lat="45.1266223" lon="7.174857"><ele>439.5</ele><time>2026-04-06T11:14:05.845Z</time></trkpt><trkpt lat="45.1265737" lon="7.1750162"><ele>438.25</ele><time>2026-04-06T11:14:06.845Z</time></trkpt><trkpt lat="45.1265287" lon="7.1751609"><ele>437.0</ele><time>2026-04-06T11:14:07.845Z</time></trkpt><trkpt lat="45.1265053" lon="7.1752996"><ele>437.0</ele><time>2026-04-06T11:14:08.845Z</time></trkpt><trkpt lat="45.1265114" lon="7.1754337"><ele>437.00000000000006</ele><time>2026-04-06T11:14:09.845Z</time></trkpt><trkpt lat="45.126552" lon="7.175558"><ele>437.00000000000006</ele><time>2026-04-06T11:14:10.845Z</time></trkpt><trkpt lat="45.1266349" lon="7.1756481"><ele>437.0</ele><time>2026-04-06T11:14:11.845Z</time></trkpt><trkpt lat="45.1267326" lon="7.175715"><ele>437.0</ele><time>2026-04-06T11:14:12.845Z</time></trkpt><trkpt lat="45.1268349" lon="7.1757805"><ele>436.40000000000003</ele><time>2026-04-06T11:14:13.845Z</time></trkpt><trkpt lat="45.1269438" lon="7.1758477"><ele>435.80000000000007</ele><time>2026-04-06T11:14:14.845Z</time></trkpt><trkpt lat="45.1270502" lon="7.1759108"><ele>435.2</ele><time>2026-04-06T11:14:15.845Z</time></trkpt><trkpt lat="45.1271497" lon="7.1759692"><ele>434.6</ele><time>2026-04-06T11:14:16.845Z</time></trkpt><trkpt lat="45.1272375" lon="7.1760207"><ele>434.0</ele><time>2026-04-06T11:14:17.845Z</time></trkpt><trkpt lat="45.1273071" lon="7.1760644"><ele>433.99999999999994</ele><time>2026-04-06T11:14:18.845Z</time></trkpt><trkpt lat="45.1273652" lon="7.176101"><ele>434.0</ele><time>2026-04-06T11:14:19.845Z</time></trkpt><trkpt lat="45.1274457" lon="7.1761713"><ele>434.0</ele><time>2026-04-06T11:14:21.845Z</time></trkpt><trkpt lat="45.1275084" lon="7.1761982"><ele>434.0</ele><time>2026-04-06T11:14:29.846Z</time></trkpt><trkpt lat="45.1276322" lon="7.1761625"><ele>433.99999999999994</ele><time>2026-04-06T11:14:31.846Z</time></trkpt><trkpt lat="45.1276967" lon="7.1760935"><ele>434.0</ele><time>2026-04-06T11:14:32.845Z</time></trkpt><trkpt lat="45.1277631" lon="7.1760018"><ele>433.2</ele><time>2026-04-06T11:14:33.845Z</time></trkpt><trkpt lat="45.1278343" lon="7.1759087"><ele>432.4</ele><time>2026-04-06T11:14:34.844Z</time></trkpt><trkpt lat="45.1279134" lon="7.1758078"><ele>431.6</ele><time>2026-04-06T11:14:35.845Z</time></trkpt><trkpt lat="45.1279997" lon="7.175702"><ele>430.8</ele><time>2026-04-06T11:14:36.845Z</time></trkpt><trkpt lat="45.1280878" lon="7.1755891"><ele>430.0</ele><time>2026-04-06T11:14:37.846Z</time></trkpt><trkpt lat="45.1281801" lon="7.1754654"><ele>429.25</ele><time>2026-04-06T11:14:38.846Z</time></trkpt><trkpt lat="45.1282767" lon="7.1753317"><ele>428.5</ele><time>2026-04-06T11:14:39.845Z</time></trkpt><trkpt lat="45.1283817" lon="7.1751964"><ele>427.75</ele><time>2026-04-06T11:14:40.846Z</time></trkpt><trkpt lat="45.1284924" lon="7.1750533"><ele>427.0</ele><time>2026-04-06T11:14:41.845Z</time></trkpt><trkpt lat="45.1286089" lon="7.1749016"><ele>427.6666666666667</ele><time>2026-04-06T11:14:42.844Z</time></trkpt><trkpt lat="45.1287335" lon="7.1747423"><ele>428.33333333333337</ele><time>2026-04-06T11:14:43.844Z</time></trkpt><trkpt lat="45.1288667" lon="7.1745725"><ele>429.0</ele><time>2026-04-06T11:14:44.844Z</time></trkpt><trkpt lat="45.1290017" lon="7.1743906"><ele>429.33333333333337</ele><time>2026-04-06T11:14:45.844Z</time></trkpt><trkpt lat="45.1291397" lon="7.1742095"><ele>429.6666666666667</ele><time>2026-04-06T11:14:46.844Z</time></trkpt><trkpt lat="45.1292809" lon="7.1740277"><ele>430.0</ele><time>2026-04-06T11:14:47.845Z</time></trkpt><trkpt lat="45.129427" lon="7.173845"><ele>430.0</ele><time>2026-04-06T11:14:48.845Z</time></trkpt><trkpt lat="45.1295749" lon="7.1736533"><ele>430.0</ele><time>2026-04-06T11:14:49.845Z</time></trkpt><trkpt lat="45.1297203" lon="7.1734611"><ele>430.0</ele><time>2026-04-06T11:14:50.844Z</time></trkpt><trkpt lat="45.1298677" lon="7.1732648"><ele>429.33333333333337</ele><time>2026-04-06T11:14:51.844Z</time></trkpt><trkpt lat="45.130012" lon="7.1730591"><ele>428.66666666666663</ele><time>2026-04-06T11:14:52.846Z</time></trkpt><trkpt lat="45.130147" lon="7.1728381"><ele>428.0</ele><time>2026-04-06T11:14:53.844Z</time></trkpt><trkpt lat="45.13026" lon="7.1725969"><ele>429.0</ele><time>2026-04-06T11:14:54.845Z</time></trkpt><trkpt lat="45.1303518" lon="7.1723347"><ele>430.0</ele><time>2026-04-06T11:14:55.844Z</time></trkpt><trkpt lat="45.1304227" lon="7.1720629"><ele>431.0</ele><time>2026-04-06T11:14:56.845Z</time></trkpt><trkpt lat="45.1304797" lon="7.1717833"><ele>431.3333333333333</ele><time>2026-04-06T11:14:57.845Z</time></trkpt><trkpt lat="45.1305267" lon="7.1715023"><ele>431.66666666666663</ele><time>2026-04-06T11:14:58.845Z</time></trkpt><trkpt lat="45.1305627" lon="7.171219"><ele>432.0</ele><time>2026-04-06T11:14:59.845Z</time></trkpt><trkpt lat="45.1306023" lon="7.1709399"><ele>432.66666666666663</ele><time>2026-04-06T11:15:00.845Z</time></trkpt><trkpt lat="45.1306403" lon="7.1706692"><ele>433.3333333333333</ele><time>2026-04-06T11:15:01.845Z</time></trkpt><trkpt lat="45.1306756" lon="7.1704011"><ele>434.0</ele><time>2026-04-06T11:15:02.845Z</time></trkpt><trkpt lat="45.1307111" lon="7.1701371"><ele>432.3333333333333</ele><time>2026-04-06T11:15:03.845Z</time></trkpt><trkpt lat="45.130746" lon="7.1698737"><ele>430.66666666666663</ele><time>2026-04-06T11:15:04.846Z</time></trkpt><trkpt lat="45.1307867" lon="7.169614"><ele>429.0</ele><time>2026-04-06T11:15:05.845Z</time></trkpt><trkpt lat="45.1308267" lon="7.1693507"><ele>429.0</ele><time>2026-04-06T11:15:06.845Z</time></trkpt><trkpt lat="45.1308622" lon="7.169076"><ele>429.0</ele><time>2026-04-06T11:15:07.845Z</time></trkpt><trkpt lat="45.1308977" lon="7.1687998"><ele>429.0</ele><time>2026-04-06T11:15:08.844Z</time></trkpt><trkpt lat="45.1309381" lon="7.1685129"><ele>429.0</ele><time>2026-04-06T11:15:09.845Z</time></trkpt><trkpt lat="45.1309775" lon="7.1682236"><ele>429.0</ele><time>2026-04-06T11:15:10.845Z</time></trkpt><trkpt lat="45.131015" lon="7.1679279"><ele>429.0</ele><time>2026-04-06T11:15:11.845Z</time></trkpt><trkpt lat="45.1310521" lon="7.1676218"><ele>429.66666666666663</ele><time>2026-04-06T11:15:12.845Z</time></trkpt><trkpt lat="45.1310897" lon="7.1673158"><ele>430.3333333333333</ele><time>2026-04-06T11:15:13.844Z</time></trkpt><trkpt lat="45.1311301" lon="7.1670064"><ele>431.0</ele><time>2026-04-06T11:15:14.845Z</time></trkpt><trkpt lat="45.131172" lon="7.1666948"><ele>431.5</ele><time>2026-04-06T11:15:15.845Z</time></trkpt><trkpt lat="45.1312155" lon="7.1663816"><ele>432.0</ele><time>2026-04-06T11:15:16.845Z</time></trkpt><trkpt lat="45.1312622" lon="7.1660678"><ele>432.0</ele><time>2026-04-06T11:15:17.845Z</time></trkpt><trkpt lat="45.1313146" lon="7.1657501"><ele>432.0</ele><time>2026-04-06T11:15:18.845Z</time></trkpt><trkpt lat="45.1313855" lon="7.1654383"><ele>433.0</ele><time>2026-04-06T11:15:19.846Z</time></trkpt><trkpt lat="45.1314786" lon="7.1651392"><ele>434.0</ele><time>2026-04-06T11:15:20.846Z</time></trkpt><trkpt lat="45.1315834" lon="7.1648486"><ele>432.0</ele><time>2026-04-06T11:15:21.845Z</time></trkpt><trkpt lat="45.1316943" lon="7.1645575"><ele>430.0</ele><time>2026-04-06T11:15:22.845Z</time></trkpt><trkpt lat="45.131806" lon="7.1642656"><ele>431.5</ele><time>2026-04-06T11:15:23.844Z</time></trkpt><trkpt lat="45.1319211" lon="7.1639726"><ele>433.0</ele><time>2026-04-06T11:15:24.845Z</time></trkpt><trkpt lat="45.1320326" lon="7.1636754"><ele>433.0</ele><time>2026-04-06T11:15:25.845Z</time></trkpt><trkpt lat="45.1321447" lon="7.1633778"><ele>433.0</ele><time>2026-04-06T11:15:26.845Z</time></trkpt><trkpt lat="45.1322598" lon="7.1630812"><ele>433.0</ele><time>2026-04-06T11:15:27.845Z</time></trkpt><trkpt lat="45.1323823" lon="7.1627798"><ele>433.0</ele><time>2026-04-06T11:15:28.845Z</time></trkpt><trkpt lat="45.1325001" lon="7.1624843"><ele>432.0</ele><time>2026-04-06T11:15:29.844Z</time></trkpt><trkpt lat="45.1326132" lon="7.1621903"><ele>431.0</ele><time>2026-04-06T11:15:30.845Z</time></trkpt><trkpt lat="45.1327209" lon="7.161902"><ele>431.0</ele><time>2026-04-06T11:15:31.845Z</time></trkpt><trkpt lat="45.1328272" lon="7.1616078"><ele>431.0</ele><time>2026-04-06T11:15:32.845Z</time></trkpt><trkpt lat="45.1329299" lon="7.1613159"><ele>431.0</ele><time>2026-04-06T11:15:33.846Z</time></trkpt><trkpt lat="45.1330274" lon="7.1610149"><ele>431.0</ele><time>2026-04-06T11:15:34.845Z</time></trkpt><trkpt lat="45.1331162" lon="7.1607187"><ele>432.0</ele><time>2026-04-06T11:15:35.845Z</time></trkpt><trkpt lat="45.1331973" lon="7.1604231"><ele>433.0</ele><time>2026-04-06T11:15:36.844Z</time></trkpt><trkpt lat="45.1332725" lon="7.1601275"><ele>434.0</ele><time>2026-04-06T11:15:37.845Z</time></trkpt><trkpt lat="45.1333481" lon="7.159835"><ele>434.3333333333333</ele><time>2026-04-06T11:15:38.845Z</time></trkpt><trkpt lat="45.1334169" lon="7.1595407"><ele>434.66666666666663</ele><time>2026-04-06T11:15:39.846Z</time></trkpt><trkpt lat="45.1334842" lon="7.1592445"><ele>435.0</ele><time>2026-04-06T11:15:40.844Z</time></trkpt><trkpt lat="45.1335553" lon="7.1589375"><ele>435.0</ele><time>2026-04-06T11:15:41.844Z</time></trkpt><trkpt lat="45.1336258" lon="7.1586445"><ele>435.0</ele><time>2026-04-06T11:15:42.845Z</time></trkpt><trkpt lat="45.1336977" lon="7.1583544"><ele>435.0</ele><time>2026-04-06T11:15:43.845Z</time></trkpt><trkpt lat="45.1337738" lon="7.1580812"><ele>435.66666666666663</ele><time>2026-04-06T11:15:44.845Z</time></trkpt><trkpt lat="45.1338513" lon="7.1578338"><ele>436.3333333333333</ele><time>2026-04-06T11:15:45.844Z</time></trkpt><trkpt lat="45.1339277" lon="7.157607"><ele>437.0</ele><time>2026-04-06T11:15:46.844Z</time></trkpt><trkpt lat="45.1340092" lon="7.1574011"><ele>437.0</ele><time>2026-04-06T11:15:47.845Z</time></trkpt><trkpt lat="45.1340839" lon="7.1572061"><ele>437.0</ele><time>2026-04-06T11:15:48.845Z</time></trkpt><trkpt lat="45.13416" lon="7.1570191"><ele>437.0</ele><time>2026-04-06T11:15:49.846Z</time></trkpt><trkpt lat="45.1342308" lon="7.1568322"><ele>437.0</ele><time>2026-04-06T11:15:50.845Z</time></trkpt><trkpt lat="45.1343035" lon="7.1566532"><ele>437.0</ele><time>2026-04-06T11:15:51.845Z</time></trkpt><trkpt lat="45.1343731" lon="7.1564747"><ele>437.0</ele><time>2026-04-06T11:15:52.844Z</time></trkpt><trkpt lat="45.1344461" lon="7.1562868"><ele>437.0</ele><time>2026-04-06T11:15:53.845Z</time></trkpt><trkpt lat="45.1345216" lon="7.1560964"><ele>437.3333333333333</ele><time>2026-04-06T11:15:54.845Z</time></trkpt><trkpt lat="45.1346003" lon="7.1559092"><ele>437.66666666666663</ele><time>2026-04-06T11:15:55.845Z</time></trkpt><trkpt lat="45.1346784" lon="7.1557111"><ele>438.0</ele><time>2026-04-06T11:15:56.845Z</time></trkpt><trkpt lat="45.1347531" lon="7.155511"><ele>438.0</ele><time>2026-04-06T11:15:57.844Z</time></trkpt><trkpt lat="45.1348239" lon="7.1553082"><ele>438.0</ele><time>2026-04-06T11:15:58.845Z</time></trkpt><trkpt lat="45.1349021" lon="7.155109"><ele>438.0</ele><time>2026-04-06T11:15:59.845Z</time></trkpt><trkpt lat="45.1349825" lon="7.1549026"><ele>437.66666666666663</ele><time>2026-04-06T11:16:00.845Z</time></trkpt><trkpt lat="45.1350603" lon="7.1546948"><ele>437.3333333333333</ele><time>2026-04-06T11:16:01.845Z</time></trkpt><trkpt lat="45.1351327" lon="7.1544812"><ele>437.0</ele><time>2026-04-06T11:16:02.845Z</time></trkpt><trkpt lat="45.1351982" lon="7.1542614"><ele>437.0</ele><time>2026-04-06T11:16:03.845Z</time></trkpt><trkpt lat="45.1352538" lon="7.154039"><ele>437.0</ele><time>2026-04-06T11:16:04.845Z</time></trkpt><trkpt lat="45.1352996" lon="7.1538166"><ele>437.0</ele><time>2026-04-06T11:16:05.844Z</time></trkpt><trkpt lat="45.1353306" lon="7.1536004"><ele>437.25</ele><time>2026-04-06T11:16:06.844Z</time></trkpt><trkpt lat="45.1353521" lon="7.1533863"><ele>437.5</ele><time>2026-04-06T11:16:07.845Z</time></trkpt><trkpt lat="45.1353636" lon="7.1531904"><ele>437.75</ele><time>2026-04-06T11:16:08.845Z</time></trkpt><trkpt lat="45.1353751" lon="7.1530261"><ele>438.0</ele><time>2026-04-06T11:16:09.844Z</time></trkpt><trkpt lat="45.1353838" lon="7.152901"><ele>438.2</ele><time>2026-04-06T11:16:10.845Z</time></trkpt><trkpt lat="45.1353891" lon="7.1528033"><ele>438.4</ele><time>2026-04-06T11:16:11.845Z</time></trkpt><trkpt lat="45.1354315" lon="7.1526421"><ele>438.59999999999997</ele><time>2026-04-06T11:16:13.845Z</time></trkpt><trkpt lat="45.1354632" lon="7.1525402"><ele>438.79999999999995</ele><time>2026-04-06T11:16:14.845Z</time></trkpt><trkpt lat="45.1354635" lon="7.1524075"><ele>439.0</ele><time>2026-04-06T11:16:15.845Z</time></trkpt><trkpt lat="45.1354464" lon="7.1522589"><ele>439.25</ele><time>2026-04-06T11:16:16.845Z</time></trkpt><trkpt lat="45.1354277" lon="7.1520865"><ele>439.5</ele><time>2026-04-06T11:16:17.845Z</time></trkpt><trkpt lat="45.1354325" lon="7.1518943"><ele>439.75</ele><time>2026-04-06T11:16:18.845Z</time></trkpt><trkpt lat="45.1354444" lon="7.151683"><ele>440.0</ele><time>2026-04-06T11:16:19.845Z</time></trkpt><trkpt lat="45.1354605" lon="7.1514662"><ele>441.0</ele><time>2026-04-06T11:16:20.845Z</time></trkpt><trkpt lat="45.1354724" lon="7.1512359"><ele>442.0</ele><time>2026-04-06T11:16:21.845Z</time></trkpt><trkpt lat="45.1354841" lon="7.150997"><ele>443.0</ele><time>2026-04-06T11:16:22.845Z</time></trkpt><trkpt lat="45.1354966" lon="7.1507424"><ele>443.0</ele><time>2026-04-06T11:16:23.845Z</time></trkpt><trkpt lat="45.1355084" lon="7.1504905"><ele>443.0</ele><time>2026-04-06T11:16:24.845Z</time></trkpt><trkpt lat="45.1355211" lon="7.1502336"><ele>443.0</ele><time>2026-04-06T11:16:25.845Z</time></trkpt><trkpt lat="45.1355318" lon="7.1499764"><ele>443.3333333333333</ele><time>2026-04-06T11:16:26.846Z</time></trkpt><trkpt lat="45.1355432" lon="7.1497195"><ele>443.66666666666663</ele><time>2026-04-06T11:16:27.844Z</time></trkpt><trkpt lat="45.1355583" lon="7.149462"><ele>444.0</ele><time>2026-04-06T11:16:28.844Z</time></trkpt><trkpt lat="45.1355701" lon="7.1492041"><ele>444.33333333333337</ele><time>2026-04-06T11:16:29.844Z</time></trkpt><trkpt lat="45.1355828" lon="7.148945"><ele>444.6666666666667</ele><time>2026-04-06T11:16:30.845Z</time></trkpt><trkpt lat="45.1355962" lon="7.1486856"><ele>445.0</ele><time>2026-04-06T11:16:31.845Z</time></trkpt><trkpt lat="45.1356084" lon="7.1484298"><ele>446.33333333333337</ele><time>2026-04-06T11:16:32.845Z</time></trkpt><trkpt lat="45.1356213" lon="7.1481909"><ele>447.66666666666663</ele><time>2026-04-06T11:16:33.845Z</time></trkpt><trkpt lat="45.1356367" lon="7.1479631"><ele>449.0</ele><time>2026-04-06T11:16:34.845Z</time></trkpt><trkpt lat="45.1356503" lon="7.147749"><ele>449.0</ele><time>2026-04-06T11:16:35.844Z</time></trkpt><trkpt lat="45.135662" lon="7.1475443"><ele>449.0</ele><time>2026-04-06T11:16:36.844Z</time></trkpt><trkpt lat="45.1356688" lon="7.1473397"><ele>449.0</ele><time>2026-04-06T11:16:37.844Z</time></trkpt><trkpt lat="45.1356711" lon="7.1471427"><ele>449.0</ele><time>2026-04-06T11:16:38.844Z</time></trkpt><trkpt lat="45.1356678" lon="7.1469474"><ele>449.25</ele><time>2026-04-06T11:16:39.845Z</time></trkpt><trkpt lat="45.1356692" lon="7.1467473"><ele>449.5</ele><time>2026-04-06T11:16:40.845Z</time></trkpt><trkpt lat="45.1356807" lon="7.1465522"><ele>449.75</ele><time>2026-04-06T11:16:41.845Z</time></trkpt><trkpt lat="45.135698" lon="7.1463522"><ele>450.0</ele><time>2026-04-06T11:16:42.844Z</time></trkpt><trkpt lat="45.1357158" lon="7.1461491"><ele>449.75</ele><time>2026-04-06T11:16:43.845Z</time></trkpt><trkpt lat="45.1357313" lon="7.1459436"><ele>449.5</ele><time>2026-04-06T11:16:44.845Z</time></trkpt><trkpt lat="45.1357461" lon="7.1457339"><ele>449.25</ele><time>2026-04-06T11:16:45.844Z</time></trkpt><trkpt lat="45.135757" lon="7.1455211"><ele>449.0</ele><time>2026-04-06T11:16:46.844Z</time></trkpt><trkpt lat="45.1357648" lon="7.1453041"><ele>449.0</ele><time>2026-04-06T11:16:47.844Z</time></trkpt><trkpt lat="45.1357726" lon="7.1450816"><ele>449.0</ele><time>2026-04-06T11:16:48.844Z</time></trkpt><trkpt lat="45.1357843" lon="7.1448575"><ele>449.0</ele><time>2026-04-06T11:16:49.845Z</time></trkpt><trkpt lat="45.1357946" lon="7.1446395"><ele>449.25</ele><time>2026-04-06T11:16:50.845Z</time></trkpt><trkpt lat="45.135804" lon="7.1444318"><ele>449.5</ele><time>2026-04-06T11:16:51.845Z</time></trkpt><trkpt lat="45.1358158" lon="7.1442328"><ele>449.75</ele><time>2026-04-06T11:16:52.845Z</time></trkpt><trkpt lat="45.1358254" lon="7.1440368"><ele>450.0</ele><time>2026-04-06T11:16:53.845Z</time></trkpt><trkpt lat="45.1358321" lon="7.1438368"><ele>450.0</ele><time>2026-04-06T11:16:54.844Z</time></trkpt><trkpt lat="45.1358323" lon="7.1436364"><ele>450.0</ele><time>2026-04-06T11:16:55.844Z</time></trkpt><trkpt lat="45.135825" lon="7.1434308"><ele>450.0</ele><time>2026-04-06T11:16:56.845Z</time></trkpt><trkpt lat="45.1358126" lon="7.1432243"><ele>450.0</ele><time>2026-04-06T11:16:57.845Z</time></trkpt><trkpt lat="45.135794" lon="7.1430147"><ele>450.66666666666663</ele><time>2026-04-06T11:16:58.844Z</time></trkpt><trkpt lat="45.1357684" lon="7.1428029"><ele>451.3333333333333</ele><time>2026-04-06T11:16:59.845Z</time></trkpt><trkpt lat="45.1357408" lon="7.1425898"><ele>452.0</ele><time>2026-04-06T11:17:00.845Z</time></trkpt><trkpt lat="45.1357129" lon="7.1423712"><ele>452.0</ele><time>2026-04-06T11:17:01.845Z</time></trkpt><trkpt lat="45.1356829" lon="7.1421466"><ele>452.0</ele><time>2026-04-06T11:17:02.844Z</time></trkpt><trkpt lat="45.1356535" lon="7.1419192"><ele>452.0</ele><time>2026-04-06T11:17:03.844Z</time></trkpt><trkpt lat="45.1356244" lon="7.1416865"><ele>452.3333333333333</ele><time>2026-04-06T11:17:04.844Z</time></trkpt><trkpt lat="45.1355934" lon="7.1414485"><ele>452.66666666666663</ele><time>2026-04-06T11:17:05.844Z</time></trkpt><trkpt lat="45.1355617" lon="7.1412078"><ele>453.0</ele><time>2026-04-06T11:17:06.845Z</time></trkpt><trkpt lat="45.1355306" lon="7.1409696"><ele>453.0</ele><time>2026-04-06T11:17:07.844Z</time></trkpt><trkpt lat="45.135499" lon="7.1407401"><ele>453.0</ele><time>2026-04-06T11:17:08.844Z</time></trkpt><trkpt lat="45.1354649" lon="7.140509"><ele>453.0</ele><time>2026-04-06T11:17:09.846Z</time></trkpt><trkpt lat="45.1354319" lon="7.1402789"><ele>453.0</ele><time>2026-04-06T11:17:10.845Z</time></trkpt><trkpt lat="45.1353902" lon="7.1400517"><ele>453.0</ele><time>2026-04-06T11:17:11.845Z</time></trkpt><trkpt lat="45.135344" lon="7.1398353"><ele>453.0</ele><time>2026-04-06T11:17:12.845Z</time></trkpt><trkpt lat="45.1352959" lon="7.1396252"><ele>453.0</ele><time>2026-04-06T11:17:13.845Z</time></trkpt><trkpt lat="45.1352468" lon="7.139419"><ele>453.0</ele><time>2026-04-06T11:17:14.844Z</time></trkpt><trkpt lat="45.1351939" lon="7.1392161"><ele>453.0</ele><time>2026-04-06T11:17:15.846Z</time></trkpt><trkpt lat="45.1351408" lon="7.1390142"><ele>452.33333333333337</ele><time>2026-04-06T11:17:16.845Z</time></trkpt><trkpt lat="45.1350851" lon="7.1388111"><ele>451.6666666666667</ele><time>2026-04-06T11:17:17.845Z</time></trkpt><trkpt lat="45.1350204" lon="7.1385965"><ele>451.0</ele><time>2026-04-06T11:17:18.844Z</time></trkpt><trkpt lat="45.1349509" lon="7.1383733"><ele>452.6666666666667</ele><time>2026-04-06T11:17:19.844Z</time></trkpt><trkpt lat="45.1348819" lon="7.138145"><ele>454.33333333333337</ele><time>2026-04-06T11:17:20.845Z</time></trkpt><trkpt lat="45.1348168" lon="7.1379067"><ele>456.0</ele><time>2026-04-06T11:17:21.845Z</time></trkpt><trkpt lat="45.1347496" lon="7.1376622"><ele>456.0</ele><time>2026-04-06T11:17:22.845Z</time></trkpt><trkpt lat="45.1346803" lon="7.1374128"><ele>456.0</ele><time>2026-04-06T11:17:23.845Z</time></trkpt><trkpt lat="45.13461" lon="7.1371637"><ele>456.0</ele><time>2026-04-06T11:17:24.845Z</time></trkpt><trkpt lat="45.1345359" lon="7.1369133"><ele>455.0</ele><time>2026-04-06T11:17:25.845Z</time></trkpt><trkpt lat="45.1344585" lon="7.1366614"><ele>454.0</ele><time>2026-04-06T11:17:26.844Z</time></trkpt><trkpt lat="45.1343834" lon="7.1364051"><ele>453.0</ele><time>2026-04-06T11:17:27.844Z</time></trkpt><trkpt lat="45.1343039" lon="7.1361477"><ele>452.66666666666663</ele><time>2026-04-06T11:17:28.844Z</time></trkpt><trkpt lat="45.1342171" lon="7.1358925"><ele>452.3333333333333</ele><time>2026-04-06T11:17:29.845Z</time></trkpt><trkpt lat="45.1341314" lon="7.1356349"><ele>452.0</ele><time>2026-04-06T11:17:30.844Z</time></trkpt><trkpt lat="45.1340471" lon="7.1353738"><ele>452.0</ele><time>2026-04-06T11:17:31.844Z</time></trkpt><trkpt lat="45.1339677" lon="7.1351194"><ele>452.0</ele><time>2026-04-06T11:17:32.845Z</time></trkpt><trkpt lat="45.1338924" lon="7.13488"><ele>452.0</ele><time>2026-04-06T11:17:33.845Z</time></trkpt><trkpt lat="45.1338259" lon="7.1346694"><ele>451.75</ele><time>2026-04-06T11:17:34.844Z</time></trkpt><trkpt lat="45.1337652" lon="7.1344771"><ele>451.5</ele><time>2026-04-06T11:17:35.845Z</time></trkpt><trkpt lat="45.1337107" lon="7.1343024"><ele>451.25</ele><time>2026-04-06T11:17:36.844Z</time></trkpt><trkpt lat="45.1336631" lon="7.1341465"><ele>451.0</ele><time>2026-04-06T11:17:37.845Z</time></trkpt><trkpt lat="45.1336206" lon="7.1340087"><ele>451.00000000000006</ele><time>2026-04-06T11:17:38.845Z</time></trkpt><trkpt lat="45.1335844" lon="7.1338931"><ele>451.0</ele><time>2026-04-06T11:17:39.845Z</time></trkpt><trkpt lat="45.1335561" lon="7.1337903"><ele>451.0</ele><time>2026-04-06T11:17:40.845Z</time></trkpt><trkpt lat="45.1335278" lon="7.1337073"><ele>451.0</ele><time>2026-04-06T11:17:41.846Z</time></trkpt><trkpt lat="45.1334565" lon="7.1336222"><ele>451.00000000000006</ele><time>2026-04-06T11:17:43.845Z</time></trkpt><trkpt lat="45.1333654" lon="7.1336223"><ele>451.0</ele><time>2026-04-06T11:17:45.845Z</time></trkpt><trkpt lat="45.1332995" lon="7.1336377"><ele>451.6</ele><time>2026-04-06T11:17:46.845Z</time></trkpt><trkpt lat="45.1332168" lon="7.1336486"><ele>452.20000000000005</ele><time>2026-04-06T11:17:47.845Z</time></trkpt><trkpt lat="45.1331244" lon="7.13366"><ele>452.79999999999995</ele><time>2026-04-06T11:17:48.845Z</time></trkpt><trkpt lat="45.1330359" lon="7.133656"><ele>453.4</ele><time>2026-04-06T11:17:49.845Z</time></trkpt><trkpt lat="45.1329423" lon="7.1336452"><ele>454.0</ele><time>2026-04-06T11:17:50.844Z</time></trkpt><trkpt lat="45.1328452" lon="7.1336214"><ele>454.0</ele><time>2026-04-06T11:17:51.844Z</time></trkpt><trkpt lat="45.1327496" lon="7.1335848"><ele>454.0</ele><time>2026-04-06T11:17:52.846Z</time></trkpt><trkpt lat="45.1326516" lon="7.1335504"><ele>454.0</ele><time>2026-04-06T11:17:53.845Z</time></trkpt><trkpt lat="45.1325512" lon="7.1335441"><ele>454.0</ele><time>2026-04-06T11:17:54.845Z</time></trkpt><trkpt lat="45.1324526" lon="7.1335678"><ele>454.0</ele><time>2026-04-06T11:17:55.844Z</time></trkpt><trkpt lat="45.1323588" lon="7.1336182"><ele>454.79999999999995</ele><time>2026-04-06T11:17:56.845Z</time></trkpt><trkpt lat="45.1322683" lon="7.1336883"><ele>455.59999999999997</ele><time>2026-04-06T11:17:57.844Z</time></trkpt><trkpt lat="45.1321765" lon="7.1337651"><ele>456.4</ele><time>2026-04-06T11:17:58.844Z</time></trkpt><trkpt lat="45.1320813" lon="7.1338514"><ele>457.2</ele><time>2026-04-06T11:17:59.844Z</time></trkpt><trkpt lat="45.1319835" lon="7.1339352"><ele>458.0</ele><time>2026-04-06T11:18:00.845Z</time></trkpt><trkpt lat="45.1318858" lon="7.1340208"><ele>458.2</ele><time>2026-04-06T11:18:01.845Z</time></trkpt><trkpt lat="45.1317893" lon="7.1341168"><ele>458.4</ele><time>2026-04-06T11:18:02.846Z</time></trkpt><trkpt lat="45.1316954" lon="7.134217"><ele>458.59999999999997</ele><time>2026-04-06T11:18:03.845Z</time></trkpt><trkpt lat="45.1316155" lon="7.1343158"><ele>458.79999999999995</ele><time>2026-04-06T11:18:04.845Z</time></trkpt><trkpt lat="45.1315412" lon="7.134402"><ele>459.0</ele><time>2026-04-06T11:18:05.845Z</time></trkpt><trkpt lat="45.131474" lon="7.1344788"><ele>459.3333333333333</ele><time>2026-04-06T11:18:06.845Z</time></trkpt><trkpt lat="45.1314084" lon="7.1345373"><ele>459.66666666666663</ele><time>2026-04-06T11:18:07.845Z</time></trkpt><trkpt lat="45.1313393" lon="7.1345766"><ele>460.0</ele><time>2026-04-06T11:18:08.844Z</time></trkpt><trkpt lat="45.13126" lon="7.1346025"><ele>460.3333333333333</ele><time>2026-04-06T11:18:09.846Z</time></trkpt><trkpt lat="45.1311767" lon="7.134613"><ele>460.66666666666663</ele><time>2026-04-06T11:18:10.845Z</time></trkpt><trkpt lat="45.1310849" lon="7.1346226"><ele>461.0</ele><time>2026-04-06T11:18:11.845Z</time></trkpt><trkpt lat="45.1309922" lon="7.1346322"><ele>460.99999999999994</ele><time>2026-04-06T11:18:12.844Z</time></trkpt><trkpt lat="45.1309067" lon="7.1346352"><ele>461.0</ele><time>2026-04-06T11:18:13.845Z</time></trkpt><trkpt lat="45.1308352" lon="7.1346071"><ele>461.0</ele><time>2026-04-06T11:18:14.844Z</time></trkpt><trkpt lat="45.1307595" lon="7.1344884"><ele>461.0</ele><time>2026-04-06T11:18:16.844Z</time></trkpt><trkpt lat="45.130747" lon="7.1343871"><ele>460.99999999999994</ele><time>2026-04-06T11:18:17.844Z</time></trkpt><trkpt lat="45.1307334" lon="7.1342686"><ele>461.0</ele><time>2026-04-06T11:18:18.843Z</time></trkpt><trkpt lat="45.1307167" lon="7.1341475"><ele>464.4</ele><time>2026-04-06T11:18:19.844Z</time></trkpt><trkpt lat="45.1306916" lon="7.1340174"><ele>467.8</ele><time>2026-04-06T11:18:20.843Z</time></trkpt><trkpt lat="45.1306508" lon="7.1338804"><ele>471.19999999999993</ele><time>2026-04-06T11:18:21.843Z</time></trkpt><trkpt lat="45.1306017" lon="7.133744"><ele>474.59999999999997</ele><time>2026-04-06T11:18:22.843Z</time></trkpt><trkpt lat="45.1305467" lon="7.1336033"><ele>478.0</ele><time>2026-04-06T11:18:23.844Z</time></trkpt><trkpt lat="45.1304922" lon="7.1334601"><ele>478.0</ele><time>2026-04-06T11:18:24.844Z</time></trkpt><trkpt lat="45.1304349" lon="7.1333131"><ele>478.0</ele><time>2026-04-06T11:18:25.843Z</time></trkpt><trkpt lat="45.1303842" lon="7.1331709"><ele>478.0</ele><time>2026-04-06T11:18:26.843Z</time></trkpt><trkpt lat="45.1303318" lon="7.1330328"><ele>478.0</ele><time>2026-04-06T11:18:27.843Z</time></trkpt><trkpt lat="45.1302737" lon="7.1328936"><ele>477.0</ele><time>2026-04-06T11:18:28.844Z</time></trkpt><trkpt lat="45.1302105" lon="7.1327668"><ele>475.99999999999994</ele><time>2026-04-06T11:18:29.844Z</time></trkpt><trkpt lat="45.1301507" lon="7.1326377"><ele>474.99999999999994</ele><time>2026-04-06T11:18:30.844Z</time></trkpt><trkpt lat="45.1300912" lon="7.1325097"><ele>474.0</ele><time>2026-04-06T11:18:31.843Z</time></trkpt><trkpt lat="45.1300355" lon="7.1323847"><ele>473.0</ele><time>2026-04-06T11:18:32.844Z</time></trkpt><trkpt lat="45.1299863" lon="7.1322668"><ele>471.79999999999995</ele><time>2026-04-06T11:18:33.843Z</time></trkpt><trkpt lat="45.1299401" lon="7.1321478"><ele>470.59999999999997</ele><time>2026-04-06T11:18:34.843Z</time></trkpt><trkpt lat="45.1298965" lon="7.1320217"><ele>469.40000000000003</ele><time>2026-04-06T11:18:35.845Z</time></trkpt><trkpt lat="45.1298556" lon="7.1318817"><ele>468.20000000000005</ele><time>2026-04-06T11:18:36.844Z</time></trkpt><trkpt lat="45.1298182" lon="7.1317368"><ele>467.0</ele><time>2026-04-06T11:18:37.844Z</time></trkpt><trkpt lat="45.1297812" lon="7.1316046"><ele>472.16666666666663</ele><time>2026-04-06T11:18:38.844Z</time></trkpt><trkpt lat="45.1297442" lon="7.1314858"><ele>477.3333333333333</ele><time>2026-04-06T11:18:39.844Z</time></trkpt><trkpt lat="45.12971" lon="7.1313818"><ele>482.5</ele><time>2026-04-06T11:18:40.843Z</time></trkpt><trkpt lat="45.1296766" lon="7.1312816"><ele>487.66666666666663</ele><time>2026-04-06T11:18:41.843Z</time></trkpt><trkpt lat="45.1296467" lon="7.131195"><ele>492.8333333333333</ele><time>2026-04-06T11:18:42.844Z</time></trkpt><trkpt lat="45.1295951" lon="7.1310586"><ele>498.0</ele><time>2026-04-06T11:18:44.844Z</time></trkpt><trkpt lat="45.129564" lon="7.1309455"><ele>498.0</ele><time>2026-04-06T11:18:46.843Z</time></trkpt><trkpt lat="45.1295418" lon="7.1308261"><ele>498.0</ele><time>2026-04-06T11:18:48.844Z</time></trkpt><trkpt lat="45.1295274" lon="7.1307021"><ele>498.0</ele><time>2026-04-06T11:18:50.844Z</time></trkpt><trkpt lat="45.1295223" lon="7.1305868"><ele>498.0</ele><time>2026-04-06T11:18:52.843Z</time></trkpt><trkpt lat="45.1295228" lon="7.1304653"><ele>498.0</ele><time>2026-04-06T11:18:54.843Z</time></trkpt><trkpt lat="45.1295145" lon="7.1303441"><ele>498.0</ele><time>2026-04-06T11:18:56.844Z</time></trkpt><trkpt lat="45.1295044" lon="7.1302231"><ele>495.79999999999995</ele><time>2026-04-06T11:18:58.844Z</time></trkpt><trkpt lat="45.1294883" lon="7.1301288"><ele>493.59999999999997</ele><time>2026-04-06T11:19:00.844Z</time></trkpt><trkpt lat="45.1294669" lon="7.1300205"><ele>491.40000000000003</ele><time>2026-04-06T11:19:02.843Z</time></trkpt><trkpt lat="45.1294468" lon="7.129886"><ele>489.20000000000005</ele><time>2026-04-06T11:19:04.844Z</time></trkpt><trkpt lat="45.1294167" lon="7.1297314"><ele>487.0</ele><time>2026-04-06T11:19:06.843Z</time></trkpt><trkpt lat="45.1293731" lon="7.1295877"><ele>484.75</ele><time>2026-04-06T11:19:08.844Z</time></trkpt><trkpt lat="45.1293279" lon="7.1294531"><ele>482.5</ele><time>2026-04-06T11:19:10.844Z</time></trkpt><trkpt lat="45.1292913" lon="7.1293076"><ele>480.25</ele><time>2026-04-06T11:19:12.843Z</time></trkpt><trkpt lat="45.1292489" lon="7.1291473"><ele>478.0</ele><time>2026-04-06T11:19:14.844Z</time></trkpt><trkpt lat="45.1292022" lon="7.1289831"><ele>477.8571428571429</ele><time>2026-04-06T11:19:16.844Z</time></trkpt><trkpt lat="45.1291672" lon="7.1289021"><ele>477.7142857142857</ele><time>2026-04-06T11:19:17.844Z</time></trkpt><trkpt lat="45.1291278" lon="7.1288184"><ele>477.57142857142856</ele><time>2026-04-06T11:19:18.845Z</time></trkpt><trkpt lat="45.1290932" lon="7.1287346"><ele>477.42857142857144</ele><time>2026-04-06T11:19:19.844Z</time></trkpt><trkpt lat="45.1290638" lon="7.1286453"><ele>477.2857142857142</ele><time>2026-04-06T11:19:20.844Z</time></trkpt><trkpt lat="45.1290335" lon="7.1285468"><ele>477.1428571428571</ele><time>2026-04-06T11:19:21.844Z</time></trkpt><trkpt lat="45.1290161" lon="7.1284476"><ele>477.0</ele><time>2026-04-06T11:19:22.843Z</time></trkpt><trkpt lat="45.1289902" lon="7.1283438"><ele>484.6666666666667</ele><time>2026-04-06T11:19:23.843Z</time></trkpt><trkpt lat="45.1289763" lon="7.1282281"><ele>492.33333333333337</ele><time>2026-04-06T11:19:24.843Z</time></trkpt><trkpt lat="45.1289794" lon="7.1281232"><ele>500.0</ele><time>2026-04-06T11:19:25.843Z</time></trkpt><trkpt lat="45.12897" lon="7.128006"><ele>507.6666666666667</ele><time>2026-04-06T11:19:26.844Z</time></trkpt><trkpt lat="45.1289507" lon="7.1278996"><ele>515.3333333333334</ele><time>2026-04-06T11:19:27.844Z</time></trkpt><trkpt lat="45.1289213" lon="7.1277971"><ele>523.0</ele><time>2026-04-06T11:19:28.844Z</time></trkpt><trkpt lat="45.128884" lon="7.1276919"><ele>523.0</ele><time>2026-04-06T11:19:29.844Z</time></trkpt><trkpt lat="45.1288448" lon="7.1275963"><ele>523.0</ele><time>2026-04-06T11:19:30.844Z</time></trkpt><trkpt lat="45.128813" lon="7.1274993"><ele>523.0</ele><time>2026-04-06T11:19:31.844Z</time></trkpt><trkpt lat="45.128788" lon="7.1274031"><ele>523.0</ele><time>2026-04-06T11:19:32.845Z</time></trkpt><trkpt lat="45.1287618" lon="7.1273179"><ele>523.0</ele><time>2026-04-06T11:19:33.843Z</time></trkpt><trkpt lat="45.1287234" lon="7.1271629"><ele>523.0</ele><time>2026-04-06T11:19:35.844Z</time></trkpt><trkpt lat="45.1286975" lon="7.1270017"><ele>523.4</ele><time>2026-04-06T11:19:37.844Z</time></trkpt><trkpt lat="45.1286736" lon="7.1268529"><ele>523.8</ele><time>2026-04-06T11:19:39.843Z</time></trkpt><trkpt lat="45.1286785" lon="7.1267016"><ele>524.2</ele><time>2026-04-06T11:19:41.844Z</time></trkpt><trkpt lat="45.1286928" lon="7.1265486"><ele>524.6</ele><time>2026-04-06T11:19:43.844Z</time></trkpt><trkpt lat="45.1287443" lon="7.1264115"><ele>525.0</ele><time>2026-04-06T11:19:45.844Z</time></trkpt><trkpt lat="45.1288287" lon="7.1263121"><ele>525.0</ele><time>2026-04-06T11:19:47.844Z</time></trkpt><trkpt lat="45.1289183" lon="7.1262247"><ele>525.0</ele><time>2026-04-06T11:19:49.843Z</time></trkpt><trkpt lat="45.1290255" lon="7.1261636"><ele>525.0</ele><time>2026-04-06T11:19:51.844Z</time></trkpt><trkpt lat="45.1291186" lon="7.1261261"><ele>525.0</ele><time>2026-04-06T11:19:53.843Z</time></trkpt><trkpt lat="45.1291755" lon="7.1260838"><ele>525.0</ele><time>2026-04-06T11:19:55.845Z</time></trkpt><trkpt lat="45.1291544" lon="7.125961"><ele>525.0</ele><time>2026-04-06T11:19:58.844Z</time></trkpt><trkpt lat="45.129068" lon="7.1259649"><ele>525.0</ele><time>2026-04-06T11:20:00.844Z</time></trkpt><trkpt lat="45.128945" lon="7.1260293"><ele>525.0</ele><time>2026-04-06T11:20:02.843Z</time></trkpt><trkpt lat="45.1288693" lon="7.1260396"><ele>525.0</ele><time>2026-04-06T11:20:03.843Z</time></trkpt><trkpt lat="45.1287902" lon="7.1260421"><ele>525.0</ele><time>2026-04-06T11:20:04.844Z</time></trkpt><trkpt lat="45.12871" lon="7.1260605"><ele>525.0</ele><time>2026-04-06T11:20:05.844Z</time></trkpt><trkpt lat="45.1286451" lon="7.1260863"><ele>525.0</ele><time>2026-04-06T11:20:06.843Z</time></trkpt><trkpt lat="45.1285405" lon="7.1261319"><ele>525.0</ele><time>2026-04-06T11:20:08.843Z</time></trkpt><trkpt lat="45.1284556" lon="7.1261267"><ele>525.0</ele><time>2026-04-06T11:20:10.843Z</time></trkpt><trkpt lat="45.1284238" lon="7.1260454"><ele>525.0</ele><time>2026-04-06T11:20:12.844Z</time></trkpt><trkpt lat="45.128464" lon="7.1259446"><ele>525.0</ele><time>2026-04-06T11:20:14.843Z</time></trkpt><trkpt lat="45.1285541" lon="7.125893"><ele>525.0</ele><time>2026-04-06T11:20:16.843Z</time></trkpt><trkpt lat="45.1286773" lon="7.1258446"><ele>525.0</ele><time>2026-04-06T11:20:18.845Z</time></trkpt><trkpt lat="45.1287725" lon="7.1257637"><ele>525.0</ele><time>2026-04-06T11:20:20.844Z</time></trkpt><trkpt lat="45.1287768" lon="7.125629"><ele>525.0</ele><time>2026-04-06T11:20:22.843Z</time></trkpt><trkpt lat="45.1286952" lon="7.125554"><ele>525.0</ele><time>2026-04-06T11:20:24.843Z</time></trkpt><trkpt lat="45.1285917" lon="7.1255909"><ele>526.3333333333334</ele><time>2026-04-06T11:20:26.844Z</time></trkpt><trkpt lat="45.1284897" lon="7.1256173"><ele>527.6666666666666</ele><time>2026-04-06T11:20:28.844Z</time></trkpt><trkpt lat="45.1284274" lon="7.1255441"><ele>529.0</ele><time>2026-04-06T11:20:30.844Z</time></trkpt><trkpt lat="45.1283898" lon="7.1253983"><ele>530.3333333333333</ele><time>2026-04-06T11:20:32.845Z</time></trkpt><trkpt lat="45.1283715" lon="7.1253073"><ele>531.6666666666666</ele><time>2026-04-06T11:20:33.844Z</time></trkpt><trkpt lat="45.128353" lon="7.1252127"><ele>533.0</ele><time>2026-04-06T11:20:34.843Z</time></trkpt><trkpt lat="45.1283143" lon="7.1251012"><ele>533.0</ele><time>2026-04-06T11:20:35.843Z</time></trkpt><trkpt lat="45.1282746" lon="7.1249928"><ele>533.0</ele><time>2026-04-06T11:20:36.843Z</time></trkpt><trkpt lat="45.1282431" lon="7.1248866"><ele>533.0</ele><time>2026-04-06T11:20:37.843Z</time></trkpt><trkpt lat="45.1282107" lon="7.1247691"><ele>533.0</ele><time>2026-04-06T11:20:38.844Z</time></trkpt><trkpt lat="45.128181" lon="7.1246477"><ele>533.0</ele><time>2026-04-06T11:20:39.845Z</time></trkpt><trkpt lat="45.1281569" lon="7.124531"><ele>533.0</ele><time>2026-04-06T11:20:40.844Z</time></trkpt><trkpt lat="45.128138" lon="7.1244062"><ele>540.1666666666666</ele><time>2026-04-06T11:20:41.843Z</time></trkpt><trkpt lat="45.1281304" lon="7.1242788"><ele>547.3333333333333</ele><time>2026-04-06T11:20:42.844Z</time></trkpt><trkpt lat="45.1281261" lon="7.1241588"><ele>554.5</ele><time>2026-04-06T11:20:43.844Z</time></trkpt><trkpt lat="45.1281273" lon="7.1240363"><ele>561.6666666666666</ele><time>2026-04-06T11:20:44.844Z</time></trkpt><trkpt lat="45.1281408" lon="7.1239127"><ele>568.8333333333334</ele><time>2026-04-06T11:20:45.844Z</time></trkpt><trkpt lat="45.1281427" lon="7.1237737"><ele>576.0</ele><time>2026-04-06T11:20:46.844Z</time></trkpt><trkpt lat="45.1281419" lon="7.1236375"><ele>576.0</ele><time>2026-04-06T11:20:47.844Z</time></trkpt><trkpt lat="45.1281457" lon="7.1235138"><ele>576.0</ele><time>2026-04-06T11:20:48.844Z</time></trkpt><trkpt lat="45.1281511" lon="7.1233896"><ele>576.0</ele><time>2026-04-06T11:20:49.844Z</time></trkpt><trkpt lat="45.128147" lon="7.1232703"><ele>576.0</ele><time>2026-04-06T11:20:50.844Z</time></trkpt><trkpt lat="45.1281436" lon="7.1231556"><ele>576.0</ele><time>2026-04-06T11:20:51.844Z</time></trkpt><trkpt lat="45.1281311" lon="7.1230411"><ele>576.0</ele><time>2026-04-06T11:20:52.844Z</time></trkpt><trkpt lat="45.1281103" lon="7.1229406"><ele>574.8571428571429</ele><time>2026-04-06T11:20:53.843Z</time></trkpt><trkpt lat="45.1280881" lon="7.1228356"><ele>573.7142857142858</ele><time>2026-04-06T11:20:54.844Z</time></trkpt><trkpt lat="45.1280687" lon="7.1227461"><ele>572.5714285714286</ele><time>2026-04-06T11:20:55.844Z</time></trkpt><trkpt lat="45.1280359" lon="7.1226643"><ele>571.4285714285714</ele><time>2026-04-06T11:20:56.844Z</time></trkpt><trkpt lat="45.1279918" lon="7.1225897"><ele>570.2857142857142</ele><time>2026-04-06T11:20:57.844Z</time></trkpt><trkpt lat="45.1279333" lon="7.1225215"><ele>569.1428571428571</ele><time>2026-04-06T11:20:58.843Z</time></trkpt><trkpt lat="45.1278748" lon="7.1224428"><ele>568.0</ele><time>2026-04-06T11:20:59.843Z</time></trkpt><trkpt lat="45.1278183" lon="7.122351"><ele>566.5</ele><time>2026-04-06T11:21:00.845Z</time></trkpt><trkpt lat="45.1277669" lon="7.122257"><ele>565.0</ele><time>2026-04-06T11:21:01.845Z</time></trkpt><trkpt lat="45.1277212" lon="7.122156"><ele>563.5</ele><time>2026-04-06T11:21:02.843Z</time></trkpt><trkpt lat="45.1276917" lon="7.122055"><ele>562.0</ele><time>2026-04-06T11:21:03.844Z</time></trkpt><trkpt lat="45.1276593" lon="7.1219579"><ele>560.5</ele><time>2026-04-06T11:21:04.843Z</time></trkpt><trkpt lat="45.1276653" lon="7.1218419"><ele>559.0</ele><time>2026-04-06T11:21:05.845Z</time></trkpt><trkpt lat="45.1276484" lon="7.1217302"><ele>559.0</ele><time>2026-04-06T11:21:06.844Z</time></trkpt><trkpt lat="45.127632" lon="7.1216119"><ele>559.0</ele><time>2026-04-06T11:21:07.844Z</time></trkpt><trkpt lat="45.1276188" lon="7.1215019"><ele>559.0</ele><time>2026-04-06T11:21:08.844Z</time></trkpt><trkpt lat="45.1275995" lon="7.1214032"><ele>559.0</ele><time>2026-04-06T11:21:09.844Z</time></trkpt><trkpt lat="45.127568" lon="7.1213058"><ele>559.0</ele><time>2026-04-06T11:21:10.844Z</time></trkpt><trkpt lat="45.1275182" lon="7.1212139"><ele>559.0</ele><time>2026-04-06T11:21:11.844Z</time></trkpt><trkpt lat="45.1274709" lon="7.1211224"><ele>557.8333333333334</ele><time>2026-04-06T11:21:12.844Z</time></trkpt><trkpt lat="45.1274482" lon="7.1210236"><ele>556.6666666666667</ele><time>2026-04-06T11:21:13.844Z</time></trkpt><trkpt lat="45.1274365" lon="7.1209168"><ele>555.5</ele><time>2026-04-06T11:21:14.844Z</time></trkpt><trkpt lat="45.1274397" lon="7.1208059"><ele>554.3333333333334</ele><time>2026-04-06T11:21:15.844Z</time></trkpt><trkpt lat="45.1274442" lon="7.1206842"><ele>553.1666666666666</ele><time>2026-04-06T11:21:16.843Z</time></trkpt><trkpt lat="45.1274328" lon="7.1205797"><ele>552.0</ele><time>2026-04-06T11:21:17.843Z</time></trkpt><trkpt lat="45.1274044" lon="7.1204851"><ele>555.8333333333334</ele><time>2026-04-06T11:21:18.843Z</time></trkpt><trkpt lat="45.127359" lon="7.1203994"><ele>559.6666666666666</ele><time>2026-04-06T11:21:19.843Z</time></trkpt><trkpt lat="45.1272998" lon="7.1203335"><ele>563.5</ele><time>2026-04-06T11:21:20.843Z</time></trkpt><trkpt lat="45.1272349" lon="7.1202643"><ele>567.3333333333333</ele><time>2026-04-06T11:21:21.843Z</time></trkpt><trkpt lat="45.1271689" lon="7.1201901"><ele>571.1666666666666</ele><time>2026-04-06T11:21:22.843Z</time></trkpt><trkpt lat="45.1271054" lon="7.1201076"><ele>575.0</ele><time>2026-04-06T11:21:23.843Z</time></trkpt><trkpt lat="45.1270421" lon="7.120015"><ele>575.0</ele><time>2026-04-06T11:21:24.844Z</time></trkpt><trkpt lat="45.1269803" lon="7.1199095"><ele>575.0</ele><time>2026-04-06T11:21:25.844Z</time></trkpt><trkpt lat="45.1269314" lon="7.1197938"><ele>575.0</ele><time>2026-04-06T11:21:26.844Z</time></trkpt><trkpt lat="45.1268766" lon="7.1196719"><ele>575.0</ele><time>2026-04-06T11:21:27.845Z</time></trkpt><trkpt lat="45.1268203" lon="7.1195705"><ele>575.0</ele><time>2026-04-06T11:21:28.844Z</time></trkpt><trkpt lat="45.1267562" lon="7.1194632"><ele>576.2</ele><time>2026-04-06T11:21:29.844Z</time></trkpt><trkpt lat="45.1266815" lon="7.1193573"><ele>577.4</ele><time>2026-04-06T11:21:30.844Z</time></trkpt><trkpt lat="45.1266036" lon="7.1192609"><ele>578.6</ele><time>2026-04-06T11:21:31.844Z</time></trkpt><trkpt lat="45.1265328" lon="7.119158"><ele>579.8</ele><time>2026-04-06T11:21:32.843Z</time></trkpt><trkpt lat="45.1264628" lon="7.1190618"><ele>581.0</ele><time>2026-04-06T11:21:33.843Z</time></trkpt><trkpt lat="45.1263989" lon="7.1189855"><ele>581.0</ele><time>2026-04-06T11:21:34.844Z</time></trkpt><trkpt lat="45.1263388" lon="7.1188952"><ele>581.0</ele><time>2026-04-06T11:21:35.843Z</time></trkpt><trkpt lat="45.1262879" lon="7.1187909"><ele>581.0</ele><time>2026-04-06T11:21:36.843Z</time></trkpt><trkpt lat="45.1262382" lon="7.118691"><ele>581.0</ele><time>2026-04-06T11:21:37.843Z</time></trkpt><trkpt lat="45.1261813" lon="7.1186075"><ele>581.0</ele><time>2026-04-06T11:21:38.843Z</time></trkpt><trkpt lat="45.1261113" lon="7.1185442"><ele>581.0</ele><time>2026-04-06T11:21:39.843Z</time></trkpt><trkpt lat="45.1260346" lon="7.1184967"><ele>581.0</ele><time>2026-04-06T11:21:40.843Z</time></trkpt><trkpt lat="45.1259587" lon="7.1184434"><ele>581.0</ele><time>2026-04-06T11:21:41.844Z</time></trkpt><trkpt lat="45.1258923" lon="7.1183712"><ele>581.0</ele><time>2026-04-06T11:21:42.844Z</time></trkpt><trkpt lat="45.1258418" lon="7.1182837"><ele>581.0</ele><time>2026-04-06T11:21:43.844Z</time></trkpt><trkpt lat="45.1257952" lon="7.118192"><ele>581.0</ele><time>2026-04-06T11:21:44.844Z</time></trkpt><trkpt lat="45.1257484" lon="7.1181036"><ele>581.0</ele><time>2026-04-06T11:21:45.844Z</time></trkpt><trkpt lat="45.1257127" lon="7.1180016"><ele>586.0</ele><time>2026-04-06T11:21:46.844Z</time></trkpt><trkpt lat="45.1256846" lon="7.1178916"><ele>591.0</ele><time>2026-04-06T11:21:47.844Z</time></trkpt><trkpt lat="45.1256451" lon="7.1177815"><ele>596.0</ele><time>2026-04-06T11:21:48.845Z</time></trkpt><trkpt lat="45.1255962" lon="7.1176797"><ele>601.0</ele><time>2026-04-06T11:21:49.843Z</time></trkpt><trkpt lat="45.1255453" lon="7.1175802"><ele>606.0</ele><time>2026-04-06T11:21:50.843Z</time></trkpt><trkpt lat="45.1255125" lon="7.1174808"><ele>611.0</ele><time>2026-04-06T11:21:51.844Z</time></trkpt><trkpt lat="45.1254799" lon="7.117375"><ele>611.0</ele><time>2026-04-06T11:21:52.844Z</time></trkpt><trkpt lat="45.1254961" lon="7.1172364"><ele>611.0</ele><time>2026-04-06T11:21:53.844Z</time></trkpt><trkpt lat="45.1254823" lon="7.1171066"><ele>611.0</ele><time>2026-04-06T11:21:54.844Z</time></trkpt><trkpt lat="45.1254499" lon="7.1169825"><ele>611.0</ele><time>2026-04-06T11:21:55.844Z</time></trkpt><trkpt lat="45.1254327" lon="7.1168636"><ele>611.0</ele><time>2026-04-06T11:21:56.843Z</time></trkpt><trkpt lat="45.1254035" lon="7.11674"><ele>611.0</ele><time>2026-04-06T11:21:57.844Z</time></trkpt><trkpt lat="45.1254351" lon="7.1166057"><ele>611.0</ele><time>2026-04-06T11:21:58.844Z</time></trkpt><trkpt lat="45.1254222" lon="7.1164692"><ele>611.0</ele><time>2026-04-06T11:21:59.844Z</time></trkpt><trkpt lat="45.1254174" lon="7.1163431"><ele>611.0</ele><time>2026-04-06T11:22:00.844Z</time></trkpt><trkpt lat="45.1254248" lon="7.1162083"><ele>611.0</ele><time>2026-04-06T11:22:01.844Z</time></trkpt><trkpt lat="45.1254295" lon="7.1160939"><ele>611.1666666666666</ele><time>2026-04-06T11:22:02.843Z</time></trkpt><trkpt lat="45.1254171" lon="7.1159731"><ele>611.3333333333333</ele><time>2026-04-06T11:22:03.844Z</time></trkpt><trkpt lat="45.1254033" lon="7.1158553"><ele>611.5</ele><time>2026-04-06T11:22:04.843Z</time></trkpt><trkpt lat="45.1253973" lon="7.1157209"><ele>611.6666666666666</ele><time>2026-04-06T11:22:05.843Z</time></trkpt><trkpt lat="45.1254036" lon="7.1156004"><ele>611.8333333333334</ele><time>2026-04-06T11:22:06.843Z</time></trkpt><trkpt lat="45.1254021" lon="7.1154703"><ele>612.0</ele><time>2026-04-06T11:22:07.842Z</time></trkpt><trkpt lat="45.1254283" lon="7.1153494"><ele>612.0</ele><time>2026-04-06T11:22:08.843Z</time></trkpt><trkpt lat="45.1254533" lon="7.1152503"><ele>612.0</ele><time>2026-04-06T11:22:09.843Z</time></trkpt><trkpt lat="45.1254424" lon="7.115119"><ele>612.0</ele><time>2026-04-06T11:22:10.843Z</time></trkpt><trkpt lat="45.1254256" lon="7.1149271"><ele>612.0</ele><time>2026-04-06T11:22:11.843Z</time></trkpt><trkpt lat="45.1254493" lon="7.1147697"><ele>612.0</ele><time>2026-04-06T11:22:12.843Z</time></trkpt><trkpt lat="45.1254595" lon="7.1146292"><ele>612.2</ele><time>2026-04-06T11:22:13.843Z</time></trkpt><trkpt lat="45.1255264" lon="7.1144992"><ele>612.4000000000001</ele><time>2026-04-06T11:22:14.843Z</time></trkpt><trkpt lat="45.1255532" lon="7.1143736"><ele>612.5999999999999</ele><time>2026-04-06T11:22:15.843Z</time></trkpt><trkpt lat="45.1256047" lon="7.1142449"><ele>612.8</ele><time>2026-04-06T11:22:16.843Z</time></trkpt><trkpt lat="45.1256355" lon="7.1141086"><ele>613.0</ele><time>2026-04-06T11:22:17.843Z</time></trkpt><trkpt lat="45.1256756" lon="7.1139785"><ele>613.8</ele><time>2026-04-06T11:22:18.843Z</time></trkpt><trkpt lat="45.1256842" lon="7.1138539"><ele>614.5999999999999</ele><time>2026-04-06T11:22:19.843Z</time></trkpt><trkpt lat="45.1257067" lon="7.1137126"><ele>615.4000000000001</ele><time>2026-04-06T11:22:20.842Z</time></trkpt><trkpt lat="45.1257217" lon="7.113579"><ele>616.2</ele><time>2026-04-06T11:22:21.842Z</time></trkpt><trkpt lat="45.1257314" lon="7.1134583"><ele>617.0</ele><time>2026-04-06T11:22:22.842Z</time></trkpt><trkpt lat="45.1257318" lon="7.1133259"><ele>617.8000000000001</ele><time>2026-04-06T11:22:23.843Z</time></trkpt><trkpt lat="45.1257195" lon="7.1131898"><ele>618.6</ele><time>2026-04-06T11:22:24.842Z</time></trkpt><trkpt lat="45.1257031" lon="7.1130613"><ele>619.4000000000001</ele><time>2026-04-06T11:22:25.842Z</time></trkpt><trkpt lat="45.1256686" lon="7.1129187"><ele>620.2</ele><time>2026-04-06T11:22:26.844Z</time></trkpt><trkpt lat="45.1256413" lon="7.112788"><ele>621.0</ele><time>2026-04-06T11:22:27.843Z</time></trkpt><trkpt lat="45.1256163" lon="7.1126852"><ele>621.0</ele><time>2026-04-06T11:22:28.843Z</time></trkpt><trkpt lat="45.1255913" lon="7.1125725"><ele>621.0</ele><time>2026-04-06T11:22:29.843Z</time></trkpt><trkpt lat="45.1255503" lon="7.112488"><ele>621.0</ele><time>2026-04-06T11:22:30.843Z</time></trkpt><trkpt lat="45.1254569" lon="7.1124112"><ele>621.0</ele><time>2026-04-06T11:22:31.843Z</time></trkpt><trkpt lat="45.1254056" lon="7.1123178"><ele>621.0</ele><time>2026-04-06T11:22:32.843Z</time></trkpt><trkpt lat="45.125358" lon="7.112212"><ele>621.0</ele><time>2026-04-06T11:22:33.844Z</time></trkpt><trkpt lat="45.1253192" lon="7.1121007"><ele>620.6666666666666</ele><time>2026-04-06T11:22:34.842Z</time></trkpt><trkpt lat="45.1253046" lon="7.1119902"><ele>620.3333333333334</ele><time>2026-04-06T11:22:35.842Z</time></trkpt><trkpt lat="45.1252853" lon="7.111865"><ele>620.0</ele><time>2026-04-06T11:22:36.842Z</time></trkpt><trkpt lat="45.1252595" lon="7.1117427"><ele>619.6666666666667</ele><time>2026-04-06T11:22:37.842Z</time></trkpt><trkpt lat="45.1252478" lon="7.1116168"><ele>619.3333333333334</ele><time>2026-04-06T11:22:38.842Z</time></trkpt><trkpt lat="45.1252297" lon="7.1114915"><ele>619.0</ele><time>2026-04-06T11:22:39.842Z</time></trkpt><trkpt lat="45.1252179" lon="7.1113641"><ele>619.0</ele><time>2026-04-06T11:22:40.842Z</time></trkpt><trkpt lat="45.1251924" lon="7.1111786"><ele>619.0</ele><time>2026-04-06T11:22:41.842Z</time></trkpt><trkpt lat="45.1251709" lon="7.11104"><ele>619.0</ele><time>2026-04-06T11:22:42.843Z</time></trkpt><trkpt lat="45.1251514" lon="7.1108916"><ele>619.0</ele><time>2026-04-06T11:22:43.843Z</time></trkpt><trkpt lat="45.1251259" lon="7.1107557"><ele>619.0</ele><time>2026-04-06T11:22:44.843Z</time></trkpt><trkpt lat="45.1250835" lon="7.1106114"><ele>618.6</ele><time>2026-04-06T11:22:45.843Z</time></trkpt><trkpt lat="45.1250446" lon="7.1104763"><ele>618.2</ele><time>2026-04-06T11:22:46.843Z</time></trkpt><trkpt lat="45.1249981" lon="7.1103327"><ele>617.8000000000001</ele><time>2026-04-06T11:22:47.843Z</time></trkpt><trkpt lat="45.124953" lon="7.1102005"><ele>617.4</ele><time>2026-04-06T11:22:48.843Z</time></trkpt><trkpt lat="45.1249173" lon="7.1100673"><ele>617.0</ele><time>2026-04-06T11:22:49.842Z</time></trkpt><trkpt lat="45.1248899" lon="7.1099344"><ele>622.2</ele><time>2026-04-06T11:22:50.843Z</time></trkpt><trkpt lat="45.1248687" lon="7.1097893"><ele>627.4000000000001</ele><time>2026-04-06T11:22:51.843Z</time></trkpt><trkpt lat="45.1248505" lon="7.1096396"><ele>632.5999999999999</ele><time>2026-04-06T11:22:52.843Z</time></trkpt><trkpt lat="45.1248388" lon="7.10951"><ele>637.8</ele><time>2026-04-06T11:22:53.842Z</time></trkpt><trkpt lat="45.1248422" lon="7.1093124"><ele>643.0</ele><time>2026-04-06T11:22:55.843Z</time></trkpt><trkpt lat="45.1248375" lon="7.1091862"><ele>643.0</ele><time>2026-04-06T11:22:56.843Z</time></trkpt><trkpt lat="45.124825" lon="7.1090901"><ele>643.0</ele><time>2026-04-06T11:22:57.843Z</time></trkpt><trkpt lat="45.1248065" lon="7.1089911"><ele>643.0</ele><time>2026-04-06T11:22:58.843Z</time></trkpt><trkpt lat="45.1247802" lon="7.1088962"><ele>643.0</ele><time>2026-04-06T11:22:59.843Z</time></trkpt><trkpt lat="45.1247437" lon="7.1088109"><ele>643.0</ele><time>2026-04-06T11:23:00.843Z</time></trkpt><trkpt lat="45.1246951" lon="7.1087433"><ele>643.0</ele><time>2026-04-06T11:23:01.843Z</time></trkpt><trkpt lat="45.1246314" lon="7.1087009"><ele>643.0</ele><time>2026-04-06T11:23:02.843Z</time></trkpt><trkpt lat="45.1245574" lon="7.1086658"><ele>641.0</ele><time>2026-04-06T11:23:03.844Z</time></trkpt><trkpt lat="45.1244682" lon="7.108633"><ele>639.0</ele><time>2026-04-06T11:23:04.844Z</time></trkpt><trkpt lat="45.1243767" lon="7.1086004"><ele>637.0</ele><time>2026-04-06T11:23:05.843Z</time></trkpt><trkpt lat="45.1242882" lon="7.1085675"><ele>635.0</ele><time>2026-04-06T11:23:06.843Z</time></trkpt><trkpt lat="45.1241953" lon="7.1085353"><ele>633.0</ele><time>2026-04-06T11:23:07.843Z</time></trkpt><trkpt lat="45.1241104" lon="7.1084716"><ele>633.0</ele><time>2026-04-06T11:23:08.842Z</time></trkpt><trkpt lat="45.1240231" lon="7.1084187"><ele>633.0</ele><time>2026-04-06T11:23:09.842Z</time></trkpt><trkpt lat="45.123942" lon="7.1083659"><ele>633.0</ele><time>2026-04-06T11:23:10.843Z</time></trkpt><trkpt lat="45.1238587" lon="7.108311"><ele>633.0</ele><time>2026-04-06T11:23:11.843Z</time></trkpt><trkpt lat="45.1237745" lon="7.1082606"><ele>633.0</ele><time>2026-04-06T11:23:12.843Z</time></trkpt><trkpt lat="45.1236994" lon="7.1082109"><ele>633.6666666666666</ele><time>2026-04-06T11:23:13.842Z</time></trkpt><trkpt lat="45.1236316" lon="7.1081674"><ele>634.3333333333334</ele><time>2026-04-06T11:23:14.843Z</time></trkpt><trkpt lat="45.1235588" lon="7.1081279"><ele>635.0</ele><time>2026-04-06T11:23:15.842Z</time></trkpt><trkpt lat="45.1234798" lon="7.1081132"><ele>635.6666666666667</ele><time>2026-04-06T11:23:16.843Z</time></trkpt><trkpt lat="45.1233977" lon="7.10812"><ele>636.3333333333334</ele><time>2026-04-06T11:23:17.843Z</time></trkpt><trkpt lat="45.123307" lon="7.1081236"><ele>637.0</ele><time>2026-04-06T11:23:18.842Z</time></trkpt><trkpt lat="45.1232116" lon="7.1081173"><ele>638.0</ele><time>2026-04-06T11:23:19.842Z</time></trkpt><trkpt lat="45.1231222" lon="7.1080983"><ele>639.0</ele><time>2026-04-06T11:23:20.843Z</time></trkpt><trkpt lat="45.1230361" lon="7.1080595"><ele>640.0</ele><time>2026-04-06T11:23:21.842Z</time></trkpt><trkpt lat="45.1229644" lon="7.1079844"><ele>641.0</ele><time>2026-04-06T11:23:22.842Z</time></trkpt><trkpt lat="45.1228954" lon="7.1078975"><ele>642.0</ele><time>2026-04-06T11:23:23.843Z</time></trkpt><trkpt lat="45.1228252" lon="7.1078021"><ele>642.0</ele><time>2026-04-06T11:23:24.843Z</time></trkpt><trkpt lat="45.1227645" lon="7.107701"><ele>642.0</ele><time>2026-04-06T11:23:25.842Z</time></trkpt><trkpt lat="45.1227124" lon="7.1075995"><ele>642.0</ele><time>2026-04-06T11:23:26.843Z</time></trkpt><trkpt lat="45.1226744" lon="7.1074858"><ele>642.0</ele><time>2026-04-06T11:23:27.844Z</time></trkpt><trkpt lat="45.1226374" lon="7.1073791"><ele>642.0</ele><time>2026-04-06T11:23:28.843Z</time></trkpt><trkpt lat="45.1226006" lon="7.1072772"><ele>642.0</ele><time>2026-04-06T11:23:29.843Z</time></trkpt><trkpt lat="45.1225373" lon="7.1072065"><ele>641.5</ele><time>2026-04-06T11:23:30.843Z</time></trkpt><trkpt lat="45.1224427" lon="7.1071716"><ele>641.0</ele><time>2026-04-06T11:23:31.842Z</time></trkpt><trkpt lat="45.122369" lon="7.1071627"><ele>640.5</ele><time>2026-04-06T11:23:32.842Z</time></trkpt><trkpt lat="45.1222963" lon="7.1071866"><ele>640.0</ele><time>2026-04-06T11:23:33.843Z</time></trkpt><trkpt lat="45.1222307" lon="7.1072085"><ele>639.5</ele><time>2026-04-06T11:23:34.843Z</time></trkpt><trkpt lat="45.122141" lon="7.1071562"><ele>639.0</ele><time>2026-04-06T11:23:36.842Z</time></trkpt><trkpt lat="45.1221416" lon="7.107001"><ele>639.0000000000001</ele><time>2026-04-06T11:23:38.843Z</time></trkpt><trkpt lat="45.1221875" lon="7.1069173"><ele>639.0</ele><time>2026-04-06T11:23:39.842Z</time></trkpt><trkpt lat="45.122223" lon="7.1068268"><ele>639.0</ele><time>2026-04-06T11:23:40.842Z</time></trkpt><trkpt lat="45.122301" lon="7.1067606"><ele>639.0</ele><time>2026-04-06T11:23:41.843Z</time></trkpt><trkpt lat="45.1223553" lon="7.1066978"><ele>639.0</ele><time>2026-04-06T11:23:42.843Z</time></trkpt><trkpt lat="45.1223984" lon="7.1066313"><ele>639.0000000000001</ele><time>2026-04-06T11:23:43.842Z</time></trkpt><trkpt lat="45.1224252" lon="7.1065417"><ele>639.0</ele><time>2026-04-06T11:23:44.843Z</time></trkpt><trkpt lat="45.1224325" lon="7.1064352"><ele>639.6666666666666</ele><time>2026-04-06T11:23:45.843Z</time></trkpt><trkpt lat="45.1224359" lon="7.1063214"><ele>640.3333333333334</ele><time>2026-04-06T11:23:46.842Z</time></trkpt><trkpt lat="45.1224329" lon="7.1061969"><ele>641.0</ele><time>2026-04-06T11:23:47.842Z</time></trkpt><trkpt lat="45.1224367" lon="7.1060779"><ele>641.6666666666667</ele><time>2026-04-06T11:23:48.844Z</time></trkpt><trkpt lat="45.1224484" lon="7.1059642"><ele>642.3333333333334</ele><time>2026-04-06T11:23:49.844Z</time></trkpt><trkpt lat="45.1224558" lon="7.1058553"><ele>643.0</ele><time>2026-04-06T11:23:50.842Z</time></trkpt><trkpt lat="45.1224416" lon="7.1057333"><ele>643.8</ele><time>2026-04-06T11:23:51.843Z</time></trkpt><trkpt lat="45.1224199" lon="7.1056103"><ele>644.5999999999999</ele><time>2026-04-06T11:23:52.843Z</time></trkpt><trkpt lat="45.1223939" lon="7.1054723"><ele>645.4000000000001</ele><time>2026-04-06T11:23:53.843Z</time></trkpt><trkpt lat="45.1223707" lon="7.1053252"><ele>646.2</ele><time>2026-04-06T11:23:54.843Z</time></trkpt><trkpt lat="45.1223498" lon="7.1051816"><ele>647.0</ele><time>2026-04-06T11:23:55.842Z</time></trkpt><trkpt lat="45.1223319" lon="7.1050527"><ele>647.0</ele><time>2026-04-06T11:23:56.843Z</time></trkpt><trkpt lat="45.1223206" lon="7.1049396"><ele>647.0</ele><time>2026-04-06T11:23:57.844Z</time></trkpt><trkpt lat="45.1223076" lon="7.1048398"><ele>647.0</ele><time>2026-04-06T11:23:58.843Z</time></trkpt><trkpt lat="45.122285" lon="7.1046976"><ele>647.0</ele><time>2026-04-06T11:24:00.843Z</time></trkpt><trkpt lat="45.1222641" lon="7.1046118"><ele>647.0</ele><time>2026-04-06T11:24:02.842Z</time></trkpt><trkpt lat="45.1222144" lon="7.1045328"><ele>647.0</ele><time>2026-04-06T11:24:22.844Z</time></trkpt><trkpt lat="45.1221391" lon="7.1044645"><ele>646.1666666666666</ele><time>2026-04-06T11:24:24.842Z</time></trkpt><trkpt lat="45.1220531" lon="7.1043685"><ele>645.3333333333333</ele><time>2026-04-06T11:24:26.843Z</time></trkpt><trkpt lat="45.1219962" lon="7.1043075"><ele>644.5</ele><time>2026-04-06T11:24:27.844Z</time></trkpt><trkpt lat="45.1219316" lon="7.1042338"><ele>643.6666666666666</ele><time>2026-04-06T11:24:28.843Z</time></trkpt><trkpt lat="45.121864" lon="7.1041572"><ele>642.8333333333334</ele><time>2026-04-06T11:24:29.843Z</time></trkpt><trkpt lat="45.1217903" lon="7.104078"><ele>642.0</ele><time>2026-04-06T11:24:30.842Z</time></trkpt><trkpt lat="45.1217093" lon="7.1039913"><ele>642.0</ele><time>2026-04-06T11:24:31.843Z</time></trkpt><trkpt lat="45.1216243" lon="7.1038956"><ele>642.0</ele><time>2026-04-06T11:24:32.843Z</time></trkpt><trkpt lat="45.1215324" lon="7.1037989"><ele>642.0</ele><time>2026-04-06T11:24:33.843Z</time></trkpt><trkpt lat="45.121438" lon="7.1037025"><ele>642.0</ele><time>2026-04-06T11:24:34.843Z</time></trkpt><trkpt lat="45.1213462" lon="7.1036367"><ele>642.0</ele><time>2026-04-06T11:24:35.843Z</time></trkpt><trkpt lat="45.121238" lon="7.1035994"><ele>644.5</ele><time>2026-04-06T11:24:36.843Z</time></trkpt><trkpt lat="45.1211228" lon="7.1035882"><ele>647.0</ele><time>2026-04-06T11:24:37.844Z</time></trkpt><trkpt lat="45.1210058" lon="7.1035823"><ele>649.5</ele><time>2026-04-06T11:24:38.843Z</time></trkpt><trkpt lat="45.1208906" lon="7.1035739"><ele>652.0</ele><time>2026-04-06T11:24:39.842Z</time></trkpt><trkpt lat="45.1207744" lon="7.1035425"><ele>654.0</ele><time>2026-04-06T11:24:40.843Z</time></trkpt><trkpt lat="45.1206627" lon="7.1034961"><ele>656.0</ele><time>2026-04-06T11:24:41.843Z</time></trkpt><trkpt lat="45.120567" lon="7.1034262"><ele>658.0</ele><time>2026-04-06T11:24:42.842Z</time></trkpt><trkpt lat="45.1204817" lon="7.103343"><ele>660.0</ele><time>2026-04-06T11:24:43.842Z</time></trkpt><trkpt lat="45.1204186" lon="7.1032229"><ele>662.0</ele><time>2026-04-06T11:24:44.843Z</time></trkpt><trkpt lat="45.1203599" lon="7.1030981"><ele>662.0</ele><time>2026-04-06T11:24:45.843Z</time></trkpt><trkpt lat="45.1203185" lon="7.1029439"><ele>662.0</ele><time>2026-04-06T11:24:46.842Z</time></trkpt><trkpt lat="45.120284" lon="7.1027773"><ele>662.0</ele><time>2026-04-06T11:24:47.843Z</time></trkpt><trkpt lat="45.1202553" lon="7.1026109"><ele>662.0</ele><time>2026-04-06T11:24:48.843Z</time></trkpt><trkpt lat="45.1202258" lon="7.1024638"><ele>661.5</ele><time>2026-04-06T11:24:49.842Z</time></trkpt><trkpt lat="45.1201969" lon="7.1023339"><ele>661.0</ele><time>2026-04-06T11:24:50.842Z</time></trkpt><trkpt lat="45.1201677" lon="7.1022335"><ele>660.5</ele><time>2026-04-06T11:24:51.843Z</time></trkpt><trkpt lat="45.1201069" lon="7.1021359"><ele>660.0</ele><time>2026-04-06T11:24:53.842Z</time></trkpt><trkpt lat="45.1200583" lon="7.1020295"><ele>659.5</ele><time>2026-04-06T11:25:05.842Z</time></trkpt><trkpt lat="45.1200241" lon="7.1019537"><ele>659.0</ele><time>2026-04-06T11:25:06.844Z</time></trkpt><trkpt lat="45.120001" lon="7.1018536"><ele>659.0</ele><time>2026-04-06T11:25:07.844Z</time></trkpt><trkpt lat="45.119992" lon="7.1017251"><ele>659.0</ele><time>2026-04-06T11:25:08.842Z</time></trkpt><trkpt lat="45.1199853" lon="7.1015811"><ele>659.0</ele><time>2026-04-06T11:25:09.842Z</time></trkpt><trkpt lat="45.1199751" lon="7.1014239"><ele>659.0</ele><time>2026-04-06T11:25:10.843Z</time></trkpt><trkpt lat="45.1199614" lon="7.1012533"><ele>659.0</ele><time>2026-04-06T11:25:11.842Z</time></trkpt><trkpt lat="45.1199488" lon="7.1010807"><ele>659.25</ele><time>2026-04-06T11:25:12.842Z</time></trkpt><trkpt lat="45.1199354" lon="7.1008972"><ele>659.5</ele><time>2026-04-06T11:25:13.843Z</time></trkpt><trkpt lat="45.119924" lon="7.1007058"><ele>659.75</ele><time>2026-04-06T11:25:14.843Z</time></trkpt><trkpt lat="45.1199232" lon="7.1005079"><ele>660.0</ele><time>2026-04-06T11:25:15.843Z</time></trkpt><trkpt lat="45.1199282" lon="7.100311"><ele>660.25</ele><time>2026-04-06T11:25:16.843Z</time></trkpt><trkpt lat="45.1199367" lon="7.1001096"><ele>660.5</ele><time>2026-04-06T11:25:17.843Z</time></trkpt><trkpt lat="45.1199471" lon="7.0999131"><ele>660.75</ele><time>2026-04-06T11:25:18.843Z</time></trkpt><trkpt lat="45.1199576" lon="7.0997285"><ele>661.0</ele><time>2026-04-06T11:25:19.843Z</time></trkpt><trkpt lat="45.1199725" lon="7.0995515"><ele>660.75</ele><time>2026-04-06T11:25:20.843Z</time></trkpt><trkpt lat="45.1199902" lon="7.099386"><ele>660.5</ele><time>2026-04-06T11:25:21.842Z</time></trkpt><trkpt lat="45.1200057" lon="7.0992172"><ele>660.25</ele><time>2026-04-06T11:25:22.842Z</time></trkpt><trkpt lat="45.1200159" lon="7.0990493"><ele>660.0</ele><time>2026-04-06T11:25:23.843Z</time></trkpt><trkpt lat="45.120018" lon="7.0988817"><ele>660.0</ele><time>2026-04-06T11:25:24.843Z</time></trkpt><trkpt lat="45.1200209" lon="7.0987095"><ele>660.0</ele><time>2026-04-06T11:25:25.843Z</time></trkpt><trkpt lat="45.120021" lon="7.0985353"><ele>660.0</ele><time>2026-04-06T11:25:26.843Z</time></trkpt><trkpt lat="45.1200216" lon="7.0983524"><ele>660.0</ele><time>2026-04-06T11:25:27.842Z</time></trkpt><trkpt lat="45.1200231" lon="7.0981614"><ele>660.5</ele><time>2026-04-06T11:25:28.843Z</time></trkpt><trkpt lat="45.1200209" lon="7.0979675"><ele>661.0</ele><time>2026-04-06T11:25:29.842Z</time></trkpt><trkpt lat="45.1200166" lon="7.0977681"><ele>661.5</ele><time>2026-04-06T11:25:30.842Z</time></trkpt><trkpt lat="45.1200127" lon="7.0975813"><ele>662.0</ele><time>2026-04-06T11:25:31.843Z</time></trkpt><trkpt lat="45.1200105" lon="7.097401"><ele>662.5</ele><time>2026-04-06T11:25:32.843Z</time></trkpt><trkpt lat="45.1200146" lon="7.0972107"><ele>663.0</ele><time>2026-04-06T11:25:33.843Z</time></trkpt><trkpt lat="45.1200178" lon="7.0970189"><ele>663.5</ele><time>2026-04-06T11:25:34.844Z</time></trkpt><trkpt lat="45.1200172" lon="7.096826"><ele>664.0</ele><time>2026-04-06T11:25:35.844Z</time></trkpt><trkpt lat="45.120023" lon="7.096634"><ele>664.5</ele><time>2026-04-06T11:25:36.843Z</time></trkpt><trkpt lat="45.1200396" lon="7.0964367"><ele>665.0</ele><time>2026-04-06T11:25:37.843Z</time></trkpt><trkpt lat="45.1200586" lon="7.0962388"><ele>665.5</ele><time>2026-04-06T11:25:38.844Z</time></trkpt><trkpt lat="45.1200752" lon="7.0960422"><ele>666.0</ele><time>2026-04-06T11:25:39.843Z</time></trkpt><trkpt lat="45.1200882" lon="7.095855"><ele>666.4</ele><time>2026-04-06T11:25:40.843Z</time></trkpt><trkpt lat="45.1201005" lon="7.0956836"><ele>666.8</ele><time>2026-04-06T11:25:41.843Z</time></trkpt><trkpt lat="45.120113" lon="7.0955365"><ele>667.1999999999999</ele><time>2026-04-06T11:25:42.843Z</time></trkpt><trkpt lat="45.1201257" lon="7.0954093"><ele>667.5999999999999</ele><time>2026-04-06T11:25:43.843Z</time></trkpt><trkpt lat="45.1201332" lon="7.095306"><ele>668.0</ele><time>2026-04-06T11:25:44.843Z</time></trkpt><trkpt lat="45.1201279" lon="7.0951463"><ele>668.0</ele><time>2026-04-06T11:25:46.843Z</time></trkpt><trkpt lat="45.1200738" lon="7.0950338"><ele>668.0</ele><time>2026-04-06T11:25:48.842Z</time></trkpt><trkpt lat="45.1200629" lon="7.0948518"><ele>668.0</ele><time>2026-04-06T11:25:50.843Z</time></trkpt><trkpt lat="45.1200722" lon="7.0947415"><ele>668.0</ele><time>2026-04-06T11:25:51.842Z</time></trkpt><trkpt lat="45.1200753" lon="7.0946317"><ele>668.0</ele><time>2026-04-06T11:25:52.842Z</time></trkpt><trkpt lat="45.1200692" lon="7.0944732"><ele>668.3333333333333</ele><time>2026-04-06T11:25:54.843Z</time></trkpt><trkpt lat="45.1200144" lon="7.0943744"><ele>668.6666666666666</ele><time>2026-04-06T11:25:56.843Z</time></trkpt><trkpt lat="45.1199643" lon="7.094438"><ele>669.0</ele><time>2026-04-06T11:25:58.843Z</time></trkpt><trkpt lat="45.1199904" lon="7.0946062"><ele>669.3333333333334</ele><time>2026-04-06T11:26:00.842Z</time></trkpt><trkpt lat="45.1199961" lon="7.0947135"><ele>669.6666666666667</ele><time>2026-04-06T11:26:01.842Z</time></trkpt><trkpt lat="45.1199869" lon="7.0948139"><ele>670.0</ele><time>2026-04-06T11:26:02.842Z</time></trkpt><trkpt lat="45.1199657" lon="7.0949177"><ele>669.6</ele><time>2026-04-06T11:26:03.841Z</time></trkpt><trkpt lat="45.1199406" lon="7.0950352"><ele>669.2</ele><time>2026-04-06T11:26:04.841Z</time></trkpt><trkpt lat="45.11992" lon="7.0951564"><ele>668.8</ele><time>2026-04-06T11:26:05.841Z</time></trkpt><trkpt lat="45.1198916" lon="7.0952832"><ele>668.4</ele><time>2026-04-06T11:26:06.841Z</time></trkpt><trkpt lat="45.1198543" lon="7.0954107"><ele>668.0</ele><time>2026-04-06T11:26:07.841Z</time></trkpt><trkpt lat="45.1198111" lon="7.0955402"><ele>672.75</ele><time>2026-04-06T11:26:08.841Z</time></trkpt><trkpt lat="45.1197548" lon="7.0956748"><ele>677.5</ele><time>2026-04-06T11:26:09.841Z</time></trkpt><trkpt lat="45.1196903" lon="7.0958118"><ele>682.25</ele><time>2026-04-06T11:26:10.841Z</time></trkpt><trkpt lat="45.1196218" lon="7.0959439"><ele>687.0</ele><time>2026-04-06T11:26:11.842Z</time></trkpt><trkpt lat="45.1195428" lon="7.0960788"><ele>687.4000000000001</ele><time>2026-04-06T11:26:12.842Z</time></trkpt><trkpt lat="45.1194577" lon="7.096203"><ele>687.8000000000001</ele><time>2026-04-06T11:26:13.842Z</time></trkpt><trkpt lat="45.1193685" lon="7.0963127"><ele>688.2</ele><time>2026-04-06T11:26:14.842Z</time></trkpt><trkpt lat="45.1192871" lon="7.0964045"><ele>688.6</ele><time>2026-04-06T11:26:15.842Z</time></trkpt><trkpt lat="45.1192134" lon="7.0964707"><ele>689.0</ele><time>2026-04-06T11:26:16.842Z</time></trkpt><trkpt lat="45.1191287" lon="7.0965106"><ele>693.6666666666666</ele><time>2026-04-06T11:26:17.843Z</time></trkpt><trkpt lat="45.1190389" lon="7.0965549"><ele>698.3333333333333</ele><time>2026-04-06T11:26:18.842Z</time></trkpt><trkpt lat="45.1189659" lon="7.0964788"><ele>703.0</ele><time>2026-04-06T11:26:19.841Z</time></trkpt><trkpt lat="45.1188834" lon="7.0964903"><ele>707.6666666666666</ele><time>2026-04-06T11:26:20.842Z</time></trkpt><trkpt lat="45.1188062" lon="7.0964974"><ele>712.3333333333334</ele><time>2026-04-06T11:26:21.842Z</time></trkpt><trkpt lat="45.1187434" lon="7.0965939"><ele>717.0</ele><time>2026-04-06T11:26:22.842Z</time></trkpt><trkpt lat="45.1186904" lon="7.0966626"><ele>717.0</ele><time>2026-04-06T11:26:23.842Z</time></trkpt><trkpt lat="45.1186296" lon="7.0967408"><ele>717.0</ele><time>2026-04-06T11:26:24.841Z</time></trkpt><trkpt lat="45.1185852" lon="7.0968445"><ele>717.0</ele><time>2026-04-06T11:26:25.841Z</time></trkpt><trkpt lat="45.1186212" lon="7.0969999"><ele>717.0</ele><time>2026-04-06T11:26:26.842Z</time></trkpt><trkpt lat="45.118671" lon="7.0971285"><ele>717.0</ele><time>2026-04-06T11:26:27.841Z</time></trkpt><trkpt lat="45.1187052" lon="7.0972528"><ele>717.0</ele><time>2026-04-06T11:26:28.842Z</time></trkpt><trkpt lat="45.1187461" lon="7.0973871"><ele>717.0</ele><time>2026-04-06T11:26:29.842Z</time></trkpt><trkpt lat="45.1187859" lon="7.0975252"><ele>717.0</ele><time>2026-04-06T11:26:30.841Z</time></trkpt><trkpt lat="45.1188307" lon="7.0976592"><ele>717.0</ele><time>2026-04-06T11:26:31.841Z</time></trkpt><trkpt lat="45.1188665" lon="7.0977997"><ele>717.0</ele><time>2026-04-06T11:26:32.841Z</time></trkpt><trkpt lat="45.1188928" lon="7.0979449"><ele>716.8</ele><time>2026-04-06T11:26:33.843Z</time></trkpt><trkpt lat="45.118909" lon="7.0980958"><ele>716.6</ele><time>2026-04-06T11:26:34.842Z</time></trkpt><trkpt lat="45.1189298" lon="7.0982544"><ele>716.4</ele><time>2026-04-06T11:26:35.842Z</time></trkpt><trkpt lat="45.1189512" lon="7.0984028"><ele>716.1999999999999</ele><time>2026-04-06T11:26:36.842Z</time></trkpt><trkpt lat="45.1189693" lon="7.0985339"><ele>716.0</ele><time>2026-04-06T11:26:37.843Z</time></trkpt><trkpt lat="45.11899" lon="7.0986418"><ele>716.0</ele><time>2026-04-06T11:26:38.841Z</time></trkpt><trkpt lat="45.119014" lon="7.0987261"><ele>716.0</ele><time>2026-04-06T11:26:39.841Z</time></trkpt><trkpt lat="45.1190393" lon="7.0988628"><ele>716.0</ele><time>2026-04-06T11:26:41.842Z</time></trkpt><trkpt lat="45.1189824" lon="7.0989409"><ele>716.0</ele><time>2026-04-06T11:26:43.842Z</time></trkpt><trkpt lat="45.1189449" lon="7.0988305"><ele>716.0</ele><time>2026-04-06T11:26:45.843Z</time></trkpt><trkpt lat="45.1189118" lon="7.0986353"><ele>716.0</ele><time>2026-04-06T11:26:47.842Z</time></trkpt><trkpt lat="45.1188824" lon="7.0985173"><ele>716.0</ele><time>2026-04-06T11:26:48.842Z</time></trkpt><trkpt lat="45.1188453" lon="7.0984044"><ele>716.0</ele><time>2026-04-06T11:26:49.842Z</time></trkpt><trkpt lat="45.1188012" lon="7.0982882"><ele>716.0</ele><time>2026-04-06T11:26:50.842Z</time></trkpt><trkpt lat="45.1187551" lon="7.0981726"><ele>716.0</ele><time>2026-04-06T11:26:51.841Z</time></trkpt><trkpt lat="45.1187085" lon="7.0980563"><ele>715.8333333333333</ele><time>2026-04-06T11:26:52.841Z</time></trkpt><trkpt lat="45.1186729" lon="7.0979464"><ele>715.6666666666666</ele><time>2026-04-06T11:26:53.841Z</time></trkpt><trkpt lat="45.1186428" lon="7.0978487"><ele>715.5</ele><time>2026-04-06T11:26:54.842Z</time></trkpt><trkpt lat="45.1186151" lon="7.0977469"><ele>715.3333333333334</ele><time>2026-04-06T11:26:55.842Z</time></trkpt><trkpt lat="45.1185894" lon="7.0976494"><ele>715.1666666666667</ele><time>2026-04-06T11:26:56.842Z</time></trkpt><trkpt lat="45.1185014" lon="7.0975551"><ele>715.0</ele><time>2026-04-06T11:26:58.841Z</time></trkpt><trkpt lat="45.1184245" lon="7.0976427"><ele>715.0</ele><time>2026-04-06T11:27:00.842Z</time></trkpt><trkpt lat="45.1184313" lon="7.097736"><ele>715.0</ele><time>2026-04-06T11:27:01.842Z</time></trkpt><trkpt lat="45.1184522" lon="7.0978337"><ele>715.0</ele><time>2026-04-06T11:27:02.843Z</time></trkpt><trkpt lat="45.1184667" lon="7.0979442"><ele>715.0</ele><time>2026-04-06T11:27:03.841Z</time></trkpt><trkpt lat="45.1184621" lon="7.09806"><ele>715.0</ele><time>2026-04-06T11:27:04.841Z</time></trkpt><trkpt lat="45.1184313" lon="7.0981692"><ele>715.0</ele><time>2026-04-06T11:27:05.842Z</time></trkpt><trkpt lat="45.1183984" lon="7.0982829"><ele>715.2</ele><time>2026-04-06T11:27:06.842Z</time></trkpt><trkpt lat="45.1183673" lon="7.098401"><ele>715.4</ele><time>2026-04-06T11:27:07.842Z</time></trkpt><trkpt lat="45.1183375" lon="7.0985272"><ele>715.5999999999999</ele><time>2026-04-06T11:27:08.841Z</time></trkpt><trkpt lat="45.1183036" lon="7.0986575"><ele>715.8</ele><time>2026-04-06T11:27:09.841Z</time></trkpt><trkpt lat="45.1182677" lon="7.0987896"><ele>716.0</ele><time>2026-04-06T11:27:10.842Z</time></trkpt><trkpt lat="45.1182239" lon="7.0989179"><ele>717.0</ele><time>2026-04-06T11:27:11.841Z</time></trkpt><trkpt lat="45.1181749" lon="7.0990317"><ele>718.0</ele><time>2026-04-06T11:27:12.842Z</time></trkpt><trkpt lat="45.1181181" lon="7.0991348"><ele>719.0</ele><time>2026-04-06T11:27:13.841Z</time></trkpt><trkpt lat="45.1180514" lon="7.0992293"><ele>720.0</ele><time>2026-04-06T11:27:14.841Z</time></trkpt><trkpt lat="45.1179834" lon="7.0993314"><ele>721.0</ele><time>2026-04-06T11:27:15.841Z</time></trkpt><trkpt lat="45.1179124" lon="7.099438"><ele>721.0</ele><time>2026-04-06T11:27:16.842Z</time></trkpt><trkpt lat="45.1178383" lon="7.0995462"><ele>721.0</ele><time>2026-04-06T11:27:17.843Z</time></trkpt><trkpt lat="45.1177742" lon="7.0996618"><ele>721.0</ele><time>2026-04-06T11:27:18.843Z</time></trkpt><trkpt lat="45.1177123" lon="7.0997868"><ele>721.0</ele><time>2026-04-06T11:27:19.841Z</time></trkpt><trkpt lat="45.1176538" lon="7.0999137"><ele>721.0</ele><time>2026-04-06T11:27:20.841Z</time></trkpt><trkpt lat="45.117596" lon="7.1000396"><ele>721.1999999999999</ele><time>2026-04-06T11:27:21.842Z</time></trkpt><trkpt lat="45.1175415" lon="7.1001732"><ele>721.4</ele><time>2026-04-06T11:27:22.842Z</time></trkpt><trkpt lat="45.1174872" lon="7.1003068"><ele>721.6</ele><time>2026-04-06T11:27:23.841Z</time></trkpt><trkpt lat="45.1174305" lon="7.1004451"><ele>721.8</ele><time>2026-04-06T11:27:24.841Z</time></trkpt><trkpt lat="45.1173671" lon="7.1005747"><ele>722.0</ele><time>2026-04-06T11:27:25.842Z</time></trkpt><trkpt lat="45.117296" lon="7.1006962"><ele>721.5</ele><time>2026-04-06T11:27:26.841Z</time></trkpt><trkpt lat="45.1172252" lon="7.100815"><ele>721.0</ele><time>2026-04-06T11:27:27.841Z</time></trkpt><trkpt lat="45.1171469" lon="7.1009348"><ele>720.5</ele><time>2026-04-06T11:27:28.841Z</time></trkpt><trkpt lat="45.1170757" lon="7.1010603"><ele>720.0</ele><time>2026-04-06T11:27:29.841Z</time></trkpt><trkpt lat="45.117011" lon="7.1012041"><ele>720.0</ele><time>2026-04-06T11:27:30.841Z</time></trkpt><trkpt lat="45.1169498" lon="7.1013554"><ele>720.0</ele><time>2026-04-06T11:27:31.841Z</time></trkpt><trkpt lat="45.1168909" lon="7.1015115"><ele>720.0</ele><time>2026-04-06T11:27:32.841Z</time></trkpt><trkpt lat="45.1168466" lon="7.1016537"><ele>720.0</ele><time>2026-04-06T11:27:33.841Z</time></trkpt><trkpt lat="45.1168039" lon="7.1017815"><ele>720.0</ele><time>2026-04-06T11:27:34.843Z</time></trkpt><trkpt lat="45.116776" lon="7.1018709"><ele>720.0</ele><time>2026-04-06T11:27:35.841Z</time></trkpt><trkpt lat="45.1167594" lon="7.1019752"><ele>720.0</ele><time>2026-04-06T11:27:37.841Z</time></trkpt><trkpt lat="45.1168402" lon="7.1020694"><ele>720.0</ele><time>2026-04-06T11:27:40.841Z</time></trkpt><trkpt lat="45.1168973" lon="7.1021155"><ele>720.0</ele><time>2026-04-06T11:27:41.842Z</time></trkpt><trkpt lat="45.1169498" lon="7.1021881"><ele>720.0</ele><time>2026-04-06T11:27:42.842Z</time></trkpt><trkpt lat="45.1169832" lon="7.1022725"><ele>720.0</ele><time>2026-04-06T11:27:43.841Z</time></trkpt><trkpt lat="45.116992" lon="7.1023698"><ele>720.0</ele><time>2026-04-06T11:27:44.842Z</time></trkpt><trkpt lat="45.1169862" lon="7.1024873"><ele>720.0</ele><time>2026-04-06T11:27:45.842Z</time></trkpt><trkpt lat="45.11698" lon="7.1026055"><ele>720.0</ele><time>2026-04-06T11:27:46.843Z</time></trkpt><trkpt lat="45.1169824" lon="7.1027406"><ele>720.0</ele><time>2026-04-06T11:27:47.842Z</time></trkpt><trkpt lat="45.1169993" lon="7.1028732"><ele>720.0</ele><time>2026-04-06T11:27:48.841Z</time></trkpt><trkpt lat="45.1170229" lon="7.1029928"><ele>720.1666666666666</ele><time>2026-04-06T11:27:49.841Z</time></trkpt><trkpt lat="45.1170427" lon="7.1030995"><ele>720.3333333333334</ele><time>2026-04-06T11:27:50.841Z</time></trkpt><trkpt lat="45.1170831" lon="7.1031876"><ele>720.5</ele><time>2026-04-06T11:27:51.841Z</time></trkpt><trkpt lat="45.1171533" lon="7.1032569"><ele>720.6666666666667</ele><time>2026-04-06T11:27:52.841Z</time></trkpt><trkpt lat="45.1172424" lon="7.1033006"><ele>720.8333333333334</ele><time>2026-04-06T11:27:53.841Z</time></trkpt><trkpt lat="45.1173422" lon="7.1033412"><ele>721.0</ele><time>2026-04-06T11:27:54.841Z</time></trkpt><trkpt lat="45.1174434" lon="7.1033919"><ele>721.0</ele><time>2026-04-06T11:27:55.841Z</time></trkpt><trkpt lat="45.1175467" lon="7.103446"><ele>721.0</ele><time>2026-04-06T11:27:56.841Z</time></trkpt><trkpt lat="45.1176528" lon="7.1034937"><ele>721.0</ele><time>2026-04-06T11:27:57.841Z</time></trkpt><trkpt lat="45.1177536" lon="7.1035355"><ele>721.0</ele><time>2026-04-06T11:27:58.841Z</time></trkpt><trkpt lat="45.1178448" lon="7.1035732"><ele>721.0</ele><time>2026-04-06T11:27:59.842Z</time></trkpt><trkpt lat="45.1179133" lon="7.103615"><ele>721.0</ele><time>2026-04-06T11:28:00.842Z</time></trkpt><trkpt lat="45.1179584" lon="7.1036777"><ele>721.0</ele><time>2026-04-06T11:28:01.842Z</time></trkpt><trkpt lat="45.1179685" lon="7.1038104"><ele>721.0</ele><time>2026-04-06T11:28:03.842Z</time></trkpt><trkpt lat="45.1179091" lon="7.1039582"><ele>721.0</ele><time>2026-04-06T11:28:05.842Z</time></trkpt><trkpt lat="45.1178213" lon="7.104052"><ele>721.0</ele><time>2026-04-06T11:28:06.842Z</time></trkpt><trkpt lat="45.11776" lon="7.1041388"><ele>721.1999999999999</ele><time>2026-04-06T11:28:07.842Z</time></trkpt><trkpt lat="45.1176865" lon="7.1042235"><ele>721.4</ele><time>2026-04-06T11:28:08.842Z</time></trkpt><trkpt lat="45.1176087" lon="7.1042963"><ele>721.6</ele><time>2026-04-06T11:28:09.841Z</time></trkpt><trkpt lat="45.1175268" lon="7.1043583"><ele>721.8</ele><time>2026-04-06T11:28:10.843Z</time></trkpt><trkpt lat="45.1174512" lon="7.1044173"><ele>722.0</ele><time>2026-04-06T11:28:11.841Z</time></trkpt><trkpt lat="45.1173807" lon="7.1044854"><ele>723.1666666666666</ele><time>2026-04-06T11:28:12.842Z</time></trkpt><trkpt lat="45.1172971" lon="7.1045837"><ele>724.3333333333333</ele><time>2026-04-06T11:28:13.841Z</time></trkpt><trkpt lat="45.117236" lon="7.1046568"><ele>725.5</ele><time>2026-04-06T11:28:14.841Z</time></trkpt><trkpt lat="45.1171814" lon="7.1047484"><ele>726.6666666666666</ele><time>2026-04-06T11:28:15.841Z</time></trkpt><trkpt lat="45.1171518" lon="7.1048501"><ele>727.8333333333334</ele><time>2026-04-06T11:28:16.841Z</time></trkpt><trkpt lat="45.1171328" lon="7.1049539"><ele>729.0</ele><time>2026-04-06T11:28:17.842Z</time></trkpt><trkpt lat="45.117099" lon="7.105047"><ele>729.3333333333334</ele><time>2026-04-06T11:28:18.843Z</time></trkpt><trkpt lat="45.1170442" lon="7.1051219"><ele>729.6666666666666</ele><time>2026-04-06T11:28:19.842Z</time></trkpt><trkpt lat="45.1169823" lon="7.1051994"><ele>730.0</ele><time>2026-04-06T11:28:20.842Z</time></trkpt><trkpt lat="45.1169159" lon="7.1052754"><ele>730.3333333333333</ele><time>2026-04-06T11:28:21.842Z</time></trkpt><trkpt lat="45.1168469" lon="7.105358"><ele>730.6666666666666</ele><time>2026-04-06T11:28:22.842Z</time></trkpt><trkpt lat="45.1167721" lon="7.1054323"><ele>731.0</ele><time>2026-04-06T11:28:23.843Z</time></trkpt><trkpt lat="45.1166976" lon="7.1054895"><ele>731.0</ele><time>2026-04-06T11:28:24.842Z</time></trkpt><trkpt lat="45.1166357" lon="7.105537"><ele>731.0</ele><time>2026-04-06T11:28:25.842Z</time></trkpt><trkpt lat="45.1165474" lon="7.1056163"><ele>731.0</ele><time>2026-04-06T11:28:27.842Z</time></trkpt><trkpt lat="45.1164892" lon="7.1056848"><ele>731.0</ele><time>2026-04-06T11:28:29.841Z</time></trkpt><trkpt lat="45.1164263" lon="7.1058072"><ele>731.0</ele><time>2026-04-06T11:28:31.842Z</time></trkpt><trkpt lat="45.116377" lon="7.1059556"><ele>732.0</ele><time>2026-04-06T11:28:33.841Z</time></trkpt><trkpt lat="45.1163455" lon="7.1060551"><ele>733.0</ele><time>2026-04-06T11:28:35.841Z</time></trkpt><trkpt lat="45.1162869" lon="7.106192"><ele>734.0</ele><time>2026-04-06T11:28:37.842Z</time></trkpt><trkpt lat="45.1162481" lon="7.1062691"><ele>735.0</ele><time>2026-04-06T11:28:38.841Z</time></trkpt><trkpt lat="45.1161998" lon="7.1063393"><ele>736.0</ele><time>2026-04-06T11:28:39.842Z</time></trkpt><trkpt lat="45.1161512" lon="7.1064224"><ele>737.0</ele><time>2026-04-06T11:28:40.841Z</time></trkpt><trkpt lat="45.1161034" lon="7.1065141"><ele>737.6666666666666</ele><time>2026-04-06T11:28:41.842Z</time></trkpt><trkpt lat="45.1160564" lon="7.1066142"><ele>738.3333333333333</ele><time>2026-04-06T11:28:42.841Z</time></trkpt><trkpt lat="45.1160057" lon="7.1067118"><ele>739.0</ele><time>2026-04-06T11:28:43.841Z</time></trkpt><trkpt lat="45.1159476" lon="7.1068025"><ele>739.6666666666666</ele><time>2026-04-06T11:28:44.842Z</time></trkpt><trkpt lat="45.1158855" lon="7.1068804"><ele>740.3333333333334</ele><time>2026-04-06T11:28:45.842Z</time></trkpt><trkpt lat="45.1158008" lon="7.1069672"><ele>741.0</ele><time>2026-04-06T11:28:46.842Z</time></trkpt><trkpt lat="45.1157147" lon="7.1070597"><ele>742.5999999999999</ele><time>2026-04-06T11:28:47.841Z</time></trkpt><trkpt lat="45.1156325" lon="7.1071544"><ele>744.2</ele><time>2026-04-06T11:28:48.842Z</time></trkpt><trkpt lat="45.1155448" lon="7.1072447"><ele>745.8</ele><time>2026-04-06T11:28:49.842Z</time></trkpt><trkpt lat="45.115475" lon="7.1073399"><ele>747.4000000000001</ele><time>2026-04-06T11:28:50.842Z</time></trkpt><trkpt lat="45.1153891" lon="7.1074441"><ele>749.0</ele><time>2026-04-06T11:28:51.842Z</time></trkpt><trkpt lat="45.1153195" lon="7.1075146"><ele>749.8000000000001</ele><time>2026-04-06T11:28:52.842Z</time></trkpt><trkpt lat="45.1152425" lon="7.1076226"><ele>750.6</ele><time>2026-04-06T11:28:53.842Z</time></trkpt><trkpt lat="45.1151733" lon="7.1077428"><ele>751.4</ele><time>2026-04-06T11:28:54.841Z</time></trkpt><trkpt lat="45.1151106" lon="7.1078637"><ele>752.2</ele><time>2026-04-06T11:28:55.842Z</time></trkpt><trkpt lat="45.1150525" lon="7.1079804"><ele>753.0</ele><time>2026-04-06T11:28:56.841Z</time></trkpt><trkpt lat="45.1149966" lon="7.1080938"><ele>753.0</ele><time>2026-04-06T11:28:57.842Z</time></trkpt><trkpt lat="45.1149478" lon="7.1082066"><ele>753.0</ele><time>2026-04-06T11:28:58.841Z</time></trkpt><trkpt lat="45.1149046" lon="7.1082939"><ele>753.0</ele><time>2026-04-06T11:28:59.841Z</time></trkpt><trkpt lat="45.1148562" lon="7.1083751"><ele>753.0</ele><time>2026-04-06T11:29:00.842Z</time></trkpt><trkpt lat="45.1147984" lon="7.1084534"><ele>753.0</ele><time>2026-04-06T11:29:01.841Z</time></trkpt><trkpt lat="45.1147349" lon="7.1085247"><ele>753.0</ele><time>2026-04-06T11:29:02.841Z</time></trkpt><trkpt lat="45.1146638" lon="7.1086033"><ele>755.4</ele><time>2026-04-06T11:29:03.842Z</time></trkpt><trkpt lat="45.1145857" lon="7.1086833"><ele>757.8</ele><time>2026-04-06T11:29:04.842Z</time></trkpt><trkpt lat="45.1145064" lon="7.108769"><ele>760.2</ele><time>2026-04-06T11:29:05.842Z</time></trkpt><trkpt lat="45.1144253" lon="7.1088648"><ele>762.6</ele><time>2026-04-06T11:29:06.843Z</time></trkpt><trkpt lat="45.1143437" lon="7.1089589"><ele>765.0</ele><time>2026-04-06T11:29:07.841Z</time></trkpt><trkpt lat="45.1142689" lon="7.1090447"><ele>766.2</ele><time>2026-04-06T11:29:08.841Z</time></trkpt><trkpt lat="45.1141879" lon="7.1091321"><ele>767.4</ele><time>2026-04-06T11:29:09.841Z</time></trkpt><trkpt lat="45.1141096" lon="7.1092185"><ele>768.5999999999999</ele><time>2026-04-06T11:29:10.842Z</time></trkpt><trkpt lat="45.1140357" lon="7.1093032"><ele>769.8</ele><time>2026-04-06T11:29:11.841Z</time></trkpt><trkpt lat="45.1139545" lon="7.1093921"><ele>771.0</ele><time>2026-04-06T11:29:12.842Z</time></trkpt><trkpt lat="45.1138753" lon="7.1094747"><ele>772.6666666666666</ele><time>2026-04-06T11:29:13.842Z</time></trkpt><trkpt lat="45.1137987" lon="7.1095526"><ele>774.3333333333333</ele><time>2026-04-06T11:29:14.841Z</time></trkpt><trkpt lat="45.1137266" lon="7.1096183"><ele>776.0</ele><time>2026-04-06T11:29:15.841Z</time></trkpt><trkpt lat="45.1136514" lon="7.1096893"><ele>777.6666666666666</ele><time>2026-04-06T11:29:16.841Z</time></trkpt><trkpt lat="45.1135762" lon="7.1097478"><ele>779.3333333333333</ele><time>2026-04-06T11:29:17.842Z</time></trkpt><trkpt lat="45.1134944" lon="7.1098109"><ele>781.0</ele><time>2026-04-06T11:29:18.842Z</time></trkpt><trkpt lat="45.1134145" lon="7.109872"><ele>781.8</ele><time>2026-04-06T11:29:19.842Z</time></trkpt><trkpt lat="45.1133317" lon="7.1099319"><ele>782.5999999999999</ele><time>2026-04-06T11:29:20.842Z</time></trkpt><trkpt lat="45.1132454" lon="7.1099995"><ele>783.4</ele><time>2026-04-06T11:29:21.842Z</time></trkpt><trkpt lat="45.1131575" lon="7.1100691"><ele>784.2</ele><time>2026-04-06T11:29:22.843Z</time></trkpt><trkpt lat="45.1130681" lon="7.1101447"><ele>785.0</ele><time>2026-04-06T11:29:23.842Z</time></trkpt><trkpt lat="45.1129806" lon="7.1102173"><ele>787.6</ele><time>2026-04-06T11:29:24.842Z</time></trkpt><trkpt lat="45.1128978" lon="7.1103037"><ele>790.2</ele><time>2026-04-06T11:29:25.841Z</time></trkpt><trkpt lat="45.1128162" lon="7.1103898"><ele>792.8</ele><time>2026-04-06T11:29:26.841Z</time></trkpt><trkpt lat="45.112746" lon="7.1104736"><ele>795.4</ele><time>2026-04-06T11:29:27.841Z</time></trkpt><trkpt lat="45.1126709" lon="7.110552"><ele>798.0</ele><time>2026-04-06T11:29:28.842Z</time></trkpt><trkpt lat="45.112601" lon="7.1106354"><ele>798.0</ele><time>2026-04-06T11:29:29.841Z</time></trkpt><trkpt lat="45.1125308" lon="7.1107383"><ele>798.0</ele><time>2026-04-06T11:29:30.842Z</time></trkpt><trkpt lat="45.1124605" lon="7.1108658"><ele>798.0</ele><time>2026-04-06T11:29:31.841Z</time></trkpt><trkpt lat="45.1123942" lon="7.1109924"><ele>798.0</ele><time>2026-04-06T11:29:32.841Z</time></trkpt><trkpt lat="45.1123357" lon="7.1111058"><ele>798.0</ele><time>2026-04-06T11:29:33.841Z</time></trkpt><trkpt lat="45.1122733" lon="7.1112094"><ele>802.4</ele><time>2026-04-06T11:29:34.841Z</time></trkpt><trkpt lat="45.1122086" lon="7.1112944"><ele>806.8</ele><time>2026-04-06T11:29:35.842Z</time></trkpt><trkpt lat="45.1121377" lon="7.1113791"><ele>811.2</ele><time>2026-04-06T11:29:36.841Z</time></trkpt><trkpt lat="45.1120649" lon="7.1114663"><ele>815.6</ele><time>2026-04-06T11:29:37.841Z</time></trkpt><trkpt lat="45.1119903" lon="7.1115414"><ele>820.0</ele><time>2026-04-06T11:29:38.842Z</time></trkpt><trkpt lat="45.1119116" lon="7.1116155"><ele>820.2</ele><time>2026-04-06T11:29:39.842Z</time></trkpt><trkpt lat="45.1118252" lon="7.1117096"><ele>820.4</ele><time>2026-04-06T11:29:40.842Z</time></trkpt><trkpt lat="45.1117425" lon="7.1117962"><ele>820.5999999999999</ele><time>2026-04-06T11:29:41.841Z</time></trkpt><trkpt lat="45.1116556" lon="7.111879"><ele>820.8</ele><time>2026-04-06T11:29:42.842Z</time></trkpt><trkpt lat="45.1115734" lon="7.1119821"><ele>821.0</ele><time>2026-04-06T11:29:43.841Z</time></trkpt><trkpt lat="45.1114888" lon="7.1120809"><ele>824.5999999999999</ele><time>2026-04-06T11:29:44.842Z</time></trkpt><trkpt lat="45.1114127" lon="7.1121709"><ele>828.2</ele><time>2026-04-06T11:29:45.842Z</time></trkpt><trkpt lat="45.1113285" lon="7.1122535"><ele>831.8</ele><time>2026-04-06T11:29:46.842Z</time></trkpt><trkpt lat="45.1112458" lon="7.1123179"><ele>835.4000000000001</ele><time>2026-04-06T11:29:47.842Z</time></trkpt><trkpt lat="45.1111679" lon="7.1123676"><ele>839.0</ele><time>2026-04-06T11:29:48.842Z</time></trkpt><trkpt lat="45.1110754" lon="7.1124308"><ele>839.0</ele><time>2026-04-06T11:29:49.842Z</time></trkpt><trkpt lat="45.110989" lon="7.1124825"><ele>839.0</ele><time>2026-04-06T11:29:50.841Z</time></trkpt><trkpt lat="45.1108889" lon="7.1125276"><ele>839.0</ele><time>2026-04-06T11:29:51.842Z</time></trkpt><trkpt lat="45.110791" lon="7.1125783"><ele>839.0</ele><time>2026-04-06T11:29:52.841Z</time></trkpt><trkpt lat="45.1106895" lon="7.1126389"><ele>839.0</ele><time>2026-04-06T11:29:53.841Z</time></trkpt><trkpt lat="45.1105902" lon="7.1127115"><ele>843.0</ele><time>2026-04-06T11:29:54.842Z</time></trkpt><trkpt lat="45.1104939" lon="7.1127901"><ele>847.0</ele><time>2026-04-06T11:29:55.841Z</time></trkpt><trkpt lat="45.1104026" lon="7.1128742"><ele>851.0000000000001</ele><time>2026-04-06T11:29:56.841Z</time></trkpt><trkpt lat="45.1103258" lon="7.1129484"><ele>855.0</ele><time>2026-04-06T11:29:57.842Z</time></trkpt><trkpt lat="45.1102457" lon="7.1130223"><ele>859.0</ele><time>2026-04-06T11:29:58.841Z</time></trkpt><trkpt lat="45.1101552" lon="7.1130552"><ele>858.9999999999999</ele><time>2026-04-06T11:29:59.84Z</time></trkpt><trkpt lat="45.1100668" lon="7.1131021"><ele>859.0</ele><time>2026-04-06T11:30:00.84Z</time></trkpt><trkpt lat="45.1099762" lon="7.1131566"><ele>859.0</ele><time>2026-04-06T11:30:01.84Z</time></trkpt><trkpt lat="45.1098894" lon="7.1132125"><ele>859.0</ele><time>2026-04-06T11:30:02.84Z</time></trkpt><trkpt lat="45.1098211" lon="7.1132507"><ele>858.9999999999999</ele><time>2026-04-06T11:30:03.841Z</time></trkpt><trkpt lat="45.1097634" lon="7.1132903"><ele>859.0</ele><time>2026-04-06T11:30:04.84Z</time></trkpt><trkpt lat="45.1096807" lon="7.1133362"><ele>863.8000000000001</ele><time>2026-04-06T11:30:06.841Z</time></trkpt><trkpt lat="45.1096334" lon="7.1132765"><ele>868.6000000000001</ele><time>2026-04-06T11:30:09.84Z</time></trkpt><trkpt lat="45.1096269" lon="7.1131788"><ele>873.4</ele><time>2026-04-06T11:30:29.841Z</time></trkpt><trkpt lat="45.1096017" lon="7.1130378"><ele>878.2</ele><time>2026-04-06T11:30:31.841Z</time></trkpt><trkpt lat="45.1095591" lon="7.1128992"><ele>883.0</ele><time>2026-04-06T11:30:33.84Z</time></trkpt><trkpt lat="45.1094977" lon="7.1127534"><ele>883.8333333333333</ele><time>2026-04-06T11:30:35.841Z</time></trkpt><trkpt lat="45.1094769" lon="7.112666"><ele>884.6666666666666</ele><time>2026-04-06T11:30:36.841Z</time></trkpt><trkpt lat="45.1094684" lon="7.112575"><ele>885.5</ele><time>2026-04-06T11:30:37.84Z</time></trkpt><trkpt lat="45.109451" lon="7.1124278"><ele>886.3333333333333</ele><time>2026-04-06T11:30:39.841Z</time></trkpt><trkpt lat="45.1094305" lon="7.112248"><ele>887.1666666666666</ele><time>2026-04-06T11:30:41.841Z</time></trkpt><trkpt lat="45.1093651" lon="7.1121968"><ele>888.0</ele><time>2026-04-06T11:30:43.84Z</time></trkpt><trkpt lat="45.109305" lon="7.1122412"><ele>888.0</ele><time>2026-04-06T11:30:45.84Z</time></trkpt><trkpt lat="45.1092426" lon="7.1123619"><ele>888.0</ele><time>2026-04-06T11:30:47.84Z</time></trkpt><trkpt lat="45.109163" lon="7.1124671"><ele>888.0</ele><time>2026-04-06T11:30:49.841Z</time></trkpt><trkpt lat="45.1090866" lon="7.1125774"><ele>888.0</ele><time>2026-04-06T11:30:51.841Z</time></trkpt><trkpt lat="45.1090459" lon="7.1126511"><ele>888.0</ele><time>2026-04-06T11:30:52.84Z</time></trkpt><trkpt lat="45.1090087" lon="7.1127525"><ele>894.8333333333334</ele><time>2026-04-06T11:30:53.841Z</time></trkpt><trkpt lat="45.1089702" lon="7.1128576"><ele>901.6666666666667</ele><time>2026-04-06T11:30:54.841Z</time></trkpt><trkpt lat="45.1089887" lon="7.1129922"><ele>908.5</ele><time>2026-04-06T11:30:55.84Z</time></trkpt><trkpt lat="45.1089821" lon="7.1131077"><ele>915.3333333333334</ele><time>2026-04-06T11:30:56.841Z</time></trkpt><trkpt lat="45.1089663" lon="7.113252"><ele>922.1666666666667</ele><time>2026-04-06T11:30:58.842Z</time></trkpt><trkpt lat="45.1089418" lon="7.113362"><ele>929.0</ele><time>2026-04-06T11:31:00.84Z</time></trkpt><trkpt lat="45.1088732" lon="7.1133474"><ele>929.0</ele><time>2026-04-06T11:31:03.841Z</time></trkpt><trkpt lat="45.1088467" lon="7.113242"><ele>929.0000000000001</ele><time>2026-04-06T11:31:05.841Z</time></trkpt><trkpt lat="45.1088437" lon="7.1130902"><ele>929.0000000000001</ele><time>2026-04-06T11:31:07.841Z</time></trkpt><trkpt lat="45.1088217" lon="7.1129912"><ele>929.0</ele><time>2026-04-06T11:31:08.841Z</time></trkpt><trkpt lat="45.1087868" lon="7.1128213"><ele>929.0</ele><time>2026-04-06T11:31:10.842Z</time></trkpt><trkpt lat="45.1087879" lon="7.1126594"><ele>929.0000000000001</ele><time>2026-04-06T11:31:12.842Z</time></trkpt><trkpt lat="45.1087969" lon="7.1125631"><ele>929.0</ele><time>2026-04-06T11:31:13.841Z</time></trkpt><trkpt lat="45.1087663" lon="7.1124607"><ele>929.0</ele><time>2026-04-06T11:31:14.84Z</time></trkpt><trkpt lat="45.1087116" lon="7.112373"><ele>929.0</ele><time>2026-04-06T11:31:15.84Z</time></trkpt><trkpt lat="45.108594" lon="7.1123645"><ele>929.0000000000001</ele><time>2026-04-06T11:31:17.841Z</time></trkpt><trkpt lat="45.1085117" lon="7.112364"><ele>929.0</ele><time>2026-04-06T11:31:18.841Z</time></trkpt><trkpt lat="45.1084425" lon="7.1123501"><ele>930.4000000000001</ele><time>2026-04-06T11:31:19.841Z</time></trkpt><trkpt lat="45.1083588" lon="7.11227"><ele>931.8000000000001</ele><time>2026-04-06T11:31:21.841Z</time></trkpt><trkpt lat="45.1082915" lon="7.1121698"><ele>933.1999999999999</ele><time>2026-04-06T11:31:23.84Z</time></trkpt><trkpt lat="45.1083751" lon="7.1120412"><ele>934.5999999999999</ele><time>2026-04-06T11:31:25.841Z</time></trkpt><trkpt lat="45.1084249" lon="7.1119647"><ele>936.0</ele><time>2026-04-06T11:31:26.84Z</time></trkpt><trkpt lat="45.1084696" lon="7.1118914"><ele>936.0</ele><time>2026-04-06T11:31:27.84Z</time></trkpt><trkpt lat="45.1085573" lon="7.1117502"><ele>936.0</ele><time>2026-04-06T11:31:29.842Z</time></trkpt><trkpt lat="45.1086321" lon="7.1115828"><ele>936.0</ele><time>2026-04-06T11:31:31.84Z</time></trkpt><trkpt lat="45.1087087" lon="7.1114841"><ele>936.0</ele><time>2026-04-06T11:31:32.84Z</time></trkpt><trkpt lat="45.1087744" lon="7.1114025"><ele>938.0</ele><time>2026-04-06T11:31:33.84Z</time></trkpt><trkpt lat="45.1088388" lon="7.1112908"><ele>939.9999999999999</ele><time>2026-04-06T11:31:35.841Z</time></trkpt><trkpt lat="45.1088627" lon="7.1111789"><ele>941.9999999999999</ele><time>2026-04-06T11:31:37.841Z</time></trkpt><trkpt lat="45.1087777" lon="7.1111666"><ele>944.0</ele><time>2026-04-06T11:31:40.841Z</time></trkpt><trkpt lat="45.1087201" lon="7.1112685"><ele>946.0</ele><time>2026-04-06T11:31:42.842Z</time></trkpt><trkpt lat="45.1086113" lon="7.1113663"><ele>945.9999999999999</ele><time>2026-04-06T11:31:44.841Z</time></trkpt><trkpt lat="45.1085249" lon="7.1114011"><ele>946.0</ele><time>2026-04-06T11:31:45.841Z</time></trkpt><trkpt lat="45.1084517" lon="7.1114513"><ele>946.0</ele><time>2026-04-06T11:31:46.84Z</time></trkpt><trkpt lat="45.1083864" lon="7.1114787"><ele>946.0</ele><time>2026-04-06T11:31:47.841Z</time></trkpt><trkpt lat="45.1083195" lon="7.1114128"><ele>945.9999999999999</ele><time>2026-04-06T11:31:49.84Z</time></trkpt><trkpt lat="45.1082042" lon="7.1113638"><ele>946.0</ele><time>2026-04-06T11:31:51.841Z</time></trkpt><trkpt lat="45.1081524" lon="7.1114164"><ele>953.0</ele><time>2026-04-06T11:31:52.841Z</time></trkpt><trkpt lat="45.1080546" lon="7.111541"><ele>959.9999999999999</ele><time>2026-04-06T11:31:54.84Z</time></trkpt><trkpt lat="45.1080117" lon="7.1116085"><ele>966.9999999999999</ele><time>2026-04-06T11:31:55.841Z</time></trkpt><trkpt lat="45.1079068" lon="7.1116884"><ele>974.0</ele><time>2026-04-06T11:31:57.842Z</time></trkpt><trkpt lat="45.1078398" lon="7.1117287"><ele>981.0</ele><time>2026-04-06T11:31:58.841Z</time></trkpt><trkpt lat="45.1077264" lon="7.1117723"><ele>981.0</ele><time>2026-04-06T11:32:00.84Z</time></trkpt><trkpt lat="45.1076699" lon="7.1118224"><ele>981.0</ele><time>2026-04-06T11:32:01.84Z</time></trkpt><trkpt lat="45.1075944" lon="7.1118867"><ele>981.0</ele><time>2026-04-06T11:32:02.841Z</time></trkpt><trkpt lat="45.107505" lon="7.1119503"><ele>981.0</ele><time>2026-04-06T11:32:03.841Z</time></trkpt><trkpt lat="45.1074364" lon="7.1120157"><ele>981.0</ele><time>2026-04-06T11:32:04.841Z</time></trkpt><trkpt lat="45.1073732" lon="7.1120682"><ele>981.0</ele><time>2026-04-06T11:32:05.842Z</time></trkpt><trkpt lat="45.1072549" lon="7.1121366"><ele>985.5999999999999</ele><time>2026-04-06T11:32:07.841Z</time></trkpt><trkpt lat="45.1071474" lon="7.1122561"><ele>990.1999999999999</ele><time>2026-04-06T11:32:09.841Z</time></trkpt><trkpt lat="45.1071251" lon="7.1123459"><ele>994.8000000000001</ele><time>2026-04-06T11:32:10.841Z</time></trkpt><trkpt lat="45.10709" lon="7.1125015"><ele>999.4000000000001</ele><time>2026-04-06T11:32:12.84Z</time></trkpt><trkpt lat="45.1071056" lon="7.1126739"><ele>1004.0</ele><time>2026-04-06T11:32:14.84Z</time></trkpt><trkpt lat="45.1071863" lon="7.1128078"><ele>1004.0000000000001</ele><time>2026-04-06T11:32:16.841Z</time></trkpt><trkpt lat="45.1072377" lon="7.1129028"><ele>1004.0</ele><time>2026-04-06T11:32:17.842Z</time></trkpt><trkpt lat="45.107287" lon="7.1129975"><ele>1004.0</ele><time>2026-04-06T11:32:18.841Z</time></trkpt><trkpt lat="45.1073445" lon="7.1130799"><ele>1004.0</ele><time>2026-04-06T11:32:19.842Z</time></trkpt><trkpt lat="45.1074133" lon="7.1131625"><ele>1004.0000000000001</ele><time>2026-04-06T11:32:20.84Z</time></trkpt><trkpt lat="45.1074837" lon="7.1132363"><ele>1004.0</ele><time>2026-04-06T11:32:21.84Z</time></trkpt><trkpt lat="45.1075758" lon="7.1133271"><ele>1005.4000000000001</ele><time>2026-04-06T11:32:23.84Z</time></trkpt><trkpt lat="45.1076429" lon="7.1134181"><ele>1006.8000000000001</ele><time>2026-04-06T11:32:25.841Z</time></trkpt><trkpt lat="45.1076007" lon="7.113494"><ele>1008.1999999999999</ele><time>2026-04-06T11:32:27.841Z</time></trkpt><trkpt lat="45.1075133" lon="7.1134454"><ele>1009.5999999999999</ele><time>2026-04-06T11:32:30.841Z</time></trkpt><trkpt lat="45.1074245" lon="7.1133549"><ele>1011.0</ele><time>2026-04-06T11:32:32.841Z</time></trkpt><trkpt lat="45.1073215" lon="7.1132835"><ele>1009.5999999999999</ele><time>2026-04-06T11:32:34.841Z</time></trkpt><trkpt lat="45.1071998" lon="7.1131884"><ele>1008.1999999999999</ele><time>2026-04-06T11:32:36.841Z</time></trkpt><trkpt lat="45.1071358" lon="7.113144"><ele>1006.8000000000001</ele><time>2026-04-06T11:32:37.841Z</time></trkpt><trkpt lat="45.1070666" lon="7.1130794"><ele>1005.4000000000001</ele><time>2026-04-06T11:32:38.841Z</time></trkpt><trkpt lat="45.1070039" lon="7.1130186"><ele>1004.0</ele><time>2026-04-06T11:32:39.841Z</time></trkpt><trkpt lat="45.1069173" lon="7.112983"><ele>1004.0000000000001</ele><time>2026-04-06T11:32:40.841Z</time></trkpt><trkpt lat="45.1068412" lon="7.1129407"><ele>1004.0</ele><time>2026-04-06T11:32:41.84Z</time></trkpt><trkpt lat="45.1067647" lon="7.1128748"><ele>1004.0</ele><time>2026-04-06T11:32:42.841Z</time></trkpt><trkpt lat="45.1066974" lon="7.1128089"><ele>1004.0</ele><time>2026-04-06T11:32:43.841Z</time></trkpt><trkpt lat="45.1066331" lon="7.1127373"><ele>1004.0000000000001</ele><time>2026-04-06T11:32:44.841Z</time></trkpt><trkpt lat="45.1065757" lon="7.1126705"><ele>1004.0</ele><time>2026-04-06T11:32:45.84Z</time></trkpt><trkpt lat="45.1065011" lon="7.1125317"><ele>1006.6666666666667</ele><time>2026-04-06T11:32:47.841Z</time></trkpt><trkpt lat="45.1064905" lon="7.1124397"><ele>1009.3333333333334</ele><time>2026-04-06T11:32:48.84Z</time></trkpt><trkpt lat="45.1065003" lon="7.1123336"><ele>1012.0</ele><time>2026-04-06T11:32:49.84Z</time></trkpt><trkpt lat="45.1065147" lon="7.1122354"><ele>1014.6666666666667</ele><time>2026-04-06T11:32:50.841Z</time></trkpt><trkpt lat="45.1065526" lon="7.1121409"><ele>1017.3333333333334</ele><time>2026-04-06T11:32:51.841Z</time></trkpt><trkpt lat="45.1065816" lon="7.1120327"><ele>1020.0</ele><time>2026-04-06T11:32:52.841Z</time></trkpt><trkpt lat="45.1066129" lon="7.111928"><ele>1020.0</ele><time>2026-04-06T11:32:53.84Z</time></trkpt><trkpt lat="45.106638" lon="7.1118339"><ele>1020.0</ele><time>2026-04-06T11:32:54.84Z</time></trkpt><trkpt lat="45.106724" lon="7.1117876"><ele>1020.0</ele><time>2026-04-06T11:32:55.84Z</time></trkpt><trkpt lat="45.1068373" lon="7.1116885"><ele>1020.0</ele><time>2026-04-06T11:32:57.841Z</time></trkpt><trkpt lat="45.1069087" lon="7.1116334"><ele>1020.0</ele><time>2026-04-06T11:32:58.84Z</time></trkpt><trkpt lat="45.1070041" lon="7.1115419"><ele>1023.4</ele><time>2026-04-06T11:33:00.841Z</time></trkpt><trkpt lat="45.1070518" lon="7.1113989"><ele>1026.8</ele><time>2026-04-06T11:33:02.841Z</time></trkpt><trkpt lat="45.1070471" lon="7.1112329"><ele>1030.2</ele><time>2026-04-06T11:33:04.841Z</time></trkpt><trkpt lat="45.1070531" lon="7.1111345"><ele>1033.6</ele><time>2026-04-06T11:33:05.841Z</time></trkpt><trkpt lat="45.107054" lon="7.1110329"><ele>1037.0</ele><time>2026-04-06T11:33:06.841Z</time></trkpt><trkpt lat="45.1070831" lon="7.1108749"><ele>1037.0</ele><time>2026-04-06T11:33:08.841Z</time></trkpt><trkpt lat="45.1071262" lon="7.1107542"><ele>1037.0</ele><time>2026-04-06T11:33:09.842Z</time></trkpt><trkpt lat="45.1071318" lon="7.1105688"><ele>1037.0</ele><time>2026-04-06T11:33:11.84Z</time></trkpt><trkpt lat="45.1071341" lon="7.1104649"><ele>1037.0</ele><time>2026-04-06T11:33:12.841Z</time></trkpt><trkpt lat="45.1071345" lon="7.1103689"><ele>1037.0</ele><time>2026-04-06T11:33:13.841Z</time></trkpt><trkpt lat="45.1070749" lon="7.110278"><ele>1037.5</ele><time>2026-04-06T11:33:14.84Z</time></trkpt><trkpt lat="45.1070342" lon="7.1101727"><ele>1038.0</ele><time>2026-04-06T11:33:15.84Z</time></trkpt><trkpt lat="45.1069991" lon="7.1100609"><ele>1038.5</ele><time>2026-04-06T11:33:16.84Z</time></trkpt><trkpt lat="45.1069614" lon="7.1099632"><ele>1039.0</ele><time>2026-04-06T11:33:17.84Z</time></trkpt><trkpt lat="45.1069214" lon="7.109855"><ele>1039.5</ele><time>2026-04-06T11:33:18.841Z</time></trkpt><trkpt lat="45.1068862" lon="7.109748"><ele>1040.0</ele><time>2026-04-06T11:33:19.841Z</time></trkpt><trkpt lat="45.1068371" lon="7.1096535"><ele>1040.5</ele><time>2026-04-06T11:33:20.841Z</time></trkpt><trkpt lat="45.1067951" lon="7.1095461"><ele>1041.0</ele><time>2026-04-06T11:33:21.841Z</time></trkpt><trkpt lat="45.1067556" lon="7.1094575"><ele>1041.5</ele><time>2026-04-06T11:33:22.841Z</time></trkpt><trkpt lat="45.1066889" lon="7.1093833"><ele>1042.0</ele><time>2026-04-06T11:33:23.842Z</time></trkpt><trkpt lat="45.1066381" lon="7.1092872"><ele>1042.5</ele><time>2026-04-06T11:33:24.84Z</time></trkpt><trkpt lat="45.1065917" lon="7.1091841"><ele>1043.0</ele><time>2026-04-06T11:33:25.842Z</time></trkpt><trkpt lat="45.1065317" lon="7.1090719"><ele>1050.1666666666667</ele><time>2026-04-06T11:33:26.841Z</time></trkpt><trkpt lat="45.1064768" lon="7.1089738"><ele>1057.3333333333335</ele><time>2026-04-06T11:33:27.841Z</time></trkpt><trkpt lat="45.1064499" lon="7.1088597"><ele>1064.5</ele><time>2026-04-06T11:33:28.841Z</time></trkpt><trkpt lat="45.1063977" lon="7.1087589"><ele>1071.6666666666667</ele><time>2026-04-06T11:33:29.841Z</time></trkpt><trkpt lat="45.1063577" lon="7.10867"><ele>1078.8333333333333</ele><time>2026-04-06T11:33:30.84Z</time></trkpt><trkpt lat="45.1063079" lon="7.1085887"><ele>1086.0</ele><time>2026-04-06T11:33:31.841Z</time></trkpt><trkpt lat="45.1062276" lon="7.1084891"><ele>1086.0</ele><time>2026-04-06T11:33:33.841Z</time></trkpt><trkpt lat="45.1062943" lon="7.1084075"><ele>1086.0</ele><time>2026-04-06T11:33:35.84Z</time></trkpt><trkpt lat="45.1063805" lon="7.1083368"><ele>1086.0</ele><time>2026-04-06T11:33:36.84Z</time></trkpt><trkpt lat="45.1064528" lon="7.108273"><ele>1086.0</ele><time>2026-04-06T11:33:37.84Z</time></trkpt><trkpt lat="45.1065124" lon="7.1081915"><ele>1086.0</ele><time>2026-04-06T11:33:38.841Z</time></trkpt><trkpt lat="45.1065585" lon="7.1081271"><ele>1086.0</ele><time>2026-04-06T11:33:39.841Z</time></trkpt><trkpt lat="45.1066029" lon="7.1080207"><ele>1085.0</ele><time>2026-04-06T11:33:40.84Z</time></trkpt><trkpt lat="45.1066475" lon="7.1078438"><ele>1084.0</ele><time>2026-04-06T11:33:42.842Z</time></trkpt><trkpt lat="45.1066718" lon="7.1077498"><ele>1083.0</ele><time>2026-04-06T11:33:43.841Z</time></trkpt><trkpt lat="45.1067397" lon="7.1076576"><ele>1082.0</ele><time>2026-04-06T11:33:44.841Z</time></trkpt><trkpt lat="45.1067837" lon="7.1075836"><ele>1081.0</ele><time>2026-04-06T11:33:45.84Z</time></trkpt><trkpt lat="45.1068497" lon="7.1075131"><ele>1080.0</ele><time>2026-04-06T11:33:46.84Z</time></trkpt><trkpt lat="45.1069703" lon="7.1074401"><ele>1083.5</ele><time>2026-04-06T11:33:48.84Z</time></trkpt><trkpt lat="45.1070232" lon="7.1073875"><ele>1087.0</ele><time>2026-04-06T11:33:49.84Z</time></trkpt><trkpt lat="45.1070732" lon="7.1073333"><ele>1090.5</ele><time>2026-04-06T11:33:50.841Z</time></trkpt><trkpt lat="45.1071348" lon="7.1072385"><ele>1094.0</ele><time>2026-04-06T11:33:51.84Z</time></trkpt><trkpt lat="45.107189" lon="7.1071516"><ele>1097.5</ele><time>2026-04-06T11:33:52.839Z</time></trkpt><trkpt lat="45.1072001" lon="7.1070528"><ele>1101.0</ele><time>2026-04-06T11:33:53.839Z</time></trkpt><trkpt lat="45.1072403" lon="7.1069501"><ele>1101.0</ele><time>2026-04-06T11:33:54.84Z</time></trkpt><trkpt lat="45.1072809" lon="7.1068558"><ele>1101.0</ele><time>2026-04-06T11:33:55.84Z</time></trkpt><trkpt lat="45.107312" lon="7.1067471"><ele>1101.0</ele><time>2026-04-06T11:33:56.84Z</time></trkpt><trkpt lat="45.107339" lon="7.1066488"><ele>1101.0</ele><time>2026-04-06T11:33:57.84Z</time></trkpt><trkpt lat="45.1073831" lon="7.1065444"><ele>1101.0</ele><time>2026-04-06T11:33:58.84Z</time></trkpt><trkpt lat="45.1073911" lon="7.1064456"><ele>1101.0</ele><time>2026-04-06T11:33:59.84Z</time></trkpt><trkpt lat="45.1074103" lon="7.1063586"><ele>1103.0</ele><time>2026-04-06T11:34:00.839Z</time></trkpt><trkpt lat="45.1074275" lon="7.1062677"><ele>1105.0</ele><time>2026-04-06T11:34:01.84Z</time></trkpt><trkpt lat="45.1073914" lon="7.1061722"><ele>1107.0</ele><time>2026-04-06T11:34:02.84Z</time></trkpt><trkpt lat="45.1073318" lon="7.1061198"><ele>1109.0</ele><time>2026-04-06T11:34:03.84Z</time></trkpt><trkpt lat="45.1072913" lon="7.1060482"><ele>1111.0</ele><time>2026-04-06T11:34:04.839Z</time></trkpt><trkpt lat="45.1072573" lon="7.1059632"><ele>1113.0</ele><time>2026-04-06T11:34:05.84Z</time></trkpt><trkpt lat="45.1072193" lon="7.1058858"><ele>1115.0</ele><time>2026-04-06T11:34:06.839Z</time></trkpt><trkpt lat="45.1072329" lon="7.1057739"><ele>1117.0</ele><time>2026-04-06T11:34:07.84Z</time></trkpt><trkpt lat="45.1072766" lon="7.1056771"><ele>1119.0</ele><time>2026-04-06T11:34:08.839Z</time></trkpt><trkpt lat="45.1073027" lon="7.1055785"><ele>1121.0</ele><time>2026-04-06T11:34:09.839Z</time></trkpt><trkpt lat="45.1073196" lon="7.1054475"><ele>1123.0</ele><time>2026-04-06T11:34:10.839Z</time></trkpt><trkpt lat="45.1073301" lon="7.1053383"><ele>1125.0</ele><time>2026-04-06T11:34:11.839Z</time></trkpt><trkpt lat="45.1073637" lon="7.1052208"><ele>1127.0</ele><time>2026-04-06T11:34:12.839Z</time></trkpt><trkpt lat="45.1073485" lon="7.1051137"><ele>1127.0</ele><time>2026-04-06T11:34:13.84Z</time></trkpt><trkpt lat="45.1073526" lon="7.1050038"><ele>1127.0</ele><time>2026-04-06T11:34:14.84Z</time></trkpt><trkpt lat="45.1073683" lon="7.1049124"><ele>1127.0</ele><time>2026-04-06T11:34:15.84Z</time></trkpt><trkpt lat="45.107366" lon="7.1048183"><ele>1127.0</ele><time>2026-04-06T11:34:16.839Z</time></trkpt><trkpt lat="45.1073626" lon="7.1046919"><ele>1127.0</ele><time>2026-04-06T11:34:17.84Z</time></trkpt><trkpt lat="45.1073644" lon="7.1045978"><ele>1127.0</ele><time>2026-04-06T11:34:18.839Z</time></trkpt><trkpt lat="45.1073446" lon="7.104485"><ele>1127.0</ele><time>2026-04-06T11:34:19.84Z</time></trkpt><trkpt lat="45.1073334" lon="7.1043715"><ele>1129.5</ele><time>2026-04-06T11:34:20.84Z</time></trkpt><trkpt lat="45.1073324" lon="7.1041998"><ele>1132.0</ele><time>2026-04-06T11:34:22.84Z</time></trkpt><trkpt lat="45.1073204" lon="7.1041046"><ele>1134.5</ele><time>2026-04-06T11:34:23.84Z</time></trkpt><trkpt lat="45.1072528" lon="7.1041568"><ele>1137.0</ele><time>2026-04-06T11:34:24.84Z</time></trkpt><trkpt lat="45.1071903" lon="7.1042235"><ele>1139.5</ele><time>2026-04-06T11:34:26.839Z</time></trkpt><trkpt lat="45.1071595" lon="7.1043528"><ele>1142.0</ele><time>2026-04-06T11:34:28.839Z</time></trkpt><trkpt lat="45.107114" lon="7.1045183"><ele>1142.0</ele><time>2026-04-06T11:34:30.839Z</time></trkpt><trkpt lat="45.1070713" lon="7.10459"><ele>1142.0</ele><time>2026-04-06T11:34:31.84Z</time></trkpt><trkpt lat="45.1070415" lon="7.1046698"><ele>1142.0</ele><time>2026-04-06T11:34:32.84Z</time></trkpt><trkpt lat="45.10699" lon="7.1047839"><ele>1142.0</ele><time>2026-04-06T11:34:33.84Z</time></trkpt><trkpt lat="45.1069588" lon="7.1048883"><ele>1142.0</ele><time>2026-04-06T11:34:34.84Z</time></trkpt><trkpt lat="45.1069293" lon="7.105017"><ele>1142.0</ele><time>2026-04-06T11:34:35.84Z</time></trkpt><trkpt lat="45.1069072" lon="7.1051176"><ele>1139.5</ele><time>2026-04-06T11:34:36.839Z</time></trkpt><trkpt lat="45.1068974" lon="7.1052153"><ele>1137.0</ele><time>2026-04-06T11:34:37.84Z</time></trkpt><trkpt lat="45.1068551" lon="7.1053914"><ele>1134.5</ele><time>2026-04-06T11:34:39.84Z</time></trkpt><trkpt lat="45.1068182" lon="7.1054772"><ele>1132.0</ele><time>2026-04-06T11:34:40.84Z</time></trkpt><trkpt lat="45.1067788" lon="7.1055564"><ele>1129.5</ele><time>2026-04-06T11:34:41.84Z</time></trkpt><trkpt lat="45.1067059" lon="7.1056693"><ele>1127.0</ele><time>2026-04-06T11:34:43.84Z</time></trkpt><trkpt lat="45.1066239" lon="7.1057647"><ele>1129.0</ele><time>2026-04-06T11:34:45.839Z</time></trkpt><trkpt lat="45.1065445" lon="7.1057566"><ele>1131.0</ele><time>2026-04-06T11:34:47.839Z</time></trkpt><trkpt lat="45.1064405" lon="7.105672"><ele>1133.0</ele><time>2026-04-06T11:34:49.84Z</time></trkpt><trkpt lat="45.1063675" lon="7.1056569"><ele>1135.0</ele><time>2026-04-06T11:34:50.84Z</time></trkpt><trkpt lat="45.1062559" lon="7.1056821"><ele>1137.0</ele><time>2026-04-06T11:34:52.84Z</time></trkpt><trkpt lat="45.1061991" lon="7.1057241"><ele>1137.0</ele><time>2026-04-06T11:34:53.84Z</time></trkpt><trkpt lat="45.106128" lon="7.1057549"><ele>1137.0</ele><time>2026-04-06T11:34:54.84Z</time></trkpt><trkpt lat="45.1060081" lon="7.105784"><ele>1137.0</ele><time>2026-04-06T11:34:56.84Z</time></trkpt><trkpt lat="45.1059036" lon="7.1058731"><ele>1137.0</ele><time>2026-04-06T11:34:58.839Z</time></trkpt><trkpt lat="45.1058467" lon="7.1059318"><ele>1137.0</ele><time>2026-04-06T11:34:59.839Z</time></trkpt><trkpt lat="45.1057678" lon="7.1059859"><ele>1137.0</ele><time>2026-04-06T11:35:01.84Z</time></trkpt><trkpt lat="45.1057644" lon="7.1058844"><ele>1137.0</ele><time>2026-04-06T11:35:06.84Z</time></trkpt><trkpt lat="45.1058216" lon="7.105732"><ele>1137.0</ele><time>2026-04-06T11:35:08.84Z</time></trkpt><trkpt lat="45.1058289" lon="7.1056314"><ele>1137.0</ele><time>2026-04-06T11:35:09.84Z</time></trkpt><trkpt lat="45.1058301" lon="7.1055271"><ele>1137.0</ele><time>2026-04-06T11:35:10.84Z</time></trkpt><trkpt lat="45.1058494" lon="7.1054201"><ele>1137.0</ele><time>2026-04-06T11:35:11.84Z</time></trkpt><trkpt lat="45.1058759" lon="7.1053203"><ele>1140.0</ele><time>2026-04-06T11:35:12.839Z</time></trkpt><trkpt lat="45.1059086" lon="7.105235"><ele>1143.0</ele><time>2026-04-06T11:35:13.839Z</time></trkpt><trkpt lat="45.1059601" lon="7.1051569"><ele>1146.0</ele><time>2026-04-06T11:35:14.84Z</time></trkpt><trkpt lat="45.106017" lon="7.1050766"><ele>1149.0</ele><time>2026-04-06T11:35:15.84Z</time></trkpt><trkpt lat="45.106067" lon="7.105011"><ele>1152.0</ele><time>2026-04-06T11:35:16.84Z</time></trkpt><trkpt lat="45.106121" lon="7.1049316"><ele>1155.0</ele><time>2026-04-06T11:35:17.84Z</time></trkpt><trkpt lat="45.1061921" lon="7.104746"><ele>1157.8</ele><time>2026-04-06T11:35:19.84Z</time></trkpt><trkpt lat="45.10621" lon="7.1046507"><ele>1160.6</ele><time>2026-04-06T11:35:20.839Z</time></trkpt><trkpt lat="45.1062594" lon="7.1045559"><ele>1163.4</ele><time>2026-04-06T11:35:21.84Z</time></trkpt><trkpt lat="45.1062915" lon="7.1044343"><ele>1166.2</ele><time>2026-04-06T11:35:22.841Z</time></trkpt><trkpt lat="45.1063471" lon="7.1042453"><ele>1169.0</ele><time>2026-04-06T11:35:24.839Z</time></trkpt><trkpt lat="45.1063624" lon="7.1041365"><ele>1172.5</ele><time>2026-04-06T11:35:25.839Z</time></trkpt><trkpt lat="45.1063741" lon="7.1040205"><ele>1176.0</ele><time>2026-04-06T11:35:26.84Z</time></trkpt><trkpt lat="45.1063534" lon="7.1039151"><ele>1179.5</ele><time>2026-04-06T11:35:27.841Z</time></trkpt><trkpt lat="45.1063588" lon="7.1037946"><ele>1183.0</ele><time>2026-04-06T11:35:28.839Z</time></trkpt><trkpt lat="45.1063574" lon="7.1036791"><ele>1186.5</ele><time>2026-04-06T11:35:29.839Z</time></trkpt><trkpt lat="45.1063565" lon="7.1035674"><ele>1190.0</ele><time>2026-04-06T11:35:30.84Z</time></trkpt><trkpt lat="45.1063651" lon="7.1034542"><ele>1190.0</ele><time>2026-04-06T11:35:31.84Z</time></trkpt><trkpt lat="45.1064034" lon="7.1033565"><ele>1190.0</ele><time>2026-04-06T11:35:32.84Z</time></trkpt><trkpt lat="45.1065349" lon="7.1032104"><ele>1190.0</ele><time>2026-04-06T11:35:34.839Z</time></trkpt><trkpt lat="45.1066091" lon="7.1031437"><ele>1190.0</ele><time>2026-04-06T11:35:35.839Z</time></trkpt><trkpt lat="45.1066871" lon="7.1030859"><ele>1190.0</ele><time>2026-04-06T11:35:36.839Z</time></trkpt><trkpt lat="45.1067609" lon="7.1030181"><ele>1191.0</ele><time>2026-04-06T11:35:37.84Z</time></trkpt><trkpt lat="45.1068476" lon="7.1029729"><ele>1192.0</ele><time>2026-04-06T11:35:38.84Z</time></trkpt><trkpt lat="45.1069273" lon="7.1029154"><ele>1193.0</ele><time>2026-04-06T11:35:39.84Z</time></trkpt><trkpt lat="45.1069826" lon="7.1028277"><ele>1194.0</ele><time>2026-04-06T11:35:41.841Z</time></trkpt><trkpt lat="45.1070255" lon="7.1027512"><ele>1195.0</ele><time>2026-04-06T11:35:42.84Z</time></trkpt><trkpt lat="45.1070549" lon="7.1025804"><ele>1195.0</ele><time>2026-04-06T11:35:44.839Z</time></trkpt><trkpt lat="45.1070698" lon="7.1024897"><ele>1195.0</ele><time>2026-04-06T11:35:45.839Z</time></trkpt><trkpt lat="45.107054" lon="7.1022918"><ele>1195.0</ele><time>2026-04-06T11:35:47.84Z</time></trkpt><trkpt lat="45.1070392" lon="7.1021798"><ele>1195.0</ele><time>2026-04-06T11:35:48.839Z</time></trkpt><trkpt lat="45.1070832" lon="7.1020846"><ele>1195.0</ele><time>2026-04-06T11:35:49.84Z</time></trkpt><trkpt lat="45.1071028" lon="7.1019855"><ele>1195.0</ele><time>2026-04-06T11:35:50.84Z</time></trkpt><trkpt lat="45.1071191" lon="7.1018925"><ele>1197.2</ele><time>2026-04-06T11:35:51.84Z</time></trkpt><trkpt lat="45.1071564" lon="7.1017155"><ele>1199.4</ele><time>2026-04-06T11:35:53.839Z</time></trkpt><trkpt lat="45.1071848" lon="7.1016109"><ele>1201.6</ele><time>2026-04-06T11:35:54.84Z</time></trkpt><trkpt lat="45.1072012" lon="7.1015077"><ele>1203.8</ele><time>2026-04-06T11:35:55.84Z</time></trkpt><trkpt lat="45.1071844" lon="7.1013919"><ele>1206.0</ele><time>2026-04-06T11:35:56.839Z</time></trkpt><trkpt lat="45.1071714" lon="7.1012196"><ele>1206.0</ele><time>2026-04-06T11:35:58.84Z</time></trkpt><trkpt lat="45.1071317" lon="7.1010975"><ele>1206.0</ele><time>2026-04-06T11:36:00.84Z</time></trkpt><trkpt lat="45.1070479" lon="7.1011139"><ele>1206.0</ele><time>2026-04-06T11:37:01.84Z</time></trkpt><trkpt lat="45.1070344" lon="7.1012564"><ele>1206.0</ele><time>2026-04-06T11:37:03.84Z</time></trkpt><trkpt lat="45.1070216" lon="7.1013906"><ele>1206.0</ele><time>2026-04-06T11:37:05.84Z</time></trkpt><trkpt lat="45.1069915" lon="7.1015028"><ele>1206.0</ele><time>2026-04-06T11:37:07.841Z</time></trkpt><trkpt lat="45.1069213" lon="7.1015058"><ele>1206.0</ele><time>2026-04-06T11:37:10.839Z</time></trkpt><trkpt lat="45.1068739" lon="7.1014408"><ele>1206.0</ele><time>2026-04-06T11:37:13.839Z</time></trkpt><trkpt lat="45.1068773" lon="7.1013033"><ele>1206.0</ele><time>2026-04-06T11:37:15.839Z</time></trkpt><trkpt lat="45.1068125" lon="7.1011547"><ele>1206.0</ele><time>2026-04-06T11:37:17.839Z</time></trkpt><trkpt lat="45.1067633" lon="7.1010906"><ele>1206.0</ele><time>2026-04-06T11:37:18.84Z</time></trkpt><trkpt lat="45.1066774" lon="7.1009802"><ele>1206.0</ele><time>2026-04-06T11:37:20.84Z</time></trkpt><trkpt lat="45.1065938" lon="7.1008841"><ele>1206.0</ele><time>2026-04-06T11:37:22.841Z</time></trkpt><trkpt lat="45.1065462" lon="7.1008254"><ele>1206.0</ele><time>2026-04-06T11:37:23.839Z</time></trkpt><trkpt lat="45.1064829" lon="7.1006707"><ele>1206.0</ele><time>2026-04-06T11:37:25.839Z</time></trkpt><trkpt lat="45.1065233" lon="7.1005578"><ele>1206.0</ele><time>2026-04-06T11:37:26.841Z</time></trkpt><trkpt lat="45.1065301" lon="7.1004436"><ele>1207.8333333333333</ele><time>2026-04-06T11:37:27.841Z</time></trkpt><trkpt lat="45.1065343" lon="7.1003303"><ele>1209.6666666666667</ele><time>2026-04-06T11:37:28.84Z</time></trkpt><trkpt lat="45.1065159" lon="7.1002169"><ele>1211.5</ele><time>2026-04-06T11:37:29.84Z</time></trkpt><trkpt lat="45.1064937" lon="7.1001111"><ele>1213.3333333333335</ele><time>2026-04-06T11:37:30.84Z</time></trkpt><trkpt lat="45.1064726" lon="7.1000164"><ele>1215.1666666666667</ele><time>2026-04-06T11:37:31.84Z</time></trkpt><trkpt lat="45.1064081" lon="7.099897"><ele>1217.0</ele><time>2026-04-06T11:37:33.84Z</time></trkpt><trkpt lat="45.1063497" lon="7.0998366"><ele>1217.0</ele><time>2026-04-06T11:37:34.84Z</time></trkpt><trkpt lat="45.1062221" lon="7.0998059"><ele>1217.0</ele><time>2026-04-06T11:37:36.84Z</time></trkpt><trkpt lat="45.1060938" lon="7.0997912"><ele>1217.0</ele><time>2026-04-06T11:37:38.84Z</time></trkpt><trkpt lat="45.1059721" lon="7.0997094"><ele>1217.0</ele><time>2026-04-06T11:37:40.839Z</time></trkpt><trkpt lat="45.1059022" lon="7.0996348"><ele>1217.0</ele><time>2026-04-06T11:37:41.84Z</time></trkpt><trkpt lat="45.1058516" lon="7.0995644"><ele>1217.0</ele><time>2026-04-06T11:37:42.839Z</time></trkpt><trkpt lat="45.1058024" lon="7.099488"><ele>1217.0</ele><time>2026-04-06T11:37:43.839Z</time></trkpt><trkpt lat="45.1057662" lon="7.0993854"><ele>1217.0</ele><time>2026-04-06T11:37:44.839Z</time></trkpt><trkpt lat="45.1057188" lon="7.0992952"><ele>1217.0</ele><time>2026-04-06T11:37:45.84Z</time></trkpt><trkpt lat="45.1056917" lon="7.0991961"><ele>1217.0</ele><time>2026-04-06T11:37:46.84Z</time></trkpt><trkpt lat="45.1056034" lon="7.0990525"><ele>1219.8333333333335</ele><time>2026-04-06T11:37:48.84Z</time></trkpt><trkpt lat="45.1055523" lon="7.0989831"><ele>1222.6666666666667</ele><time>2026-04-06T11:37:49.84Z</time></trkpt><trkpt lat="45.1054887" lon="7.0989172"><ele>1225.5</ele><time>2026-04-06T11:37:50.839Z</time></trkpt><trkpt lat="45.1054285" lon="7.0988446"><ele>1228.3333333333333</ele><time>2026-04-06T11:37:51.84Z</time></trkpt><trkpt lat="45.1053786" lon="7.0987837"><ele>1231.1666666666665</ele><time>2026-04-06T11:37:52.84Z</time></trkpt><trkpt lat="45.1053206" lon="7.0987106"><ele>1234.0</ele><time>2026-04-06T11:37:53.84Z</time></trkpt><trkpt lat="45.1052501" lon="7.0986513"><ele>1234.0</ele><time>2026-04-06T11:37:54.84Z</time></trkpt><trkpt lat="45.1051698" lon="7.0985926"><ele>1234.0</ele><time>2026-04-06T11:37:55.84Z</time></trkpt><trkpt lat="45.105106" lon="7.0985363"><ele>1234.0</ele><time>2026-04-06T11:37:56.84Z</time></trkpt><trkpt lat="45.1050429" lon="7.0984935"><ele>1234.0</ele><time>2026-04-06T11:37:57.84Z</time></trkpt><trkpt lat="45.1049776" lon="7.0984517"><ele>1234.0</ele><time>2026-04-06T11:37:58.84Z</time></trkpt><trkpt lat="45.1049191" lon="7.0984017"><ele>1234.0</ele><time>2026-04-06T11:37:59.84Z</time></trkpt><trkpt lat="45.1048346" lon="7.0982871"><ele>1237.0</ele><time>2026-04-06T11:38:01.839Z</time></trkpt><trkpt lat="45.1047105" lon="7.0982429"><ele>1240.0</ele><time>2026-04-06T11:38:03.838Z</time></trkpt><trkpt lat="45.1046465" lon="7.0982295"><ele>1243.0</ele><time>2026-04-06T11:38:04.838Z</time></trkpt><trkpt lat="45.1045169" lon="7.0982288"><ele>1246.0</ele><time>2026-04-06T11:38:06.839Z</time></trkpt><trkpt lat="45.1044574" lon="7.098197"><ele>1249.0</ele><time>2026-04-06T11:38:07.838Z</time></trkpt><trkpt lat="45.1043904" lon="7.0981242"><ele>1249.0</ele><time>2026-04-06T11:38:09.839Z</time></trkpt><trkpt lat="45.1043258" lon="7.0981607"><ele>1249.0</ele><time>2026-04-06T11:38:11.838Z</time></trkpt><trkpt lat="45.1043196" lon="7.0982946"><ele>1249.0</ele><time>2026-04-06T11:38:13.838Z</time></trkpt><trkpt lat="45.1043702" lon="7.09844"><ele>1249.0</ele><time>2026-04-06T11:38:15.838Z</time></trkpt><trkpt lat="45.1044201" lon="7.0986154"><ele>1249.0</ele><time>2026-04-06T11:38:17.839Z</time></trkpt><trkpt lat="45.1044673" lon="7.098728"><ele>1250.6666666666665</ele><time>2026-04-06T11:38:18.839Z</time></trkpt><trkpt lat="45.104499" lon="7.0988136"><ele>1252.3333333333333</ele><time>2026-04-06T11:38:19.839Z</time></trkpt><trkpt lat="45.1045417" lon="7.0988945"><ele>1254.0</ele><time>2026-04-06T11:38:20.839Z</time></trkpt><trkpt lat="45.1045781" lon="7.098981"><ele>1255.6666666666667</ele><time>2026-04-06T11:38:21.839Z</time></trkpt><trkpt lat="45.1045725" lon="7.0990977"><ele>1257.3333333333335</ele><time>2026-04-06T11:38:23.839Z</time></trkpt><trkpt lat="45.1044765" lon="7.099079"><ele>1259.0</ele><time>2026-04-06T11:38:25.839Z</time></trkpt><trkpt lat="45.1044535" lon="7.0989844"><ele>1259.0</ele><time>2026-04-06T11:38:26.838Z</time></trkpt><trkpt lat="45.1043991" lon="7.0988175"><ele>1259.0</ele><time>2026-04-06T11:38:28.838Z</time></trkpt><trkpt lat="45.1043134" lon="7.0987133"><ele>1259.0</ele><time>2026-04-06T11:38:30.838Z</time></trkpt><trkpt lat="45.1042593" lon="7.0986572"><ele>1259.0</ele><time>2026-04-06T11:38:31.839Z</time></trkpt><trkpt lat="45.1041851" lon="7.0986075"><ele>1259.0</ele><time>2026-04-06T11:38:32.839Z</time></trkpt><trkpt lat="45.1041198" lon="7.0985581"><ele>1261.5</ele><time>2026-04-06T11:38:33.839Z</time></trkpt><trkpt lat="45.1040518" lon="7.0985096"><ele>1264.0</ele><time>2026-04-06T11:38:34.839Z</time></trkpt><trkpt lat="45.1039724" lon="7.0984538"><ele>1266.5</ele><time>2026-04-06T11:38:35.839Z</time></trkpt><trkpt lat="45.1038931" lon="7.0984017"><ele>1269.0</ele><time>2026-04-06T11:38:36.839Z</time></trkpt><trkpt lat="45.1038238" lon="7.0983396"><ele>1271.5</ele><time>2026-04-06T11:38:37.839Z</time></trkpt><trkpt lat="45.1037677" lon="7.0982796"><ele>1274.0</ele><time>2026-04-06T11:38:38.839Z</time></trkpt><trkpt lat="45.1037052" lon="7.098187"><ele>1274.0</ele><time>2026-04-06T11:38:40.839Z</time></trkpt><trkpt lat="45.1036361" lon="7.0981455"><ele>1274.0</ele><time>2026-04-06T11:38:43.838Z</time></trkpt><trkpt lat="45.1036193" lon="7.0982548"><ele>1274.0</ele><time>2026-04-06T11:39:31.838Z</time></trkpt><trkpt lat="45.1035935" lon="7.0983434"><ele>1274.0</ele><time>2026-04-06T11:39:33.838Z</time></trkpt><trkpt lat="45.1036171" lon="7.098441"><ele>1274.0</ele><time>2026-04-06T11:39:36.838Z</time></trkpt><trkpt lat="45.1036739" lon="7.0985275"><ele>1274.0</ele><time>2026-04-06T11:39:39.839Z</time></trkpt><trkpt lat="45.1037661" lon="7.0986227"><ele>1277.0</ele><time>2026-04-06T11:39:41.838Z</time></trkpt><trkpt lat="45.1038548" lon="7.0987341"><ele>1280.0</ele><time>2026-04-06T11:39:43.839Z</time></trkpt><trkpt lat="45.1039242" lon="7.0988588"><ele>1283.0</ele><time>2026-04-06T11:39:45.839Z</time></trkpt><trkpt lat="45.1039375" lon="7.0989793"><ele>1286.0</ele><time>2026-04-06T11:39:47.838Z</time></trkpt><trkpt lat="45.1039345" lon="7.0991156"><ele>1289.0</ele><time>2026-04-06T11:39:49.839Z</time></trkpt><trkpt lat="45.103906" lon="7.0992903"><ele>1292.5</ele><time>2026-04-06T11:39:51.839Z</time></trkpt><trkpt lat="45.103898" lon="7.0993974"><ele>1296.0</ele><time>2026-04-06T11:39:52.839Z</time></trkpt><trkpt lat="45.1038928" lon="7.0994981"><ele>1299.5</ele><time>2026-04-06T11:39:53.839Z</time></trkpt><trkpt lat="45.1038877" lon="7.0996047"><ele>1303.0</ele><time>2026-04-06T11:39:54.839Z</time></trkpt><trkpt lat="45.1038864" lon="7.0997092"><ele>1306.5</ele><time>2026-04-06T11:39:55.839Z</time></trkpt><trkpt lat="45.1039206" lon="7.0998725"><ele>1310.0</ele><time>2026-04-06T11:39:57.839Z</time></trkpt><trkpt lat="45.1039436" lon="7.0999617"><ele>1312.4</ele><time>2026-04-06T11:39:58.839Z</time></trkpt><trkpt lat="45.1039622" lon="7.1000471"><ele>1314.8</ele><time>2026-04-06T11:39:59.839Z</time></trkpt><trkpt lat="45.1039757" lon="7.1001422"><ele>1317.1999999999998</ele><time>2026-04-06T11:40:00.84Z</time></trkpt><trkpt lat="45.1039863" lon="7.1003329"><ele>1319.6</ele><time>2026-04-06T11:40:02.839Z</time></trkpt><trkpt lat="45.1040041" lon="7.1005144"><ele>1322.0</ele><time>2026-04-06T11:40:04.839Z</time></trkpt><trkpt lat="45.1040748" lon="7.1006825"><ele>1319.0</ele><time>2026-04-06T11:40:06.839Z</time></trkpt><trkpt lat="45.1041271" lon="7.1007473"><ele>1316.0</ele><time>2026-04-06T11:40:07.839Z</time></trkpt><trkpt lat="45.1041731" lon="7.1008161"><ele>1313.0</ele><time>2026-04-06T11:40:08.838Z</time></trkpt><trkpt lat="45.1042203" lon="7.1008885"><ele>1310.0</ele><time>2026-04-06T11:40:09.839Z</time></trkpt><trkpt lat="45.1042686" lon="7.1010254"><ele>1307.0</ele><time>2026-04-06T11:40:11.839Z</time></trkpt><trkpt lat="45.104279" lon="7.1011727"><ele>1304.0</ele><time>2026-04-06T11:40:13.838Z</time></trkpt><trkpt lat="45.1042686" lon="7.1013326"><ele>1304.0</ele><time>2026-04-06T11:40:15.839Z</time></trkpt><trkpt lat="45.1042637" lon="7.1014745"><ele>1304.0</ele><time>2026-04-06T11:40:17.839Z</time></trkpt><trkpt lat="45.1041993" lon="7.1015438"><ele>1304.0</ele><time>2026-04-06T11:40:19.839Z</time></trkpt><trkpt lat="45.1041243" lon="7.1015313"><ele>1304.0</ele><time>2026-04-06T11:40:21.839Z</time></trkpt><trkpt lat="45.1040661" lon="7.1014363"><ele>1304.0</ele><time>2026-04-06T11:40:23.839Z</time></trkpt><trkpt lat="45.1039946" lon="7.1014216"><ele>1304.0</ele><time>2026-04-06T11:40:25.838Z</time></trkpt><trkpt lat="45.1039089" lon="7.1014345"><ele>1310.0</ele><time>2026-04-06T11:40:27.839Z</time></trkpt><trkpt lat="45.1038505" lon="7.101333"><ele>1316.0</ele><time>2026-04-06T11:40:30.838Z</time></trkpt><trkpt lat="45.1038176" lon="7.1012058"><ele>1322.0</ele><time>2026-04-06T11:40:32.839Z</time></trkpt><trkpt lat="45.1037732" lon="7.1010396"><ele>1328.0</ele><time>2026-04-06T11:40:34.838Z</time></trkpt><trkpt lat="45.1037236" lon="7.1009582"><ele>1334.0</ele><time>2026-04-06T11:40:35.839Z</time></trkpt><trkpt lat="45.1036767" lon="7.1008733"><ele>1334.0</ele><time>2026-04-06T11:40:36.839Z</time></trkpt><trkpt lat="45.1036235" lon="7.1007936"><ele>1334.0</ele><time>2026-04-06T11:40:37.839Z</time></trkpt><trkpt lat="45.1035769" lon="7.1007167"><ele>1334.0</ele><time>2026-04-06T11:40:38.838Z</time></trkpt><trkpt lat="45.1034968" lon="7.1005903"><ele>1334.0</ele><time>2026-04-06T11:40:40.839Z</time></trkpt><trkpt lat="45.1034603" lon="7.1004566"><ele>1334.0</ele><time>2026-04-06T11:40:42.839Z</time></trkpt><trkpt lat="45.1034204" lon="7.1003284"><ele>1335.2</ele><time>2026-04-06T11:40:44.838Z</time></trkpt><trkpt lat="45.1033513" lon="7.1002071"><ele>1336.4</ele><time>2026-04-06T11:40:46.84Z</time></trkpt><trkpt lat="45.1032713" lon="7.1000788"><ele>1337.6</ele><time>2026-04-06T11:40:48.839Z</time></trkpt><trkpt lat="45.1032192" lon="7.1000129"><ele>1338.8</ele><time>2026-04-06T11:40:49.839Z</time></trkpt><trkpt lat="45.1031672" lon="7.0999556"><ele>1340.0</ele><time>2026-04-06T11:40:50.839Z</time></trkpt><trkpt lat="45.1030681" lon="7.0999018"><ele>1340.0</ele><time>2026-04-06T11:40:52.839Z</time></trkpt><trkpt lat="45.102995" lon="7.099897"><ele>1340.0</ele><time>2026-04-06T11:40:54.839Z</time></trkpt><trkpt lat="45.1029377" lon="7.0999656"><ele>1340.0</ele><time>2026-04-06T11:40:57.838Z</time></trkpt><trkpt lat="45.1029347" lon="7.1000689"><ele>1340.0</ele><time>2026-04-06T11:40:59.839Z</time></trkpt><trkpt lat="45.1029814" lon="7.1001669"><ele>1340.0</ele><time>2026-04-06T11:41:01.838Z</time></trkpt><trkpt lat="45.1030369" lon="7.1002664"><ele>1340.0</ele><time>2026-04-06T11:41:03.839Z</time></trkpt><trkpt lat="45.1030866" lon="7.1003523"><ele>1342.1666666666667</ele><time>2026-04-06T11:41:05.839Z</time></trkpt><trkpt lat="45.1031136" lon="7.1004368"><ele>1344.3333333333335</ele><time>2026-04-06T11:41:10.839Z</time></trkpt><trkpt lat="45.1030907" lon="7.1005388"><ele>1346.5</ele><time>2026-04-06T11:41:13.839Z</time></trkpt><trkpt lat="45.1030733" lon="7.1006601"><ele>1348.6666666666667</ele><time>2026-04-06T11:41:15.839Z</time></trkpt><trkpt lat="45.1030879" lon="7.1007513"><ele>1350.8333333333333</ele><time>2026-04-06T11:41:16.839Z</time></trkpt><trkpt lat="45.1031146" lon="7.1008474"><ele>1353.0</ele><time>2026-04-06T11:41:17.84Z</time></trkpt><trkpt lat="45.1031664" lon="7.1009507"><ele>1351.857142857143</ele><time>2026-04-06T11:41:18.838Z</time></trkpt><trkpt lat="45.1032068" lon="7.101046"><ele>1350.7142857142856</ele><time>2026-04-06T11:41:19.839Z</time></trkpt><trkpt lat="45.1032146" lon="7.1011454"><ele>1349.5714285714284</ele><time>2026-04-06T11:41:20.839Z</time></trkpt><trkpt lat="45.1032401" lon="7.1012441"><ele>1348.4285714285716</ele><time>2026-04-06T11:41:21.839Z</time></trkpt><trkpt lat="45.1032578" lon="7.1013318"><ele>1347.2857142857142</ele><time>2026-04-06T11:41:22.839Z</time></trkpt><trkpt lat="45.1032777" lon="7.1014212"><ele>1346.142857142857</ele><time>2026-04-06T11:41:23.839Z</time></trkpt><trkpt lat="45.1033019" lon="7.1015037"><ele>1345.0</ele><time>2026-04-06T11:41:24.839Z</time></trkpt><trkpt lat="45.1033297" lon="7.1016502"><ele>1345.0</ele><time>2026-04-06T11:41:26.839Z</time></trkpt><trkpt lat="45.1033451" lon="7.1017411"><ele>1345.0</ele><time>2026-04-06T11:41:27.839Z</time></trkpt><trkpt lat="45.1033563" lon="7.1018695"><ele>1345.0</ele><time>2026-04-06T11:41:29.839Z</time></trkpt><trkpt lat="45.1033257" lon="7.101996"><ele>1345.0</ele><time>2026-04-06T11:41:31.838Z</time></trkpt><trkpt lat="45.1032735" lon="7.1020943"><ele>1345.0</ele><time>2026-04-06T11:41:33.839Z</time></trkpt><trkpt lat="45.1031935" lon="7.1022083"><ele>1351.0</ele><time>2026-04-06T11:41:35.838Z</time></trkpt><trkpt lat="45.1031281" lon="7.102305"><ele>1357.0</ele><time>2026-04-06T11:41:37.839Z</time></trkpt><trkpt lat="45.103059" lon="7.102357"><ele>1363.0</ele><time>2026-04-06T11:41:38.838Z</time></trkpt><trkpt lat="45.1029651" lon="7.1024241"><ele>1369.0</ele><time>2026-04-06T11:41:40.839Z</time></trkpt><trkpt lat="45.102869" lon="7.102514"><ele>1375.0</ele><time>2026-04-06T11:41:42.838Z</time></trkpt><trkpt lat="45.1028127" lon="7.1025752"><ele>1375.0</ele><time>2026-04-06T11:41:43.838Z</time></trkpt><trkpt lat="45.1027308" lon="7.1026409"><ele>1375.0</ele><time>2026-04-06T11:41:44.839Z</time></trkpt><trkpt lat="45.1027004" lon="7.1027392"><ele>1375.0</ele><time>2026-04-06T11:41:45.838Z</time></trkpt><trkpt lat="45.1026411" lon="7.1028115"><ele>1375.0</ele><time>2026-04-06T11:41:46.838Z</time></trkpt><trkpt lat="45.102566" lon="7.1029597"><ele>1375.0</ele><time>2026-04-06T11:41:48.84Z</time></trkpt><trkpt lat="45.1025135" lon="7.1030354"><ele>1375.0</ele><time>2026-04-06T11:41:49.839Z</time></trkpt><trkpt lat="45.1024326" lon="7.1031863"><ele>1375.0</ele><time>2026-04-06T11:41:51.839Z</time></trkpt><trkpt lat="45.1023706" lon="7.1033234"><ele>1375.0</ele><time>2026-04-06T11:41:53.838Z</time></trkpt><trkpt lat="45.1023286" lon="7.1034578"><ele>1375.0</ele><time>2026-04-06T11:41:55.839Z</time></trkpt><trkpt lat="45.1022833" lon="7.103571"><ele>1375.0</ele><time>2026-04-06T11:41:57.839Z</time></trkpt><trkpt lat="45.1022398" lon="7.1036939"><ele>1379.1666666666665</ele><time>2026-04-06T11:41:59.839Z</time></trkpt><trkpt lat="45.1022127" lon="7.103847"><ele>1383.3333333333333</ele><time>2026-04-06T11:42:01.838Z</time></trkpt><trkpt lat="45.1022004" lon="7.1039348"><ele>1387.5</ele><time>2026-04-06T11:42:02.838Z</time></trkpt><trkpt lat="45.1021997" lon="7.1040391"><ele>1391.6666666666667</ele><time>2026-04-06T11:42:03.84Z</time></trkpt><trkpt lat="45.1021928" lon="7.1041362"><ele>1395.8333333333335</ele><time>2026-04-06T11:42:04.839Z</time></trkpt><trkpt lat="45.1022122" lon="7.1042938"><ele>1400.0</ele><time>2026-04-06T11:42:06.838Z</time></trkpt><trkpt lat="45.1021814" lon="7.104379"><ele>1400.0</ele><time>2026-04-06T11:42:07.838Z</time></trkpt><trkpt lat="45.1021677" lon="7.1044861"><ele>1400.0</ele><time>2026-04-06T11:42:09.838Z</time></trkpt><trkpt lat="45.1021438" lon="7.1046215"><ele>1400.0</ele><time>2026-04-06T11:42:11.839Z</time></trkpt><trkpt lat="45.1021094" lon="7.1047589"><ele>1400.0</ele><time>2026-04-06T11:42:13.837Z</time></trkpt><trkpt lat="45.1020529" lon="7.104902"><ele>1400.0</ele><time>2026-04-06T11:42:15.837Z</time></trkpt><trkpt lat="45.1019799" lon="7.1050011"><ele>1398.3333333333335</ele><time>2026-04-06T11:42:18.838Z</time></trkpt><trkpt lat="45.1018837" lon="7.1051396"><ele>1396.6666666666667</ele><time>2026-04-06T11:42:21.837Z</time></trkpt><trkpt lat="45.1018361" lon="7.1052304"><ele>1395.0</ele><time>2026-04-06T11:42:22.838Z</time></trkpt><trkpt lat="45.1017785" lon="7.1053014"><ele>1393.3333333333333</ele><time>2026-04-06T11:42:23.838Z</time></trkpt><trkpt lat="45.101728" lon="7.1053854"><ele>1391.6666666666665</ele><time>2026-04-06T11:42:24.837Z</time></trkpt><trkpt lat="45.101692" lon="7.1054697"><ele>1390.0</ele><time>2026-04-06T11:42:25.837Z</time></trkpt><trkpt lat="45.1016247" lon="7.105558"><ele>1391.6</ele><time>2026-04-06T11:42:26.838Z</time></trkpt><trkpt lat="45.1015726" lon="7.1056579"><ele>1393.2</ele><time>2026-04-06T11:42:27.838Z</time></trkpt><trkpt lat="45.1015098" lon="7.1057326"><ele>1394.8000000000002</ele><time>2026-04-06T11:42:28.838Z</time></trkpt><trkpt lat="45.1014508" lon="7.1058051"><ele>1396.4</ele><time>2026-04-06T11:42:29.838Z</time></trkpt><trkpt lat="45.1013894" lon="7.1058858"><ele>1398.0</ele><time>2026-04-06T11:42:30.838Z</time></trkpt><trkpt lat="45.1012839" lon="7.1060377"><ele>1398.0</ele><time>2026-04-06T11:42:32.838Z</time></trkpt><trkpt lat="45.1012168" lon="7.1060682"><ele>1398.0</ele><time>2026-04-06T11:42:33.838Z</time></trkpt><trkpt lat="45.1011464" lon="7.106154"><ele>1398.0</ele><time>2026-04-06T11:42:36.838Z</time></trkpt><trkpt lat="45.1011246" lon="7.1062523"><ele>1398.0</ele><time>2026-04-06T11:42:46.837Z</time></trkpt><trkpt lat="45.1010825" lon="7.1063325"><ele>1398.0</ele><time>2026-04-06T11:42:50.837Z</time></trkpt><trkpt lat="45.1010661" lon="7.1064259"><ele>1398.0</ele><time>2026-04-06T11:42:53.837Z</time></trkpt><trkpt lat="45.1010606" lon="7.1065229"><ele>1398.0</ele><time>2026-04-06T11:43:03.837Z</time></trkpt><trkpt lat="45.1010728" lon="7.106619"><ele>1396.1666666666667</ele><time>2026-04-06T11:43:08.837Z</time></trkpt><trkpt lat="45.1010562" lon="7.1067365"><ele>1394.3333333333333</ele><time>2026-04-06T11:43:11.837Z</time></trkpt><trkpt lat="45.1010342" lon="7.1068201"><ele>1392.5</ele><time>2026-04-06T11:43:13.839Z</time></trkpt><trkpt lat="45.1010151" lon="7.1069265"><ele>1390.6666666666665</ele><time>2026-04-06T11:43:16.837Z</time></trkpt><trkpt lat="45.1010052" lon="7.1070686"><ele>1388.8333333333333</ele><time>2026-04-06T11:45:04.838Z</time></trkpt><trkpt lat="45.1010215" lon="7.1071972"><ele>1387.0</ele><time>2026-04-06T11:45:05.838Z</time></trkpt><trkpt lat="45.1010398" lon="7.1073457"><ele>1387.8</ele><time>2026-04-06T11:45:07.837Z</time></trkpt><trkpt lat="45.1010484" lon="7.1074813"><ele>1388.6</ele><time>2026-04-06T11:45:09.838Z</time></trkpt><trkpt lat="45.1010289" lon="7.1076421"><ele>1389.3999999999999</ele><time>2026-04-06T11:45:11.838Z</time></trkpt><trkpt lat="45.1010072" lon="7.107809"><ele>1390.1999999999998</ele><time>2026-04-06T11:45:13.838Z</time></trkpt><trkpt lat="45.1010035" lon="7.1079209"><ele>1391.0</ele><time>2026-04-06T11:45:14.838Z</time></trkpt><trkpt lat="45.1010041" lon="7.108013"><ele>1391.0</ele><time>2026-04-06T11:45:15.837Z</time></trkpt><trkpt lat="45.1009986" lon="7.1081075"><ele>1391.0</ele><time>2026-04-06T11:45:16.838Z</time></trkpt><trkpt lat="45.1009778" lon="7.1081923"><ele>1391.0</ele><time>2026-04-06T11:45:17.839Z</time></trkpt><trkpt lat="45.1009143" lon="7.108348"><ele>1391.0</ele><time>2026-04-06T11:45:19.839Z</time></trkpt><trkpt lat="45.1008273" lon="7.108465"><ele>1391.0</ele><time>2026-04-06T11:45:21.837Z</time></trkpt><trkpt lat="45.100773" lon="7.1085974"><ele>1395.6</ele><time>2026-04-06T11:45:23.838Z</time></trkpt><trkpt lat="45.1007" lon="7.1086754"><ele>1400.1999999999998</ele><time>2026-04-06T11:45:24.837Z</time></trkpt><trkpt lat="45.100647" lon="7.1087557"><ele>1404.8000000000002</ele><time>2026-04-06T11:45:25.837Z</time></trkpt><trkpt lat="45.1005705" lon="7.1088988"><ele>1409.4</ele><time>2026-04-06T11:45:27.839Z</time></trkpt><trkpt lat="45.1005028" lon="7.1089747"><ele>1414.0</ele><time>2026-04-06T11:45:28.838Z</time></trkpt><trkpt lat="45.1004243" lon="7.1090801"><ele>1414.0</ele><time>2026-04-06T11:45:30.838Z</time></trkpt><trkpt lat="45.1003785" lon="7.109146"><ele>1414.0</ele><time>2026-04-06T11:45:31.838Z</time></trkpt><trkpt lat="45.1003275" lon="7.1092526"><ele>1414.0</ele><time>2026-04-06T11:45:32.837Z</time></trkpt><trkpt lat="45.1002598" lon="7.1093907"><ele>1414.0</ele><time>2026-04-06T11:45:34.838Z</time></trkpt><trkpt lat="45.1002278" lon="7.1094707"><ele>1414.0</ele><time>2026-04-06T11:45:35.837Z</time></trkpt><trkpt lat="45.1001649" lon="7.1095929"><ele>1414.0</ele><time>2026-04-06T11:45:37.838Z</time></trkpt><trkpt lat="45.1001042" lon="7.1097179"><ele>1414.0</ele><time>2026-04-06T11:45:39.837Z</time></trkpt><trkpt lat="45.1000668" lon="7.1097928"><ele>1414.0</ele><time>2026-04-06T11:45:40.838Z</time></trkpt><trkpt lat="45.1000441" lon="7.1099436"><ele>1414.0</ele><time>2026-04-06T11:45:42.837Z</time></trkpt><trkpt lat="45.1000041" lon="7.1100799"><ele>1414.0</ele><time>2026-04-06T11:45:44.838Z</time></trkpt><trkpt lat="45.0999563" lon="7.1101603"><ele>1414.0</ele><time>2026-04-06T11:45:45.837Z</time></trkpt><trkpt lat="45.0998838" lon="7.1102718"><ele>1414.25</ele><time>2026-04-06T11:45:47.838Z</time></trkpt><trkpt lat="45.0998036" lon="7.1104029"><ele>1414.5</ele><time>2026-04-06T11:45:49.838Z</time></trkpt><trkpt lat="45.0996821" lon="7.1105097"><ele>1414.75</ele><time>2026-04-06T11:45:51.838Z</time></trkpt><trkpt lat="45.0995957" lon="7.1105427"><ele>1415.0</ele><time>2026-04-06T11:45:53.837Z</time></trkpt><trkpt lat="45.0995038" lon="7.1106365"><ele>1415.0</ele><time>2026-04-06T11:45:55.839Z</time></trkpt><trkpt lat="45.0994263" lon="7.1106512"><ele>1415.0</ele><time>2026-04-06T11:45:57.838Z</time></trkpt><trkpt lat="45.0993605" lon="7.1105435"><ele>1415.0</ele><time>2026-04-06T11:45:59.838Z</time></trkpt><trkpt lat="45.0993229" lon="7.1104655"><ele>1415.0</ele><time>2026-04-06T11:46:00.838Z</time></trkpt><trkpt lat="45.0992757" lon="7.1104052"><ele>1415.0</ele><time>2026-04-06T11:46:01.838Z</time></trkpt><trkpt lat="45.0992228" lon="7.1103288"><ele>1415.0</ele><time>2026-04-06T11:46:02.838Z</time></trkpt><trkpt lat="45.0991588" lon="7.1102881"><ele>1415.0</ele><time>2026-04-06T11:46:03.838Z</time></trkpt><trkpt lat="45.0990916" lon="7.1102647"><ele>1415.0</ele><time>2026-04-06T11:46:04.837Z</time></trkpt><trkpt lat="45.0990187" lon="7.1102408"><ele>1415.0</ele><time>2026-04-06T11:46:05.837Z</time></trkpt><trkpt lat="45.0989421" lon="7.1102295"><ele>1415.0</ele><time>2026-04-06T11:46:06.838Z</time></trkpt><trkpt lat="45.0988642" lon="7.1102304"><ele>1415.0</ele><time>2026-04-06T11:46:07.838Z</time></trkpt><trkpt lat="45.0988005" lon="7.1102412"><ele>1415.0</ele><time>2026-04-06T11:46:08.838Z</time></trkpt><trkpt lat="45.098735" lon="7.1102504"><ele>1415.0</ele><time>2026-04-06T11:46:09.838Z</time></trkpt><trkpt lat="45.0986701" lon="7.1102185"><ele>1413.6666666666667</ele><time>2026-04-06T11:46:10.837Z</time></trkpt><trkpt lat="45.0985569" lon="7.1101459"><ele>1412.3333333333335</ele><time>2026-04-06T11:46:12.838Z</time></trkpt><trkpt lat="45.0984718" lon="7.1101147"><ele>1411.0</ele><time>2026-04-06T11:46:13.837Z</time></trkpt><trkpt lat="45.0983962" lon="7.1100805"><ele>1409.6666666666667</ele><time>2026-04-06T11:46:14.838Z</time></trkpt><trkpt lat="45.0983247" lon="7.1100507"><ele>1408.3333333333333</ele><time>2026-04-06T11:46:15.838Z</time></trkpt><trkpt lat="45.0982732" lon="7.1099738"><ele>1407.0</ele><time>2026-04-06T11:46:16.839Z</time></trkpt><trkpt lat="45.0982044" lon="7.1099186"><ele>1412.8</ele><time>2026-04-06T11:46:17.838Z</time></trkpt><trkpt lat="45.0981354" lon="7.1098597"><ele>1418.6</ele><time>2026-04-06T11:46:18.838Z</time></trkpt><trkpt lat="45.0980592" lon="7.1098164"><ele>1424.3999999999999</ele><time>2026-04-06T11:46:19.838Z</time></trkpt><trkpt lat="45.097981" lon="7.1097711"><ele>1430.1999999999998</ele><time>2026-04-06T11:46:20.838Z</time></trkpt><trkpt lat="45.0978882" lon="7.1097341"><ele>1436.0</ele><time>2026-04-06T11:46:21.838Z</time></trkpt><trkpt lat="45.0977448" lon="7.109726"><ele>1436.0</ele><time>2026-04-06T11:46:23.838Z</time></trkpt><trkpt lat="45.097657" lon="7.109708"><ele>1436.0</ele><time>2026-04-06T11:46:24.837Z</time></trkpt><trkpt lat="45.0975758" lon="7.1096945"><ele>1436.0</ele><time>2026-04-06T11:46:25.836Z</time></trkpt><trkpt lat="45.0974925" lon="7.1096761"><ele>1436.0</ele><time>2026-04-06T11:46:26.836Z</time></trkpt><trkpt lat="45.0974244" lon="7.1096803"><ele>1436.0</ele><time>2026-04-06T11:46:27.836Z</time></trkpt><trkpt lat="45.0973507" lon="7.1097047"><ele>1436.0</ele><time>2026-04-06T11:46:28.836Z</time></trkpt><trkpt lat="45.0972795" lon="7.1097098"><ele>1434.6</ele><time>2026-04-06T11:46:29.837Z</time></trkpt><trkpt lat="45.0972207" lon="7.1097676"><ele>1433.1999999999998</ele><time>2026-04-06T11:46:30.837Z</time></trkpt><trkpt lat="45.0970971" lon="7.109855"><ele>1431.8000000000002</ele><time>2026-04-06T11:46:32.837Z</time></trkpt><trkpt lat="45.0969802" lon="7.1098798"><ele>1430.4</ele><time>2026-04-06T11:46:34.837Z</time></trkpt><trkpt lat="45.0968827" lon="7.109836"><ele>1429.0</ele><time>2026-04-06T11:46:36.836Z</time></trkpt><trkpt lat="45.0967731" lon="7.1097868"><ele>1429.0</ele><time>2026-04-06T11:46:38.837Z</time></trkpt><trkpt lat="45.0966729" lon="7.109796"><ele>1429.0</ele><time>2026-04-06T11:46:40.836Z</time></trkpt><trkpt lat="45.0966093" lon="7.1098012"><ele>1429.0</ele><time>2026-04-06T11:46:41.836Z</time></trkpt><trkpt lat="45.0965428" lon="7.1098072"><ele>1429.0</ele><time>2026-04-06T11:46:42.836Z</time></trkpt><trkpt lat="45.0964447" lon="7.1098558"><ele>1429.0</ele><time>2026-04-06T11:46:44.837Z</time></trkpt><trkpt lat="45.0963705" lon="7.1098679"><ele>1429.0</ele><time>2026-04-06T11:46:46.837Z</time></trkpt><trkpt lat="45.0963022" lon="7.109847"><ele>1427.142857142857</ele><time>2026-04-06T11:46:48.836Z</time></trkpt><trkpt lat="45.0962359" lon="7.1098359"><ele>1425.2857142857142</ele><time>2026-04-06T11:46:50.836Z</time></trkpt><trkpt lat="45.0961561" lon="7.1098332"><ele>1423.4285714285716</ele><time>2026-04-06T11:46:53.836Z</time></trkpt><trkpt lat="45.0960927" lon="7.1098303"><ele>1421.5714285714284</ele><time>2026-04-06T11:47:59.838Z</time></trkpt><trkpt lat="45.0961926" lon="7.1098511"><ele>1419.7142857142856</ele><time>2026-04-06T11:49:15.837Z</time></trkpt><trkpt lat="45.0962557" lon="7.1098598"><ele>1417.857142857143</ele><time>2026-04-06T11:49:16.836Z</time></trkpt><trkpt lat="45.0963222" lon="7.109864"><ele>1416.0</ele><time>2026-04-06T11:49:17.837Z</time></trkpt><trkpt lat="45.0963979" lon="7.1098735"><ele>1416.0</ele><time>2026-04-06T11:49:18.837Z</time></trkpt><trkpt lat="45.096464" lon="7.1098827"><ele>1416.0</ele><time>2026-04-06T11:49:19.837Z</time></trkpt><trkpt lat="45.0965657" lon="7.1098703"><ele>1416.0</ele><time>2026-04-06T11:49:21.837Z</time></trkpt><trkpt lat="45.096636" lon="7.1098467"><ele>1416.0</ele><time>2026-04-06T11:49:23.837Z</time></trkpt><trkpt lat="45.0967134" lon="7.109835"><ele>1416.0</ele><time>2026-04-06T11:49:25.837Z</time></trkpt><trkpt lat="45.0967967" lon="7.1098481"><ele>1416.0</ele><time>2026-04-06T11:49:27.837Z</time></trkpt><trkpt lat="45.0968856" lon="7.1098962"><ele>1418.6</ele><time>2026-04-06T11:49:29.836Z</time></trkpt><trkpt lat="45.0969539" lon="7.1099348"><ele>1421.1999999999998</ele><time>2026-04-06T11:49:31.836Z</time></trkpt><trkpt lat="45.0970388" lon="7.1099434"><ele>1423.8000000000002</ele><time>2026-04-06T11:49:33.838Z</time></trkpt><trkpt lat="45.0971322" lon="7.1098783"><ele>1426.4</ele><time>2026-04-06T11:49:35.837Z</time></trkpt><trkpt lat="45.0972316" lon="7.1097966"><ele>1429.0</ele><time>2026-04-06T11:49:37.837Z</time></trkpt><trkpt lat="45.0973191" lon="7.1097718"><ele>1430.4</ele><time>2026-04-06T11:49:39.836Z</time></trkpt><trkpt lat="45.0974222" lon="7.1097651"><ele>1431.8000000000002</ele><time>2026-04-06T11:49:41.837Z</time></trkpt><trkpt lat="45.0975315" lon="7.1097525"><ele>1433.1999999999998</ele><time>2026-04-06T11:49:43.837Z</time></trkpt><trkpt lat="45.0976432" lon="7.1097646"><ele>1434.6</ele><time>2026-04-06T11:49:45.837Z</time></trkpt><trkpt lat="45.0977649" lon="7.1097953"><ele>1436.0</ele><time>2026-04-06T11:49:47.837Z</time></trkpt><trkpt lat="45.0978308" lon="7.1098005"><ele>1436.0</ele><time>2026-04-06T11:49:48.837Z</time></trkpt><trkpt lat="45.0978931" lon="7.1098169"><ele>1436.0</ele><time>2026-04-06T11:49:49.838Z</time></trkpt><trkpt lat="45.0979589" lon="7.1098394"><ele>1436.0</ele><time>2026-04-06T11:49:50.838Z</time></trkpt><trkpt lat="45.0980263" lon="7.1098746"><ele>1436.0</ele><time>2026-04-06T11:49:51.836Z</time></trkpt><trkpt lat="45.0980823" lon="7.1099264"><ele>1436.0</ele><time>2026-04-06T11:49:52.836Z</time></trkpt><trkpt lat="45.0981491" lon="7.1099662"><ele>1436.0</ele><time>2026-04-06T11:49:53.836Z</time></trkpt><trkpt lat="45.0982012" lon="7.1100316"><ele>1436.0</ele><time>2026-04-06T11:49:54.837Z</time></trkpt><trkpt lat="45.098283" lon="7.1100804"><ele>1431.1666666666667</ele><time>2026-04-06T11:49:55.837Z</time></trkpt><trkpt lat="45.0983593" lon="7.1101274"><ele>1426.3333333333335</ele><time>2026-04-06T11:49:56.837Z</time></trkpt><trkpt lat="45.0984279" lon="7.1101687"><ele>1421.5</ele><time>2026-04-06T11:49:57.838Z</time></trkpt><trkpt lat="45.0984833" lon="7.110212"><ele>1416.6666666666667</ele><time>2026-04-06T11:49:58.837Z</time></trkpt><trkpt lat="45.0985604" lon="7.1102399"><ele>1411.8333333333333</ele><time>2026-04-06T11:49:59.838Z</time></trkpt><trkpt lat="45.0986368" lon="7.1102746"><ele>1407.0</ele><time>2026-04-06T11:50:00.838Z</time></trkpt><trkpt lat="45.0987106" lon="7.1103052"><ele>1407.0</ele><time>2026-04-06T11:50:01.837Z</time></trkpt><trkpt lat="45.0987914" lon="7.1103147"><ele>1407.0</ele><time>2026-04-06T11:50:02.837Z</time></trkpt><trkpt lat="45.0988594" lon="7.110306"><ele>1407.0</ele><time>2026-04-06T11:50:03.836Z</time></trkpt><trkpt lat="45.0989335" lon="7.1103081"><ele>1407.0</ele><time>2026-04-06T11:50:04.836Z</time></trkpt><trkpt lat="45.0990098" lon="7.1103102"><ele>1407.0</ele><time>2026-04-06T11:50:05.837Z</time></trkpt><trkpt lat="45.0991032" lon="7.1103186"><ele>1407.0</ele><time>2026-04-06T11:50:06.837Z</time></trkpt><trkpt lat="45.0991806" lon="7.1103597"><ele>1408.142857142857</ele><time>2026-04-06T11:50:07.837Z</time></trkpt><trkpt lat="45.0992544" lon="7.1104106"><ele>1409.2857142857142</ele><time>2026-04-06T11:50:08.837Z</time></trkpt><trkpt lat="45.0993017" lon="7.11051"><ele>1410.4285714285716</ele><time>2026-04-06T11:50:09.836Z</time></trkpt><trkpt lat="45.0993551" lon="7.1105697"><ele>1411.5714285714284</ele><time>2026-04-06T11:50:10.836Z</time></trkpt><trkpt lat="45.0994098" lon="7.110624"><ele>1412.7142857142858</ele><time>2026-04-06T11:50:11.837Z</time></trkpt><trkpt lat="45.0994667" lon="7.1106832"><ele>1413.857142857143</ele><time>2026-04-06T11:50:12.837Z</time></trkpt><trkpt lat="45.0995317" lon="7.1106557"><ele>1415.0</ele><time>2026-04-06T11:50:13.836Z</time></trkpt><trkpt lat="45.0996393" lon="7.1105916"><ele>1415.0</ele><time>2026-04-06T11:50:15.837Z</time></trkpt><trkpt lat="45.0997007" lon="7.1105465"><ele>1415.0</ele><time>2026-04-06T11:50:16.836Z</time></trkpt><trkpt lat="45.0997587" lon="7.1105051"><ele>1415.0</ele><time>2026-04-06T11:50:17.836Z</time></trkpt><trkpt lat="45.0998591" lon="7.1104152"><ele>1415.0</ele><time>2026-04-06T11:50:19.836Z</time></trkpt><trkpt lat="45.0999282" lon="7.1103111"><ele>1415.0</ele><time>2026-04-06T11:50:21.835Z</time></trkpt><trkpt lat="45.0999936" lon="7.1101969"><ele>1414.8333333333335</ele><time>2026-04-06T11:50:23.836Z</time></trkpt><trkpt lat="45.1000396" lon="7.1100968"><ele>1414.6666666666667</ele><time>2026-04-06T11:50:25.836Z</time></trkpt><trkpt lat="45.1000722" lon="7.1099859"><ele>1414.5</ele><time>2026-04-06T11:50:27.836Z</time></trkpt><trkpt lat="45.100096" lon="7.1098954"><ele>1414.3333333333333</ele><time>2026-04-06T11:50:29.836Z</time></trkpt><trkpt lat="45.1001361" lon="7.1097663"><ele>1414.1666666666665</ele><time>2026-04-06T11:50:31.837Z</time></trkpt><trkpt lat="45.100183" lon="7.1096522"><ele>1414.0</ele><time>2026-04-06T11:50:33.836Z</time></trkpt><trkpt lat="45.1002323" lon="7.1095513"><ele>1414.0</ele><time>2026-04-06T11:50:35.835Z</time></trkpt><trkpt lat="45.1002965" lon="7.1094124"><ele>1414.0</ele><time>2026-04-06T11:50:37.836Z</time></trkpt><trkpt lat="45.1003667" lon="7.1092617"><ele>1414.0</ele><time>2026-04-06T11:50:39.836Z</time></trkpt><trkpt lat="45.1004122" lon="7.1091903"><ele>1414.0</ele><time>2026-04-06T11:50:40.836Z</time></trkpt><trkpt lat="45.1004996" lon="7.1090557"><ele>1414.0</ele><time>2026-04-06T11:50:42.836Z</time></trkpt><trkpt lat="45.1005914" lon="7.1089601"><ele>1417.0</ele><time>2026-04-06T11:50:44.837Z</time></trkpt><trkpt lat="45.100631" lon="7.1088905"><ele>1420.0</ele><time>2026-04-06T11:50:45.837Z</time></trkpt><trkpt lat="45.1007074" lon="7.108792"><ele>1423.0</ele><time>2026-04-06T11:50:47.836Z</time></trkpt><trkpt lat="45.1007958" lon="7.1086739"><ele>1426.0</ele><time>2026-04-06T11:50:49.836Z</time></trkpt><trkpt lat="45.10084" lon="7.1085799"><ele>1429.0</ele><time>2026-04-06T11:50:50.836Z</time></trkpt><trkpt lat="45.1008934" lon="7.1085076"><ele>1432.0</ele><time>2026-04-06T11:50:51.836Z</time></trkpt><trkpt lat="45.1009439" lon="7.1084345"><ele>1425.1666666666665</ele><time>2026-04-06T11:50:52.835Z</time></trkpt><trkpt lat="45.1009866" lon="7.1083555"><ele>1418.3333333333333</ele><time>2026-04-06T11:50:53.835Z</time></trkpt><trkpt lat="45.1010101" lon="7.108213"><ele>1411.5</ele><time>2026-04-06T11:50:55.836Z</time></trkpt><trkpt lat="45.1010548" lon="7.1080446"><ele>1404.6666666666667</ele><time>2026-04-06T11:50:57.835Z</time></trkpt><trkpt lat="45.1010609" lon="7.1079522"><ele>1397.8333333333335</ele><time>2026-04-06T11:50:58.836Z</time></trkpt><trkpt lat="45.1010449" lon="7.1078554"><ele>1391.0</ele><time>2026-04-06T11:50:59.836Z</time></trkpt><trkpt lat="45.1010783" lon="7.1077039"><ele>1391.0</ele><time>2026-04-06T11:51:01.835Z</time></trkpt><trkpt lat="45.1010776" lon="7.107517"><ele>1391.0</ele><time>2026-04-06T11:51:03.836Z</time></trkpt><trkpt lat="45.1010797" lon="7.1073826"><ele>1391.0</ele><time>2026-04-06T11:51:05.835Z</time></trkpt><trkpt lat="45.1010638" lon="7.1072573"><ele>1391.0</ele><time>2026-04-06T11:51:07.836Z</time></trkpt><trkpt lat="45.1010551" lon="7.1071527"><ele>1391.0</ele><time>2026-04-06T11:51:09.836Z</time></trkpt><trkpt lat="45.101067" lon="7.1070534"><ele>1390.4285714285713</ele><time>2026-04-06T11:51:11.836Z</time></trkpt><trkpt lat="45.1010858" lon="7.1069451"><ele>1389.857142857143</ele><time>2026-04-06T11:51:13.836Z</time></trkpt><trkpt lat="45.101102" lon="7.1068511"><ele>1389.2857142857142</ele><time>2026-04-06T11:51:15.836Z</time></trkpt><trkpt lat="45.1011304" lon="7.1067488"><ele>1388.7142857142858</ele><time>2026-04-06T11:51:18.835Z</time></trkpt><trkpt lat="45.1011266" lon="7.1066415"><ele>1388.142857142857</ele><time>2026-04-06T11:51:21.836Z</time></trkpt><trkpt lat="45.1011029" lon="7.1065544"><ele>1387.5714285714287</ele><time>2026-04-06T11:51:27.836Z</time></trkpt><trkpt lat="45.1010806" lon="7.1064666"><ele>1387.0</ele><time>2026-04-06T11:51:34.835Z</time></trkpt><trkpt lat="45.1010756" lon="7.1063563"><ele>1388.8333333333333</ele><time>2026-04-06T11:51:37.835Z</time></trkpt><trkpt lat="45.1011232" lon="7.1062767"><ele>1390.6666666666665</ele><time>2026-04-06T11:51:41.836Z</time></trkpt><trkpt lat="45.1011977" lon="7.1062588"><ele>1392.5</ele><time>2026-04-06T11:52:38.836Z</time></trkpt><trkpt lat="45.1012539" lon="7.1061909"><ele>1394.3333333333333</ele><time>2026-04-06T11:52:41.835Z</time></trkpt><trkpt lat="45.1013178" lon="7.1061025"><ele>1396.1666666666667</ele><time>2026-04-06T11:52:44.836Z</time></trkpt><trkpt lat="45.1013689" lon="7.1060186"><ele>1398.0</ele><time>2026-04-06T11:52:47.835Z</time></trkpt><trkpt lat="45.1014146" lon="7.105951"><ele>1398.0</ele><time>2026-04-06T11:52:49.836Z</time></trkpt><trkpt lat="45.1014632" lon="7.1058746"><ele>1398.0</ele><time>2026-04-06T11:52:51.837Z</time></trkpt><trkpt lat="45.1015131" lon="7.1057934"><ele>1398.0</ele><time>2026-04-06T11:52:52.835Z</time></trkpt><trkpt lat="45.1015993" lon="7.105691"><ele>1398.0</ele><time>2026-04-06T11:52:54.836Z</time></trkpt><trkpt lat="45.1016444" lon="7.1056139"><ele>1398.0</ele><time>2026-04-06T11:52:55.836Z</time></trkpt><trkpt lat="45.1016953" lon="7.1055457"><ele>1398.0</ele><time>2026-04-06T11:52:56.836Z</time></trkpt><trkpt lat="45.1017613" lon="7.1054734"><ele>1396.4</ele><time>2026-04-06T11:52:57.837Z</time></trkpt><trkpt lat="45.1018037" lon="7.1053845"><ele>1394.8000000000002</ele><time>2026-04-06T11:52:58.836Z</time></trkpt><trkpt lat="45.101885" lon="7.105248"><ele>1393.2</ele><time>2026-04-06T11:53:00.836Z</time></trkpt><trkpt lat="45.1019243" lon="7.1051148"><ele>1391.6</ele><time>2026-04-06T11:53:02.835Z</time></trkpt><trkpt lat="45.1019868" lon="7.1050391"><ele>1390.0</ele><time>2026-04-06T11:53:04.837Z</time></trkpt><trkpt lat="45.102036" lon="7.1049717"><ele>1391.6666666666665</ele><time>2026-04-06T11:53:06.835Z</time></trkpt><trkpt lat="45.1020778" lon="7.1048897"><ele>1393.3333333333333</ele><time>2026-04-06T11:53:08.836Z</time></trkpt><trkpt lat="45.1021021" lon="7.1047315"><ele>1395.0</ele><time>2026-04-06T11:53:10.836Z</time></trkpt><trkpt lat="45.1021254" lon="7.104605"><ele>1396.6666666666667</ele><time>2026-04-06T11:53:12.836Z</time></trkpt><trkpt lat="45.1021658" lon="7.104498"><ele>1398.3333333333335</ele><time>2026-04-06T11:53:14.837Z</time></trkpt><trkpt lat="45.1021947" lon="7.1043953"><ele>1400.0</ele><time>2026-04-06T11:53:17.836Z</time></trkpt><trkpt lat="45.1022053" lon="7.1042776"><ele>1400.0</ele><time>2026-04-06T11:53:20.835Z</time></trkpt><trkpt lat="45.1022237" lon="7.1041839"><ele>1400.0</ele><time>2026-04-06T11:53:22.835Z</time></trkpt><trkpt lat="45.1022327" lon="7.1040797"><ele>1400.0</ele><time>2026-04-06T11:53:24.836Z</time></trkpt><trkpt lat="45.1022253" lon="7.1039823"><ele>1400.0</ele><time>2026-04-06T11:53:26.836Z</time></trkpt><trkpt lat="45.1022053" lon="7.1038887"><ele>1400.0</ele><time>2026-04-06T11:53:28.836Z</time></trkpt><trkpt lat="45.102196" lon="7.1037748"><ele>1400.0</ele><time>2026-04-06T11:53:31.836Z</time></trkpt><trkpt lat="45.102204" lon="7.1036674"><ele>1400.0</ele><time>2026-04-06T11:53:34.837Z</time></trkpt><trkpt lat="45.1022344" lon="7.1035679"><ele>1403.0</ele><time>2026-04-06T11:53:37.835Z</time></trkpt><trkpt lat="45.1022733" lon="7.1034877"><ele>1406.0</ele><time>2026-04-06T11:53:39.836Z</time></trkpt><trkpt lat="45.1023228" lon="7.1033877"><ele>1409.0</ele><time>2026-04-06T11:53:41.836Z</time></trkpt><trkpt lat="45.1023812" lon="7.1032834"><ele>1412.0</ele><time>2026-04-06T11:53:43.836Z</time></trkpt><trkpt lat="45.1024327" lon="7.1032164"><ele>1415.0</ele><time>2026-04-06T11:53:44.837Z</time></trkpt><trkpt lat="45.1025119" lon="7.1030579"><ele>1408.3333333333335</ele><time>2026-04-06T11:53:46.836Z</time></trkpt><trkpt lat="45.1025543" lon="7.1029871"><ele>1401.6666666666667</ele><time>2026-04-06T11:53:47.836Z</time></trkpt><trkpt lat="45.1025939" lon="7.102898"><ele>1395.0</ele><time>2026-04-06T11:53:48.836Z</time></trkpt><trkpt lat="45.102637" lon="7.1028279"><ele>1388.3333333333333</ele><time>2026-04-06T11:53:49.835Z</time></trkpt><trkpt lat="45.1027147" lon="7.1027133"><ele>1381.6666666666665</ele><time>2026-04-06T11:53:51.836Z</time></trkpt><trkpt lat="45.1028086" lon="7.1025851"><ele>1375.0</ele><time>2026-04-06T11:53:53.835Z</time></trkpt><trkpt lat="45.1028637" lon="7.1025322"><ele>1375.0</ele><time>2026-04-06T11:53:54.836Z</time></trkpt><trkpt lat="45.1029198" lon="7.102478"><ele>1375.0</ele><time>2026-04-06T11:53:55.835Z</time></trkpt><trkpt lat="45.1030286" lon="7.1024151"><ele>1375.0</ele><time>2026-04-06T11:53:57.836Z</time></trkpt><trkpt lat="45.1031199" lon="7.102382"><ele>1375.0</ele><time>2026-04-06T11:53:59.835Z</time></trkpt><trkpt lat="45.1031913" lon="7.1023243"><ele>1375.0</ele><time>2026-04-06T11:54:01.835Z</time></trkpt><trkpt lat="45.1032513" lon="7.1022232"><ele>1370.0</ele><time>2026-04-06T11:54:03.835Z</time></trkpt><trkpt lat="45.1032891" lon="7.102085"><ele>1365.0</ele><time>2026-04-06T11:54:05.835Z</time></trkpt><trkpt lat="45.1033409" lon="7.1019825"><ele>1360.0</ele><time>2026-04-06T11:54:07.836Z</time></trkpt><trkpt lat="45.1033819" lon="7.1018759"><ele>1355.0</ele><time>2026-04-06T11:54:09.836Z</time></trkpt><trkpt lat="45.1033905" lon="7.101752"><ele>1350.0</ele><time>2026-04-06T11:54:11.837Z</time></trkpt><trkpt lat="45.1033707" lon="7.1016417"><ele>1345.0</ele><time>2026-04-06T11:54:13.835Z</time></trkpt><trkpt lat="45.1033438" lon="7.1015301"><ele>1342.8</ele><time>2026-04-06T11:54:15.834Z</time></trkpt><trkpt lat="45.1032997" lon="7.1014138"><ele>1340.6</ele><time>2026-04-06T11:54:17.834Z</time></trkpt><trkpt lat="45.1032529" lon="7.1012521"><ele>1338.4</ele><time>2026-04-06T11:54:19.835Z</time></trkpt><trkpt lat="45.1032312" lon="7.101118"><ele>1336.2</ele><time>2026-04-06T11:54:21.835Z</time></trkpt><trkpt lat="45.1031864" lon="7.1009856"><ele>1334.0</ele><time>2026-04-06T11:54:23.835Z</time></trkpt><trkpt lat="45.1031481" lon="7.1008682"><ele>1336.7142857142858</ele><time>2026-04-06T11:54:25.835Z</time></trkpt><trkpt lat="45.1031219" lon="7.1007825"><ele>1339.4285714285716</ele><time>2026-04-06T11:54:27.835Z</time></trkpt><trkpt lat="45.1030937" lon="7.1006855"><ele>1342.1428571428573</ele><time>2026-04-06T11:54:30.835Z</time></trkpt><trkpt lat="45.1031121" lon="7.1005603"><ele>1344.857142857143</ele><time>2026-04-06T11:54:33.834Z</time></trkpt><trkpt lat="45.1031413" lon="7.1004757"><ele>1347.5714285714284</ele><time>2026-04-06T11:54:35.836Z</time></trkpt><trkpt lat="45.1031262" lon="7.1003644"><ele>1350.2857142857144</ele><time>2026-04-06T11:54:38.834Z</time></trkpt><trkpt lat="45.1030936" lon="7.1002876"><ele>1353.0</ele><time>2026-04-06T11:54:43.835Z</time></trkpt><trkpt lat="45.1030487" lon="7.1002163"><ele>1353.0</ele><time>2026-04-06T11:54:48.835Z</time></trkpt><trkpt lat="45.1030058" lon="7.1001451"><ele>1353.0</ele><time>2026-04-06T11:54:54.834Z</time></trkpt><trkpt lat="45.1029719" lon="7.100046"><ele>1353.0</ele><time>2026-04-06T11:55:02.836Z</time></trkpt><trkpt lat="45.1029746" lon="7.0999483"><ele>1353.0</ele><time>2026-04-06T11:55:05.835Z</time></trkpt><trkpt lat="45.1030631" lon="7.0999271"><ele>1353.0</ele><time>2026-04-06T11:55:09.834Z</time></trkpt><trkpt lat="45.1031422" lon="7.0999654"><ele>1353.0</ele><time>2026-04-06T11:55:11.835Z</time></trkpt><trkpt lat="45.1032293" lon="7.1000579"><ele>1347.8333333333333</ele><time>2026-04-06T11:55:13.836Z</time></trkpt><trkpt lat="45.1033052" lon="7.1001569"><ele>1342.6666666666667</ele><time>2026-04-06T11:55:15.834Z</time></trkpt><trkpt lat="45.1033633" lon="7.1002456"><ele>1337.5</ele><time>2026-04-06T11:55:17.836Z</time></trkpt><trkpt lat="45.1034179" lon="7.1003454"><ele>1332.3333333333335</ele><time>2026-04-06T11:55:20.835Z</time></trkpt><trkpt lat="45.1034451" lon="7.1004581"><ele>1327.1666666666667</ele><time>2026-04-06T11:55:24.834Z</time></trkpt><trkpt lat="45.1034734" lon="7.1005605"><ele>1322.0</ele><time>2026-04-06T11:55:27.835Z</time></trkpt><trkpt lat="45.1035098" lon="7.1006483"><ele>1324.3999999999999</ele><time>2026-04-06T11:55:29.835Z</time></trkpt><trkpt lat="45.1035573" lon="7.1007496"><ele>1326.8</ele><time>2026-04-06T11:55:31.834Z</time></trkpt><trkpt lat="45.1036291" lon="7.1008437"><ele>1329.2</ele><time>2026-04-06T11:55:33.835Z</time></trkpt><trkpt lat="45.1036854" lon="7.1009722"><ele>1331.6</ele><time>2026-04-06T11:55:35.836Z</time></trkpt><trkpt lat="45.1037397" lon="7.1010903"><ele>1334.0</ele><time>2026-04-06T11:55:37.834Z</time></trkpt><trkpt lat="45.1037875" lon="7.1012068"><ele>1334.0</ele><time>2026-04-06T11:55:39.835Z</time></trkpt><trkpt lat="45.1038583" lon="7.1013075"><ele>1334.0</ele><time>2026-04-06T11:55:41.834Z</time></trkpt><trkpt lat="45.10391" lon="7.1014052"><ele>1334.0</ele><time>2026-04-06T11:55:43.835Z</time></trkpt><trkpt lat="45.1039926" lon="7.101419"><ele>1334.0</ele><time>2026-04-06T11:55:45.835Z</time></trkpt><trkpt lat="45.1040811" lon="7.1014199"><ele>1334.0</ele><time>2026-04-06T11:55:48.835Z</time></trkpt><trkpt lat="45.1041338" lon="7.1015365"><ele>1304.0</ele><time>2026-04-06T11:55:51.834Z</time></trkpt><trkpt lat="45.1041859" lon="7.101604"><ele>1305.0</ele><time>2026-04-06T11:55:53.834Z</time></trkpt><trkpt lat="45.1042562" lon="7.1015438"><ele>1304.0</ele><time>2026-04-06T11:55:56.834Z</time></trkpt><trkpt lat="45.104275" lon="7.1014567"><ele>1304.0</ele><time>2026-04-06T11:55:59.834Z</time></trkpt></trkseg><trkseg><trkpt lat="45.1042639" lon="7.1014109"><ele>1304.0</ele><time>2026-04-06T13:17:06.824Z</time></trkpt><trkpt lat="45.1042729" lon="7.1013141"><ele>1304.0</ele><time>2026-04-06T13:17:09.823Z</time></trkpt><trkpt lat="45.1042686" lon="7.1011823"><ele>1304.0</ele><time>2026-04-06T13:17:12.823Z</time></trkpt><trkpt lat="45.1042604" lon="7.1010869"><ele>1304.0</ele><time>2026-04-06T13:17:14.825Z</time></trkpt><trkpt lat="45.1042473" lon="7.1009789"><ele>1304.0</ele><time>2026-04-06T13:17:16.823Z</time></trkpt><trkpt lat="45.1042025" lon="7.1008605"><ele>1304.0</ele><time>2026-04-06T13:17:18.823Z</time></trkpt><trkpt lat="45.1041277" lon="7.1007495"><ele>1308.5</ele><time>2026-04-06T13:17:20.824Z</time></trkpt><trkpt lat="45.1040442" lon="7.1006332"><ele>1313.0</ele><time>2026-04-06T13:17:22.823Z</time></trkpt><trkpt lat="45.104002" lon="7.1004762"><ele>1317.5</ele><time>2026-04-06T13:17:24.824Z</time></trkpt><trkpt lat="45.1040009" lon="7.1002961"><ele>1322.0</ele><time>2026-04-06T13:17:26.823Z</time></trkpt><trkpt lat="45.1039861" lon="7.1001227"><ele>1322.0</ele><time>2026-04-06T13:17:28.824Z</time></trkpt><trkpt lat="45.1039329" lon="7.0999441"><ele>1322.0</ele><time>2026-04-06T13:17:30.824Z</time></trkpt><trkpt lat="45.1038997" lon="7.099852"><ele>1322.0</ele><time>2026-04-06T13:17:31.824Z</time></trkpt><trkpt lat="45.1038728" lon="7.0996744"><ele>1322.0</ele><time>2026-04-06T13:17:33.824Z</time></trkpt><trkpt lat="45.1038923" lon="7.0995121"><ele>1319.6</ele><time>2026-04-06T13:17:35.824Z</time></trkpt><trkpt lat="45.1039035" lon="7.0993478"><ele>1317.1999999999998</ele><time>2026-04-06T13:17:37.824Z</time></trkpt><trkpt lat="45.1039423" lon="7.0991865"><ele>1314.8</ele><time>2026-04-06T13:17:39.823Z</time></trkpt><trkpt lat="45.1039455" lon="7.099044"><ele>1312.4</ele><time>2026-04-06T13:17:41.823Z</time></trkpt><trkpt lat="45.1039383" lon="7.0989029"><ele>1310.0</ele><time>2026-04-06T13:17:43.823Z</time></trkpt><trkpt lat="45.1038719" lon="7.0987732"><ele>1306.5</ele><time>2026-04-06T13:17:45.823Z</time></trkpt><trkpt lat="45.1037918" lon="7.0986853"><ele>1303.0</ele><time>2026-04-06T13:17:47.824Z</time></trkpt><trkpt lat="45.1037187" lon="7.0986066"><ele>1299.5</ele><time>2026-04-06T13:17:49.825Z</time></trkpt><trkpt lat="45.1036545" lon="7.0985403"><ele>1296.0</ele><time>2026-04-06T13:17:51.824Z</time></trkpt><trkpt lat="45.1036021" lon="7.0984734"><ele>1292.5</ele><time>2026-04-06T13:17:54.823Z</time></trkpt><trkpt lat="45.1035631" lon="7.0983762"><ele>1289.0</ele><time>2026-04-06T13:17:59.823Z</time></trkpt><trkpt lat="45.1035645" lon="7.0982841"><ele>1289.0</ele><time>2026-04-06T13:18:04.824Z</time></trkpt><trkpt lat="45.1036291" lon="7.0982163"><ele>1289.0</ele><time>2026-04-06T13:18:08.825Z</time></trkpt><trkpt lat="45.1037082" lon="7.0982795"><ele>1289.0</ele><time>2026-04-06T13:18:10.824Z</time></trkpt><trkpt lat="45.1037801" lon="7.0983601"><ele>1289.0</ele><time>2026-04-06T13:18:12.823Z</time></trkpt><trkpt lat="45.1038489" lon="7.0984312"><ele>1289.0</ele><time>2026-04-06T13:18:14.824Z</time></trkpt><trkpt lat="45.1039131" lon="7.0984797"><ele>1289.0</ele><time>2026-04-06T13:18:16.823Z</time></trkpt><trkpt lat="45.1039722" lon="7.098514"><ele>1289.0</ele><time>2026-04-06T13:18:18.824Z</time></trkpt><trkpt lat="45.1040421" lon="7.0985511"><ele>1289.0</ele><time>2026-04-06T13:18:29.823Z</time></trkpt><trkpt lat="45.104132" lon="7.098607"><ele>1289.0</ele><time>2026-04-06T13:18:32.824Z</time></trkpt><trkpt lat="45.1042291" lon="7.098698"><ele>1289.0</ele><time>2026-04-06T13:18:34.823Z</time></trkpt><trkpt lat="45.1043045" lon="7.098808"><ele>1289.0</ele><time>2026-04-06T13:18:36.824Z</time></trkpt><trkpt lat="45.1043721" lon="7.0989033"><ele>1286.6666666666667</ele><time>2026-04-06T13:18:38.824Z</time></trkpt><trkpt lat="45.1044278" lon="7.0990177"><ele>1284.3333333333335</ele><time>2026-04-06T13:18:40.824Z</time></trkpt><trkpt lat="45.1044711" lon="7.0990904"><ele>1282.0</ele><time>2026-04-06T13:18:42.824Z</time></trkpt><trkpt lat="45.1045404" lon="7.0990685"><ele>1279.6666666666667</ele><time>2026-04-06T13:18:44.824Z</time></trkpt><trkpt lat="45.1045751" lon="7.0989726"><ele>1277.3333333333333</ele><time>2026-04-06T13:18:46.823Z</time></trkpt><trkpt lat="45.1045221" lon="7.0988263"><ele>1275.0</ele><time>2026-04-06T13:18:48.824Z</time></trkpt><trkpt lat="45.1044746" lon="7.0987479"><ele>1271.8</ele><time>2026-04-06T13:18:49.824Z</time></trkpt><trkpt lat="45.1044232" lon="7.0985934"><ele>1268.6</ele><time>2026-04-06T13:18:51.824Z</time></trkpt><trkpt lat="45.1043612" lon="7.0984634"><ele>1265.4</ele><time>2026-04-06T13:18:53.824Z</time></trkpt><trkpt lat="45.1043179" lon="7.0983381"><ele>1262.2</ele><time>2026-04-06T13:18:55.824Z</time></trkpt><trkpt lat="45.104298" lon="7.0982392"><ele>1259.0</ele><time>2026-04-06T13:18:57.824Z</time></trkpt><trkpt lat="45.1044008" lon="7.0981992"><ele>1259.0</ele><time>2026-04-06T13:19:00.823Z</time></trkpt><trkpt lat="45.1044555" lon="7.0982625"><ele>1259.0</ele><time>2026-04-06T13:19:02.823Z</time></trkpt><trkpt lat="45.1045439" lon="7.0983242"><ele>1259.0</ele><time>2026-04-06T13:19:04.824Z</time></trkpt><trkpt lat="45.1046466" lon="7.0983468"><ele>1259.0</ele><time>2026-04-06T13:19:06.824Z</time></trkpt><trkpt lat="45.1047432" lon="7.0983594"><ele>1259.0</ele><time>2026-04-06T13:19:08.823Z</time></trkpt><trkpt lat="45.1048436" lon="7.0984065"><ele>1254.8333333333335</ele><time>2026-04-06T13:19:10.824Z</time></trkpt><trkpt lat="45.1049219" lon="7.0984981"><ele>1250.6666666666667</ele><time>2026-04-06T13:19:12.824Z</time></trkpt><trkpt lat="45.1050277" lon="7.0985925"><ele>1246.5</ele><time>2026-04-06T13:19:14.824Z</time></trkpt><trkpt lat="45.1050915" lon="7.0986371"><ele>1242.3333333333333</ele><time>2026-04-06T13:19:15.824Z</time></trkpt><trkpt lat="45.1051464" lon="7.098689"><ele>1238.1666666666665</ele><time>2026-04-06T13:19:16.824Z</time></trkpt><trkpt lat="45.1052038" lon="7.0987389"><ele>1234.0</ele><time>2026-04-06T13:19:17.824Z</time></trkpt><trkpt lat="45.1052708" lon="7.0987782"><ele>1234.0</ele><time>2026-04-06T13:19:18.823Z</time></trkpt><trkpt lat="45.1053279" lon="7.0988221"><ele>1234.0</ele><time>2026-04-06T13:19:19.824Z</time></trkpt><trkpt lat="45.1054359" lon="7.0989118"><ele>1234.0</ele><time>2026-04-06T13:19:21.823Z</time></trkpt><trkpt lat="45.1055224" lon="7.0990314"><ele>1234.0</ele><time>2026-04-06T13:19:23.824Z</time></trkpt><trkpt lat="45.1056199" lon="7.0991224"><ele>1234.0</ele><time>2026-04-06T13:19:25.823Z</time></trkpt><trkpt lat="45.1056879" lon="7.0992652"><ele>1236.1666666666665</ele><time>2026-04-06T13:19:27.824Z</time></trkpt><trkpt lat="45.1057146" lon="7.0993515"><ele>1238.3333333333333</ele><time>2026-04-06T13:19:28.823Z</time></trkpt><trkpt lat="45.1057335" lon="7.0994376"><ele>1240.5</ele><time>2026-04-06T13:19:29.823Z</time></trkpt><trkpt lat="45.1057776" lon="7.0995812"><ele>1242.6666666666667</ele><time>2026-04-06T13:19:31.823Z</time></trkpt><trkpt lat="45.1058712" lon="7.0996959"><ele>1244.8333333333335</ele><time>2026-04-06T13:19:33.823Z</time></trkpt><trkpt lat="45.1059417" lon="7.0997408"><ele>1247.0</ele><time>2026-04-06T13:19:34.824Z</time></trkpt><trkpt lat="45.1060009" lon="7.0997895"><ele>1243.0</ele><time>2026-04-06T13:19:35.823Z</time></trkpt><trkpt lat="45.1061081" lon="7.0998538"><ele>1239.0</ele><time>2026-04-06T13:19:37.823Z</time></trkpt><trkpt lat="45.1062093" lon="7.0998853"><ele>1235.0</ele><time>2026-04-06T13:19:39.823Z</time></trkpt><trkpt lat="45.1062774" lon="7.0998903"><ele>1231.0</ele><time>2026-04-06T13:19:40.823Z</time></trkpt><trkpt lat="45.1063727" lon="7.09994"><ele>1227.0</ele><time>2026-04-06T13:19:42.822Z</time></trkpt><trkpt lat="45.1064406" lon="7.1000618"><ele>1227.0</ele><time>2026-04-06T13:19:44.823Z</time></trkpt><trkpt lat="45.1064779" lon="7.1002173"><ele>1227.0</ele><time>2026-04-06T13:19:46.823Z</time></trkpt><trkpt lat="45.10649" lon="7.100359"><ele>1227.0</ele><time>2026-04-06T13:19:48.823Z</time></trkpt><trkpt lat="45.1064916" lon="7.1005354"><ele>1227.0</ele><time>2026-04-06T13:19:50.824Z</time></trkpt><trkpt lat="45.1064894" lon="7.1006288"><ele>1227.0</ele><time>2026-04-06T13:19:51.822Z</time></trkpt><trkpt lat="45.1064903" lon="7.1007934"><ele>1228.0</ele><time>2026-04-06T13:19:53.823Z</time></trkpt><trkpt lat="45.106507" lon="7.1008879"><ele>1229.0</ele><time>2026-04-06T13:19:54.822Z</time></trkpt><trkpt lat="45.1065201" lon="7.1009797"><ele>1230.0</ele><time>2026-04-06T13:19:55.823Z</time></trkpt><trkpt lat="45.1066078" lon="7.1010636"><ele>1231.0</ele><time>2026-04-06T13:19:57.824Z</time></trkpt><trkpt lat="45.1066671" lon="7.1011031"><ele>1232.0</ele><time>2026-04-06T13:19:58.823Z</time></trkpt><trkpt lat="45.1067661" lon="7.1012021"><ele>1233.0</ele><time>2026-04-06T13:20:00.822Z</time></trkpt><trkpt lat="45.106862" lon="7.1012849"><ele>1228.5</ele><time>2026-04-06T13:20:02.823Z</time></trkpt><trkpt lat="45.1068932" lon="7.1014311"><ele>1224.0</ele><time>2026-04-06T13:20:04.822Z</time></trkpt><trkpt lat="45.106935" lon="7.101537"><ele>1219.5</ele><time>2026-04-06T13:20:06.822Z</time></trkpt><trkpt lat="45.1069995" lon="7.1015622"><ele>1215.0</ele><time>2026-04-06T13:20:10.823Z</time></trkpt><trkpt lat="45.1070289" lon="7.1014407"><ele>1210.5</ele><time>2026-04-06T13:20:13.823Z</time></trkpt><trkpt lat="45.1070465" lon="7.1013158"><ele>1206.0</ele><time>2026-04-06T13:20:15.822Z</time></trkpt><trkpt lat="45.1070644" lon="7.1012238"><ele>1206.0</ele><time>2026-04-06T13:20:17.823Z</time></trkpt><trkpt lat="45.1071016" lon="7.1011214"><ele>1206.0</ele><time>2026-04-06T13:20:21.822Z</time></trkpt><trkpt lat="45.1071038" lon="7.1009813"><ele>1206.0</ele><time>2026-04-06T13:20:44.823Z</time></trkpt><trkpt lat="45.1071429" lon="7.1008232"><ele>1206.0</ele><time>2026-04-06T13:20:46.822Z</time></trkpt><trkpt lat="45.1071924" lon="7.1006716"><ele>1206.0</ele><time>2026-04-06T13:20:48.822Z</time></trkpt><trkpt lat="45.1072294" lon="7.1005146"><ele>1205.5</ele><time>2026-04-06T13:20:50.823Z</time></trkpt><trkpt lat="45.1072512" lon="7.1003331"><ele>1205.0</ele><time>2026-04-06T13:20:52.822Z</time></trkpt><trkpt lat="45.1072876" lon="7.1002085"><ele>1204.5</ele><time>2026-04-06T13:20:54.823Z</time></trkpt><trkpt lat="45.1072599" lon="7.1000513"><ele>1204.0</ele><time>2026-04-06T13:20:56.823Z</time></trkpt><trkpt lat="45.1072562" lon="7.0998947"><ele>1202.0</ele><time>2026-04-06T13:20:58.823Z</time></trkpt><trkpt lat="45.1072533" lon="7.0997187"><ele>1200.0</ele><time>2026-04-06T13:21:00.823Z</time></trkpt><trkpt lat="45.1072198" lon="7.0995589"><ele>1198.0</ele><time>2026-04-06T13:21:02.823Z</time></trkpt><trkpt lat="45.1071747" lon="7.0994832"><ele>1196.0</ele><time>2026-04-06T13:21:03.822Z</time></trkpt><trkpt lat="45.1071416" lon="7.0993973"><ele>1194.0</ele><time>2026-04-06T13:21:04.822Z</time></trkpt><trkpt lat="45.1071109" lon="7.0993108"><ele>1192.0</ele><time>2026-04-06T13:21:05.823Z</time></trkpt><trkpt lat="45.1070989" lon="7.0991551"><ele>1189.2</ele><time>2026-04-06T13:21:07.823Z</time></trkpt><trkpt lat="45.1070943" lon="7.0990642"><ele>1186.4</ele><time>2026-04-06T13:21:08.823Z</time></trkpt><trkpt lat="45.1071249" lon="7.0989027"><ele>1183.6</ele><time>2026-04-06T13:21:10.823Z</time></trkpt><trkpt lat="45.1071529" lon="7.0988212"><ele>1180.8</ele><time>2026-04-06T13:21:11.823Z</time></trkpt><trkpt lat="45.1071843" lon="7.0986489"><ele>1178.0</ele><time>2026-04-06T13:21:13.822Z</time></trkpt><trkpt lat="45.1071541" lon="7.0985475"><ele>1178.0</ele><time>2026-04-06T13:21:14.823Z</time></trkpt><trkpt lat="45.1071023" lon="7.0983683"><ele>1178.0</ele><time>2026-04-06T13:21:16.823Z</time></trkpt><trkpt lat="45.1070457" lon="7.0982859"><ele>1178.0</ele><time>2026-04-06T13:21:17.823Z</time></trkpt><trkpt lat="45.106997" lon="7.098213"><ele>1178.0</ele><time>2026-04-06T13:21:18.823Z</time></trkpt><trkpt lat="45.1069325" lon="7.0981397"><ele>1178.0</ele><time>2026-04-06T13:21:19.824Z</time></trkpt><trkpt lat="45.1068768" lon="7.0980686"><ele>1178.0</ele><time>2026-04-06T13:21:20.822Z</time></trkpt><trkpt lat="45.1068325" lon="7.0979868"><ele>1176.4285714285713</ele><time>2026-04-06T13:21:21.823Z</time></trkpt><trkpt lat="45.1067926" lon="7.0979121"><ele>1174.8571428571427</ele><time>2026-04-06T13:21:22.822Z</time></trkpt><trkpt lat="45.1067594" lon="7.0978348"><ele>1173.2857142857142</ele><time>2026-04-06T13:21:23.823Z</time></trkpt><trkpt lat="45.1067303" lon="7.0977383"><ele>1171.7142857142858</ele><time>2026-04-06T13:21:24.823Z</time></trkpt><trkpt lat="45.106693" lon="7.0976578"><ele>1170.1428571428573</ele><time>2026-04-06T13:21:25.823Z</time></trkpt><trkpt lat="45.1066562" lon="7.0975621"><ele>1168.5714285714287</ele><time>2026-04-06T13:21:26.823Z</time></trkpt><trkpt lat="45.1066303" lon="7.0974669"><ele>1167.0</ele><time>2026-04-06T13:21:27.822Z</time></trkpt><trkpt lat="45.1066047" lon="7.0973616"><ele>1165.4285714285716</ele><time>2026-04-06T13:21:28.823Z</time></trkpt><trkpt lat="45.1065875" lon="7.0972567"><ele>1163.857142857143</ele><time>2026-04-06T13:21:29.823Z</time></trkpt><trkpt lat="45.1065647" lon="7.097151"><ele>1162.2857142857142</ele><time>2026-04-06T13:21:30.823Z</time></trkpt><trkpt lat="45.1065501" lon="7.0970431"><ele>1160.7142857142858</ele><time>2026-04-06T13:21:31.823Z</time></trkpt><trkpt lat="45.1065309" lon="7.0969455"><ele>1159.142857142857</ele><time>2026-04-06T13:21:32.822Z</time></trkpt><trkpt lat="45.106509" lon="7.0968498"><ele>1157.5714285714287</ele><time>2026-04-06T13:21:33.823Z</time></trkpt><trkpt lat="45.1064834" lon="7.0967624"><ele>1156.0</ele><time>2026-04-06T13:21:34.822Z</time></trkpt><trkpt lat="45.1064477" lon="7.0966887"><ele>1159.3333333333333</ele><time>2026-04-06T13:21:35.822Z</time></trkpt><trkpt lat="45.106429" lon="7.0965996"><ele>1162.6666666666665</ele><time>2026-04-06T13:21:36.822Z</time></trkpt><trkpt lat="45.106403" lon="7.0965047"><ele>1166.0</ele><time>2026-04-06T13:21:37.822Z</time></trkpt><trkpt lat="45.1063942" lon="7.0963973"><ele>1169.3333333333333</ele><time>2026-04-06T13:21:38.823Z</time></trkpt><trkpt lat="45.106395" lon="7.0963071"><ele>1172.6666666666667</ele><time>2026-04-06T13:21:39.823Z</time></trkpt><trkpt lat="45.1063782" lon="7.096204"><ele>1176.0</ele><time>2026-04-06T13:21:40.822Z</time></trkpt><trkpt lat="45.1064145" lon="7.0960637"><ele>1176.0</ele><time>2026-04-06T13:21:42.824Z</time></trkpt><trkpt lat="45.1064141" lon="7.0959654"><ele>1176.0</ele><time>2026-04-06T13:21:43.823Z</time></trkpt><trkpt lat="45.1064201" lon="7.0958074"><ele>1176.0</ele><time>2026-04-06T13:21:45.823Z</time></trkpt><trkpt lat="45.1064079" lon="7.0957099"><ele>1176.0</ele><time>2026-04-06T13:21:46.822Z</time></trkpt><trkpt lat="45.1063939" lon="7.095618"><ele>1176.0</ele><time>2026-04-06T13:21:47.822Z</time></trkpt><trkpt lat="45.1063832" lon="7.0954478"><ele>1176.0</ele><time>2026-04-06T13:21:49.822Z</time></trkpt><trkpt lat="45.1064108" lon="7.0953002"><ele>1173.6</ele><time>2026-04-06T13:21:51.823Z</time></trkpt><trkpt lat="45.1064198" lon="7.0951767"><ele>1171.1999999999998</ele><time>2026-04-06T13:21:53.822Z</time></trkpt><trkpt lat="45.1063622" lon="7.0950191"><ele>1168.8000000000002</ele><time>2026-04-06T13:21:55.823Z</time></trkpt><trkpt lat="45.1063115" lon="7.0948716"><ele>1166.4</ele><time>2026-04-06T13:21:57.822Z</time></trkpt><trkpt lat="45.1062412" lon="7.0947434"><ele>1164.0</ele><time>2026-04-06T13:21:59.823Z</time></trkpt><trkpt lat="45.1061694" lon="7.0945977"><ele>1160.0</ele><time>2026-04-06T13:22:01.823Z</time></trkpt><trkpt lat="45.1061234" lon="7.0945168"><ele>1156.0</ele><time>2026-04-06T13:22:02.823Z</time></trkpt><trkpt lat="45.1060642" lon="7.0943752"><ele>1152.0</ele><time>2026-04-06T13:22:04.822Z</time></trkpt><trkpt lat="45.1060191" lon="7.0942472"><ele>1148.0</ele><time>2026-04-06T13:22:06.823Z</time></trkpt><trkpt lat="45.10593" lon="7.09418"><ele>1144.0</ele><time>2026-04-06T13:22:08.823Z</time></trkpt><trkpt lat="45.105863" lon="7.0941518"><ele>1144.0</ele><time>2026-04-06T13:22:10.823Z</time></trkpt><trkpt lat="45.1057661" lon="7.0941031"><ele>1144.0</ele><time>2026-04-06T13:22:12.822Z</time></trkpt><trkpt lat="45.1057126" lon="7.0940091"><ele>1144.0</ele><time>2026-04-06T13:22:14.823Z</time></trkpt><trkpt lat="45.1057041" lon="7.0938461"><ele>1144.0</ele><time>2026-04-06T13:22:16.823Z</time></trkpt><trkpt lat="45.1057223" lon="7.0936512"><ele>1144.0</ele><time>2026-04-06T13:22:18.823Z</time></trkpt><trkpt lat="45.105715" lon="7.0935201"><ele>1143.8333333333333</ele><time>2026-04-06T13:22:20.823Z</time></trkpt><trkpt lat="45.1057119" lon="7.0934237"><ele>1143.6666666666665</ele><time>2026-04-06T13:22:21.823Z</time></trkpt><trkpt lat="45.1057027" lon="7.0933171"><ele>1143.5</ele><time>2026-04-06T13:22:22.822Z</time></trkpt><trkpt lat="45.1057068" lon="7.093228"><ele>1143.3333333333333</ele><time>2026-04-06T13:22:23.823Z</time></trkpt><trkpt lat="45.1057502" lon="7.0931466"><ele>1143.1666666666667</ele><time>2026-04-06T13:22:24.823Z</time></trkpt><trkpt lat="45.1057968" lon="7.0930728"><ele>1143.0</ele><time>2026-04-06T13:22:25.822Z</time></trkpt><trkpt lat="45.1058436" lon="7.0929221"><ele>1138.8333333333333</ele><time>2026-04-06T13:22:27.822Z</time></trkpt><trkpt lat="45.1058608" lon="7.0928331"><ele>1134.6666666666667</ele><time>2026-04-06T13:22:28.823Z</time></trkpt><trkpt lat="45.1058654" lon="7.0927308"><ele>1130.5</ele><time>2026-04-06T13:22:29.823Z</time></trkpt><trkpt lat="45.1059104" lon="7.0926527"><ele>1126.3333333333335</ele><time>2026-04-06T13:22:30.823Z</time></trkpt><trkpt lat="45.1058939" lon="7.0925031"><ele>1122.1666666666667</ele><time>2026-04-06T13:22:32.822Z</time></trkpt><trkpt lat="45.1058579" lon="7.0924079"><ele>1118.0</ele><time>2026-04-06T13:22:33.823Z</time></trkpt><trkpt lat="45.1058263" lon="7.0923207"><ele>1117.1666666666667</ele><time>2026-04-06T13:22:34.822Z</time></trkpt><trkpt lat="45.1058016" lon="7.0922347"><ele>1116.3333333333335</ele><time>2026-04-06T13:22:35.822Z</time></trkpt><trkpt lat="45.1057746" lon="7.0920989"><ele>1115.5</ele><time>2026-04-06T13:22:37.823Z</time></trkpt><trkpt lat="45.1057079" lon="7.0919979"><ele>1114.6666666666667</ele><time>2026-04-06T13:22:39.823Z</time></trkpt><trkpt lat="45.1056504" lon="7.0919261"><ele>1113.8333333333333</ele><time>2026-04-06T13:22:40.823Z</time></trkpt><trkpt lat="45.1055934" lon="7.0918609"><ele>1113.0</ele><time>2026-04-06T13:22:42.823Z</time></trkpt><trkpt lat="45.1055017" lon="7.0918342"><ele>1113.0</ele><time>2026-04-06T13:22:43.823Z</time></trkpt><trkpt lat="45.1054252" lon="7.0917633"><ele>1113.0</ele><time>2026-04-06T13:22:45.822Z</time></trkpt><trkpt lat="45.1053627" lon="7.0917515"><ele>1113.0</ele><time>2026-04-06T13:22:46.823Z</time></trkpt><trkpt lat="45.1053023" lon="7.0917181"><ele>1113.0</ele><time>2026-04-06T13:22:47.824Z</time></trkpt><trkpt lat="45.1051936" lon="7.091708"><ele>1113.0</ele><time>2026-04-06T13:22:49.824Z</time></trkpt><trkpt lat="45.10512" lon="7.0916738"><ele>1113.0</ele><time>2026-04-06T13:22:50.823Z</time></trkpt><trkpt lat="45.1050576" lon="7.0916422"><ele>1113.0</ele><time>2026-04-06T13:22:51.823Z</time></trkpt><trkpt lat="45.1049915" lon="7.0915931"><ele>1113.0</ele><time>2026-04-06T13:22:52.822Z</time></trkpt><trkpt lat="45.1049311" lon="7.0915532"><ele>1113.0</ele><time>2026-04-06T13:22:53.823Z</time></trkpt><trkpt lat="45.1048451" lon="7.0914812"><ele>1113.0</ele><time>2026-04-06T13:22:55.823Z</time></trkpt><trkpt lat="45.1047739" lon="7.0914303"><ele>1113.0</ele><time>2026-04-06T13:22:56.822Z</time></trkpt><trkpt lat="45.1046808" lon="7.0913072"><ele>1113.0</ele><time>2026-04-06T13:22:58.823Z</time></trkpt><trkpt lat="45.1046238" lon="7.0912364"><ele>1109.4</ele><time>2026-04-06T13:22:59.823Z</time></trkpt><trkpt lat="45.1045751" lon="7.0911572"><ele>1105.8</ele><time>2026-04-06T13:23:00.823Z</time></trkpt><trkpt lat="45.1045173" lon="7.0910755"><ele>1102.2</ele><time>2026-04-06T13:23:01.823Z</time></trkpt><trkpt lat="45.1044147" lon="7.0909688"><ele>1098.6</ele><time>2026-04-06T13:23:03.823Z</time></trkpt><trkpt lat="45.1043009" lon="7.0908528"><ele>1095.0</ele><time>2026-04-06T13:23:05.822Z</time></trkpt><trkpt lat="45.1042363" lon="7.0907884"><ele>1091.2</ele><time>2026-04-06T13:23:07.823Z</time></trkpt><trkpt lat="45.1041523" lon="7.0906938"><ele>1087.4</ele><time>2026-04-06T13:23:09.823Z</time></trkpt><trkpt lat="45.1041063" lon="7.090628"><ele>1083.6</ele><time>2026-04-06T13:23:10.823Z</time></trkpt><trkpt lat="45.1040147" lon="7.0905368"><ele>1079.8</ele><time>2026-04-06T13:23:12.823Z</time></trkpt><trkpt lat="45.1039444" lon="7.09047"><ele>1076.0</ele><time>2026-04-06T13:23:14.823Z</time></trkpt><trkpt lat="45.1039506" lon="7.0903431"><ele>1076.0</ele><time>2026-04-06T13:23:17.822Z</time></trkpt><trkpt lat="45.1040515" lon="7.0903601"><ele>1076.0</ele><time>2026-04-06T13:23:20.823Z</time></trkpt><trkpt lat="45.1041492" lon="7.0904497"><ele>1076.0</ele><time>2026-04-06T13:23:22.823Z</time></trkpt><trkpt lat="45.1042173" lon="7.0904973"><ele>1076.0</ele><time>2026-04-06T13:23:23.822Z</time></trkpt><trkpt lat="45.1043306" lon="7.090566"><ele>1076.0</ele><time>2026-04-06T13:23:25.823Z</time></trkpt><trkpt lat="45.1043948" lon="7.0905671"><ele>1076.0</ele><time>2026-04-06T13:23:26.822Z</time></trkpt><trkpt lat="45.1044991" lon="7.0906344"><ele>1076.0</ele><time>2026-04-06T13:23:28.822Z</time></trkpt><trkpt lat="45.10456" lon="7.0906868"><ele>1076.0</ele><time>2026-04-06T13:23:29.824Z</time></trkpt><trkpt lat="45.104614" lon="7.090746"><ele>1076.0</ele><time>2026-04-06T13:23:30.823Z</time></trkpt><trkpt lat="45.1046657" lon="7.0908107"><ele>1076.0</ele><time>2026-04-06T13:23:31.823Z</time></trkpt><trkpt lat="45.1047187" lon="7.0908649"><ele>1076.0</ele><time>2026-04-06T13:23:32.823Z</time></trkpt><trkpt lat="45.1047774" lon="7.0909086"><ele>1076.1666666666667</ele><time>2026-04-06T13:23:33.824Z</time></trkpt><trkpt lat="45.104861" lon="7.0908987"><ele>1076.3333333333335</ele><time>2026-04-06T13:23:34.823Z</time></trkpt><trkpt lat="45.1049388" lon="7.0909151"><ele>1076.5</ele><time>2026-04-06T13:23:35.822Z</time></trkpt><trkpt lat="45.1050249" lon="7.0908819"><ele>1076.6666666666667</ele><time>2026-04-06T13:23:36.823Z</time></trkpt><trkpt lat="45.1051035" lon="7.0908644"><ele>1076.8333333333333</ele><time>2026-04-06T13:23:37.823Z</time></trkpt><trkpt lat="45.1051726" lon="7.0908503"><ele>1077.0</ele><time>2026-04-06T13:23:38.822Z</time></trkpt><trkpt lat="45.1052725" lon="7.0908442"><ele>1077.0</ele><time>2026-04-06T13:23:40.823Z</time></trkpt><trkpt lat="45.1053509" lon="7.090834"><ele>1077.0</ele><time>2026-04-06T13:23:41.824Z</time></trkpt><trkpt lat="45.1054748" lon="7.0907987"><ele>1077.0</ele><time>2026-04-06T13:23:43.822Z</time></trkpt><trkpt lat="45.1055392" lon="7.0907797"><ele>1077.0</ele><time>2026-04-06T13:23:44.822Z</time></trkpt><trkpt lat="45.1056126" lon="7.0907547"><ele>1077.0</ele><time>2026-04-06T13:23:45.823Z</time></trkpt><trkpt lat="45.1057075" lon="7.0907578"><ele>1077.0</ele><time>2026-04-06T13:23:46.822Z</time></trkpt><trkpt lat="45.1058059" lon="7.0907284"><ele>1071.0</ele><time>2026-04-06T13:23:47.823Z</time></trkpt><trkpt lat="45.1059167" lon="7.090695"><ele>1065.0</ele><time>2026-04-06T13:23:48.823Z</time></trkpt><trkpt lat="45.1060219" lon="7.0906149"><ele>1059.0</ele><time>2026-04-06T13:23:50.823Z</time></trkpt><trkpt lat="45.1061157" lon="7.0905536"><ele>1053.0</ele><time>2026-04-06T13:23:52.822Z</time></trkpt><trkpt lat="45.1062034" lon="7.0905543"><ele>1047.0</ele><time>2026-04-06T13:23:54.823Z</time></trkpt><trkpt lat="45.1062853" lon="7.0905439"><ele>1047.0</ele><time>2026-04-06T13:23:55.823Z</time></trkpt><trkpt lat="45.1063463" lon="7.0906026"><ele>1047.0</ele><time>2026-04-06T13:23:57.824Z</time></trkpt><trkpt lat="45.1064415" lon="7.0906382"><ele>1047.0</ele><time>2026-04-06T13:23:59.822Z</time></trkpt><trkpt lat="45.1065029" lon="7.0906754"><ele>1047.0</ele><time>2026-04-06T13:24:00.822Z</time></trkpt><trkpt lat="45.1066291" lon="7.0906889"><ele>1047.0</ele><time>2026-04-06T13:24:02.824Z</time></trkpt><trkpt lat="45.1067322" lon="7.0906556"><ele>1045.6666666666667</ele><time>2026-04-06T13:24:04.823Z</time></trkpt><trkpt lat="45.1067888" lon="7.0907094"><ele>1044.3333333333333</ele><time>2026-04-06T13:24:05.823Z</time></trkpt><trkpt lat="45.1068895" lon="7.0907401"><ele>1043.0</ele><time>2026-04-06T13:24:07.823Z</time></trkpt><trkpt lat="45.1069627" lon="7.0907898"><ele>1041.6666666666665</ele><time>2026-04-06T13:24:08.824Z</time></trkpt><trkpt lat="45.1070351" lon="7.0908033"><ele>1040.3333333333333</ele><time>2026-04-06T13:24:09.823Z</time></trkpt><trkpt lat="45.1071075" lon="7.0908146"><ele>1039.0</ele><time>2026-04-06T13:24:10.823Z</time></trkpt><trkpt lat="45.1072206" lon="7.0908399"><ele>1039.25</ele><time>2026-04-06T13:24:12.823Z</time></trkpt><trkpt lat="45.1073595" lon="7.0908826"><ele>1039.5</ele><time>2026-04-06T13:24:14.823Z</time></trkpt><trkpt lat="45.1074996" lon="7.0909122"><ele>1039.75</ele><time>2026-04-06T13:24:16.821Z</time></trkpt><trkpt lat="45.1075723" lon="7.0909621"><ele>1040.0</ele><time>2026-04-06T13:24:17.821Z</time></trkpt><trkpt lat="45.1076579" lon="7.0909977"><ele>1040.0</ele><time>2026-04-06T13:24:18.821Z</time></trkpt><trkpt lat="45.1077308" lon="7.0910101"><ele>1040.0</ele><time>2026-04-06T13:24:19.821Z</time></trkpt><trkpt lat="45.1078061" lon="7.0911012"><ele>1040.0</ele><time>2026-04-06T13:24:20.822Z</time></trkpt><trkpt lat="45.1078737" lon="7.0910991"><ele>1040.0</ele><time>2026-04-06T13:24:21.821Z</time></trkpt><trkpt lat="45.1079813" lon="7.0911418"><ele>1040.0</ele><time>2026-04-06T13:24:23.822Z</time></trkpt><trkpt lat="45.1080645" lon="7.0911796"><ele>1040.0</ele><time>2026-04-06T13:24:25.822Z</time></trkpt><trkpt lat="45.1081296" lon="7.0912451"><ele>1040.0</ele><time>2026-04-06T13:24:27.821Z</time></trkpt><trkpt lat="45.1081806" lon="7.0912996"><ele>1040.0</ele><time>2026-04-06T13:24:28.821Z</time></trkpt><trkpt lat="45.1082859" lon="7.0914135"><ele>1040.0</ele><time>2026-04-06T13:24:30.822Z</time></trkpt><trkpt lat="45.1083245" lon="7.0914955"><ele>1040.0</ele><time>2026-04-06T13:24:32.822Z</time></trkpt><trkpt lat="45.1083312" lon="7.0916175"><ele>1040.0</ele><time>2026-04-06T13:24:34.822Z</time></trkpt><trkpt lat="45.1083745" lon="7.0917077"><ele>1040.0</ele><time>2026-04-06T13:24:36.821Z</time></trkpt><trkpt lat="45.1084919" lon="7.0918027"><ele>1037.8</ele><time>2026-04-06T13:24:38.821Z</time></trkpt><trkpt lat="45.1085981" lon="7.0918553"><ele>1035.6</ele><time>2026-04-06T13:24:40.821Z</time></trkpt><trkpt lat="45.1087035" lon="7.0919498"><ele>1033.4</ele><time>2026-04-06T13:24:42.822Z</time></trkpt><trkpt lat="45.1087522" lon="7.0920162"><ele>1031.2</ele><time>2026-04-06T13:24:43.822Z</time></trkpt><trkpt lat="45.1088106" lon="7.0920948"><ele>1029.0</ele><time>2026-04-06T13:24:44.822Z</time></trkpt><trkpt lat="45.1088804" lon="7.0921663"><ele>1029.0</ele><time>2026-04-06T13:24:45.823Z</time></trkpt><trkpt lat="45.1089383" lon="7.0922422"><ele>1029.0</ele><time>2026-04-06T13:24:46.822Z</time></trkpt><trkpt lat="45.1090064" lon="7.0923173"><ele>1029.0</ele><time>2026-04-06T13:24:47.821Z</time></trkpt><trkpt lat="45.1090683" lon="7.0924042"><ele>1029.0</ele><time>2026-04-06T13:24:48.822Z</time></trkpt><trkpt lat="45.1091224" lon="7.0924804"><ele>1029.0</ele><time>2026-04-06T13:24:49.822Z</time></trkpt><trkpt lat="45.1091773" lon="7.0925549"><ele>1029.0</ele><time>2026-04-06T13:24:50.821Z</time></trkpt><trkpt lat="45.1092375" lon="7.0926271"><ele>1026.3333333333333</ele><time>2026-04-06T13:24:51.822Z</time></trkpt><trkpt lat="45.1093053" lon="7.0926867"><ele>1023.6666666666667</ele><time>2026-04-06T13:24:52.822Z</time></trkpt><trkpt lat="45.1093766" lon="7.0927624"><ele>1021.0</ele><time>2026-04-06T13:24:53.821Z</time></trkpt><trkpt lat="45.109425" lon="7.0928358"><ele>1018.3333333333334</ele><time>2026-04-06T13:24:54.821Z</time></trkpt><trkpt lat="45.1094782" lon="7.0928992"><ele>1015.6666666666667</ele><time>2026-04-06T13:24:55.821Z</time></trkpt><trkpt lat="45.1095317" lon="7.0929674"><ele>1013.0</ele><time>2026-04-06T13:24:56.821Z</time></trkpt><trkpt lat="45.1095803" lon="7.0930392"><ele>1013.0000000000001</ele><time>2026-04-06T13:24:57.821Z</time></trkpt><trkpt lat="45.1096252" lon="7.0931048"><ele>1013.0</ele><time>2026-04-06T13:24:58.821Z</time></trkpt><trkpt lat="45.1096665" lon="7.093174"><ele>1013.0</ele><time>2026-04-06T13:24:59.822Z</time></trkpt><trkpt lat="45.1097029" lon="7.0932495"><ele>1013.0</ele><time>2026-04-06T13:25:00.823Z</time></trkpt><trkpt lat="45.1097312" lon="7.093403"><ele>1013.0000000000001</ele><time>2026-04-06T13:25:02.822Z</time></trkpt><trkpt lat="45.1097053" lon="7.0934958"><ele>1013.0</ele><time>2026-04-06T13:25:04.822Z</time></trkpt><trkpt lat="45.1096278" lon="7.0935631"><ele>1014.1666666666667</ele><time>2026-04-06T13:25:06.821Z</time></trkpt><trkpt lat="45.1095572" lon="7.0936162"><ele>1015.3333333333334</ele><time>2026-04-06T13:25:08.821Z</time></trkpt><trkpt lat="45.1094779" lon="7.0936985"><ele>1016.5</ele><time>2026-04-06T13:25:10.822Z</time></trkpt><trkpt lat="45.1094636" lon="7.09387"><ele>1017.6666666666667</ele><time>2026-04-06T13:25:12.821Z</time></trkpt><trkpt lat="45.1094775" lon="7.0939574"><ele>1018.8333333333334</ele><time>2026-04-06T13:25:13.823Z</time></trkpt><trkpt lat="45.1094703" lon="7.0940626"><ele>1020.0</ele><time>2026-04-06T13:25:14.822Z</time></trkpt><trkpt lat="45.1095147" lon="7.0942164"><ele>1020.8</ele><time>2026-04-06T13:25:16.821Z</time></trkpt><trkpt lat="45.1095893" lon="7.0943319"><ele>1021.6</ele><time>2026-04-06T13:25:18.822Z</time></trkpt><trkpt lat="45.1096763" lon="7.0944281"><ele>1022.4000000000001</ele><time>2026-04-06T13:25:20.821Z</time></trkpt><trkpt lat="45.1097372" lon="7.0945344"><ele>1023.2</ele><time>2026-04-06T13:25:22.823Z</time></trkpt><trkpt lat="45.1097736" lon="7.0946627"><ele>1024.0</ele><time>2026-04-06T13:25:24.821Z</time></trkpt><trkpt lat="45.1098381" lon="7.0947226"><ele>1018.8333333333333</ele><time>2026-04-06T13:25:26.822Z</time></trkpt><trkpt lat="45.1099287" lon="7.0946625"><ele>1013.6666666666666</ele><time>2026-04-06T13:25:28.821Z</time></trkpt><trkpt lat="45.1099765" lon="7.0945916"><ele>1008.5</ele><time>2026-04-06T13:25:29.822Z</time></trkpt><trkpt lat="45.1100145" lon="7.0944931"><ele>1003.3333333333333</ele><time>2026-04-06T13:25:30.822Z</time></trkpt><trkpt lat="45.1100401" lon="7.0943329"><ele>998.1666666666666</ele><time>2026-04-06T13:25:32.822Z</time></trkpt><trkpt lat="45.1099967" lon="7.0942325"><ele>993.0</ele><time>2026-04-06T13:25:34.822Z</time></trkpt><trkpt lat="45.1099891" lon="7.0940926"><ele>993.0</ele><time>2026-04-06T13:25:36.821Z</time></trkpt><trkpt lat="45.1100308" lon="7.0940231"><ele>993.0</ele><time>2026-04-06T13:25:37.821Z</time></trkpt><trkpt lat="45.1101136" lon="7.0939468"><ele>993.0</ele><time>2026-04-06T13:25:39.823Z</time></trkpt><trkpt lat="45.1101962" lon="7.0939563"><ele>993.0</ele><time>2026-04-06T13:25:40.822Z</time></trkpt><trkpt lat="45.1102646" lon="7.0939618"><ele>993.0</ele><time>2026-04-06T13:25:41.822Z</time></trkpt><trkpt lat="45.1103477" lon="7.0939689"><ele>993.0</ele><time>2026-04-06T13:25:42.821Z</time></trkpt><trkpt lat="45.1104469" lon="7.0939751"><ele>993.0</ele><time>2026-04-06T13:25:44.822Z</time></trkpt><trkpt lat="45.1105493" lon="7.0939141"><ele>993.0</ele><time>2026-04-06T13:25:46.822Z</time></trkpt><trkpt lat="45.1106214" lon="7.0937908"><ele>993.0</ele><time>2026-04-06T13:25:48.822Z</time></trkpt><trkpt lat="45.1106768" lon="7.0936434"><ele>993.0</ele><time>2026-04-06T13:25:50.822Z</time></trkpt><trkpt lat="45.110701" lon="7.0935545"><ele>993.0</ele><time>2026-04-06T13:25:51.822Z</time></trkpt><trkpt lat="45.1106892" lon="7.0934667"><ele>993.0</ele><time>2026-04-06T13:25:52.821Z</time></trkpt><trkpt lat="45.1106885" lon="7.0933258"><ele>993.0</ele><time>2026-04-06T13:25:54.823Z</time></trkpt><trkpt lat="45.1107478" lon="7.0931892"><ele>993.0</ele><time>2026-04-06T13:25:56.821Z</time></trkpt><trkpt lat="45.1108184" lon="7.093042"><ele>993.0</ele><time>2026-04-06T13:25:58.822Z</time></trkpt><trkpt lat="45.1108091" lon="7.0929381"><ele>993.0</ele><time>2026-04-06T13:25:59.821Z</time></trkpt><trkpt lat="45.1108112" lon="7.0927614"><ele>988.2857142857142</ele><time>2026-04-06T13:26:01.822Z</time></trkpt><trkpt lat="45.1108049" lon="7.0926695"><ele>983.5714285714287</ele><time>2026-04-06T13:26:02.821Z</time></trkpt><trkpt lat="45.11078" lon="7.0925756"><ele>978.8571428571429</ele><time>2026-04-06T13:26:03.822Z</time></trkpt><trkpt lat="45.1107647" lon="7.0924764"><ele>974.1428571428571</ele><time>2026-04-06T13:26:04.822Z</time></trkpt><trkpt lat="45.1107473" lon="7.0923748"><ele>969.4285714285713</ele><time>2026-04-06T13:26:05.822Z</time></trkpt><trkpt lat="45.1107471" lon="7.0922679"><ele>964.7142857142858</ele><time>2026-04-06T13:26:06.821Z</time></trkpt><trkpt lat="45.1107458" lon="7.0921761"><ele>960.0</ele><time>2026-04-06T13:26:07.821Z</time></trkpt><trkpt lat="45.1107495" lon="7.0920763"><ele>958.5</ele><time>2026-04-06T13:26:08.822Z</time></trkpt><trkpt lat="45.1107451" lon="7.0919867"><ele>957.0</ele><time>2026-04-06T13:26:09.821Z</time></trkpt><trkpt lat="45.1107258" lon="7.0918966"><ele>955.5</ele><time>2026-04-06T13:26:10.821Z</time></trkpt><trkpt lat="45.1107274" lon="7.0917481"><ele>954.0</ele><time>2026-04-06T13:26:12.821Z</time></trkpt><trkpt lat="45.1107694" lon="7.0916329"><ele>952.5</ele><time>2026-04-06T13:26:14.821Z</time></trkpt><trkpt lat="45.1107766" lon="7.0914677"><ele>951.0</ele><time>2026-04-06T13:26:16.822Z</time></trkpt><trkpt lat="45.1107482" lon="7.091369"><ele>950.6666666666666</ele><time>2026-04-06T13:26:17.823Z</time></trkpt><trkpt lat="45.1107183" lon="7.0912669"><ele>950.3333333333333</ele><time>2026-04-06T13:26:18.822Z</time></trkpt><trkpt lat="45.1106873" lon="7.0911735"><ele>950.0</ele><time>2026-04-06T13:26:19.823Z</time></trkpt><trkpt lat="45.1106687" lon="7.0910794"><ele>949.6666666666666</ele><time>2026-04-06T13:26:20.822Z</time></trkpt><trkpt lat="45.1106459" lon="7.0909105"><ele>949.3333333333333</ele><time>2026-04-06T13:26:22.821Z</time></trkpt><trkpt lat="45.110651" lon="7.0908199"><ele>949.0</ele><time>2026-04-06T13:26:23.822Z</time></trkpt><trkpt lat="45.1106294" lon="7.0907265"><ele>948.9999999999999</ele><time>2026-04-06T13:26:24.822Z</time></trkpt><trkpt lat="45.1105875" lon="7.0906164"><ele>949.0</ele><time>2026-04-06T13:26:25.821Z</time></trkpt><trkpt lat="45.1105305" lon="7.0905191"><ele>949.0</ele><time>2026-04-06T13:26:26.821Z</time></trkpt><trkpt lat="45.1104946" lon="7.0904078"><ele>949.0</ele><time>2026-04-06T13:26:27.821Z</time></trkpt><trkpt lat="45.1104529" lon="7.0903011"><ele>948.9999999999999</ele><time>2026-04-06T13:26:28.821Z</time></trkpt><trkpt lat="45.1104206" lon="7.0901978"><ele>949.0</ele><time>2026-04-06T13:26:29.822Z</time></trkpt><trkpt lat="45.1103826" lon="7.0900983"><ele>948.9999999999999</ele><time>2026-04-06T13:26:30.821Z</time></trkpt><trkpt lat="45.1103451" lon="7.0899973"><ele>949.0</ele><time>2026-04-06T13:26:31.822Z</time></trkpt><trkpt lat="45.110306" lon="7.0899269"><ele>949.0</ele><time>2026-04-06T13:26:32.822Z</time></trkpt><trkpt lat="45.1102299" lon="7.089802"><ele>949.0</ele><time>2026-04-06T13:26:34.822Z</time></trkpt><trkpt lat="45.1101696" lon="7.0897525"><ele>948.9999999999999</ele><time>2026-04-06T13:26:35.823Z</time></trkpt><trkpt lat="45.1101163" lon="7.089705"><ele>949.0</ele><time>2026-04-06T13:26:36.821Z</time></trkpt><trkpt lat="45.1100051" lon="7.0896346"><ele>947.6</ele><time>2026-04-06T13:26:38.821Z</time></trkpt><trkpt lat="45.1099281" lon="7.0895524"><ele>946.2</ele><time>2026-04-06T13:26:40.822Z</time></trkpt><trkpt lat="45.1098564" lon="7.0894502"><ele>944.8000000000001</ele><time>2026-04-06T13:26:42.821Z</time></trkpt><trkpt lat="45.1098768" lon="7.0892498"><ele>943.4000000000001</ele><time>2026-04-06T13:26:44.822Z</time></trkpt><trkpt lat="45.1099219" lon="7.0891794"><ele>942.0</ele><time>2026-04-06T13:26:45.822Z</time></trkpt><trkpt lat="45.1099187" lon="7.0890102"><ele>936.6</ele><time>2026-04-06T13:26:47.822Z</time></trkpt><trkpt lat="45.1098696" lon="7.0888526"><ele>931.2</ele><time>2026-04-06T13:26:49.822Z</time></trkpt><trkpt lat="45.109817" lon="7.0887454"><ele>925.8</ele><time>2026-04-06T13:26:51.821Z</time></trkpt><trkpt lat="45.1097386" lon="7.0887045"><ele>920.4</ele><time>2026-04-06T13:26:53.822Z</time></trkpt><trkpt lat="45.1096245" lon="7.0886354"><ele>915.0</ele><time>2026-04-06T13:26:55.821Z</time></trkpt><trkpt lat="45.1095656" lon="7.0885881"><ele>915.0</ele><time>2026-04-06T13:26:56.822Z</time></trkpt><trkpt lat="45.1095085" lon="7.0885232"><ele>915.0</ele><time>2026-04-06T13:26:57.822Z</time></trkpt><trkpt lat="45.1094499" lon="7.0884758"><ele>915.0</ele><time>2026-04-06T13:26:58.822Z</time></trkpt><trkpt lat="45.1093264" lon="7.088444"><ele>915.0</ele><time>2026-04-06T13:27:00.822Z</time></trkpt><trkpt lat="45.1092542" lon="7.0884273"><ele>915.0</ele><time>2026-04-06T13:27:02.822Z</time></trkpt><trkpt lat="45.10922" lon="7.0883364"><ele>915.0</ele><time>2026-04-06T13:27:04.821Z</time></trkpt><trkpt lat="45.1092467" lon="7.0882359"><ele>915.0</ele><time>2026-04-06T13:27:07.822Z</time></trkpt><trkpt lat="45.1093395" lon="7.088237"><ele>915.0</ele><time>2026-04-06T13:27:09.822Z</time></trkpt><trkpt lat="45.1094031" lon="7.0882259"><ele>915.0</ele><time>2026-04-06T13:27:10.822Z</time></trkpt><trkpt lat="45.1094666" lon="7.0882008"><ele>915.0</ele><time>2026-04-06T13:27:11.822Z</time></trkpt><trkpt lat="45.1095289" lon="7.0882162"><ele>915.0</ele><time>2026-04-06T13:27:12.823Z</time></trkpt><trkpt lat="45.1096013" lon="7.0882133"><ele>915.0</ele><time>2026-04-06T13:27:13.822Z</time></trkpt><trkpt lat="45.1097153" lon="7.0882654"><ele>915.0</ele><time>2026-04-06T13:27:15.822Z</time></trkpt><trkpt lat="45.1097879" lon="7.0882951"><ele>915.0</ele><time>2026-04-06T13:27:16.822Z</time></trkpt><trkpt lat="45.1098543" lon="7.0883162"><ele>915.0</ele><time>2026-04-06T13:27:17.822Z</time></trkpt><trkpt lat="45.1099118" lon="7.0883545"><ele>915.0</ele><time>2026-04-06T13:27:18.821Z</time></trkpt><trkpt lat="45.1099974" lon="7.0883627"><ele>915.0</ele><time>2026-04-06T13:27:19.823Z</time></trkpt><trkpt lat="45.1100674" lon="7.0883887"><ele>915.0</ele><time>2026-04-06T13:27:20.821Z</time></trkpt><trkpt lat="45.1101833" lon="7.0884468"><ele>912.7142857142858</ele><time>2026-04-06T13:27:22.821Z</time></trkpt><trkpt lat="45.1102341" lon="7.0885144"><ele>910.4285714285716</ele><time>2026-04-06T13:27:23.821Z</time></trkpt><trkpt lat="45.1102913" lon="7.0885635"><ele>908.1428571428571</ele><time>2026-04-06T13:27:24.821Z</time></trkpt><trkpt lat="45.1103399" lon="7.0886203"><ele>905.8571428571429</ele><time>2026-04-06T13:27:25.822Z</time></trkpt><trkpt lat="45.1103654" lon="7.0887208"><ele>903.5714285714286</ele><time>2026-04-06T13:27:26.822Z</time></trkpt><trkpt lat="45.1103836" lon="7.0888119"><ele>901.2857142857142</ele><time>2026-04-06T13:27:27.821Z</time></trkpt><trkpt lat="45.1103891" lon="7.0889104"><ele>898.9999999999999</ele><time>2026-04-06T13:27:28.822Z</time></trkpt><trkpt lat="45.1103823" lon="7.0890556"><ele>898.6</ele><time>2026-04-06T13:27:30.821Z</time></trkpt><trkpt lat="45.1103889" lon="7.0891498"><ele>898.2</ele><time>2026-04-06T13:27:32.822Z</time></trkpt><trkpt lat="45.1104913" lon="7.0892488"><ele>897.8000000000001</ele><time>2026-04-06T13:27:35.822Z</time></trkpt><trkpt lat="45.1106065" lon="7.0892932"><ele>897.4000000000001</ele><time>2026-04-06T13:27:37.821Z</time></trkpt><trkpt lat="45.1106766" lon="7.0893185"><ele>897.0</ele><time>2026-04-06T13:27:38.822Z</time></trkpt><trkpt lat="45.110745" lon="7.0893335"><ele>897.0</ele><time>2026-04-06T13:27:39.821Z</time></trkpt><trkpt lat="45.1108167" lon="7.0893499"><ele>897.0</ele><time>2026-04-06T13:27:40.821Z</time></trkpt><trkpt lat="45.1108746" lon="7.0893881"><ele>897.0</ele><time>2026-04-06T13:27:41.822Z</time></trkpt><trkpt lat="45.1109564" lon="7.0894449"><ele>897.0</ele><time>2026-04-06T13:27:43.821Z</time></trkpt><trkpt lat="45.1110233" lon="7.089561"><ele>897.0</ele><time>2026-04-06T13:27:45.822Z</time></trkpt><trkpt lat="45.1110566" lon="7.0897036"><ele>897.0</ele><time>2026-04-06T13:27:47.821Z</time></trkpt><trkpt lat="45.1110709" lon="7.0898631"><ele>900.8333333333334</ele><time>2026-04-06T13:27:49.821Z</time></trkpt><trkpt lat="45.1111211" lon="7.089947"><ele>904.6666666666667</ele><time>2026-04-06T13:27:50.822Z</time></trkpt><trkpt lat="45.1111831" lon="7.0900271"><ele>908.5</ele><time>2026-04-06T13:27:51.822Z</time></trkpt><trkpt lat="45.1112311" lon="7.0900949"><ele>912.3333333333334</ele><time>2026-04-06T13:27:52.822Z</time></trkpt><trkpt lat="45.1112852" lon="7.0901693"><ele>916.1666666666667</ele><time>2026-04-06T13:27:53.822Z</time></trkpt><trkpt lat="45.1113457" lon="7.0902999"><ele>920.0</ele><time>2026-04-06T13:27:55.821Z</time></trkpt><trkpt lat="45.1113406" lon="7.0904492"><ele>920.0</ele><time>2026-04-06T13:27:57.821Z</time></trkpt><trkpt lat="45.1113073" lon="7.0906202"><ele>920.0</ele><time>2026-04-06T13:27:59.822Z</time></trkpt><trkpt lat="45.111351" lon="7.0908063"><ele>920.0</ele><time>2026-04-06T13:28:01.821Z</time></trkpt><trkpt lat="45.1113994" lon="7.0909"><ele>920.0</ele><time>2026-04-06T13:28:02.821Z</time></trkpt><trkpt lat="45.1114459" lon="7.0910003"><ele>920.0</ele><time>2026-04-06T13:28:03.822Z</time></trkpt><trkpt lat="45.1115002" lon="7.0910823"><ele>922.7142857142856</ele><time>2026-04-06T13:28:04.822Z</time></trkpt><trkpt lat="45.1115605" lon="7.0911601"><ele>925.4285714285713</ele><time>2026-04-06T13:28:05.822Z</time></trkpt><trkpt lat="45.1116148" lon="7.0912334"><ele>928.1428571428571</ele><time>2026-04-06T13:28:06.822Z</time></trkpt><trkpt lat="45.1116706" lon="7.0913127"><ele>930.8571428571428</ele><time>2026-04-06T13:28:07.822Z</time></trkpt><trkpt lat="45.1117192" lon="7.0913853"><ele>933.5714285714284</ele><time>2026-04-06T13:28:08.821Z</time></trkpt><trkpt lat="45.1117683" lon="7.091452"><ele>936.2857142857143</ele><time>2026-04-06T13:28:09.821Z</time></trkpt><trkpt lat="45.1118083" lon="7.0915285"><ele>939.0</ele><time>2026-04-06T13:28:10.822Z</time></trkpt><trkpt lat="45.1118345" lon="7.091616"><ele>933.5714285714287</ele><time>2026-04-06T13:28:11.821Z</time></trkpt><trkpt lat="45.1118656" lon="7.0916951"><ele>928.1428571428571</ele><time>2026-04-06T13:28:12.822Z</time></trkpt><trkpt lat="45.111891" lon="7.0917778"><ele>922.7142857142858</ele><time>2026-04-06T13:28:13.822Z</time></trkpt><trkpt lat="45.1119345" lon="7.0918816"><ele>917.2857142857143</ele><time>2026-04-06T13:28:14.822Z</time></trkpt><trkpt lat="45.111976" lon="7.0919694"><ele>911.8571428571429</ele><time>2026-04-06T13:28:15.822Z</time></trkpt><trkpt lat="45.1120226" lon="7.0920567"><ele>906.4285714285714</ele><time>2026-04-06T13:28:16.822Z</time></trkpt><trkpt lat="45.1120586" lon="7.0921313"><ele>901.0</ele><time>2026-04-06T13:28:17.821Z</time></trkpt><trkpt lat="45.1121139" lon="7.0922973"><ele>900.9999999999999</ele><time>2026-04-06T13:28:19.822Z</time></trkpt><trkpt lat="45.1121273" lon="7.09239"><ele>901.0</ele><time>2026-04-06T13:28:20.822Z</time></trkpt><trkpt lat="45.1121285" lon="7.0925012"><ele>901.0</ele><time>2026-04-06T13:28:21.822Z</time></trkpt><trkpt lat="45.1121283" lon="7.0926122"><ele>901.0</ele><time>2026-04-06T13:28:22.821Z</time></trkpt><trkpt lat="45.112132" lon="7.0927138"><ele>900.9999999999999</ele><time>2026-04-06T13:28:23.821Z</time></trkpt><trkpt lat="45.1121364" lon="7.0928065"><ele>901.0</ele><time>2026-04-06T13:28:24.822Z</time></trkpt><trkpt lat="45.112171" lon="7.0929853"><ele>902.6666666666666</ele><time>2026-04-06T13:28:26.822Z</time></trkpt><trkpt lat="45.1122258" lon="7.093074"><ele>904.3333333333333</ele><time>2026-04-06T13:28:27.822Z</time></trkpt><trkpt lat="45.1122635" lon="7.0931527"><ele>906.0</ele><time>2026-04-06T13:28:28.822Z</time></trkpt><trkpt lat="45.1122953" lon="7.0932987"><ele>907.6666666666667</ele><time>2026-04-06T13:28:30.821Z</time></trkpt><trkpt lat="45.1123039" lon="7.0934586"><ele>909.3333333333334</ele><time>2026-04-06T13:28:32.821Z</time></trkpt><trkpt lat="45.1123252" lon="7.0935562"><ele>911.0</ele><time>2026-04-06T13:28:34.82Z</time></trkpt><trkpt lat="45.1123921" lon="7.0935268"><ele>911.0000000000001</ele><time>2026-04-06T13:28:37.82Z</time></trkpt><trkpt lat="45.1124075" lon="7.0933983"><ele>911.0</ele><time>2026-04-06T13:28:39.821Z</time></trkpt><trkpt lat="45.1124008" lon="7.0932168"><ele>911.0</ele><time>2026-04-06T13:28:41.82Z</time></trkpt><trkpt lat="45.1123933" lon="7.0931012"><ele>911.0</ele><time>2026-04-06T13:28:42.821Z</time></trkpt><trkpt lat="45.112395" lon="7.0930055"><ele>911.0000000000001</ele><time>2026-04-06T13:28:43.821Z</time></trkpt><trkpt lat="45.1124056" lon="7.0929034"><ele>911.0</ele><time>2026-04-06T13:28:44.821Z</time></trkpt><trkpt lat="45.1124409" lon="7.0927323"><ele>901.6666666666667</ele><time>2026-04-06T13:28:46.821Z</time></trkpt><trkpt lat="45.1124679" lon="7.0926134"><ele>892.3333333333334</ele><time>2026-04-06T13:28:48.821Z</time></trkpt><trkpt lat="45.1124857" lon="7.0925119"><ele>883.0</ele><time>2026-04-06T13:28:50.82Z</time></trkpt><trkpt lat="45.1125439" lon="7.0925671"><ele>873.6666666666667</ele><time>2026-04-06T13:30:31.82Z</time></trkpt><trkpt lat="45.1125396" lon="7.0926754"><ele>864.3333333333334</ele><time>2026-04-06T13:30:33.822Z</time></trkpt><trkpt lat="45.1125201" lon="7.0928299"><ele>855.0</ele><time>2026-04-06T13:30:35.82Z</time></trkpt><trkpt lat="45.112531" lon="7.0929289"><ele>855.0</ele><time>2026-04-06T13:30:36.821Z</time></trkpt><trkpt lat="45.112582" lon="7.0930323"><ele>855.0</ele><time>2026-04-06T13:30:37.822Z</time></trkpt><trkpt lat="45.11266" lon="7.0931312"><ele>855.0</ele><time>2026-04-06T13:30:38.822Z</time></trkpt><trkpt lat="45.1127122" lon="7.0932064"><ele>855.0</ele><time>2026-04-06T13:30:39.821Z</time></trkpt><trkpt lat="45.112738" lon="7.093299"><ele>855.0</ele><time>2026-04-06T13:30:40.821Z</time></trkpt><trkpt lat="45.1127752" lon="7.0933993"><ele>855.0</ele><time>2026-04-06T13:30:41.821Z</time></trkpt><trkpt lat="45.1127979" lon="7.0934952"><ele>856.4285714285714</ele><time>2026-04-06T13:30:42.821Z</time></trkpt><trkpt lat="45.1128327" lon="7.0935892"><ele>857.8571428571428</ele><time>2026-04-06T13:30:43.821Z</time></trkpt><trkpt lat="45.1128568" lon="7.0936798"><ele>859.2857142857142</ele><time>2026-04-06T13:30:44.821Z</time></trkpt><trkpt lat="45.1128942" lon="7.0937703"><ele>860.7142857142858</ele><time>2026-04-06T13:30:45.821Z</time></trkpt><trkpt lat="45.1129134" lon="7.0938753"><ele>862.1428571428571</ele><time>2026-04-06T13:30:46.821Z</time></trkpt><trkpt lat="45.1129484" lon="7.0939628"><ele>863.5714285714286</ele><time>2026-04-06T13:30:47.821Z</time></trkpt><trkpt lat="45.1129555" lon="7.0940581"><ele>865.0</ele><time>2026-04-06T13:30:48.821Z</time></trkpt><trkpt lat="45.1129475" lon="7.0941569"><ele>865.1666666666666</ele><time>2026-04-06T13:30:49.821Z</time></trkpt><trkpt lat="45.1129484" lon="7.0942496"><ele>865.3333333333333</ele><time>2026-04-06T13:30:50.821Z</time></trkpt><trkpt lat="45.1129779" lon="7.0944286"><ele>865.5</ele><time>2026-04-06T13:30:52.821Z</time></trkpt><trkpt lat="45.1129966" lon="7.0945179"><ele>865.6666666666667</ele><time>2026-04-06T13:30:53.821Z</time></trkpt><trkpt lat="45.1130321" lon="7.094604"><ele>865.8333333333334</ele><time>2026-04-06T13:30:54.822Z</time></trkpt><trkpt lat="45.1131116" lon="7.0946721"><ele>866.0</ele><time>2026-04-06T13:30:55.821Z</time></trkpt><trkpt lat="45.113153" lon="7.0947512"><ele>866.0</ele><time>2026-04-06T13:30:56.82Z</time></trkpt><trkpt lat="45.1131996" lon="7.0948281"><ele>865.9999999999999</ele><time>2026-04-06T13:30:57.82Z</time></trkpt><trkpt lat="45.1132608" lon="7.094891"><ele>865.9999999999999</ele><time>2026-04-06T13:30:58.82Z</time></trkpt><trkpt lat="45.1133417" lon="7.0950244"><ele>866.0</ele><time>2026-04-06T13:31:00.821Z</time></trkpt><trkpt lat="45.1133628" lon="7.0951979"><ele>866.0</ele><time>2026-04-06T13:31:02.821Z</time></trkpt><trkpt lat="45.1133903" lon="7.095294"><ele>859.0000000000001</ele><time>2026-04-06T13:31:03.821Z</time></trkpt><trkpt lat="45.1134061" lon="7.0953992"><ele>852.0</ele><time>2026-04-06T13:31:04.82Z</time></trkpt><trkpt lat="45.1134056" lon="7.0955048"><ele>845.0</ele><time>2026-04-06T13:31:05.821Z</time></trkpt><trkpt lat="45.1134066" lon="7.0956167"><ele>838.0</ele><time>2026-04-06T13:31:06.82Z</time></trkpt><trkpt lat="45.1134349" lon="7.0957154"><ele>831.0000000000001</ele><time>2026-04-06T13:31:07.821Z</time></trkpt><trkpt lat="45.1134539" lon="7.0958092"><ele>824.0</ele><time>2026-04-06T13:31:08.821Z</time></trkpt><trkpt lat="45.1134756" lon="7.0959191"><ele>823.9999999999999</ele><time>2026-04-06T13:31:09.82Z</time></trkpt><trkpt lat="45.1135084" lon="7.0960218"><ele>824.0</ele><time>2026-04-06T13:31:10.82Z</time></trkpt><trkpt lat="45.1135262" lon="7.0961141"><ele>824.0</ele><time>2026-04-06T13:31:11.821Z</time></trkpt><trkpt lat="45.1135565" lon="7.096202"><ele>824.0</ele><time>2026-04-06T13:31:12.821Z</time></trkpt><trkpt lat="45.1135507" lon="7.0962957"><ele>824.0</ele><time>2026-04-06T13:31:13.82Z</time></trkpt><trkpt lat="45.1135479" lon="7.0963927"><ele>823.9999999999999</ele><time>2026-04-06T13:31:14.821Z</time></trkpt><trkpt lat="45.1135585" lon="7.0964975"><ele>824.0</ele><time>2026-04-06T13:31:15.821Z</time></trkpt><trkpt lat="45.1135607" lon="7.0965989"><ele>823.7142857142857</ele><time>2026-04-06T13:31:16.821Z</time></trkpt><trkpt lat="45.1135636" lon="7.0967261"><ele>823.4285714285714</ele><time>2026-04-06T13:31:17.821Z</time></trkpt><trkpt lat="45.1135768" lon="7.0968279"><ele>823.1428571428571</ele><time>2026-04-06T13:31:18.821Z</time></trkpt><trkpt lat="45.1135798" lon="7.0969303"><ele>822.8571428571429</ele><time>2026-04-06T13:31:19.821Z</time></trkpt><trkpt lat="45.1135806" lon="7.097027"><ele>822.5714285714286</ele><time>2026-04-06T13:31:20.821Z</time></trkpt><trkpt lat="45.1135683" lon="7.0971217"><ele>822.2857142857142</ele><time>2026-04-06T13:31:21.821Z</time></trkpt><trkpt lat="45.1135153" lon="7.0971904"><ele>822.0</ele><time>2026-04-06T13:31:22.821Z</time></trkpt><trkpt lat="45.1134551" lon="7.0973191"><ele>819.2</ele><time>2026-04-06T13:31:24.822Z</time></trkpt><trkpt lat="45.11337" lon="7.0974493"><ele>816.4000000000001</ele><time>2026-04-06T13:31:26.821Z</time></trkpt><trkpt lat="45.1133781" lon="7.0976123"><ele>813.5999999999999</ele><time>2026-04-06T13:31:28.82Z</time></trkpt><trkpt lat="45.113392" lon="7.0977177"><ele>810.8</ele><time>2026-04-06T13:31:29.82Z</time></trkpt><trkpt lat="45.1133958" lon="7.0978271"><ele>808.0</ele><time>2026-04-06T13:31:30.82Z</time></trkpt><trkpt lat="45.1133962" lon="7.0979438"><ele>807.9999999999999</ele><time>2026-04-06T13:31:31.821Z</time></trkpt><trkpt lat="45.1133882" lon="7.0980548"><ele>808.0</ele><time>2026-04-06T13:31:32.821Z</time></trkpt><trkpt lat="45.1134037" lon="7.0981923"><ele>808.0</ele><time>2026-04-06T13:31:33.821Z</time></trkpt><trkpt lat="45.1134076" lon="7.0983026"><ele>808.0</ele><time>2026-04-06T13:31:34.821Z</time></trkpt><trkpt lat="45.1134103" lon="7.0984287"><ele>807.9999999999999</ele><time>2026-04-06T13:31:35.821Z</time></trkpt><trkpt lat="45.1134344" lon="7.098554"><ele>808.0</ele><time>2026-04-06T13:31:36.822Z</time></trkpt><trkpt lat="45.1134722" lon="7.098675"><ele>804.8</ele><time>2026-04-06T13:31:37.821Z</time></trkpt><trkpt lat="45.1135107" lon="7.0987938"><ele>801.5999999999999</ele><time>2026-04-06T13:31:38.821Z</time></trkpt><trkpt lat="45.1135506" lon="7.0989216"><ele>798.4000000000001</ele><time>2026-04-06T13:31:39.82Z</time></trkpt><trkpt lat="45.113571" lon="7.0990477"><ele>795.2</ele><time>2026-04-06T13:31:40.82Z</time></trkpt><trkpt lat="45.1136026" lon="7.0991742"><ele>792.0</ele><time>2026-04-06T13:31:41.82Z</time></trkpt><trkpt lat="45.1136284" lon="7.0992924"><ele>790.6666666666666</ele><time>2026-04-06T13:31:42.82Z</time></trkpt><trkpt lat="45.11365" lon="7.0994121"><ele>789.3333333333333</ele><time>2026-04-06T13:31:43.82Z</time></trkpt><trkpt lat="45.1136741" lon="7.0995284"><ele>788.0</ele><time>2026-04-06T13:31:44.82Z</time></trkpt><trkpt lat="45.1136813" lon="7.0996444"><ele>786.6666666666666</ele><time>2026-04-06T13:31:45.82Z</time></trkpt><trkpt lat="45.1136796" lon="7.0997575"><ele>785.3333333333333</ele><time>2026-04-06T13:31:46.82Z</time></trkpt><trkpt lat="45.1136654" lon="7.0998824"><ele>784.0</ele><time>2026-04-06T13:31:47.82Z</time></trkpt><trkpt lat="45.1136604" lon="7.099993"><ele>783.0</ele><time>2026-04-06T13:31:48.821Z</time></trkpt><trkpt lat="45.1136508" lon="7.1000983"><ele>782.0</ele><time>2026-04-06T13:31:49.821Z</time></trkpt><trkpt lat="45.113641" lon="7.1001947"><ele>781.0</ele><time>2026-04-06T13:31:50.821Z</time></trkpt><trkpt lat="45.1136204" lon="7.1002846"><ele>780.0</ele><time>2026-04-06T13:31:51.822Z</time></trkpt><trkpt lat="45.1135979" lon="7.1003742"><ele>779.0</ele><time>2026-04-06T13:31:52.822Z</time></trkpt><trkpt lat="45.1135719" lon="7.1004678"><ele>778.0</ele><time>2026-04-06T13:31:53.821Z</time></trkpt><trkpt lat="45.113505" lon="7.100531"><ele>777.0</ele><time>2026-04-06T13:31:54.821Z</time></trkpt><trkpt lat="45.1134604" lon="7.1006032"><ele>777.0</ele><time>2026-04-06T13:31:55.821Z</time></trkpt><trkpt lat="45.113391" lon="7.1006628"><ele>777.0</ele><time>2026-04-06T13:31:56.821Z</time></trkpt><trkpt lat="45.113315" lon="7.1006869"><ele>777.0</ele><time>2026-04-06T13:31:57.821Z</time></trkpt><trkpt lat="45.1132319" lon="7.1008066"><ele>777.0</ele><time>2026-04-06T13:31:59.822Z</time></trkpt><trkpt lat="45.1131774" lon="7.1009048"><ele>777.0</ele><time>2026-04-06T13:32:00.821Z</time></trkpt><trkpt lat="45.113132" lon="7.1010099"><ele>778.3333333333334</ele><time>2026-04-06T13:32:01.821Z</time></trkpt><trkpt lat="45.1130978" lon="7.1010948"><ele>779.6666666666667</ele><time>2026-04-06T13:32:02.821Z</time></trkpt><trkpt lat="45.1130821" lon="7.1012037"><ele>781.0</ele><time>2026-04-06T13:32:03.821Z</time></trkpt><trkpt lat="45.1130788" lon="7.1013173"><ele>782.3333333333334</ele><time>2026-04-06T13:32:04.821Z</time></trkpt><trkpt lat="45.1130763" lon="7.1014524"><ele>783.6666666666667</ele><time>2026-04-06T13:32:05.821Z</time></trkpt><trkpt lat="45.1131067" lon="7.1015718"><ele>785.0</ele><time>2026-04-06T13:32:06.821Z</time></trkpt><trkpt lat="45.1131311" lon="7.101686"><ele>785.0000000000001</ele><time>2026-04-06T13:32:07.821Z</time></trkpt><trkpt lat="45.1131098" lon="7.1018082"><ele>785.0</ele><time>2026-04-06T13:32:08.821Z</time></trkpt><trkpt lat="45.1131284" lon="7.1019281"><ele>785.0</ele><time>2026-04-06T13:32:09.822Z</time></trkpt><trkpt lat="45.1131618" lon="7.1020449"><ele>785.0</ele><time>2026-04-06T13:32:10.821Z</time></trkpt><trkpt lat="45.1131789" lon="7.1021391"><ele>785.0000000000001</ele><time>2026-04-06T13:32:11.821Z</time></trkpt><trkpt lat="45.1132268" lon="7.1022393"><ele>785.0</ele><time>2026-04-06T13:32:12.821Z</time></trkpt><trkpt lat="45.1132514" lon="7.1023348"><ele>779.8333333333334</ele><time>2026-04-06T13:32:13.821Z</time></trkpt><trkpt lat="45.1132766" lon="7.1024285"><ele>774.6666666666667</ele><time>2026-04-06T13:32:14.82Z</time></trkpt><trkpt lat="45.1133182" lon="7.1025209"><ele>769.5</ele><time>2026-04-06T13:32:15.82Z</time></trkpt><trkpt lat="45.1133469" lon="7.1026012"><ele>764.3333333333334</ele><time>2026-04-06T13:32:16.82Z</time></trkpt><trkpt lat="45.1134231" lon="7.1027325"><ele>759.1666666666667</ele><time>2026-04-06T13:32:18.821Z</time></trkpt><trkpt lat="45.1134757" lon="7.1028204"><ele>754.0</ele><time>2026-04-06T13:32:20.82Z</time></trkpt><trkpt lat="45.1135139" lon="7.1029514"><ele>754.0</ele><time>2026-04-06T13:32:34.82Z</time></trkpt><trkpt lat="45.1135348" lon="7.1030967"><ele>754.0</ele><time>2026-04-06T13:32:36.819Z</time></trkpt><trkpt lat="45.1135686" lon="7.1032812"><ele>754.0</ele><time>2026-04-06T13:32:38.82Z</time></trkpt><trkpt lat="45.1135837" lon="7.1033742"><ele>754.0</ele><time>2026-04-06T13:32:39.82Z</time></trkpt><trkpt lat="45.1136034" lon="7.1034781"><ele>754.0</ele><time>2026-04-06T13:32:40.82Z</time></trkpt><trkpt lat="45.1136209" lon="7.1035852"><ele>754.4000000000001</ele><time>2026-04-06T13:32:41.82Z</time></trkpt><trkpt lat="45.1136342" lon="7.1036898"><ele>754.8</ele><time>2026-04-06T13:32:42.82Z</time></trkpt><trkpt lat="45.1136554" lon="7.1037792"><ele>755.2</ele><time>2026-04-06T13:32:43.819Z</time></trkpt><trkpt lat="45.113683" lon="7.1039408"><ele>755.5999999999999</ele><time>2026-04-06T13:32:45.819Z</time></trkpt><trkpt lat="45.113722" lon="7.1040772"><ele>756.0</ele><time>2026-04-06T13:32:47.821Z</time></trkpt><trkpt lat="45.1137537" lon="7.1042258"><ele>756.2857142857143</ele><time>2026-04-06T13:32:49.819Z</time></trkpt><trkpt lat="45.1137736" lon="7.104313"><ele>756.5714285714286</ele><time>2026-04-06T13:32:50.82Z</time></trkpt><trkpt lat="45.1137946" lon="7.1043983"><ele>756.8571428571429</ele><time>2026-04-06T13:32:51.82Z</time></trkpt><trkpt lat="45.1138249" lon="7.104488"><ele>757.1428571428571</ele><time>2026-04-06T13:32:52.819Z</time></trkpt><trkpt lat="45.1138603" lon="7.1045844"><ele>757.4285714285714</ele><time>2026-04-06T13:32:53.819Z</time></trkpt><trkpt lat="45.1138951" lon="7.104685"><ele>757.7142857142858</ele><time>2026-04-06T13:32:54.819Z</time></trkpt><trkpt lat="45.113933" lon="7.1048049"><ele>758.0</ele><time>2026-04-06T13:32:55.821Z</time></trkpt><trkpt lat="45.1139722" lon="7.104936"><ele>758.8</ele><time>2026-04-06T13:32:56.82Z</time></trkpt><trkpt lat="45.1139695" lon="7.1050739"><ele>759.5999999999999</ele><time>2026-04-06T13:32:57.82Z</time></trkpt><trkpt lat="45.1139724" lon="7.105215"><ele>760.4000000000001</ele><time>2026-04-06T13:32:58.821Z</time></trkpt><trkpt lat="45.1139995" lon="7.1053565"><ele>761.2</ele><time>2026-04-06T13:32:59.819Z</time></trkpt><trkpt lat="45.1140424" lon="7.1054894"><ele>762.0</ele><time>2026-04-06T13:33:00.819Z</time></trkpt><trkpt lat="45.114087" lon="7.1056151"><ele>759.2</ele><time>2026-04-06T13:33:01.82Z</time></trkpt><trkpt lat="45.1141595" lon="7.1057154"><ele>756.4000000000001</ele><time>2026-04-06T13:33:02.819Z</time></trkpt><trkpt lat="45.1142406" lon="7.1058025"><ele>753.5999999999999</ele><time>2026-04-06T13:33:03.819Z</time></trkpt><trkpt lat="45.114331" lon="7.1058778"><ele>750.8</ele><time>2026-04-06T13:33:04.819Z</time></trkpt><trkpt lat="45.1144188" lon="7.1059587"><ele>748.0</ele><time>2026-04-06T13:33:05.82Z</time></trkpt><trkpt lat="45.1145056" lon="7.1060363"><ele>748.0</ele><time>2026-04-06T13:33:06.819Z</time></trkpt><trkpt lat="45.1146128" lon="7.1061165"><ele>748.0</ele><time>2026-04-06T13:33:07.82Z</time></trkpt><trkpt lat="45.1147099" lon="7.1061797"><ele>748.0</ele><time>2026-04-06T13:33:08.82Z</time></trkpt><trkpt lat="45.1148145" lon="7.1062408"><ele>748.0</ele><time>2026-04-06T13:33:09.82Z</time></trkpt><trkpt lat="45.1149141" lon="7.1062998"><ele>748.0</ele><time>2026-04-06T13:33:10.82Z</time></trkpt><trkpt lat="45.1150117" lon="7.1063564"><ele>746.8</ele><time>2026-04-06T13:33:11.821Z</time></trkpt><trkpt lat="45.1151094" lon="7.1064041"><ele>745.5999999999999</ele><time>2026-04-06T13:33:12.82Z</time></trkpt><trkpt lat="45.1151928" lon="7.1064598"><ele>744.4000000000001</ele><time>2026-04-06T13:33:13.82Z</time></trkpt><trkpt lat="45.1152759" lon="7.1065139"><ele>743.2</ele><time>2026-04-06T13:33:14.821Z</time></trkpt><trkpt lat="45.1153611" lon="7.1065326"><ele>742.0</ele><time>2026-04-06T13:33:15.819Z</time></trkpt><trkpt lat="45.1154416" lon="7.1065304"><ele>742.0</ele><time>2026-04-06T13:33:16.819Z</time></trkpt><trkpt lat="45.1155273" lon="7.1065179"><ele>742.0</ele><time>2026-04-06T13:33:17.82Z</time></trkpt><trkpt lat="45.115607" lon="7.1064922"><ele>742.0</ele><time>2026-04-06T13:33:18.821Z</time></trkpt><trkpt lat="45.1156854" lon="7.1064669"><ele>742.0</ele><time>2026-04-06T13:33:19.82Z</time></trkpt><trkpt lat="45.1157571" lon="7.1064467"><ele>742.0</ele><time>2026-04-06T13:33:20.82Z</time></trkpt><trkpt lat="45.1158293" lon="7.1064318"><ele>742.0</ele><time>2026-04-06T13:33:21.82Z</time></trkpt><trkpt lat="45.1159095" lon="7.1064203"><ele>741.1666666666667</ele><time>2026-04-06T13:33:22.82Z</time></trkpt><trkpt lat="45.1159833" lon="7.1064104"><ele>740.3333333333334</ele><time>2026-04-06T13:33:23.821Z</time></trkpt><trkpt lat="45.1160611" lon="7.106411"><ele>739.5</ele><time>2026-04-06T13:33:24.82Z</time></trkpt><trkpt lat="45.1161278" lon="7.1064011"><ele>738.6666666666666</ele><time>2026-04-06T13:33:25.82Z</time></trkpt><trkpt lat="45.1162321" lon="7.1063352"><ele>737.8333333333333</ele><time>2026-04-06T13:33:27.82Z</time></trkpt><trkpt lat="45.1162794" lon="7.1062515"><ele>737.0</ele><time>2026-04-06T13:33:29.82Z</time></trkpt><trkpt lat="45.1163372" lon="7.1062022"><ele>737.0000000000001</ele><time>2026-04-06T13:33:31.819Z</time></trkpt><trkpt lat="45.1164084" lon="7.1062516"><ele>737.0</ele><time>2026-04-06T13:33:33.82Z</time></trkpt><trkpt lat="45.1164629" lon="7.1063687"><ele>737.0</ele><time>2026-04-06T13:33:35.82Z</time></trkpt><trkpt lat="45.1164974" lon="7.1064444"><ele>737.0</ele><time>2026-04-06T13:33:36.819Z</time></trkpt><trkpt lat="45.1165287" lon="7.1065301"><ele>737.0</ele><time>2026-04-06T13:33:37.819Z</time></trkpt><trkpt lat="45.1165564" lon="7.106612"><ele>737.0000000000001</ele><time>2026-04-06T13:33:38.82Z</time></trkpt><trkpt lat="45.1165917" lon="7.1066988"><ele>737.0</ele><time>2026-04-06T13:33:39.82Z</time></trkpt><trkpt lat="45.1166292" lon="7.1067885"><ele>737.0</ele><time>2026-04-06T13:33:40.819Z</time></trkpt><trkpt lat="45.1166587" lon="7.1068835"><ele>737.0</ele><time>2026-04-06T13:33:41.82Z</time></trkpt><trkpt lat="45.1166777" lon="7.1069743"><ele>737.0</ele><time>2026-04-06T13:33:42.82Z</time></trkpt><trkpt lat="45.116674" lon="7.1071552"><ele>737.0</ele><time>2026-04-06T13:33:44.82Z</time></trkpt><trkpt lat="45.1166654" lon="7.1072543"><ele>737.0</ele><time>2026-04-06T13:33:45.819Z</time></trkpt><trkpt lat="45.1166582" lon="7.1073571"><ele>737.0</ele><time>2026-04-06T13:33:46.819Z</time></trkpt><trkpt lat="45.116641" lon="7.1074558"><ele>737.5714285714287</ele><time>2026-04-06T13:33:47.819Z</time></trkpt><trkpt lat="45.1166074" lon="7.1075442"><ele>738.1428571428571</ele><time>2026-04-06T13:33:48.82Z</time></trkpt><trkpt lat="45.1165872" lon="7.1076295"><ele>738.7142857142858</ele><time>2026-04-06T13:33:49.819Z</time></trkpt><trkpt lat="45.1165807" lon="7.1077252"><ele>739.2857142857143</ele><time>2026-04-06T13:33:50.819Z</time></trkpt><trkpt lat="45.1165762" lon="7.1078246"><ele>739.8571428571429</ele><time>2026-04-06T13:33:51.82Z</time></trkpt><trkpt lat="45.1165697" lon="7.107923"><ele>740.4285714285714</ele><time>2026-04-06T13:33:52.819Z</time></trkpt><trkpt lat="45.1165668" lon="7.1080245"><ele>741.0</ele><time>2026-04-06T13:33:53.821Z</time></trkpt><trkpt lat="45.1165595" lon="7.1081325"><ele>741.3333333333334</ele><time>2026-04-06T13:33:54.819Z</time></trkpt><trkpt lat="45.1165571" lon="7.1082486"><ele>741.6666666666666</ele><time>2026-04-06T13:33:55.82Z</time></trkpt><trkpt lat="45.1165657" lon="7.1083634"><ele>742.0</ele><time>2026-04-06T13:33:56.82Z</time></trkpt><trkpt lat="45.1165822" lon="7.108481"><ele>742.3333333333333</ele><time>2026-04-06T13:33:57.819Z</time></trkpt><trkpt lat="45.1165915" lon="7.1085979"><ele>742.6666666666666</ele><time>2026-04-06T13:33:58.819Z</time></trkpt><trkpt lat="45.1166026" lon="7.1087083"><ele>743.0</ele><time>2026-04-06T13:33:59.82Z</time></trkpt><trkpt lat="45.1166047" lon="7.1088099"><ele>743.0</ele><time>2026-04-06T13:34:00.82Z</time></trkpt><trkpt lat="45.1166016" lon="7.1089175"><ele>743.0</ele><time>2026-04-06T13:34:01.819Z</time></trkpt><trkpt lat="45.116614" lon="7.1090234"><ele>743.0</ele><time>2026-04-06T13:34:02.819Z</time></trkpt><trkpt lat="45.1166369" lon="7.1091174"><ele>743.0</ele><time>2026-04-06T13:34:03.821Z</time></trkpt><trkpt lat="45.1166616" lon="7.1092119"><ele>743.0</ele><time>2026-04-06T13:34:04.819Z</time></trkpt><trkpt lat="45.1166901" lon="7.1093166"><ele>743.0</ele><time>2026-04-06T13:34:05.819Z</time></trkpt><trkpt lat="45.1167171" lon="7.1094178"><ele>743.0</ele><time>2026-04-06T13:34:06.82Z</time></trkpt><trkpt lat="45.1167406" lon="7.1095257"><ele>743.3333333333333</ele><time>2026-04-06T13:34:07.819Z</time></trkpt><trkpt lat="45.1167636" lon="7.1096265"><ele>743.6666666666666</ele><time>2026-04-06T13:34:08.819Z</time></trkpt><trkpt lat="45.116794" lon="7.1097217"><ele>744.0</ele><time>2026-04-06T13:34:09.82Z</time></trkpt><trkpt lat="45.116821" lon="7.1098228"><ele>744.3333333333334</ele><time>2026-04-06T13:34:10.82Z</time></trkpt><trkpt lat="45.1168462" lon="7.1099337"><ele>744.6666666666667</ele><time>2026-04-06T13:34:11.819Z</time></trkpt><trkpt lat="45.1168693" lon="7.1100401"><ele>745.0</ele><time>2026-04-06T13:34:12.82Z</time></trkpt><trkpt lat="45.1168991" lon="7.1101503"><ele>745.3333333333334</ele><time>2026-04-06T13:34:13.82Z</time></trkpt><trkpt lat="45.1169234" lon="7.1102576"><ele>745.6666666666667</ele><time>2026-04-06T13:34:14.819Z</time></trkpt><trkpt lat="45.1169472" lon="7.1103634"><ele>746.0</ele><time>2026-04-06T13:34:15.819Z</time></trkpt><trkpt lat="45.1169676" lon="7.1104691"><ele>746.3333333333334</ele><time>2026-04-06T13:34:16.82Z</time></trkpt><trkpt lat="45.1169824" lon="7.1105795"><ele>746.6666666666666</ele><time>2026-04-06T13:34:17.82Z</time></trkpt><trkpt lat="45.1169909" lon="7.110691"><ele>747.0</ele><time>2026-04-06T13:34:18.819Z</time></trkpt><trkpt lat="45.116998" lon="7.110791"><ele>747.4000000000001</ele><time>2026-04-06T13:34:19.819Z</time></trkpt><trkpt lat="45.1170098" lon="7.1108831"><ele>747.8000000000001</ele><time>2026-04-06T13:34:20.82Z</time></trkpt><trkpt lat="45.1170523" lon="7.1110513"><ele>748.2</ele><time>2026-04-06T13:34:22.819Z</time></trkpt><trkpt lat="45.1170912" lon="7.1111223"><ele>748.6</ele><time>2026-04-06T13:34:23.82Z</time></trkpt><trkpt lat="45.1171854" lon="7.1112261"><ele>749.0</ele><time>2026-04-06T13:34:25.819Z</time></trkpt><trkpt lat="45.1172949" lon="7.1112992"><ele>749.0</ele><time>2026-04-06T13:34:27.82Z</time></trkpt><trkpt lat="45.1173546" lon="7.1113318"><ele>749.0</ele><time>2026-04-06T13:34:28.819Z</time></trkpt><trkpt lat="45.1174145" lon="7.1113742"><ele>749.0</ele><time>2026-04-06T13:34:29.82Z</time></trkpt><trkpt lat="45.117475" lon="7.1114187"><ele>749.0</ele><time>2026-04-06T13:34:30.82Z</time></trkpt><trkpt lat="45.1175315" lon="7.1114774"><ele>749.0</ele><time>2026-04-06T13:34:31.82Z</time></trkpt><trkpt lat="45.1175896" lon="7.1115479"><ele>749.0</ele><time>2026-04-06T13:34:32.82Z</time></trkpt><trkpt lat="45.1176439" lon="7.1116277"><ele>749.0</ele><time>2026-04-06T13:34:33.82Z</time></trkpt><trkpt lat="45.1177034" lon="7.1117003"><ele>748.0</ele><time>2026-04-06T13:34:34.821Z</time></trkpt><trkpt lat="45.1177628" lon="7.1117787"><ele>747.0</ele><time>2026-04-06T13:34:35.819Z</time></trkpt><trkpt lat="45.1178191" lon="7.1118533"><ele>746.0</ele><time>2026-04-06T13:34:36.82Z</time></trkpt><trkpt lat="45.1178755" lon="7.1119384"><ele>745.0</ele><time>2026-04-06T13:34:37.82Z</time></trkpt><trkpt lat="45.1179288" lon="7.112024"><ele>744.0</ele><time>2026-04-06T13:34:38.819Z</time></trkpt><trkpt lat="45.1179817" lon="7.112107"><ele>743.0</ele><time>2026-04-06T13:34:39.82Z</time></trkpt><trkpt lat="45.1180369" lon="7.1121853"><ele>743.0</ele><time>2026-04-06T13:34:40.82Z</time></trkpt><trkpt lat="45.1180911" lon="7.1122632"><ele>743.0</ele><time>2026-04-06T13:34:41.819Z</time></trkpt><trkpt lat="45.1181429" lon="7.1123391"><ele>743.0</ele><time>2026-04-06T13:34:42.819Z</time></trkpt><trkpt lat="45.1181905" lon="7.1124206"><ele>743.0</ele><time>2026-04-06T13:34:43.82Z</time></trkpt><trkpt lat="45.1182293" lon="7.112501"><ele>743.0</ele><time>2026-04-06T13:34:44.82Z</time></trkpt><trkpt lat="45.1182655" lon="7.1125811"><ele>743.0</ele><time>2026-04-06T13:34:45.819Z</time></trkpt><trkpt lat="45.1182968" lon="7.1126611"><ele>743.0</ele><time>2026-04-06T13:34:46.82Z</time></trkpt><trkpt lat="45.1183495" lon="7.1128106"><ele>741.8333333333333</ele><time>2026-04-06T13:34:48.82Z</time></trkpt><trkpt lat="45.1183933" lon="7.1129308"><ele>740.6666666666666</ele><time>2026-04-06T13:34:50.82Z</time></trkpt><trkpt lat="45.1184237" lon="7.1130158"><ele>739.5</ele><time>2026-04-06T13:34:53.819Z</time></trkpt><trkpt lat="45.1184619" lon="7.1131041"><ele>738.3333333333334</ele><time>2026-04-06T13:35:06.82Z</time></trkpt><trkpt lat="45.1185012" lon="7.1131873"><ele>737.1666666666667</ele><time>2026-04-06T13:35:08.82Z</time></trkpt><trkpt lat="45.1185606" lon="7.1133338"><ele>736.0</ele><time>2026-04-06T13:35:10.82Z</time></trkpt><trkpt lat="45.1186027" lon="7.1134727"><ele>735.6666666666667</ele><time>2026-04-06T13:35:12.82Z</time></trkpt><trkpt lat="45.1186426" lon="7.1135955"><ele>735.3333333333334</ele><time>2026-04-06T13:35:14.82Z</time></trkpt><trkpt lat="45.1186918" lon="7.1137248"><ele>735.0</ele><time>2026-04-06T13:35:16.819Z</time></trkpt><trkpt lat="45.1187308" lon="7.1138486"><ele>734.6666666666666</ele><time>2026-04-06T13:35:18.819Z</time></trkpt><trkpt lat="45.1187795" lon="7.1139398"><ele>734.3333333333333</ele><time>2026-04-06T13:35:21.82Z</time></trkpt><trkpt lat="45.1188427" lon="7.1139771"><ele>734.0</ele><time>2026-04-06T13:35:24.82Z</time></trkpt><trkpt lat="45.1189122" lon="7.1140268"><ele>734.0</ele><time>2026-04-06T13:35:28.819Z</time></trkpt><trkpt lat="45.1188547" lon="7.1139775"><ele>734.0</ele><time>2026-04-06T13:43:41.816Z</time></trkpt><trkpt lat="45.1188379" lon="7.1141202"><ele>734.0</ele><time>2026-04-06T13:43:44.816Z</time></trkpt><trkpt lat="45.1188784" lon="7.1142817"><ele>734.0</ele><time>2026-04-06T13:43:46.817Z</time></trkpt><trkpt lat="45.1189133" lon="7.1143841"><ele>734.0</ele><time>2026-04-06T13:43:47.817Z</time></trkpt><trkpt lat="45.1189464" lon="7.1144945"><ele>734.0</ele><time>2026-04-06T13:43:48.816Z</time></trkpt><trkpt lat="45.1189822" lon="7.1146078"><ele>734.0</ele><time>2026-04-06T13:43:49.817Z</time></trkpt><trkpt lat="45.1190147" lon="7.1147232"><ele>734.0</ele><time>2026-04-06T13:43:50.818Z</time></trkpt><trkpt lat="45.1190397" lon="7.1148339"><ele>734.0</ele><time>2026-04-06T13:43:51.818Z</time></trkpt><trkpt lat="45.1190631" lon="7.1149459"><ele>734.0</ele><time>2026-04-06T13:43:52.816Z</time></trkpt><trkpt lat="45.1190758" lon="7.1150543"><ele>734.0</ele><time>2026-04-06T13:43:53.817Z</time></trkpt><trkpt lat="45.1190875" lon="7.1151558"><ele>732.2</ele><time>2026-04-06T13:43:54.817Z</time></trkpt><trkpt lat="45.1190936" lon="7.1152525"><ele>730.4000000000001</ele><time>2026-04-06T13:43:55.817Z</time></trkpt><trkpt lat="45.1190953" lon="7.1153483"><ele>728.6</ele><time>2026-04-06T13:43:56.817Z</time></trkpt><trkpt lat="45.1191025" lon="7.115525"><ele>726.8</ele><time>2026-04-06T13:43:58.816Z</time></trkpt><trkpt lat="45.119115" lon="7.1157096"><ele>725.0</ele><time>2026-04-06T13:44:00.817Z</time></trkpt><trkpt lat="45.1191142" lon="7.1158018"><ele>724.5714285714286</ele><time>2026-04-06T13:44:01.817Z</time></trkpt><trkpt lat="45.1191112" lon="7.1158999"><ele>724.1428571428571</ele><time>2026-04-06T13:44:02.818Z</time></trkpt><trkpt lat="45.1191075" lon="7.116"><ele>723.7142857142858</ele><time>2026-04-06T13:44:03.816Z</time></trkpt><trkpt lat="45.1191081" lon="7.1161074"><ele>723.2857142857142</ele><time>2026-04-06T13:44:04.816Z</time></trkpt><trkpt lat="45.1191078" lon="7.1162128"><ele>722.8571428571428</ele><time>2026-04-06T13:44:05.817Z</time></trkpt><trkpt lat="45.1190991" lon="7.1163216"><ele>722.4285714285714</ele><time>2026-04-06T13:44:06.817Z</time></trkpt><trkpt lat="45.1190845" lon="7.1164299"><ele>722.0</ele><time>2026-04-06T13:44:07.817Z</time></trkpt><trkpt lat="45.1190648" lon="7.1165422"><ele>722.5714285714286</ele><time>2026-04-06T13:44:08.817Z</time></trkpt><trkpt lat="45.1190447" lon="7.1166485"><ele>723.1428571428571</ele><time>2026-04-06T13:44:09.817Z</time></trkpt><trkpt lat="45.1190278" lon="7.116754"><ele>723.7142857142857</ele><time>2026-04-06T13:44:10.818Z</time></trkpt><trkpt lat="45.1190118" lon="7.1168568"><ele>724.2857142857142</ele><time>2026-04-06T13:44:11.816Z</time></trkpt><trkpt lat="45.1189905" lon="7.1169566"><ele>724.8571428571429</ele><time>2026-04-06T13:44:12.816Z</time></trkpt><trkpt lat="45.118972" lon="7.1170515"><ele>725.4285714285713</ele><time>2026-04-06T13:44:13.816Z</time></trkpt><trkpt lat="45.1189522" lon="7.1171489"><ele>726.0</ele><time>2026-04-06T13:44:14.816Z</time></trkpt><trkpt lat="45.1189374" lon="7.1172479"><ele>726.0</ele><time>2026-04-06T13:44:15.816Z</time></trkpt><trkpt lat="45.1189163" lon="7.1173582"><ele>726.0</ele><time>2026-04-06T13:44:16.816Z</time></trkpt><trkpt lat="45.1188965" lon="7.1174709"><ele>726.0</ele><time>2026-04-06T13:44:17.817Z</time></trkpt><trkpt lat="45.1188864" lon="7.1175709"><ele>726.0</ele><time>2026-04-06T13:44:18.817Z</time></trkpt><trkpt lat="45.1188836" lon="7.1177376"><ele>726.0</ele><time>2026-04-06T13:44:20.817Z</time></trkpt><trkpt lat="45.1189036" lon="7.1178897"><ele>725.25</ele><time>2026-04-06T13:44:22.816Z</time></trkpt><trkpt lat="45.1189109" lon="7.1180529"><ele>724.5</ele><time>2026-04-06T13:44:24.817Z</time></trkpt><trkpt lat="45.1189223" lon="7.118225"><ele>723.75</ele><time>2026-04-06T13:44:26.817Z</time></trkpt><trkpt lat="45.1189389" lon="7.1183969"><ele>723.0</ele><time>2026-04-06T13:44:28.817Z</time></trkpt><trkpt lat="45.1189573" lon="7.1185682"><ele>722.1428571428572</ele><time>2026-04-06T13:44:30.817Z</time></trkpt><trkpt lat="45.1189636" lon="7.1186616"><ele>721.2857142857143</ele><time>2026-04-06T13:44:31.816Z</time></trkpt><trkpt lat="45.1189677" lon="7.1187655"><ele>720.4285714285714</ele><time>2026-04-06T13:44:32.817Z</time></trkpt><trkpt lat="45.1189783" lon="7.1188694"><ele>719.5714285714287</ele><time>2026-04-06T13:44:33.817Z</time></trkpt><trkpt lat="45.1189914" lon="7.1189695"><ele>718.7142857142857</ele><time>2026-04-06T13:44:34.817Z</time></trkpt><trkpt lat="45.119004" lon="7.1190718"><ele>717.8571428571429</ele><time>2026-04-06T13:44:35.817Z</time></trkpt><trkpt lat="45.1190144" lon="7.1191714"><ele>717.0</ele><time>2026-04-06T13:44:36.816Z</time></trkpt><trkpt lat="45.1190209" lon="7.1192729"><ele>716.1666666666666</ele><time>2026-04-06T13:44:37.816Z</time></trkpt><trkpt lat="45.1190292" lon="7.1193787"><ele>715.3333333333334</ele><time>2026-04-06T13:44:38.816Z</time></trkpt><trkpt lat="45.119041" lon="7.1194889"><ele>714.5</ele><time>2026-04-06T13:44:39.817Z</time></trkpt><trkpt lat="45.119055" lon="7.1195999"><ele>713.6666666666667</ele><time>2026-04-06T13:44:40.816Z</time></trkpt><trkpt lat="45.1190718" lon="7.1197134"><ele>712.8333333333334</ele><time>2026-04-06T13:44:41.816Z</time></trkpt><trkpt lat="45.1190867" lon="7.1198233"><ele>712.0</ele><time>2026-04-06T13:44:42.817Z</time></trkpt><trkpt lat="45.1190971" lon="7.1199368"><ele>711.0</ele><time>2026-04-06T13:44:43.817Z</time></trkpt><trkpt lat="45.119108" lon="7.1200447"><ele>710.0</ele><time>2026-04-06T13:44:44.817Z</time></trkpt><trkpt lat="45.1191236" lon="7.1201538"><ele>709.0</ele><time>2026-04-06T13:44:45.817Z</time></trkpt><trkpt lat="45.1191364" lon="7.1202582"><ele>708.0</ele><time>2026-04-06T13:44:46.817Z</time></trkpt><trkpt lat="45.1191483" lon="7.1203641"><ele>707.0</ele><time>2026-04-06T13:44:47.817Z</time></trkpt><trkpt lat="45.1191578" lon="7.1204734"><ele>706.0</ele><time>2026-04-06T13:44:48.817Z</time></trkpt><trkpt lat="45.1191688" lon="7.1205826"><ele>706.0</ele><time>2026-04-06T13:44:49.817Z</time></trkpt><trkpt lat="45.1191747" lon="7.120695"><ele>706.0</ele><time>2026-04-06T13:44:50.817Z</time></trkpt><trkpt lat="45.1191745" lon="7.1208086"><ele>706.0</ele><time>2026-04-06T13:44:51.816Z</time></trkpt><trkpt lat="45.1191682" lon="7.1209227"><ele>706.0</ele><time>2026-04-06T13:44:52.816Z</time></trkpt><trkpt lat="45.1191508" lon="7.1210413"><ele>706.0</ele><time>2026-04-06T13:44:53.816Z</time></trkpt><trkpt lat="45.1191372" lon="7.1211654"><ele>706.0</ele><time>2026-04-06T13:44:54.816Z</time></trkpt><trkpt lat="45.1191307" lon="7.1212937"><ele>705.3333333333334</ele><time>2026-04-06T13:44:55.815Z</time></trkpt><trkpt lat="45.119124" lon="7.1214192"><ele>704.6666666666667</ele><time>2026-04-06T13:44:56.815Z</time></trkpt><trkpt lat="45.1191285" lon="7.1215435"><ele>704.0</ele><time>2026-04-06T13:44:57.816Z</time></trkpt><trkpt lat="45.1191359" lon="7.1216643"><ele>703.3333333333334</ele><time>2026-04-06T13:44:58.816Z</time></trkpt><trkpt lat="45.1191362" lon="7.1217833"><ele>702.6666666666666</ele><time>2026-04-06T13:44:59.816Z</time></trkpt><trkpt lat="45.1191358" lon="7.1218997"><ele>702.0</ele><time>2026-04-06T13:45:00.815Z</time></trkpt><trkpt lat="45.119139" lon="7.1220163"><ele>701.3333333333334</ele><time>2026-04-06T13:45:01.815Z</time></trkpt><trkpt lat="45.1191453" lon="7.1221266"><ele>700.6666666666666</ele><time>2026-04-06T13:45:02.815Z</time></trkpt><trkpt lat="45.1191519" lon="7.1222395"><ele>700.0</ele><time>2026-04-06T13:45:03.816Z</time></trkpt><trkpt lat="45.1191627" lon="7.1223444"><ele>699.3333333333333</ele><time>2026-04-06T13:45:04.816Z</time></trkpt><trkpt lat="45.1191733" lon="7.1224482"><ele>698.6666666666666</ele><time>2026-04-06T13:45:05.816Z</time></trkpt><trkpt lat="45.1191837" lon="7.122556"><ele>698.0</ele><time>2026-04-06T13:45:06.815Z</time></trkpt><trkpt lat="45.1191957" lon="7.1226602"><ele>697.5</ele><time>2026-04-06T13:45:07.815Z</time></trkpt><trkpt lat="45.1192035" lon="7.1227713"><ele>697.0</ele><time>2026-04-06T13:45:08.816Z</time></trkpt><trkpt lat="45.1192109" lon="7.1228873"><ele>696.5</ele><time>2026-04-06T13:45:09.816Z</time></trkpt><trkpt lat="45.1192201" lon="7.123008"><ele>696.0</ele><time>2026-04-06T13:45:10.817Z</time></trkpt><trkpt lat="45.119235" lon="7.1231313"><ele>695.5</ele><time>2026-04-06T13:45:11.816Z</time></trkpt><trkpt lat="45.119249" lon="7.1232671"><ele>695.0</ele><time>2026-04-06T13:45:12.815Z</time></trkpt><trkpt lat="45.1192575" lon="7.1234128"><ele>694.25</ele><time>2026-04-06T13:45:13.815Z</time></trkpt><trkpt lat="45.1192692" lon="7.1235735"><ele>693.5</ele><time>2026-04-06T13:45:14.817Z</time></trkpt><trkpt lat="45.1192834" lon="7.1237412"><ele>692.75</ele><time>2026-04-06T13:45:15.816Z</time></trkpt><trkpt lat="45.1192964" lon="7.1239099"><ele>692.0</ele><time>2026-04-06T13:45:16.816Z</time></trkpt><trkpt lat="45.1193089" lon="7.1240743"><ele>691.0</ele><time>2026-04-06T13:45:17.815Z</time></trkpt><trkpt lat="45.1193216" lon="7.1242371"><ele>690.0</ele><time>2026-04-06T13:45:18.815Z</time></trkpt><trkpt lat="45.1193354" lon="7.1243923"><ele>689.0</ele><time>2026-04-06T13:45:19.816Z</time></trkpt><trkpt lat="45.1193497" lon="7.124543"><ele>688.0</ele><time>2026-04-06T13:45:20.816Z</time></trkpt><trkpt lat="45.1193581" lon="7.1246914"><ele>687.0</ele><time>2026-04-06T13:45:21.816Z</time></trkpt><trkpt lat="45.1193642" lon="7.124836"><ele>686.0</ele><time>2026-04-06T13:45:22.816Z</time></trkpt><trkpt lat="45.1193717" lon="7.1249727"><ele>685.0</ele><time>2026-04-06T13:45:23.816Z</time></trkpt><trkpt lat="45.1193843" lon="7.1251101"><ele>684.0</ele><time>2026-04-06T13:45:24.815Z</time></trkpt><trkpt lat="45.1193939" lon="7.1252395"><ele>683.0</ele><time>2026-04-06T13:45:25.815Z</time></trkpt><trkpt lat="45.1194038" lon="7.1253667"><ele>682.0</ele><time>2026-04-06T13:45:26.815Z</time></trkpt><trkpt lat="45.1194131" lon="7.1254921"><ele>682.0</ele><time>2026-04-06T13:45:27.816Z</time></trkpt><trkpt lat="45.1194238" lon="7.12562"><ele>682.0</ele><time>2026-04-06T13:45:28.815Z</time></trkpt><trkpt lat="45.1194316" lon="7.1257565"><ele>682.0</ele><time>2026-04-06T13:45:29.815Z</time></trkpt><trkpt lat="45.1194454" lon="7.1258983"><ele>682.0</ele><time>2026-04-06T13:45:30.816Z</time></trkpt><trkpt lat="45.1194587" lon="7.1260467"><ele>682.0</ele><time>2026-04-06T13:45:31.815Z</time></trkpt><trkpt lat="45.1194699" lon="7.1261979"><ele>681.0</ele><time>2026-04-06T13:45:32.815Z</time></trkpt><trkpt lat="45.1194818" lon="7.1263321"><ele>680.0</ele><time>2026-04-06T13:45:33.816Z</time></trkpt><trkpt lat="45.1194881" lon="7.126441"><ele>679.0</ele><time>2026-04-06T13:45:34.816Z</time></trkpt><trkpt lat="45.1195043" lon="7.1265663"><ele>678.0</ele><time>2026-04-06T13:45:36.816Z</time></trkpt><trkpt lat="45.1195364" lon="7.1266847"><ele>677.0</ele><time>2026-04-06T13:45:49.816Z</time></trkpt><trkpt lat="45.1196096" lon="7.1268247"><ele>677.0</ele><time>2026-04-06T13:45:51.816Z</time></trkpt><trkpt lat="45.1196568" lon="7.1269124"><ele>677.0</ele><time>2026-04-06T13:45:52.816Z</time></trkpt><trkpt lat="45.1197048" lon="7.1270084"><ele>677.0</ele><time>2026-04-06T13:45:53.816Z</time></trkpt><trkpt lat="45.1197506" lon="7.1271159"><ele>677.0</ele><time>2026-04-06T13:45:54.816Z</time></trkpt><trkpt lat="45.1197939" lon="7.1272365"><ele>677.0</ele><time>2026-04-06T13:45:55.816Z</time></trkpt><trkpt lat="45.119828" lon="7.127372"><ele>677.0</ele><time>2026-04-06T13:45:56.815Z</time></trkpt><trkpt lat="45.1198571" lon="7.1275122"><ele>677.0</ele><time>2026-04-06T13:45:57.815Z</time></trkpt><trkpt lat="45.1198803" lon="7.1276461"><ele>677.0</ele><time>2026-04-06T13:45:58.815Z</time></trkpt><trkpt lat="45.1199003" lon="7.1277741"><ele>677.0</ele><time>2026-04-06T13:45:59.815Z</time></trkpt><trkpt lat="45.1199206" lon="7.1279051"><ele>677.0</ele><time>2026-04-06T13:46:00.815Z</time></trkpt><trkpt lat="45.1199362" lon="7.1280316"><ele>677.0</ele><time>2026-04-06T13:46:01.815Z</time></trkpt><trkpt lat="45.119951" lon="7.1281491"><ele>676.5</ele><time>2026-04-06T13:46:02.816Z</time></trkpt><trkpt lat="45.1199675" lon="7.1282577"><ele>676.0</ele><time>2026-04-06T13:46:03.815Z</time></trkpt><trkpt lat="45.1199871" lon="7.1283695"><ele>675.5</ele><time>2026-04-06T13:46:04.815Z</time></trkpt><trkpt lat="45.1200041" lon="7.1284863"><ele>675.0</ele><time>2026-04-06T13:46:05.816Z</time></trkpt><trkpt lat="45.1200201" lon="7.1286077"><ele>674.5</ele><time>2026-04-06T13:46:06.816Z</time></trkpt><trkpt lat="45.1200372" lon="7.1287326"><ele>674.0</ele><time>2026-04-06T13:46:07.817Z</time></trkpt><trkpt lat="45.1200554" lon="7.1288523"><ele>674.0</ele><time>2026-04-06T13:46:08.817Z</time></trkpt><trkpt lat="45.1200715" lon="7.1289617"><ele>674.0</ele><time>2026-04-06T13:46:09.816Z</time></trkpt><trkpt lat="45.120086" lon="7.1290603"><ele>674.0</ele><time>2026-04-06T13:46:10.815Z</time></trkpt><trkpt lat="45.1201015" lon="7.1291484"><ele>674.0</ele><time>2026-04-06T13:46:11.815Z</time></trkpt><trkpt lat="45.120129" lon="7.1293073"><ele>674.0</ele><time>2026-04-06T13:46:13.815Z</time></trkpt><trkpt lat="45.1201362" lon="7.1294514"><ele>674.0</ele><time>2026-04-06T13:46:15.815Z</time></trkpt><trkpt lat="45.1201301" lon="7.1295777"><ele>674.0000000000001</ele><time>2026-04-06T13:46:17.816Z</time></trkpt><trkpt lat="45.1201212" lon="7.1297031"><ele>674.0</ele><time>2026-04-06T13:46:19.816Z</time></trkpt><trkpt lat="45.1201091" lon="7.1297913"><ele>674.0</ele><time>2026-04-06T13:46:21.816Z</time></trkpt><trkpt lat="45.1200904" lon="7.1298838"><ele>674.0</ele><time>2026-04-06T13:46:24.815Z</time></trkpt><trkpt lat="45.1201322" lon="7.1298141"><ele>674.0</ele><time>2026-04-06T13:51:32.813Z</time></trkpt><trkpt lat="45.1201674" lon="7.1299021"><ele>674.0000000000001</ele><time>2026-04-06T13:56:27.812Z</time></trkpt><trkpt lat="45.1200974" lon="7.1299385"><ele>674.0</ele><time>2026-04-06T13:57:13.8Z</time></trkpt><trkpt lat="45.120032" lon="7.1299863"><ele>674.0</ele><time>2026-04-06T14:02:18.81Z</time></trkpt><trkpt lat="45.1200293" lon="7.1301387"><ele>674.0</ele><time>2026-04-06T14:02:20.811Z</time></trkpt><trkpt lat="45.1200376" lon="7.1302827"><ele>674.0</ele><time>2026-04-06T14:02:22.811Z</time></trkpt><trkpt lat="45.1200746" lon="7.1304377"><ele>674.0</ele><time>2026-04-06T14:02:24.812Z</time></trkpt><trkpt lat="45.1201111" lon="7.1305314"><ele>674.0</ele><time>2026-04-06T14:02:25.811Z</time></trkpt><trkpt lat="45.120154" lon="7.1306319"><ele>673.6</ele><time>2026-04-06T14:02:26.811Z</time></trkpt><trkpt lat="45.1202025" lon="7.1307379"><ele>673.2</ele><time>2026-04-06T14:02:27.811Z</time></trkpt><trkpt lat="45.1202564" lon="7.130853"><ele>672.8000000000001</ele><time>2026-04-06T14:02:28.811Z</time></trkpt><trkpt lat="45.120318" lon="7.1309789"><ele>672.4000000000001</ele><time>2026-04-06T14:02:29.811Z</time></trkpt><trkpt lat="45.1203864" lon="7.1310971"><ele>672.0</ele><time>2026-04-06T14:02:30.811Z</time></trkpt><trkpt lat="45.1204692" lon="7.131214"><ele>672.0</ele><time>2026-04-06T14:02:31.81Z</time></trkpt><trkpt lat="45.1205535" lon="7.1313169"><ele>672.0</ele><time>2026-04-06T14:02:32.811Z</time></trkpt><trkpt lat="45.1206553" lon="7.1314175"><ele>672.0</ele><time>2026-04-06T14:02:33.811Z</time></trkpt><trkpt lat="45.1207525" lon="7.1315015"><ele>672.0</ele><time>2026-04-06T14:02:34.811Z</time></trkpt><trkpt lat="45.1208608" lon="7.1315679"><ele>671.0</ele><time>2026-04-06T14:02:35.811Z</time></trkpt><trkpt lat="45.1209648" lon="7.1316301"><ele>670.0</ele><time>2026-04-06T14:02:36.81Z</time></trkpt><trkpt lat="45.1210599" lon="7.1317156"><ele>669.0</ele><time>2026-04-06T14:02:37.811Z</time></trkpt><trkpt lat="45.1211392" lon="7.1318388"><ele>668.0</ele><time>2026-04-06T14:02:38.811Z</time></trkpt><trkpt lat="45.1212016" lon="7.1319899"><ele>668.0</ele><time>2026-04-06T14:02:39.81Z</time></trkpt><trkpt lat="45.121255" lon="7.1321614"><ele>668.0</ele><time>2026-04-06T14:02:40.811Z</time></trkpt><trkpt lat="45.1213116" lon="7.1323363"><ele>668.0</ele><time>2026-04-06T14:02:41.81Z</time></trkpt><trkpt lat="45.1213785" lon="7.1325162"><ele>668.0</ele><time>2026-04-06T14:02:42.811Z</time></trkpt><trkpt lat="45.1214404" lon="7.1326963"><ele>664.25</ele><time>2026-04-06T14:02:43.81Z</time></trkpt><trkpt lat="45.1214991" lon="7.1328775"><ele>660.5</ele><time>2026-04-06T14:02:44.811Z</time></trkpt><trkpt lat="45.1215595" lon="7.1330479"><ele>656.75</ele><time>2026-04-06T14:02:45.812Z</time></trkpt><trkpt lat="45.1216185" lon="7.1332073"><ele>653.0</ele><time>2026-04-06T14:02:46.812Z</time></trkpt><trkpt lat="45.1216721" lon="7.1333467"><ele>653.0</ele><time>2026-04-06T14:02:47.811Z</time></trkpt><trkpt lat="45.1217046" lon="7.1334868"><ele>653.0</ele><time>2026-04-06T14:02:48.811Z</time></trkpt><trkpt lat="45.1217114" lon="7.1336243"><ele>653.0</ele><time>2026-04-06T14:02:49.811Z</time></trkpt><trkpt lat="45.1217172" lon="7.1337314"><ele>653.0</ele><time>2026-04-06T14:02:50.81Z</time></trkpt><trkpt lat="45.1217512" lon="7.1338078"><ele>653.0</ele><time>2026-04-06T14:02:51.81Z</time></trkpt><trkpt lat="45.1218559" lon="7.133802"><ele>653.0</ele><time>2026-04-06T14:02:53.811Z</time></trkpt><trkpt lat="45.1218701" lon="7.1336252"><ele>653.0</ele><time>2026-04-06T14:02:55.811Z</time></trkpt><trkpt lat="45.1218387" lon="7.1335143"><ele>653.0</ele><time>2026-04-06T14:02:56.81Z</time></trkpt><trkpt lat="45.1218011" lon="7.1333801"><ele>653.0</ele><time>2026-04-06T14:02:57.81Z</time></trkpt><trkpt lat="45.1217659" lon="7.1332425"><ele>653.0</ele><time>2026-04-06T14:02:58.81Z</time></trkpt><trkpt lat="45.1217298" lon="7.1331122"><ele>653.0</ele><time>2026-04-06T14:02:59.81Z</time></trkpt><trkpt lat="45.1216995" lon="7.1329982"><ele>653.0</ele><time>2026-04-06T14:03:00.81Z</time></trkpt><trkpt lat="45.1216975" lon="7.132896"><ele>653.0</ele><time>2026-04-06T14:03:01.81Z</time></trkpt><trkpt lat="45.1217859" lon="7.1328104"><ele>653.0</ele><time>2026-04-06T14:03:03.81Z</time></trkpt><trkpt lat="45.1218314" lon="7.1328992"><ele>653.0</ele><time>2026-04-06T14:03:04.811Z</time></trkpt><trkpt lat="45.1218655" lon="7.1330037"><ele>653.0</ele><time>2026-04-06T14:03:05.81Z</time></trkpt><trkpt lat="45.1218996" lon="7.1331423"><ele>653.0</ele><time>2026-04-06T14:03:06.81Z</time></trkpt><trkpt lat="45.1219426" lon="7.1333062"><ele>653.0</ele><time>2026-04-06T14:03:07.81Z</time></trkpt><trkpt lat="45.1219947" lon="7.133473"><ele>653.0</ele><time>2026-04-06T14:03:08.811Z</time></trkpt><trkpt lat="45.1220414" lon="7.1336466"><ele>653.0</ele><time>2026-04-06T14:03:09.811Z</time></trkpt><trkpt lat="45.1220845" lon="7.1338238"><ele>653.0</ele><time>2026-04-06T14:03:10.811Z</time></trkpt><trkpt lat="45.1221424" lon="7.1339873"><ele>657.5</ele><time>2026-04-06T14:03:11.811Z</time></trkpt><trkpt lat="45.1222255" lon="7.1341279"><ele>662.0</ele><time>2026-04-06T14:03:12.81Z</time></trkpt><trkpt lat="45.1223281" lon="7.1342342"><ele>666.5</ele><time>2026-04-06T14:03:13.811Z</time></trkpt><trkpt lat="45.1224481" lon="7.1342957"><ele>671.0</ele><time>2026-04-06T14:03:14.811Z</time></trkpt><trkpt lat="45.1225718" lon="7.1343326"><ele>661.5</ele><time>2026-04-06T14:03:15.811Z</time></trkpt><trkpt lat="45.1226949" lon="7.1343672"><ele>652.0</ele><time>2026-04-06T14:03:16.811Z</time></trkpt><trkpt lat="45.1228171" lon="7.1344033"><ele>642.5</ele><time>2026-04-06T14:03:17.811Z</time></trkpt><trkpt lat="45.1229375" lon="7.134431"><ele>633.0</ele><time>2026-04-06T14:03:18.81Z</time></trkpt><trkpt lat="45.1230669" lon="7.1344625"><ele>633.0</ele><time>2026-04-06T14:03:19.81Z</time></trkpt><trkpt lat="45.123192" lon="7.1344897"><ele>633.0</ele><time>2026-04-06T14:03:20.81Z</time></trkpt><trkpt lat="45.1233125" lon="7.1345203"><ele>633.0</ele><time>2026-04-06T14:03:21.811Z</time></trkpt><trkpt lat="45.1234341" lon="7.1345655"><ele>633.0</ele><time>2026-04-06T14:03:22.811Z</time></trkpt><trkpt lat="45.1235573" lon="7.1346008"><ele>632.25</ele><time>2026-04-06T14:03:23.81Z</time></trkpt><trkpt lat="45.1236743" lon="7.1346698"><ele>631.5</ele><time>2026-04-06T14:03:24.81Z</time></trkpt><trkpt lat="45.123802" lon="7.1347468"><ele>630.75</ele><time>2026-04-06T14:03:25.811Z</time></trkpt><trkpt lat="45.1239218" lon="7.1348361"><ele>630.0</ele><time>2026-04-06T14:03:26.81Z</time></trkpt><trkpt lat="45.1240548" lon="7.1349278"><ele>624.5</ele><time>2026-04-06T14:03:27.811Z</time></trkpt><trkpt lat="45.1241807" lon="7.1350241"><ele>619.0</ele><time>2026-04-06T14:03:28.812Z</time></trkpt><trkpt lat="45.1243085" lon="7.1351272"><ele>613.5</ele><time>2026-04-06T14:03:29.811Z</time></trkpt><trkpt lat="45.1244282" lon="7.1352402"><ele>608.0</ele><time>2026-04-06T14:03:30.81Z</time></trkpt><trkpt lat="45.1245354" lon="7.135361"><ele>608.0</ele><time>2026-04-06T14:03:31.811Z</time></trkpt><trkpt lat="45.124639" lon="7.135486"><ele>608.0</ele><time>2026-04-06T14:03:32.81Z</time></trkpt><trkpt lat="45.1247382" lon="7.1355999"><ele>608.0</ele><time>2026-04-06T14:03:33.811Z</time></trkpt><trkpt lat="45.1248411" lon="7.1356954"><ele>608.0</ele><time>2026-04-06T14:03:34.811Z</time></trkpt><trkpt lat="45.1249407" lon="7.1357732"><ele>603.75</ele><time>2026-04-06T14:03:35.81Z</time></trkpt><trkpt lat="45.1250512" lon="7.1358514"><ele>599.5</ele><time>2026-04-06T14:03:36.81Z</time></trkpt><trkpt lat="45.1251506" lon="7.1359399"><ele>595.25</ele><time>2026-04-06T14:03:37.81Z</time></trkpt><trkpt lat="45.125242" lon="7.1360448"><ele>591.0</ele><time>2026-04-06T14:03:38.81Z</time></trkpt><trkpt lat="45.1253217" lon="7.1361687"><ele>591.0</ele><time>2026-04-06T14:03:39.81Z</time></trkpt><trkpt lat="45.1253911" lon="7.1363067"><ele>591.0</ele><time>2026-04-06T14:03:40.81Z</time></trkpt><trkpt lat="45.125454" lon="7.1364606"><ele>591.0</ele><time>2026-04-06T14:03:41.81Z</time></trkpt><trkpt lat="45.1255176" lon="7.1366341"><ele>591.0</ele><time>2026-04-06T14:03:42.811Z</time></trkpt><trkpt lat="45.1255823" lon="7.1368205"><ele>592.3333333333334</ele><time>2026-04-06T14:03:43.811Z</time></trkpt><trkpt lat="45.1256536" lon="7.1370055"><ele>593.6666666666667</ele><time>2026-04-06T14:03:44.81Z</time></trkpt><trkpt lat="45.1257214" lon="7.1371967"><ele>595.0</ele><time>2026-04-06T14:03:45.81Z</time></trkpt><trkpt lat="45.1257871" lon="7.1373919"><ele>588.0</ele><time>2026-04-06T14:03:46.809Z</time></trkpt><trkpt lat="45.1258608" lon="7.1375812"><ele>581.0</ele><time>2026-04-06T14:03:47.809Z</time></trkpt><trkpt lat="45.1259335" lon="7.1377756"><ele>574.0</ele><time>2026-04-06T14:03:48.809Z</time></trkpt><trkpt lat="45.1259964" lon="7.1379647"><ele>574.0</ele><time>2026-04-06T14:03:49.809Z</time></trkpt><trkpt lat="45.1260557" lon="7.1381524"><ele>574.0</ele><time>2026-04-06T14:03:50.811Z</time></trkpt><trkpt lat="45.1261208" lon="7.1383338"><ele>574.0</ele><time>2026-04-06T14:03:51.811Z</time></trkpt><trkpt lat="45.1261863" lon="7.1385146"><ele>574.0</ele><time>2026-04-06T14:03:52.81Z</time></trkpt><trkpt lat="45.1262503" lon="7.1386955"><ele>573.75</ele><time>2026-04-06T14:03:53.809Z</time></trkpt><trkpt lat="45.1263066" lon="7.1388686"><ele>573.5</ele><time>2026-04-06T14:03:54.81Z</time></trkpt><trkpt lat="45.1263594" lon="7.1390338"><ele>573.25</ele><time>2026-04-06T14:03:55.809Z</time></trkpt><trkpt lat="45.1264122" lon="7.1391848"><ele>573.0</ele><time>2026-04-06T14:03:56.809Z</time></trkpt><trkpt lat="45.1264745" lon="7.1393139"><ele>574.6</ele><time>2026-04-06T14:03:57.809Z</time></trkpt><trkpt lat="45.1265495" lon="7.1394125"><ele>576.1999999999999</ele><time>2026-04-06T14:03:58.809Z</time></trkpt><trkpt lat="45.1266498" lon="7.1394862"><ele>577.8</ele><time>2026-04-06T14:03:59.811Z</time></trkpt><trkpt lat="45.1267412" lon="7.1395706"><ele>579.4</ele><time>2026-04-06T14:04:00.81Z</time></trkpt><trkpt lat="45.1268141" lon="7.1396828"><ele>581.0</ele><time>2026-04-06T14:04:01.809Z</time></trkpt><trkpt lat="45.1268646" lon="7.1398161"><ele>575.0</ele><time>2026-04-06T14:04:02.811Z</time></trkpt><trkpt lat="45.1268951" lon="7.1399577"><ele>569.0</ele><time>2026-04-06T14:04:03.809Z</time></trkpt><trkpt lat="45.1269226" lon="7.1401008"><ele>563.0</ele><time>2026-04-06T14:04:04.81Z</time></trkpt><trkpt lat="45.1269538" lon="7.1402411"><ele>557.0</ele><time>2026-04-06T14:04:05.81Z</time></trkpt><trkpt lat="45.1269833" lon="7.1403855"><ele>551.0</ele><time>2026-04-06T14:04:06.81Z</time></trkpt><trkpt lat="45.1270137" lon="7.1405391"><ele>551.0</ele><time>2026-04-06T14:04:07.81Z</time></trkpt><trkpt lat="45.1270469" lon="7.1406993"><ele>551.0</ele><time>2026-04-06T14:04:08.809Z</time></trkpt><trkpt lat="45.1270816" lon="7.1408622"><ele>551.0</ele><time>2026-04-06T14:04:09.81Z</time></trkpt><trkpt lat="45.1271141" lon="7.1410224"><ele>551.0</ele><time>2026-04-06T14:04:10.81Z</time></trkpt><trkpt lat="45.1271461" lon="7.1411867"><ele>550.4</ele><time>2026-04-06T14:04:11.811Z</time></trkpt><trkpt lat="45.1271799" lon="7.1413443"><ele>549.8</ele><time>2026-04-06T14:04:12.81Z</time></trkpt><trkpt lat="45.1272141" lon="7.1414941"><ele>549.1999999999999</ele><time>2026-04-06T14:04:13.81Z</time></trkpt><trkpt lat="45.1272518" lon="7.1416365"><ele>548.6</ele><time>2026-04-06T14:04:14.81Z</time></trkpt><trkpt lat="45.1273051" lon="7.1417687"><ele>548.0</ele><time>2026-04-06T14:04:15.809Z</time></trkpt><trkpt lat="45.1273787" lon="7.1418819"><ele>544.1999999999999</ele><time>2026-04-06T14:04:16.809Z</time></trkpt><trkpt lat="45.1274664" lon="7.1419694"><ele>540.4</ele><time>2026-04-06T14:04:17.81Z</time></trkpt><trkpt lat="45.1275621" lon="7.1420408"><ele>536.5999999999999</ele><time>2026-04-06T14:04:18.81Z</time></trkpt><trkpt lat="45.1276598" lon="7.1421054"><ele>532.8</ele><time>2026-04-06T14:04:19.809Z</time></trkpt><trkpt lat="45.1277605" lon="7.1421696"><ele>529.0</ele><time>2026-04-06T14:04:20.81Z</time></trkpt><trkpt lat="45.1278599" lon="7.142234"><ele>529.0</ele><time>2026-04-06T14:04:21.81Z</time></trkpt><trkpt lat="45.1279642" lon="7.1422963"><ele>529.0</ele><time>2026-04-06T14:04:22.809Z</time></trkpt><trkpt lat="45.1280646" lon="7.142361"><ele>529.0</ele><time>2026-04-06T14:04:23.809Z</time></trkpt><trkpt lat="45.1281654" lon="7.1424261"><ele>529.0</ele><time>2026-04-06T14:04:24.81Z</time></trkpt><trkpt lat="45.1282649" lon="7.1424935"><ele>529.0</ele><time>2026-04-06T14:04:25.81Z</time></trkpt><trkpt lat="45.12836" lon="7.142564"><ele>526.75</ele><time>2026-04-06T14:04:26.809Z</time></trkpt><trkpt lat="45.1284495" lon="7.1426493"><ele>524.5</ele><time>2026-04-06T14:04:27.81Z</time></trkpt><trkpt lat="45.128533" lon="7.1427558"><ele>522.25</ele><time>2026-04-06T14:04:28.809Z</time></trkpt><trkpt lat="45.1286154" lon="7.1428673"><ele>520.0</ele><time>2026-04-06T14:04:29.809Z</time></trkpt><trkpt lat="45.1287141" lon="7.1429526"><ele>520.0</ele><time>2026-04-06T14:04:30.81Z</time></trkpt><trkpt lat="45.1288275" lon="7.1429899"><ele>520.0</ele><time>2026-04-06T14:04:31.81Z</time></trkpt><trkpt lat="45.1289442" lon="7.1430166"><ele>520.0</ele><time>2026-04-06T14:04:32.811Z</time></trkpt><trkpt lat="45.1290639" lon="7.1430533"><ele>520.0</ele><time>2026-04-06T14:04:33.81Z</time></trkpt><trkpt lat="45.1291856" lon="7.1430863"><ele>518.0</ele><time>2026-04-06T14:04:34.81Z</time></trkpt><trkpt lat="45.1293009" lon="7.1431363"><ele>516.0</ele><time>2026-04-06T14:04:35.81Z</time></trkpt><trkpt lat="45.1294095" lon="7.1432157"><ele>514.0</ele><time>2026-04-06T14:04:36.81Z</time></trkpt><trkpt lat="45.129522" lon="7.1432864"><ele>512.0</ele><time>2026-04-06T14:04:37.81Z</time></trkpt><trkpt lat="45.1296423" lon="7.1433366"><ele>510.5</ele><time>2026-04-06T14:04:38.81Z</time></trkpt><trkpt lat="45.1297673" lon="7.1433526"><ele>509.0</ele><time>2026-04-06T14:04:39.81Z</time></trkpt><trkpt lat="45.1298915" lon="7.14334"><ele>507.5</ele><time>2026-04-06T14:04:40.81Z</time></trkpt><trkpt lat="45.1300186" lon="7.1433315"><ele>506.0</ele><time>2026-04-06T14:04:41.81Z</time></trkpt><trkpt lat="45.1301438" lon="7.143354"><ele>504.5</ele><time>2026-04-06T14:04:42.809Z</time></trkpt><trkpt lat="45.1302671" lon="7.1434032"><ele>503.0</ele><time>2026-04-06T14:04:43.81Z</time></trkpt><trkpt lat="45.1303866" lon="7.1434678"><ele>501.5</ele><time>2026-04-06T14:04:44.811Z</time></trkpt><trkpt lat="45.1305095" lon="7.1435281"><ele>500.0</ele><time>2026-04-06T14:04:45.81Z</time></trkpt><trkpt lat="45.1306353" lon="7.1435755"><ele>497.25</ele><time>2026-04-06T14:04:46.809Z</time></trkpt><trkpt lat="45.1307634" lon="7.1436173"><ele>494.5</ele><time>2026-04-06T14:04:47.809Z</time></trkpt><trkpt lat="45.1308899" lon="7.1436539"><ele>491.75</ele><time>2026-04-06T14:04:48.809Z</time></trkpt><trkpt lat="45.1310154" lon="7.1436931"><ele>489.0</ele><time>2026-04-06T14:04:49.81Z</time></trkpt><trkpt lat="45.1311431" lon="7.1437304"><ele>489.0</ele><time>2026-04-06T14:04:50.809Z</time></trkpt><trkpt lat="45.1312713" lon="7.1437603"><ele>489.0</ele><time>2026-04-06T14:04:51.809Z</time></trkpt><trkpt lat="45.1314031" lon="7.1437861"><ele>489.0</ele><time>2026-04-06T14:04:52.809Z</time></trkpt><trkpt lat="45.1315325" lon="7.1438095"><ele>489.0</ele><time>2026-04-06T14:04:53.81Z</time></trkpt><trkpt lat="45.1316607" lon="7.143844"><ele>487.0</ele><time>2026-04-06T14:04:54.81Z</time></trkpt><trkpt lat="45.1317854" lon="7.1439033"><ele>485.0</ele><time>2026-04-06T14:04:55.811Z</time></trkpt><trkpt lat="45.1319024" lon="7.1439765"><ele>483.0</ele><time>2026-04-06T14:04:56.81Z</time></trkpt><trkpt lat="45.1320208" lon="7.1440542"><ele>481.0</ele><time>2026-04-06T14:04:57.81Z</time></trkpt><trkpt lat="45.1321436" lon="7.1441292"><ele>480.75</ele><time>2026-04-06T14:04:58.81Z</time></trkpt><trkpt lat="45.1322607" lon="7.1441998"><ele>480.5</ele><time>2026-04-06T14:04:59.809Z</time></trkpt><trkpt lat="45.1323772" lon="7.1442767"><ele>480.25</ele><time>2026-04-06T14:05:00.809Z</time></trkpt><trkpt lat="45.1324896" lon="7.1443479"><ele>480.0</ele><time>2026-04-06T14:05:01.81Z</time></trkpt><trkpt lat="45.1326032" lon="7.1444221"><ele>478.5</ele><time>2026-04-06T14:05:02.809Z</time></trkpt><trkpt lat="45.1327165" lon="7.1445005"><ele>477.0</ele><time>2026-04-06T14:05:03.809Z</time></trkpt><trkpt lat="45.1328311" lon="7.1445768"><ele>475.5</ele><time>2026-04-06T14:05:04.809Z</time></trkpt><trkpt lat="45.1329453" lon="7.1446483"><ele>474.0</ele><time>2026-04-06T14:05:05.809Z</time></trkpt><trkpt lat="45.1330631" lon="7.1447262"><ele>474.0</ele><time>2026-04-06T14:05:06.809Z</time></trkpt><trkpt lat="45.1331808" lon="7.1448064"><ele>474.0</ele><time>2026-04-06T14:05:07.809Z</time></trkpt><trkpt lat="45.1333002" lon="7.1448879"><ele>474.0</ele><time>2026-04-06T14:05:08.81Z</time></trkpt><trkpt lat="45.1334262" lon="7.1449645"><ele>474.0</ele><time>2026-04-06T14:05:09.81Z</time></trkpt><trkpt lat="45.1335544" lon="7.1450419"><ele>471.25</ele><time>2026-04-06T14:05:10.809Z</time></trkpt><trkpt lat="45.1336792" lon="7.1451265"><ele>468.5</ele><time>2026-04-06T14:05:11.809Z</time></trkpt><trkpt lat="45.1338072" lon="7.1452172"><ele>465.75</ele><time>2026-04-06T14:05:12.81Z</time></trkpt><trkpt lat="45.133941" lon="7.1453046"><ele>463.0</ele><time>2026-04-06T14:05:13.809Z</time></trkpt><trkpt lat="45.1340708" lon="7.1453902"><ele>461.75</ele><time>2026-04-06T14:05:14.81Z</time></trkpt><trkpt lat="45.1342029" lon="7.1454772"><ele>460.5</ele><time>2026-04-06T14:05:15.81Z</time></trkpt><trkpt lat="45.1343315" lon="7.1455639"><ele>459.25</ele><time>2026-04-06T14:05:16.81Z</time></trkpt><trkpt lat="45.1344577" lon="7.1456513"><ele>458.0</ele><time>2026-04-06T14:05:17.81Z</time></trkpt><trkpt lat="45.1345844" lon="7.1457322"><ele>457.75</ele><time>2026-04-06T14:05:18.81Z</time></trkpt><trkpt lat="45.1347084" lon="7.1458149"><ele>457.5</ele><time>2026-04-06T14:05:19.81Z</time></trkpt><trkpt lat="45.1348323" lon="7.1458897"><ele>457.25</ele><time>2026-04-06T14:05:20.809Z</time></trkpt><trkpt lat="45.1349511" lon="7.1459664"><ele>457.0</ele><time>2026-04-06T14:05:21.81Z</time></trkpt><trkpt lat="45.1350623" lon="7.1460383"><ele>456.20000000000005</ele><time>2026-04-06T14:05:22.809Z</time></trkpt><trkpt lat="45.1351672" lon="7.1461077"><ele>455.40000000000003</ele><time>2026-04-06T14:05:23.809Z</time></trkpt><trkpt lat="45.1352619" lon="7.1461707"><ele>454.59999999999997</ele><time>2026-04-06T14:05:24.81Z</time></trkpt><trkpt lat="45.1353447" lon="7.1462347"><ele>453.79999999999995</ele><time>2026-04-06T14:05:25.809Z</time></trkpt><trkpt lat="45.1354098" lon="7.1463071"><ele>453.0</ele><time>2026-04-06T14:05:26.809Z</time></trkpt><trkpt lat="45.1354625" lon="7.1463848"><ele>453.0</ele><time>2026-04-06T14:05:27.809Z</time></trkpt><trkpt lat="45.1354989" lon="7.146484"><ele>452.99999999999994</ele><time>2026-04-06T14:05:28.809Z</time></trkpt><trkpt lat="45.1355346" lon="7.1466056"><ele>452.99999999999994</ele><time>2026-04-06T14:05:29.809Z</time></trkpt><trkpt lat="45.135568" lon="7.1467418"><ele>453.0</ele><time>2026-04-06T14:05:30.809Z</time></trkpt><trkpt lat="45.1355971" lon="7.1468897"><ele>453.0</ele><time>2026-04-06T14:05:31.81Z</time></trkpt><trkpt lat="45.1356102" lon="7.1470446"><ele>452.25</ele><time>2026-04-06T14:05:32.81Z</time></trkpt><trkpt lat="45.1356126" lon="7.1472089"><ele>451.5</ele><time>2026-04-06T14:05:33.809Z</time></trkpt><trkpt lat="45.1356042" lon="7.1473786"><ele>450.75</ele><time>2026-04-06T14:05:34.809Z</time></trkpt><trkpt lat="45.135597" lon="7.1475538"><ele>450.0</ele><time>2026-04-06T14:05:35.809Z</time></trkpt><trkpt lat="45.1355914" lon="7.1477327"><ele>449.75</ele><time>2026-04-06T14:05:36.809Z</time></trkpt><trkpt lat="45.1355835" lon="7.1479154"><ele>449.5</ele><time>2026-04-06T14:05:37.809Z</time></trkpt><trkpt lat="45.1355713" lon="7.148102"><ele>449.25</ele><time>2026-04-06T14:05:38.809Z</time></trkpt><trkpt lat="45.1355615" lon="7.1482897"><ele>449.0</ele><time>2026-04-06T14:05:39.81Z</time></trkpt><trkpt lat="45.1355537" lon="7.1484823"><ele>448.0</ele><time>2026-04-06T14:05:40.809Z</time></trkpt><trkpt lat="45.1355424" lon="7.1486795"><ele>447.0</ele><time>2026-04-06T14:05:41.81Z</time></trkpt><trkpt lat="45.1355317" lon="7.1488765"><ele>446.0</ele><time>2026-04-06T14:05:42.809Z</time></trkpt><trkpt lat="45.1355237" lon="7.1490746"><ele>445.0</ele><time>2026-04-06T14:05:43.809Z</time></trkpt><trkpt lat="45.1355165" lon="7.149265"><ele>444.75</ele><time>2026-04-06T14:05:44.809Z</time></trkpt><trkpt lat="45.1355087" lon="7.149449"><ele>444.5</ele><time>2026-04-06T14:05:45.81Z</time></trkpt><trkpt lat="45.1355007" lon="7.1496242"><ele>444.25</ele><time>2026-04-06T14:05:46.809Z</time></trkpt><trkpt lat="45.1354926" lon="7.1497826"><ele>444.0</ele><time>2026-04-06T14:05:47.809Z</time></trkpt><trkpt lat="45.1354843" lon="7.1499224"><ele>443.0</ele><time>2026-04-06T14:05:48.809Z</time></trkpt><trkpt lat="45.1354665" lon="7.15005"><ele>443.0</ele><time>2026-04-06T14:05:49.809Z</time></trkpt><trkpt lat="45.135444" lon="7.1501512"><ele>443.0</ele><time>2026-04-06T14:05:50.81Z</time></trkpt><trkpt lat="45.1354089" lon="7.150232"><ele>443.0</ele><time>2026-04-06T14:05:51.81Z</time></trkpt><trkpt lat="45.1353603" lon="7.1503414"><ele>443.0</ele><time>2026-04-06T14:05:53.809Z</time></trkpt></trkseg><trkseg><trkpt lat="45.1353685" lon="7.1505188"><ele>442.99999999999994</ele><time>2026-04-06T14:19:24.806Z</time></trkpt><trkpt lat="45.1353414" lon="7.1506224"><ele>443.0</ele><time>2026-04-06T14:19:26.806Z</time></trkpt><trkpt lat="45.1353067" lon="7.1507216"><ele>443.0</ele><time>2026-04-06T14:19:28.806Z</time></trkpt><trkpt lat="45.1352826" lon="7.1508326"><ele>443.0</ele><time>2026-04-06T14:19:30.806Z</time></trkpt><trkpt lat="45.1352932" lon="7.1509324"><ele>442.99999999999994</ele><time>2026-04-06T14:19:32.807Z</time></trkpt><trkpt lat="45.1353515" lon="7.1509822"><ele>443.0</ele><time>2026-04-06T14:19:35.805Z</time></trkpt><trkpt lat="45.13542" lon="7.1510344"><ele>442.99999999999994</ele><time>2026-04-06T14:19:45.805Z</time></trkpt><trkpt lat="45.1354382" lon="7.1511695"><ele>443.0</ele><time>2026-04-06T14:19:47.805Z</time></trkpt><trkpt lat="45.1354336" lon="7.1512626"><ele>443.0</ele><time>2026-04-06T14:19:48.806Z</time></trkpt><trkpt lat="45.1354261" lon="7.1513696"><ele>443.0</ele><time>2026-04-06T14:19:49.806Z</time></trkpt><trkpt lat="45.1354136" lon="7.1514848"><ele>442.99999999999994</ele><time>2026-04-06T14:19:50.807Z</time></trkpt><trkpt lat="45.1354059" lon="7.1516054"><ele>443.0</ele><time>2026-04-06T14:19:51.806Z</time></trkpt><trkpt lat="45.1353977" lon="7.1517292"><ele>442.49999999999994</ele><time>2026-04-06T14:19:52.806Z</time></trkpt><trkpt lat="45.1353859" lon="7.1518527"><ele>442.0</ele><time>2026-04-06T14:19:53.805Z</time></trkpt><trkpt lat="45.1353651" lon="7.1519757"><ele>441.5</ele><time>2026-04-06T14:19:54.805Z</time></trkpt><trkpt lat="45.1353318" lon="7.1520989"><ele>441.0</ele><time>2026-04-06T14:19:55.806Z</time></trkpt><trkpt lat="45.1352799" lon="7.1521925"><ele>440.49999999999994</ele><time>2026-04-06T14:19:56.806Z</time></trkpt><trkpt lat="45.135221" lon="7.1522733"><ele>440.0</ele><time>2026-04-06T14:19:57.807Z</time></trkpt><trkpt lat="45.1351794" lon="7.1523745"><ele>439.85714285714283</ele><time>2026-04-06T14:19:58.806Z</time></trkpt><trkpt lat="45.135172" lon="7.1524847"><ele>439.7142857142857</ele><time>2026-04-06T14:19:59.806Z</time></trkpt><trkpt lat="45.1352017" lon="7.1525892"><ele>439.57142857142856</ele><time>2026-04-06T14:20:00.806Z</time></trkpt><trkpt lat="45.1352592" lon="7.1526609"><ele>439.42857142857144</ele><time>2026-04-06T14:20:01.805Z</time></trkpt><trkpt lat="45.1353285" lon="7.1526763"><ele>439.2857142857143</ele><time>2026-04-06T14:20:02.806Z</time></trkpt><trkpt lat="45.1353936" lon="7.1526404"><ele>439.1428571428571</ele><time>2026-04-06T14:20:03.806Z</time></trkpt><trkpt lat="45.1354562" lon="7.1525893"><ele>439.0</ele><time>2026-04-06T14:20:04.806Z</time></trkpt><trkpt lat="45.1355203" lon="7.1525461"><ele>439.0</ele><time>2026-04-06T14:20:05.806Z</time></trkpt><trkpt lat="45.1355884" lon="7.1525115"><ele>439.0</ele><time>2026-04-06T14:20:06.806Z</time></trkpt><trkpt lat="45.1356573" lon="7.1524806"><ele>439.0</ele><time>2026-04-06T14:20:07.805Z</time></trkpt><trkpt lat="45.1357245" lon="7.1524557"><ele>439.0</ele><time>2026-04-06T14:20:08.805Z</time></trkpt><trkpt lat="45.1357922" lon="7.1524302"><ele>439.0</ele><time>2026-04-06T14:20:09.806Z</time></trkpt><trkpt lat="45.135858" lon="7.1524038"><ele>439.0</ele><time>2026-04-06T14:20:10.806Z</time></trkpt><trkpt lat="45.1359197" lon="7.1523815"><ele>439.0</ele><time>2026-04-06T14:20:11.804Z</time></trkpt><trkpt lat="45.1359806" lon="7.1523573"><ele>439.0</ele><time>2026-04-06T14:20:12.805Z</time></trkpt><trkpt lat="45.1360939" lon="7.1523044"><ele>439.0</ele><time>2026-04-06T14:20:14.804Z</time></trkpt><trkpt lat="45.1361942" lon="7.152216"><ele>439.0</ele><time>2026-04-06T14:20:16.804Z</time></trkpt><trkpt lat="45.1362608" lon="7.1521031"><ele>439.0</ele><time>2026-04-06T14:20:18.804Z</time></trkpt><trkpt lat="45.1363269" lon="7.1519713"><ele>439.00000000000006</ele><time>2026-04-06T14:20:20.805Z</time></trkpt><trkpt lat="45.1363996" lon="7.1518432"><ele>439.0</ele><time>2026-04-06T14:20:22.805Z</time></trkpt><trkpt lat="45.1364392" lon="7.1517705"><ele>439.0</ele><time>2026-04-06T14:20:23.805Z</time></trkpt><trkpt lat="45.1364787" lon="7.1516983"><ele>439.0</ele><time>2026-04-06T14:20:24.805Z</time></trkpt><trkpt lat="45.1365903" lon="7.1516351"><ele>439.00000000000006</ele><time>2026-04-06T14:20:26.805Z</time></trkpt><trkpt lat="45.1366567" lon="7.1516564"><ele>439.0</ele><time>2026-04-06T14:20:27.805Z</time></trkpt><trkpt lat="45.1367241" lon="7.1517022"><ele>438.50000000000006</ele><time>2026-04-06T14:20:28.805Z</time></trkpt><trkpt lat="45.1367962" lon="7.1517485"><ele>438.0</ele><time>2026-04-06T14:20:29.806Z</time></trkpt><trkpt lat="45.1368673" lon="7.1517839"><ele>437.5</ele><time>2026-04-06T14:20:30.804Z</time></trkpt><trkpt lat="45.1369372" lon="7.151807"><ele>437.0</ele><time>2026-04-06T14:20:31.804Z</time></trkpt><trkpt lat="45.1370088" lon="7.1518239"><ele>436.50000000000006</ele><time>2026-04-06T14:20:32.805Z</time></trkpt><trkpt lat="45.137089" lon="7.1518436"><ele>436.0</ele><time>2026-04-06T14:20:33.805Z</time></trkpt><trkpt lat="45.1371778" lon="7.1518624"><ele>436.00000000000006</ele><time>2026-04-06T14:20:34.805Z</time></trkpt><trkpt lat="45.1372622" lon="7.1518783"><ele>436.0</ele><time>2026-04-06T14:20:35.805Z</time></trkpt><trkpt lat="45.1373485" lon="7.151896"><ele>436.0</ele><time>2026-04-06T14:20:36.804Z</time></trkpt><trkpt lat="45.1374369" lon="7.1519078"><ele>436.0</ele><time>2026-04-06T14:20:37.804Z</time></trkpt><trkpt lat="45.1375175" lon="7.1519266"><ele>436.00000000000006</ele><time>2026-04-06T14:20:38.804Z</time></trkpt><trkpt lat="45.1375949" lon="7.1519378"><ele>436.0</ele><time>2026-04-06T14:20:39.804Z</time></trkpt><trkpt lat="45.1376658" lon="7.1519467"><ele>435.1666666666667</ele><time>2026-04-06T14:20:40.805Z</time></trkpt><trkpt lat="45.1377372" lon="7.1519553"><ele>434.33333333333337</ele><time>2026-04-06T14:20:41.805Z</time></trkpt><trkpt lat="45.1378092" lon="7.1519593"><ele>433.5</ele><time>2026-04-06T14:20:42.805Z</time></trkpt><trkpt lat="45.1378803" lon="7.1519647"><ele>432.66666666666663</ele><time>2026-04-06T14:20:43.805Z</time></trkpt><trkpt lat="45.1380006" lon="7.1519646"><ele>431.8333333333333</ele><time>2026-04-06T14:20:45.804Z</time></trkpt><trkpt lat="45.1381068" lon="7.1519635"><ele>431.0</ele><time>2026-04-06T14:20:47.805Z</time></trkpt><trkpt lat="45.1381833" lon="7.1519678"><ele>431.66666666666663</ele><time>2026-04-06T14:20:49.804Z</time></trkpt><trkpt lat="45.1382684" lon="7.1519629"><ele>432.3333333333333</ele><time>2026-04-06T14:20:52.805Z</time></trkpt><trkpt lat="45.1383516" lon="7.1519168"><ele>433.0</ele><time>2026-04-06T14:21:37.805Z</time></trkpt><trkpt lat="45.1384143" lon="7.1519298"><ele>433.66666666666663</ele><time>2026-04-06T14:21:39.804Z</time></trkpt><trkpt lat="45.1384503" lon="7.1520788"><ele>434.3333333333333</ele><time>2026-04-06T14:21:41.804Z</time></trkpt><trkpt lat="45.1384358" lon="7.1521776"><ele>435.0</ele><time>2026-04-06T14:21:42.805Z</time></trkpt><trkpt lat="45.1384184" lon="7.1522987"><ele>434.75</ele><time>2026-04-06T14:21:43.805Z</time></trkpt><trkpt lat="45.1384068" lon="7.1524402"><ele>434.5</ele><time>2026-04-06T14:21:44.805Z</time></trkpt><trkpt lat="45.1383969" lon="7.1526006"><ele>434.25</ele><time>2026-04-06T14:21:45.805Z</time></trkpt><trkpt lat="45.1383799" lon="7.1527679"><ele>434.0</ele><time>2026-04-06T14:21:46.805Z</time></trkpt><trkpt lat="45.1383621" lon="7.1529405"><ele>434.0</ele><time>2026-04-06T14:21:47.804Z</time></trkpt><trkpt lat="45.1383417" lon="7.1531228"><ele>434.0</ele><time>2026-04-06T14:21:48.805Z</time></trkpt><trkpt lat="45.1383158" lon="7.1533109"><ele>434.0</ele><time>2026-04-06T14:21:49.805Z</time></trkpt><trkpt lat="45.1382935" lon="7.1534991"><ele>434.0</ele><time>2026-04-06T14:21:50.805Z</time></trkpt><trkpt lat="45.1382707" lon="7.1536914"><ele>434.0</ele><time>2026-04-06T14:21:51.804Z</time></trkpt><trkpt lat="45.1382517" lon="7.153872"><ele>434.0</ele><time>2026-04-06T14:21:52.804Z</time></trkpt><trkpt lat="45.1382301" lon="7.1540525"><ele>434.0</ele><time>2026-04-06T14:21:53.804Z</time></trkpt><trkpt lat="45.1382103" lon="7.1542306"><ele>434.0</ele><time>2026-04-06T14:21:54.804Z</time></trkpt><trkpt lat="45.1381891" lon="7.1544063"><ele>433.75</ele><time>2026-04-06T14:21:55.805Z</time></trkpt><trkpt lat="45.1381714" lon="7.1545831"><ele>433.5</ele><time>2026-04-06T14:21:56.805Z</time></trkpt><trkpt lat="45.1381502" lon="7.1547616"><ele>433.25</ele><time>2026-04-06T14:21:57.805Z</time></trkpt><trkpt lat="45.1381291" lon="7.1549429"><ele>433.0</ele><time>2026-04-06T14:21:58.805Z</time></trkpt><trkpt lat="45.1381091" lon="7.155128"><ele>433.0</ele><time>2026-04-06T14:21:59.805Z</time></trkpt><trkpt lat="45.1380909" lon="7.1553174"><ele>433.0</ele><time>2026-04-06T14:22:00.805Z</time></trkpt><trkpt lat="45.1380699" lon="7.1555071"><ele>433.0</ele><time>2026-04-06T14:22:01.804Z</time></trkpt><trkpt lat="45.1380463" lon="7.1557048"><ele>433.0</ele><time>2026-04-06T14:22:02.805Z</time></trkpt><trkpt lat="45.138024" lon="7.1559048"><ele>433.0</ele><time>2026-04-06T14:22:03.804Z</time></trkpt><trkpt lat="45.1380007" lon="7.1561089"><ele>433.0</ele><time>2026-04-06T14:22:04.805Z</time></trkpt><trkpt lat="45.1379786" lon="7.156312"><ele>433.0</ele><time>2026-04-06T14:22:05.805Z</time></trkpt><trkpt lat="45.1379582" lon="7.1565171"><ele>433.0</ele><time>2026-04-06T14:22:06.805Z</time></trkpt><trkpt lat="45.1379355" lon="7.156726"><ele>432.33333333333337</ele><time>2026-04-06T14:22:07.805Z</time></trkpt><trkpt lat="45.1379118" lon="7.1569396"><ele>431.66666666666663</ele><time>2026-04-06T14:22:08.805Z</time></trkpt><trkpt lat="45.1378872" lon="7.1571561"><ele>431.0</ele><time>2026-04-06T14:22:09.805Z</time></trkpt><trkpt lat="45.1378633" lon="7.1573772"><ele>430.66666666666663</ele><time>2026-04-06T14:22:10.805Z</time></trkpt><trkpt lat="45.1378379" lon="7.1575985"><ele>430.33333333333337</ele><time>2026-04-06T14:22:11.805Z</time></trkpt><trkpt lat="45.1378095" lon="7.1578239"><ele>430.0</ele><time>2026-04-06T14:22:12.805Z</time></trkpt><trkpt lat="45.1377816" lon="7.1580495"><ele>430.0</ele><time>2026-04-06T14:22:13.805Z</time></trkpt><trkpt lat="45.1377578" lon="7.1582819"><ele>430.0</ele><time>2026-04-06T14:22:14.805Z</time></trkpt><trkpt lat="45.1377363" lon="7.1585143"><ele>430.0</ele><time>2026-04-06T14:22:15.805Z</time></trkpt><trkpt lat="45.1377101" lon="7.1587415"><ele>430.0</ele><time>2026-04-06T14:22:16.804Z</time></trkpt><trkpt lat="45.1376839" lon="7.1589632"><ele>430.0</ele><time>2026-04-06T14:22:17.805Z</time></trkpt><trkpt lat="45.1376593" lon="7.1591683"><ele>430.0</ele><time>2026-04-06T14:22:18.805Z</time></trkpt><trkpt lat="45.1376393" lon="7.1593583"><ele>430.0</ele><time>2026-04-06T14:22:19.804Z</time></trkpt><trkpt lat="45.1376221" lon="7.159536"><ele>430.0</ele><time>2026-04-06T14:22:20.804Z</time></trkpt><trkpt lat="45.137604" lon="7.1597078"><ele>430.0</ele><time>2026-04-06T14:22:21.805Z</time></trkpt><trkpt lat="45.1375856" lon="7.159877"><ele>430.0</ele><time>2026-04-06T14:22:22.806Z</time></trkpt><trkpt lat="45.1375651" lon="7.160055"><ele>430.0</ele><time>2026-04-06T14:22:23.805Z</time></trkpt><trkpt lat="45.1375458" lon="7.1602352"><ele>430.0</ele><time>2026-04-06T14:22:24.805Z</time></trkpt><trkpt lat="45.1375261" lon="7.1604195"><ele>430.0</ele><time>2026-04-06T14:22:25.805Z</time></trkpt><trkpt lat="45.1375023" lon="7.1606012"><ele>430.0</ele><time>2026-04-06T14:22:26.804Z</time></trkpt><trkpt lat="45.1374816" lon="7.1607793"><ele>430.0</ele><time>2026-04-06T14:22:27.805Z</time></trkpt><trkpt lat="45.1374645" lon="7.1609467"><ele>430.4</ele><time>2026-04-06T14:22:28.805Z</time></trkpt><trkpt lat="45.137446" lon="7.1611004"><ele>430.8</ele><time>2026-04-06T14:22:29.804Z</time></trkpt><trkpt lat="45.1374296" lon="7.1612367"><ele>431.20000000000005</ele><time>2026-04-06T14:22:30.805Z</time></trkpt><trkpt lat="45.1374141" lon="7.1613658"><ele>431.6</ele><time>2026-04-06T14:22:31.806Z</time></trkpt><trkpt lat="45.1373996" lon="7.1614791"><ele>432.0</ele><time>2026-04-06T14:22:32.805Z</time></trkpt><trkpt lat="45.1373915" lon="7.1615834"><ele>432.1666666666667</ele><time>2026-04-06T14:22:33.805Z</time></trkpt><trkpt lat="45.1373998" lon="7.1616836"><ele>432.33333333333337</ele><time>2026-04-06T14:22:34.805Z</time></trkpt><trkpt lat="45.1374396" lon="7.1617697"><ele>432.5</ele><time>2026-04-06T14:22:35.805Z</time></trkpt><trkpt lat="45.1375067" lon="7.1618351"><ele>432.6666666666667</ele><time>2026-04-06T14:22:36.804Z</time></trkpt><trkpt lat="45.1375887" lon="7.1618849"><ele>432.83333333333337</ele><time>2026-04-06T14:22:37.805Z</time></trkpt><trkpt lat="45.1376805" lon="7.1619401"><ele>433.0</ele><time>2026-04-06T14:22:38.805Z</time></trkpt><trkpt lat="45.1377677" lon="7.1620253"><ele>433.0</ele><time>2026-04-06T14:22:39.806Z</time></trkpt><trkpt lat="45.1378405" lon="7.162118"><ele>432.99999999999994</ele><time>2026-04-06T14:22:40.804Z</time></trkpt><trkpt lat="45.1379205" lon="7.1622027"><ele>432.99999999999994</ele><time>2026-04-06T14:22:41.806Z</time></trkpt><trkpt lat="45.1380031" lon="7.1622875"><ele>433.0</ele><time>2026-04-06T14:22:42.804Z</time></trkpt><trkpt lat="45.138105" lon="7.1623022"><ele>433.0</ele><time>2026-04-06T14:22:43.805Z</time></trkpt><trkpt lat="45.1382466" lon="7.1623597"><ele>433.75</ele><time>2026-04-06T14:22:44.805Z</time></trkpt><trkpt lat="45.1383546" lon="7.1624363"><ele>434.5</ele><time>2026-04-06T14:22:45.805Z</time></trkpt><trkpt lat="45.1384757" lon="7.162532"><ele>435.25</ele><time>2026-04-06T14:22:46.805Z</time></trkpt><trkpt lat="45.1385999" lon="7.1626289"><ele>436.0</ele><time>2026-04-06T14:22:47.805Z</time></trkpt><trkpt lat="45.1387272" lon="7.162724"><ele>436.0</ele><time>2026-04-06T14:22:48.805Z</time></trkpt><trkpt lat="45.1388569" lon="7.162811"><ele>436.0</ele><time>2026-04-06T14:22:49.805Z</time></trkpt><trkpt lat="45.138988" lon="7.1629001"><ele>436.0</ele><time>2026-04-06T14:22:50.804Z</time></trkpt><trkpt lat="45.1391134" lon="7.1629886"><ele>436.0</ele><time>2026-04-06T14:22:51.804Z</time></trkpt><trkpt lat="45.1392228" lon="7.1630897"><ele>437.0</ele><time>2026-04-06T14:22:52.805Z</time></trkpt><trkpt lat="45.1393139" lon="7.1632172"><ele>438.0</ele><time>2026-04-06T14:22:53.804Z</time></trkpt><trkpt lat="45.1393558" lon="7.1633818"><ele>439.0</ele><time>2026-04-06T14:22:54.805Z</time></trkpt><trkpt lat="45.1394" lon="7.1635502"><ele>440.0</ele><time>2026-04-06T14:22:55.805Z</time></trkpt><trkpt lat="45.1394656" lon="7.1637138"><ele>440.0</ele><time>2026-04-06T14:22:56.805Z</time></trkpt><trkpt lat="45.1395587" lon="7.1638701"><ele>440.0</ele><time>2026-04-06T14:22:57.804Z</time></trkpt><trkpt lat="45.1396599" lon="7.1640234"><ele>440.0</ele><time>2026-04-06T14:22:58.805Z</time></trkpt><trkpt lat="45.1397625" lon="7.1641861"><ele>440.0</ele><time>2026-04-06T14:22:59.804Z</time></trkpt><trkpt lat="45.1398695" lon="7.1643421"><ele>442.0</ele><time>2026-04-06T14:23:00.804Z</time></trkpt><trkpt lat="45.1399868" lon="7.1645012"><ele>444.0</ele><time>2026-04-06T14:23:01.805Z</time></trkpt><trkpt lat="45.1401063" lon="7.1646676"><ele>446.0</ele><time>2026-04-06T14:23:02.805Z</time></trkpt><trkpt lat="45.140232" lon="7.1648411"><ele>446.66666666666663</ele><time>2026-04-06T14:23:03.804Z</time></trkpt><trkpt lat="45.1403632" lon="7.1650181"><ele>447.33333333333337</ele><time>2026-04-06T14:23:04.805Z</time></trkpt><trkpt lat="45.1404906" lon="7.1651885"><ele>448.0</ele><time>2026-04-06T14:23:05.805Z</time></trkpt><trkpt lat="45.1406206" lon="7.1653525"><ele>449.33333333333337</ele><time>2026-04-06T14:23:06.805Z</time></trkpt><trkpt lat="45.1407542" lon="7.1655094"><ele>450.66666666666663</ele><time>2026-04-06T14:23:07.804Z</time></trkpt><trkpt lat="45.1408851" lon="7.1656598"><ele>452.0</ele><time>2026-04-06T14:23:08.805Z</time></trkpt><trkpt lat="45.1410121" lon="7.1657933"><ele>453.0</ele><time>2026-04-06T14:23:09.804Z</time></trkpt><trkpt lat="45.1411287" lon="7.1659105"><ele>454.0</ele><time>2026-04-06T14:23:10.805Z</time></trkpt><trkpt lat="45.1412297" lon="7.166011"><ele>455.0</ele><time>2026-04-06T14:23:11.805Z</time></trkpt><trkpt lat="45.1413214" lon="7.166102"><ele>456.0</ele><time>2026-04-06T14:23:12.804Z</time></trkpt><trkpt lat="45.1413956" lon="7.1662019"><ele>456.0</ele><time>2026-04-06T14:23:13.805Z</time></trkpt><trkpt lat="45.1414449" lon="7.1663359"><ele>456.0</ele><time>2026-04-06T14:23:14.805Z</time></trkpt><trkpt lat="45.141468" lon="7.1664933"><ele>456.0</ele><time>2026-04-06T14:23:15.805Z</time></trkpt><trkpt lat="45.1414879" lon="7.1666622"><ele>456.0</ele><time>2026-04-06T14:23:16.804Z</time></trkpt><trkpt lat="45.1415123" lon="7.166835"><ele>459.25</ele><time>2026-04-06T14:23:17.804Z</time></trkpt><trkpt lat="45.1415563" lon="7.1670075"><ele>462.5</ele><time>2026-04-06T14:23:18.804Z</time></trkpt><trkpt lat="45.1416355" lon="7.167162"><ele>465.75</ele><time>2026-04-06T14:23:19.804Z</time></trkpt><trkpt lat="45.1417432" lon="7.1672868"><ele>469.0</ele><time>2026-04-06T14:23:20.804Z</time></trkpt><trkpt lat="45.1418709" lon="7.1673878"><ele>469.25</ele><time>2026-04-06T14:23:21.805Z</time></trkpt><trkpt lat="45.1419987" lon="7.1674807"><ele>469.5</ele><time>2026-04-06T14:23:22.806Z</time></trkpt><trkpt lat="45.142125" lon="7.1675705"><ele>469.75</ele><time>2026-04-06T14:23:23.805Z</time></trkpt><trkpt lat="45.1422533" lon="7.1676611"><ele>470.0</ele><time>2026-04-06T14:23:24.804Z</time></trkpt><trkpt lat="45.1423795" lon="7.1677489"><ele>472.0</ele><time>2026-04-06T14:23:25.804Z</time></trkpt><trkpt lat="45.1425074" lon="7.1678358"><ele>474.0</ele><time>2026-04-06T14:23:26.805Z</time></trkpt><trkpt lat="45.1426332" lon="7.1679251"><ele>476.0</ele><time>2026-04-06T14:23:27.805Z</time></trkpt><trkpt lat="45.1427564" lon="7.1680149"><ele>478.0</ele><time>2026-04-06T14:23:28.804Z</time></trkpt><trkpt lat="45.1428854" lon="7.1681038"><ele>478.0</ele><time>2026-04-06T14:23:29.804Z</time></trkpt><trkpt lat="45.1430145" lon="7.1681903"><ele>478.0</ele><time>2026-04-06T14:23:30.804Z</time></trkpt><trkpt lat="45.1431447" lon="7.1682805"><ele>478.0</ele><time>2026-04-06T14:23:31.804Z</time></trkpt><trkpt lat="45.1432748" lon="7.1683677"><ele>478.0</ele><time>2026-04-06T14:23:32.804Z</time></trkpt><trkpt lat="45.1434039" lon="7.168455"><ele>481.0</ele><time>2026-04-06T14:23:33.804Z</time></trkpt><trkpt lat="45.1435185" lon="7.16853"><ele>484.0</ele><time>2026-04-06T14:23:34.803Z</time></trkpt><trkpt lat="45.1436392" lon="7.1685708"><ele>487.0</ele><time>2026-04-06T14:23:35.804Z</time></trkpt><trkpt lat="45.1437685" lon="7.1685643"><ele>490.0</ele><time>2026-04-06T14:23:36.804Z</time></trkpt><trkpt lat="45.1438927" lon="7.1685377"><ele>490.0</ele><time>2026-04-06T14:23:37.803Z</time></trkpt><trkpt lat="45.1440139" lon="7.1685125"><ele>490.0</ele><time>2026-04-06T14:23:38.804Z</time></trkpt><trkpt lat="45.1441308" lon="7.1684984"><ele>490.0</ele><time>2026-04-06T14:23:39.804Z</time></trkpt><trkpt lat="45.1442487" lon="7.1685011"><ele>490.0</ele><time>2026-04-06T14:23:40.804Z</time></trkpt><trkpt lat="45.1443604" lon="7.1685483"><ele>492.0</ele><time>2026-04-06T14:23:41.804Z</time></trkpt><trkpt lat="45.1444565" lon="7.1686468"><ele>494.0</ele><time>2026-04-06T14:23:42.804Z</time></trkpt><trkpt lat="45.1445414" lon="7.1687747"><ele>496.0</ele><time>2026-04-06T14:23:43.803Z</time></trkpt><trkpt lat="45.1446207" lon="7.1689158"><ele>498.0</ele><time>2026-04-06T14:23:44.803Z</time></trkpt><trkpt lat="45.144705" lon="7.1690418"><ele>498.75</ele><time>2026-04-06T14:23:45.805Z</time></trkpt><trkpt lat="45.14481" lon="7.1691388"><ele>499.5</ele><time>2026-04-06T14:23:46.804Z</time></trkpt><trkpt lat="45.1449292" lon="7.1692001"><ele>500.25</ele><time>2026-04-06T14:23:47.804Z</time></trkpt><trkpt lat="45.1450537" lon="7.1692378"><ele>501.0</ele><time>2026-04-06T14:23:48.803Z</time></trkpt><trkpt lat="45.1451822" lon="7.1692694"><ele>503.75</ele><time>2026-04-06T14:23:49.803Z</time></trkpt><trkpt lat="45.1453132" lon="7.1692915"><ele>506.5</ele><time>2026-04-06T14:23:50.803Z</time></trkpt><trkpt lat="45.1454446" lon="7.1693126"><ele>509.25</ele><time>2026-04-06T14:23:51.804Z</time></trkpt><trkpt lat="45.1455805" lon="7.1693345"><ele>512.0</ele><time>2026-04-06T14:23:52.804Z</time></trkpt><trkpt lat="45.1457212" lon="7.1693528"><ele>513.75</ele><time>2026-04-06T14:23:53.804Z</time></trkpt><trkpt lat="45.1458669" lon="7.1693669"><ele>515.5</ele><time>2026-04-06T14:23:54.804Z</time></trkpt><trkpt lat="45.1460148" lon="7.1693831"><ele>517.25</ele><time>2026-04-06T14:23:55.803Z</time></trkpt><trkpt lat="45.1461651" lon="7.1694039"><ele>519.0</ele><time>2026-04-06T14:23:56.803Z</time></trkpt><trkpt lat="45.1463198" lon="7.169421"><ele>519.0</ele><time>2026-04-06T14:23:57.804Z</time></trkpt><trkpt lat="45.146476" lon="7.1694264"><ele>519.0</ele><time>2026-04-06T14:23:58.804Z</time></trkpt><trkpt lat="45.1466309" lon="7.1694392"><ele>519.0</ele><time>2026-04-06T14:23:59.804Z</time></trkpt><trkpt lat="45.1467785" lon="7.1694543"><ele>520.8</ele><time>2026-04-06T14:24:00.804Z</time></trkpt><trkpt lat="45.1469064" lon="7.1694696"><ele>522.5999999999999</ele><time>2026-04-06T14:24:01.803Z</time></trkpt><trkpt lat="45.1470205" lon="7.1694817"><ele>524.4</ele><time>2026-04-06T14:24:02.803Z</time></trkpt><trkpt lat="45.147122" lon="7.1694842"><ele>526.1999999999999</ele><time>2026-04-06T14:24:03.803Z</time></trkpt><trkpt lat="45.1472194" lon="7.1694798"><ele>528.0</ele><time>2026-04-06T14:24:04.804Z</time></trkpt><trkpt lat="45.1473183" lon="7.1694719"><ele>530.0</ele><time>2026-04-06T14:24:05.804Z</time></trkpt><trkpt lat="45.1474182" lon="7.1694559"><ele>532.0</ele><time>2026-04-06T14:24:06.804Z</time></trkpt><trkpt lat="45.1475207" lon="7.16943"><ele>534.0</ele><time>2026-04-06T14:24:07.803Z</time></trkpt><trkpt lat="45.1476213" lon="7.1693991"><ele>536.0</ele><time>2026-04-06T14:24:08.804Z</time></trkpt><trkpt lat="45.1477199" lon="7.1693622"><ele>538.0</ele><time>2026-04-06T14:24:09.804Z</time></trkpt><trkpt lat="45.1478139" lon="7.1693201"><ele>538.0</ele><time>2026-04-06T14:24:10.804Z</time></trkpt><trkpt lat="45.1478921" lon="7.1692841"><ele>538.0</ele><time>2026-04-06T14:24:11.804Z</time></trkpt><trkpt lat="45.1479578" lon="7.1692524"><ele>538.0</ele><time>2026-04-06T14:24:12.804Z</time></trkpt><trkpt lat="45.1480462" lon="7.1692053"><ele>538.0</ele><time>2026-04-06T14:24:14.804Z</time></trkpt><trkpt lat="45.1481127" lon="7.1691551"><ele>538.0</ele><time>2026-04-06T14:24:16.803Z</time></trkpt><trkpt lat="45.1481552" lon="7.169057"><ele>538.0</ele><time>2026-04-06T14:24:18.803Z</time></trkpt><trkpt lat="45.1481412" lon="7.1689518"><ele>537.0</ele><time>2026-04-06T14:24:19.804Z</time></trkpt><trkpt lat="45.148116" lon="7.1688487"><ele>536.0</ele><time>2026-04-06T14:24:20.804Z</time></trkpt><trkpt lat="45.148101" lon="7.1687516"><ele>535.0</ele><time>2026-04-06T14:24:21.804Z</time></trkpt><trkpt lat="45.1480811" lon="7.1686568"><ele>534.0</ele><time>2026-04-06T14:24:22.804Z</time></trkpt><trkpt lat="45.1481497" lon="7.1685623"><ele>533.0</ele><time>2026-04-06T14:24:23.804Z</time></trkpt><trkpt lat="45.1482189" lon="7.1684864"><ele>532.0</ele><time>2026-04-06T14:24:24.804Z</time></trkpt><trkpt lat="45.1482759" lon="7.1683945"><ele>535.0</ele><time>2026-04-06T14:24:25.804Z</time></trkpt><trkpt lat="45.1483374" lon="7.1682915"><ele>538.0</ele><time>2026-04-06T14:24:26.804Z</time></trkpt><trkpt lat="45.1483747" lon="7.1681667"><ele>541.0</ele><time>2026-04-06T14:24:27.804Z</time></trkpt><trkpt lat="45.1483772" lon="7.1680355"><ele>544.0</ele><time>2026-04-06T14:24:28.804Z</time></trkpt><trkpt lat="45.1483419" lon="7.1679036"><ele>547.0</ele><time>2026-04-06T14:24:29.804Z</time></trkpt><trkpt lat="45.1482907" lon="7.1677671"><ele>547.75</ele><time>2026-04-06T14:24:30.804Z</time></trkpt><trkpt lat="45.1482314" lon="7.1676286"><ele>548.5</ele><time>2026-04-06T14:24:31.803Z</time></trkpt><trkpt lat="45.1481692" lon="7.1674802"><ele>549.25</ele><time>2026-04-06T14:24:32.803Z</time></trkpt><trkpt lat="45.1481104" lon="7.1673248"><ele>550.0</ele><time>2026-04-06T14:24:33.804Z</time></trkpt><trkpt lat="45.1480608" lon="7.1671779"><ele>546.4</ele><time>2026-04-06T14:24:34.803Z</time></trkpt><trkpt lat="45.1480301" lon="7.1670362"><ele>542.8</ele><time>2026-04-06T14:24:35.803Z</time></trkpt><trkpt lat="45.1480161" lon="7.1668851"><ele>539.2</ele><time>2026-04-06T14:24:36.804Z</time></trkpt><trkpt lat="45.1480283" lon="7.1667278"><ele>535.6</ele><time>2026-04-06T14:24:37.804Z</time></trkpt><trkpt lat="45.1480653" lon="7.1665783"><ele>532.0</ele><time>2026-04-06T14:24:38.803Z</time></trkpt><trkpt lat="45.1481151" lon="7.1664275"><ele>531.8000000000001</ele><time>2026-04-06T14:24:39.803Z</time></trkpt><trkpt lat="45.1481564" lon="7.1662684"><ele>531.6</ele><time>2026-04-06T14:24:40.805Z</time></trkpt><trkpt lat="45.1481818" lon="7.1661169"><ele>531.4000000000001</ele><time>2026-04-06T14:24:41.805Z</time></trkpt><trkpt lat="45.1481964" lon="7.1659762"><ele>531.2</ele><time>2026-04-06T14:24:42.804Z</time></trkpt><trkpt lat="45.148196" lon="7.1658502"><ele>531.0</ele><time>2026-04-06T14:24:43.803Z</time></trkpt><trkpt lat="45.1481902" lon="7.1657502"><ele>531.3333333333334</ele><time>2026-04-06T14:24:44.803Z</time></trkpt><trkpt lat="45.1482002" lon="7.1656581"><ele>531.6666666666666</ele><time>2026-04-06T14:24:45.804Z</time></trkpt><trkpt lat="45.1482796" lon="7.1655966"><ele>532.0</ele><time>2026-04-06T14:24:47.803Z</time></trkpt><trkpt lat="45.1483105" lon="7.1657692"><ele>532.3333333333333</ele><time>2026-04-06T14:24:49.804Z</time></trkpt><trkpt lat="45.1483158" lon="7.1658788"><ele>532.6666666666666</ele><time>2026-04-06T14:24:50.804Z</time></trkpt><trkpt lat="45.1483262" lon="7.1660001"><ele>533.0</ele><time>2026-04-06T14:24:51.803Z</time></trkpt><trkpt lat="45.1483357" lon="7.1661315"><ele>536.6666666666666</ele><time>2026-04-06T14:24:52.803Z</time></trkpt><trkpt lat="45.1483419" lon="7.1662668"><ele>540.3333333333333</ele><time>2026-04-06T14:24:53.803Z</time></trkpt><trkpt lat="45.1483347" lon="7.1664032"><ele>544.0</ele><time>2026-04-06T14:24:54.803Z</time></trkpt><trkpt lat="45.1483283" lon="7.1665237"><ele>547.6666666666666</ele><time>2026-04-06T14:24:55.803Z</time></trkpt><trkpt lat="45.1483432" lon="7.166618"><ele>551.3333333333334</ele><time>2026-04-06T14:24:56.805Z</time></trkpt><trkpt lat="45.1484392" lon="7.166653"><ele>555.0</ele><time>2026-04-06T14:24:58.804Z</time></trkpt><trkpt lat="45.1484858" lon="7.1664683"><ele>555.6</ele><time>2026-04-06T14:25:00.804Z</time></trkpt><trkpt lat="45.148492" lon="7.166336"><ele>556.2</ele><time>2026-04-06T14:25:01.803Z</time></trkpt><trkpt lat="45.1484984" lon="7.1661827"><ele>556.8</ele><time>2026-04-06T14:25:02.804Z</time></trkpt><trkpt lat="45.1485087" lon="7.1660177"><ele>557.4</ele><time>2026-04-06T14:25:03.804Z</time></trkpt><trkpt lat="45.1485163" lon="7.1658413"><ele>558.0</ele><time>2026-04-06T14:25:04.803Z</time></trkpt><trkpt lat="45.1485236" lon="7.1656643"><ele>558.25</ele><time>2026-04-06T14:25:05.804Z</time></trkpt><trkpt lat="45.1485277" lon="7.1654814"><ele>558.5</ele><time>2026-04-06T14:25:06.804Z</time></trkpt><trkpt lat="45.1485292" lon="7.1652956"><ele>558.75</ele><time>2026-04-06T14:25:07.804Z</time></trkpt><trkpt lat="45.1485191" lon="7.1651057"><ele>559.0</ele><time>2026-04-06T14:25:08.803Z</time></trkpt><trkpt lat="45.1484945" lon="7.1649152"><ele>558.5</ele><time>2026-04-06T14:25:09.803Z</time></trkpt><trkpt lat="45.1484979" lon="7.1647353"><ele>558.0</ele><time>2026-04-06T14:25:10.804Z</time></trkpt><trkpt lat="45.1485329" lon="7.1645544"><ele>557.5</ele><time>2026-04-06T14:25:11.804Z</time></trkpt><trkpt lat="45.1485913" lon="7.1643872"><ele>557.0</ele><time>2026-04-06T14:25:12.804Z</time></trkpt><trkpt lat="45.1486584" lon="7.1642124"><ele>557.0</ele><time>2026-04-06T14:25:13.803Z</time></trkpt><trkpt lat="45.1487236" lon="7.1640377"><ele>557.0</ele><time>2026-04-06T14:25:14.803Z</time></trkpt><trkpt lat="45.1487886" lon="7.1638753"><ele>557.0</ele><time>2026-04-06T14:25:15.804Z</time></trkpt><trkpt lat="45.1488333" lon="7.1637198"><ele>557.0</ele><time>2026-04-06T14:25:16.804Z</time></trkpt><trkpt lat="45.148846" lon="7.1635706"><ele>555.2</ele><time>2026-04-06T14:25:17.804Z</time></trkpt><trkpt lat="45.1488206" lon="7.163431"><ele>553.4000000000001</ele><time>2026-04-06T14:25:18.804Z</time></trkpt><trkpt lat="45.1487713" lon="7.163305"><ele>551.5999999999999</ele><time>2026-04-06T14:25:19.804Z</time></trkpt><trkpt lat="45.1487312" lon="7.1631924"><ele>549.8</ele><time>2026-04-06T14:25:20.804Z</time></trkpt><trkpt lat="45.1487153" lon="7.1630828"><ele>548.0</ele><time>2026-04-06T14:25:21.803Z</time></trkpt><trkpt lat="45.1487735" lon="7.1629847"><ele>548.0</ele><time>2026-04-06T14:25:23.803Z</time></trkpt><trkpt lat="45.1488372" lon="7.1630942"><ele>548.0</ele><time>2026-04-06T14:25:25.804Z</time></trkpt><trkpt lat="45.1488739" lon="7.1632029"><ele>548.0</ele><time>2026-04-06T14:25:26.804Z</time></trkpt><trkpt lat="45.1489249" lon="7.1633138"><ele>548.0</ele><time>2026-04-06T14:25:27.804Z</time></trkpt><trkpt lat="45.148992" lon="7.1634299"><ele>548.0</ele><time>2026-04-06T14:25:28.804Z</time></trkpt><trkpt lat="45.1490689" lon="7.1635544"><ele>556.25</ele><time>2026-04-06T14:25:29.803Z</time></trkpt><trkpt lat="45.1491538" lon="7.1636775"><ele>564.5</ele><time>2026-04-06T14:25:30.804Z</time></trkpt><trkpt lat="45.1492444" lon="7.1638034"><ele>572.75</ele><time>2026-04-06T14:25:31.804Z</time></trkpt><trkpt lat="45.1493425" lon="7.1639324"><ele>581.0</ele><time>2026-04-06T14:25:32.803Z</time></trkpt><trkpt lat="45.1494418" lon="7.1640725"><ele>582.5</ele><time>2026-04-06T14:25:33.804Z</time></trkpt><trkpt lat="45.1495449" lon="7.164213"><ele>584.0</ele><time>2026-04-06T14:25:34.804Z</time></trkpt><trkpt lat="45.14965" lon="7.1643463"><ele>585.5</ele><time>2026-04-06T14:25:35.804Z</time></trkpt><trkpt lat="45.1497497" lon="7.1644873"><ele>587.0</ele><time>2026-04-06T14:25:36.804Z</time></trkpt><trkpt lat="45.1498398" lon="7.1646398"><ele>590.25</ele><time>2026-04-06T14:25:37.805Z</time></trkpt><trkpt lat="45.1499128" lon="7.1648101"><ele>593.5</ele><time>2026-04-06T14:25:38.804Z</time></trkpt><trkpt lat="45.1499696" lon="7.1649936"><ele>596.75</ele><time>2026-04-06T14:25:39.804Z</time></trkpt><trkpt lat="45.150015" lon="7.1651807"><ele>600.0</ele><time>2026-04-06T14:25:40.804Z</time></trkpt><trkpt lat="45.1500486" lon="7.165368"><ele>600.0</ele><time>2026-04-06T14:25:41.803Z</time></trkpt><trkpt lat="45.1500759" lon="7.1655334"><ele>600.0</ele><time>2026-04-06T14:25:42.803Z</time></trkpt><trkpt lat="45.1501104" lon="7.1656532"><ele>600.0</ele><time>2026-04-06T14:25:43.804Z</time></trkpt><trkpt lat="45.1501675" lon="7.1657237"><ele>600.0</ele><time>2026-04-06T14:25:44.804Z</time></trkpt><trkpt lat="45.1502361" lon="7.1657206"><ele>600.0</ele><time>2026-04-06T14:25:45.804Z</time></trkpt><trkpt lat="45.1502954" lon="7.1656559"><ele>600.0</ele><time>2026-04-06T14:25:46.803Z</time></trkpt><trkpt lat="45.1503354" lon="7.1655426"><ele>600.5</ele><time>2026-04-06T14:25:47.803Z</time></trkpt><trkpt lat="45.1503723" lon="7.1654021"><ele>601.0</ele><time>2026-04-06T14:25:48.804Z</time></trkpt><trkpt lat="45.1504168" lon="7.1652384"><ele>601.5</ele><time>2026-04-06T14:25:49.804Z</time></trkpt><trkpt lat="45.1504602" lon="7.1650626"><ele>602.0</ele><time>2026-04-06T14:25:50.804Z</time></trkpt><trkpt lat="45.1505097" lon="7.1648705"><ele>601.3333333333333</ele><time>2026-04-06T14:25:51.805Z</time></trkpt><trkpt lat="45.1505676" lon="7.1646672"><ele>600.6666666666666</ele><time>2026-04-06T14:25:52.804Z</time></trkpt><trkpt lat="45.1506196" lon="7.1644587"><ele>600.0</ele><time>2026-04-06T14:25:53.804Z</time></trkpt><trkpt lat="45.150673" lon="7.16424"><ele>605.0</ele><time>2026-04-06T14:25:54.803Z</time></trkpt><trkpt lat="45.1507274" lon="7.1640112"><ele>610.0</ele><time>2026-04-06T14:25:55.803Z</time></trkpt><trkpt lat="45.1507846" lon="7.1637781"><ele>615.0</ele><time>2026-04-06T14:25:56.803Z</time></trkpt><trkpt lat="45.1508456" lon="7.1635452"><ele>615.0</ele><time>2026-04-06T14:25:57.803Z</time></trkpt><trkpt lat="45.1509099" lon="7.1633115"><ele>615.0</ele><time>2026-04-06T14:25:58.803Z</time></trkpt><trkpt lat="45.1509718" lon="7.1630797"><ele>615.0</ele><time>2026-04-06T14:25:59.803Z</time></trkpt><trkpt lat="45.1510299" lon="7.1628556"><ele>615.0</ele><time>2026-04-06T14:26:00.804Z</time></trkpt><trkpt lat="45.1510967" lon="7.1626488"><ele>615.0</ele><time>2026-04-06T14:26:01.804Z</time></trkpt><trkpt lat="45.151191" lon="7.1624609"><ele>615.0</ele><time>2026-04-06T14:26:02.804Z</time></trkpt><trkpt lat="45.1512945" lon="7.1622857"><ele>615.0</ele><time>2026-04-06T14:26:03.803Z</time></trkpt><trkpt lat="45.1513814" lon="7.1621183"><ele>615.0</ele><time>2026-04-06T14:26:04.803Z</time></trkpt><trkpt lat="45.1514502" lon="7.1619489"><ele>615.0</ele><time>2026-04-06T14:26:05.804Z</time></trkpt><trkpt lat="45.151508" lon="7.1617938"><ele>615.0</ele><time>2026-04-06T14:26:06.804Z</time></trkpt><trkpt lat="45.1515573" lon="7.1616285"><ele>621.25</ele><time>2026-04-06T14:26:07.804Z</time></trkpt><trkpt lat="45.1516034" lon="7.1614631"><ele>627.5</ele><time>2026-04-06T14:26:08.803Z</time></trkpt><trkpt lat="45.1516437" lon="7.1613126"><ele>633.75</ele><time>2026-04-06T14:26:09.803Z</time></trkpt><trkpt lat="45.1516616" lon="7.1611569"><ele>640.0</ele><time>2026-04-06T14:26:10.803Z</time></trkpt><trkpt lat="45.1516404" lon="7.161014"><ele>640.0</ele><time>2026-04-06T14:26:11.803Z</time></trkpt><trkpt lat="45.1515972" lon="7.1608821"><ele>640.0</ele><time>2026-04-06T14:26:12.804Z</time></trkpt><trkpt lat="45.1515359" lon="7.1607724"><ele>640.0</ele><time>2026-04-06T14:26:13.804Z</time></trkpt><trkpt lat="45.1514678" lon="7.1606698"><ele>640.0</ele><time>2026-04-06T14:26:14.804Z</time></trkpt><trkpt lat="45.1514066" lon="7.1605905"><ele>640.0</ele><time>2026-04-06T14:26:15.804Z</time></trkpt><trkpt lat="45.1513578" lon="7.16053"><ele>640.0</ele><time>2026-04-06T14:26:16.803Z</time></trkpt><trkpt lat="45.1513436" lon="7.1603921"><ele>640.6</ele><time>2026-04-06T14:26:18.804Z</time></trkpt><trkpt lat="45.1514401" lon="7.1603956"><ele>641.2</ele><time>2026-04-06T14:26:20.804Z</time></trkpt><trkpt lat="45.1514994" lon="7.1604578"><ele>641.8</ele><time>2026-04-06T14:26:21.804Z</time></trkpt><trkpt lat="45.1515794" lon="7.1605253"><ele>642.4</ele><time>2026-04-06T14:26:22.803Z</time></trkpt><trkpt lat="45.1516679" lon="7.1605985"><ele>643.0</ele><time>2026-04-06T14:26:23.803Z</time></trkpt><trkpt lat="45.1517681" lon="7.1606729"><ele>642.25</ele><time>2026-04-06T14:26:24.803Z</time></trkpt><trkpt lat="45.1518562" lon="7.1607673"><ele>641.5</ele><time>2026-04-06T14:26:25.803Z</time></trkpt><trkpt lat="45.1519389" lon="7.1608624"><ele>640.75</ele><time>2026-04-06T14:26:26.803Z</time></trkpt><trkpt lat="45.1520115" lon="7.1609942"><ele>640.0</ele><time>2026-04-06T14:26:27.804Z</time></trkpt><trkpt lat="45.1520198" lon="7.1611891"><ele>640.0</ele><time>2026-04-06T14:26:28.803Z</time></trkpt><trkpt lat="45.1520609" lon="7.1613522"><ele>640.0</ele><time>2026-04-06T14:26:29.804Z</time></trkpt><trkpt lat="45.1520971" lon="7.1615217"><ele>640.0</ele><time>2026-04-06T14:26:30.804Z</time></trkpt><trkpt lat="45.1521275" lon="7.1616984"><ele>640.0</ele><time>2026-04-06T14:26:31.805Z</time></trkpt><trkpt lat="45.1521424" lon="7.1618778"><ele>640.25</ele><time>2026-04-06T14:26:32.805Z</time></trkpt><trkpt lat="45.1521293" lon="7.1620569"><ele>640.5</ele><time>2026-04-06T14:26:33.804Z</time></trkpt><trkpt lat="45.1520877" lon="7.1622301"><ele>640.75</ele><time>2026-04-06T14:26:34.803Z</time></trkpt><trkpt lat="45.1520247" lon="7.1623881"><ele>641.0</ele><time>2026-04-06T14:26:35.803Z</time></trkpt><trkpt lat="45.1519723" lon="7.1625426"><ele>642.0</ele><time>2026-04-06T14:26:36.804Z</time></trkpt><trkpt lat="45.1519407" lon="7.1627081"><ele>643.0</ele><time>2026-04-06T14:26:37.804Z</time></trkpt><trkpt lat="45.1519241" lon="7.1628822"><ele>644.0</ele><time>2026-04-06T14:26:38.804Z</time></trkpt><trkpt lat="45.15191" lon="7.1630679"><ele>645.0</ele><time>2026-04-06T14:26:39.804Z</time></trkpt><trkpt lat="45.1519123" lon="7.1632573"><ele>647.25</ele><time>2026-04-06T14:26:40.803Z</time></trkpt><trkpt lat="45.1519331" lon="7.1634508"><ele>649.5</ele><time>2026-04-06T14:26:41.804Z</time></trkpt><trkpt lat="45.151948" lon="7.1636405"><ele>651.75</ele><time>2026-04-06T14:26:42.804Z</time></trkpt><trkpt lat="45.1519535" lon="7.1638282"><ele>654.0</ele><time>2026-04-06T14:26:43.804Z</time></trkpt><trkpt lat="45.1519657" lon="7.1640163"><ele>654.75</ele><time>2026-04-06T14:26:44.803Z</time></trkpt><trkpt lat="45.1519885" lon="7.1642076"><ele>655.5</ele><time>2026-04-06T14:26:45.804Z</time></trkpt><trkpt lat="45.1520226" lon="7.1643984"><ele>656.25</ele><time>2026-04-06T14:26:46.804Z</time></trkpt><trkpt lat="45.1520663" lon="7.1645882"><ele>657.0</ele><time>2026-04-06T14:26:47.804Z</time></trkpt><trkpt lat="45.1521167" lon="7.1647749"><ele>656.75</ele><time>2026-04-06T14:26:48.803Z</time></trkpt><trkpt lat="45.1521758" lon="7.1649558"><ele>656.5</ele><time>2026-04-06T14:26:49.803Z</time></trkpt><trkpt lat="45.1522317" lon="7.1651367"><ele>656.25</ele><time>2026-04-06T14:26:50.802Z</time></trkpt><trkpt lat="45.1522862" lon="7.1653112"><ele>656.0</ele><time>2026-04-06T14:26:51.802Z</time></trkpt><trkpt lat="45.1523452" lon="7.1654819"><ele>668.25</ele><time>2026-04-06T14:26:52.802Z</time></trkpt><trkpt lat="45.1524029" lon="7.1656511"><ele>680.5</ele><time>2026-04-06T14:26:53.803Z</time></trkpt><trkpt lat="45.1524669" lon="7.1658185"><ele>692.75</ele><time>2026-04-06T14:26:54.802Z</time></trkpt><trkpt lat="45.1525298" lon="7.1659859"><ele>705.0</ele><time>2026-04-06T14:26:55.802Z</time></trkpt><trkpt lat="45.1525854" lon="7.1661579"><ele>705.0</ele><time>2026-04-06T14:26:56.803Z</time></trkpt><trkpt lat="45.1526379" lon="7.1663355"><ele>705.0</ele><time>2026-04-06T14:26:57.803Z</time></trkpt><trkpt lat="45.1526843" lon="7.1665133"><ele>705.0</ele><time>2026-04-06T14:26:58.803Z</time></trkpt><trkpt lat="45.1527216" lon="7.1666934"><ele>705.0</ele><time>2026-04-06T14:26:59.802Z</time></trkpt><trkpt lat="45.1527317" lon="7.166882"><ele>703.0</ele><time>2026-04-06T14:27:00.803Z</time></trkpt><trkpt lat="45.1527408" lon="7.1670752"><ele>701.0</ele><time>2026-04-06T14:27:01.804Z</time></trkpt><trkpt lat="45.1527638" lon="7.1672722"><ele>699.0</ele><time>2026-04-06T14:27:02.802Z</time></trkpt><trkpt lat="45.1527977" lon="7.1674704"><ele>697.0</ele><time>2026-04-06T14:27:03.802Z</time></trkpt><trkpt lat="45.1528352" lon="7.1676703"><ele>694.6666666666667</ele><time>2026-04-06T14:27:04.803Z</time></trkpt><trkpt lat="45.1528744" lon="7.1678745"><ele>692.3333333333334</ele><time>2026-04-06T14:27:05.803Z</time></trkpt><trkpt lat="45.1529244" lon="7.1680782"><ele>690.0</ele><time>2026-04-06T14:27:06.802Z</time></trkpt><trkpt lat="45.152983" lon="7.1682782"><ele>690.0</ele><time>2026-04-06T14:27:07.802Z</time></trkpt><trkpt lat="45.1530405" lon="7.1684754"><ele>690.0</ele><time>2026-04-06T14:27:08.803Z</time></trkpt><trkpt lat="45.1530778" lon="7.168676"><ele>690.0</ele><time>2026-04-06T14:27:09.803Z</time></trkpt><trkpt lat="45.1530962" lon="7.1688798"><ele>690.0</ele><time>2026-04-06T14:27:10.802Z</time></trkpt><trkpt lat="45.1531061" lon="7.1690803"><ele>689.5</ele><time>2026-04-06T14:27:11.803Z</time></trkpt><trkpt lat="45.1531181" lon="7.1692801"><ele>689.0</ele><time>2026-04-06T14:27:12.803Z</time></trkpt><trkpt lat="45.1531315" lon="7.1694706"><ele>688.5</ele><time>2026-04-06T14:27:13.803Z</time></trkpt><trkpt lat="45.1531519" lon="7.1696523"><ele>688.0</ele><time>2026-04-06T14:27:14.802Z</time></trkpt><trkpt lat="45.1531804" lon="7.1697939"><ele>699.2</ele><time>2026-04-06T14:27:15.803Z</time></trkpt><trkpt lat="45.1532197" lon="7.1698987"><ele>710.4</ele><time>2026-04-06T14:27:16.803Z</time></trkpt><trkpt lat="45.1532762" lon="7.1699972"><ele>721.6</ele><time>2026-04-06T14:27:17.803Z</time></trkpt><trkpt lat="45.1533407" lon="7.1701051"><ele>732.8000000000001</ele><time>2026-04-06T14:27:18.803Z</time></trkpt><trkpt lat="45.1534153" lon="7.1702218"><ele>744.0</ele><time>2026-04-06T14:27:19.802Z</time></trkpt><trkpt lat="45.1534928" lon="7.170341"><ele>744.0</ele><time>2026-04-06T14:27:20.802Z</time></trkpt><trkpt lat="45.1535361" lon="7.1704606"><ele>744.0</ele><time>2026-04-06T14:27:21.802Z</time></trkpt><trkpt lat="45.153567" lon="7.1705988"><ele>744.0</ele><time>2026-04-06T14:27:22.803Z</time></trkpt><trkpt lat="45.1535991" lon="7.1707507"><ele>744.0</ele><time>2026-04-06T14:27:23.803Z</time></trkpt><trkpt lat="45.1536292" lon="7.1709179"><ele>744.0</ele><time>2026-04-06T14:27:24.802Z</time></trkpt><trkpt lat="45.153659" lon="7.1710854"><ele>742.25</ele><time>2026-04-06T14:27:25.802Z</time></trkpt><trkpt lat="45.1536906" lon="7.1712618"><ele>740.5</ele><time>2026-04-06T14:27:26.803Z</time></trkpt><trkpt lat="45.1537217" lon="7.1714367"><ele>738.75</ele><time>2026-04-06T14:27:27.803Z</time></trkpt><trkpt lat="45.1537714" lon="7.1716012"><ele>737.0</ele><time>2026-04-06T14:27:28.803Z</time></trkpt><trkpt lat="45.1538442" lon="7.171757"><ele>735.5</ele><time>2026-04-06T14:27:29.802Z</time></trkpt><trkpt lat="45.1539204" lon="7.1719174"><ele>734.0</ele><time>2026-04-06T14:27:30.802Z</time></trkpt><trkpt lat="45.1539875" lon="7.1720918"><ele>732.5</ele><time>2026-04-06T14:27:31.803Z</time></trkpt><trkpt lat="45.1540417" lon="7.1722772"><ele>731.0</ele><time>2026-04-06T14:27:32.803Z</time></trkpt><trkpt lat="45.1540895" lon="7.1724703"><ele>738.1999999999999</ele><time>2026-04-06T14:27:33.803Z</time></trkpt><trkpt lat="45.1541334" lon="7.1726419"><ele>745.4</ele><time>2026-04-06T14:27:34.803Z</time></trkpt><trkpt lat="45.1541733" lon="7.1727929"><ele>752.6</ele><time>2026-04-06T14:27:35.802Z</time></trkpt><trkpt lat="45.1542056" lon="7.1729281"><ele>759.8</ele><time>2026-04-06T14:27:36.803Z</time></trkpt><trkpt lat="45.1542289" lon="7.1730405"><ele>767.0</ele><time>2026-04-06T14:27:37.802Z</time></trkpt><trkpt lat="45.1542468" lon="7.1731393"><ele>764.2</ele><time>2026-04-06T14:27:38.802Z</time></trkpt><trkpt lat="45.1542719" lon="7.1732875"><ele>761.4000000000001</ele><time>2026-04-06T14:27:40.803Z</time></trkpt><trkpt lat="45.1542909" lon="7.1734181"><ele>758.5999999999999</ele><time>2026-04-06T14:27:42.803Z</time></trkpt><trkpt lat="45.1543221" lon="7.1735605"><ele>755.8</ele><time>2026-04-06T14:27:44.802Z</time></trkpt><trkpt lat="45.1543956" lon="7.1736169"><ele>753.0</ele><time>2026-04-06T14:27:46.802Z</time></trkpt><trkpt lat="45.1544736" lon="7.1735454"><ele>753.0</ele><time>2026-04-06T14:27:48.803Z</time></trkpt><trkpt lat="45.1544756" lon="7.173453"><ele>753.0</ele><time>2026-04-06T14:27:49.803Z</time></trkpt><trkpt lat="45.1544706" lon="7.1733593"><ele>753.0</ele><time>2026-04-06T14:27:50.803Z</time></trkpt><trkpt lat="45.1544678" lon="7.173263"><ele>753.0</ele><time>2026-04-06T14:27:51.803Z</time></trkpt><trkpt lat="45.1544762" lon="7.1731"><ele>753.0</ele><time>2026-04-06T14:27:53.803Z</time></trkpt><trkpt lat="45.1545022" lon="7.1729219"><ele>753.0</ele><time>2026-04-06T14:27:55.803Z</time></trkpt><trkpt lat="45.1545201" lon="7.1728191"><ele>755.3333333333334</ele><time>2026-04-06T14:27:56.803Z</time></trkpt><trkpt lat="45.1545398" lon="7.1727103"><ele>757.6666666666666</ele><time>2026-04-06T14:27:57.803Z</time></trkpt><trkpt lat="45.1545653" lon="7.1726016"><ele>760.0</ele><time>2026-04-06T14:27:58.803Z</time></trkpt><trkpt lat="45.1545998" lon="7.172497"><ele>762.3333333333333</ele><time>2026-04-06T14:27:59.803Z</time></trkpt><trkpt lat="45.1546306" lon="7.1723933"><ele>764.6666666666666</ele><time>2026-04-06T14:28:00.804Z</time></trkpt><trkpt lat="45.1546533" lon="7.1722903"><ele>767.0</ele><time>2026-04-06T14:28:01.803Z</time></trkpt><trkpt lat="45.15466" lon="7.1721806"><ele>768.8333333333333</ele><time>2026-04-06T14:28:02.802Z</time></trkpt><trkpt lat="45.1546511" lon="7.1720716"><ele>770.6666666666666</ele><time>2026-04-06T14:28:03.803Z</time></trkpt><trkpt lat="45.1546323" lon="7.1719591"><ele>772.5</ele><time>2026-04-06T14:28:04.803Z</time></trkpt><trkpt lat="45.1546145" lon="7.171844"><ele>774.3333333333333</ele><time>2026-04-06T14:28:05.803Z</time></trkpt><trkpt lat="45.1545887" lon="7.1717283"><ele>776.1666666666666</ele><time>2026-04-06T14:28:06.802Z</time></trkpt><trkpt lat="45.1545633" lon="7.1716112"><ele>778.0</ele><time>2026-04-06T14:28:07.802Z</time></trkpt><trkpt lat="45.1545375" lon="7.171498"><ele>779.8333333333333</ele><time>2026-04-06T14:28:08.803Z</time></trkpt><trkpt lat="45.1545174" lon="7.171396"><ele>781.6666666666666</ele><time>2026-04-06T14:28:09.803Z</time></trkpt><trkpt lat="45.1544971" lon="7.1712993"><ele>783.5</ele><time>2026-04-06T14:28:10.802Z</time></trkpt><trkpt lat="45.1544777" lon="7.1712009"><ele>785.3333333333333</ele><time>2026-04-06T14:28:11.803Z</time></trkpt><trkpt lat="45.1544637" lon="7.1711058"><ele>787.1666666666666</ele><time>2026-04-06T14:28:12.803Z</time></trkpt><trkpt lat="45.1544532" lon="7.1710093"><ele>789.0</ele><time>2026-04-06T14:28:13.803Z</time></trkpt><trkpt lat="45.1544345" lon="7.1708584"><ele>789.0</ele><time>2026-04-06T14:28:15.803Z</time></trkpt><trkpt lat="45.1544232" lon="7.1707613"><ele>789.0</ele><time>2026-04-06T14:28:17.803Z</time></trkpt><trkpt lat="45.1544496" lon="7.1706681"><ele>789.0</ele><time>2026-04-06T14:28:19.803Z</time></trkpt><trkpt lat="45.1545125" lon="7.1707116"><ele>789.0</ele><time>2026-04-06T14:28:21.802Z</time></trkpt><trkpt lat="45.1545226" lon="7.1708692"><ele>789.0</ele><time>2026-04-06T14:28:23.803Z</time></trkpt><trkpt lat="45.1545334" lon="7.1709638"><ele>789.0</ele><time>2026-04-06T14:28:24.803Z</time></trkpt><trkpt lat="45.1545658" lon="7.1710553"><ele>788.9999999999999</ele><time>2026-04-06T14:28:25.803Z</time></trkpt><trkpt lat="45.1546076" lon="7.1711431"><ele>789.0</ele><time>2026-04-06T14:28:26.803Z</time></trkpt><trkpt lat="45.1546539" lon="7.1712225"><ele>789.0</ele><time>2026-04-06T14:28:27.803Z</time></trkpt><trkpt lat="45.1547035" lon="7.1712947"><ele>789.0</ele><time>2026-04-06T14:28:28.802Z</time></trkpt><trkpt lat="45.1547502" lon="7.1713623"><ele>789.0</ele><time>2026-04-06T14:28:29.803Z</time></trkpt><trkpt lat="45.1547968" lon="7.1714276"><ele>788.9999999999999</ele><time>2026-04-06T14:28:30.803Z</time></trkpt><trkpt lat="45.1548472" lon="7.171487"><ele>789.0</ele><time>2026-04-06T14:28:31.803Z</time></trkpt><trkpt lat="45.1549019" lon="7.171544"><ele>792.6666666666666</ele><time>2026-04-06T14:28:32.803Z</time></trkpt><trkpt lat="45.1549631" lon="7.1715969"><ele>796.3333333333333</ele><time>2026-04-06T14:28:33.802Z</time></trkpt><trkpt lat="45.1550254" lon="7.1716516"><ele>800.0</ele><time>2026-04-06T14:28:34.803Z</time></trkpt><trkpt lat="45.1550822" lon="7.1717156"><ele>803.6666666666666</ele><time>2026-04-06T14:28:35.803Z</time></trkpt><trkpt lat="45.1551429" lon="7.1717864"><ele>807.3333333333333</ele><time>2026-04-06T14:28:36.802Z</time></trkpt><trkpt lat="45.1552034" lon="7.1718693"><ele>811.0</ele><time>2026-04-06T14:28:37.802Z</time></trkpt><trkpt lat="45.1552617" lon="7.1719716"><ele>811.0</ele><time>2026-04-06T14:28:38.803Z</time></trkpt><trkpt lat="45.1553109" lon="7.1720989"><ele>811.0</ele><time>2026-04-06T14:28:39.803Z</time></trkpt><trkpt lat="45.1553423" lon="7.1722392"><ele>811.0</ele><time>2026-04-06T14:28:40.803Z</time></trkpt><trkpt lat="45.1553567" lon="7.1723774"><ele>811.0</ele><time>2026-04-06T14:28:41.802Z</time></trkpt><trkpt lat="45.1553686" lon="7.1724995"><ele>811.0</ele><time>2026-04-06T14:28:42.802Z</time></trkpt><trkpt lat="45.1553766" lon="7.1725943"><ele>810.4999999999999</ele><time>2026-04-06T14:28:43.802Z</time></trkpt><trkpt lat="45.1553908" lon="7.1727168"><ele>810.0</ele><time>2026-04-06T14:28:45.802Z</time></trkpt><trkpt lat="45.1554461" lon="7.1727943"><ele>809.5</ele><time>2026-04-06T14:28:47.802Z</time></trkpt><trkpt lat="45.1555067" lon="7.1727486"><ele>809.0</ele><time>2026-04-06T14:28:49.804Z</time></trkpt><trkpt lat="45.1555231" lon="7.1725875"><ele>808.4999999999999</ele><time>2026-04-06T14:28:51.803Z</time></trkpt><trkpt lat="45.1555394" lon="7.1724872"><ele>808.0</ele><time>2026-04-06T14:28:52.803Z</time></trkpt><trkpt lat="45.1555645" lon="7.1723902"><ele>808.4999999999999</ele><time>2026-04-06T14:28:53.803Z</time></trkpt><trkpt lat="45.1556125" lon="7.1722301"><ele>809.0</ele><time>2026-04-06T14:28:55.802Z</time></trkpt><trkpt lat="45.1556304" lon="7.1721419"><ele>809.5</ele><time>2026-04-06T14:28:56.803Z</time></trkpt><trkpt lat="45.1556441" lon="7.17205"><ele>810.0</ele><time>2026-04-06T14:28:57.803Z</time></trkpt><trkpt lat="45.1556603" lon="7.1719554"><ele>810.4999999999999</ele><time>2026-04-06T14:28:58.802Z</time></trkpt><trkpt lat="45.1556686" lon="7.1718565"><ele>811.0</ele><time>2026-04-06T14:28:59.802Z</time></trkpt><trkpt lat="45.1556643" lon="7.171753"><ele>810.9999999999999</ele><time>2026-04-06T14:29:00.802Z</time></trkpt><trkpt lat="45.1556503" lon="7.1716518"><ele>811.0</ele><time>2026-04-06T14:29:01.803Z</time></trkpt><trkpt lat="45.1556319" lon="7.1715483"><ele>811.0</ele><time>2026-04-06T14:29:02.803Z</time></trkpt><trkpt lat="45.1556104" lon="7.171445"><ele>811.0</ele><time>2026-04-06T14:29:03.802Z</time></trkpt><trkpt lat="45.1555906" lon="7.1713356"><ele>810.9999999999999</ele><time>2026-04-06T14:29:04.802Z</time></trkpt><trkpt lat="45.1555686" lon="7.1712222"><ele>811.0</ele><time>2026-04-06T14:29:05.802Z</time></trkpt><trkpt lat="45.1555353" lon="7.1711094"><ele>813.6666666666666</ele><time>2026-04-06T14:29:06.803Z</time></trkpt><trkpt lat="45.1554852" lon="7.1710051"><ele>816.3333333333333</ele><time>2026-04-06T14:29:07.803Z</time></trkpt><trkpt lat="45.1554366" lon="7.1709145"><ele>819.0</ele><time>2026-04-06T14:29:08.803Z</time></trkpt><trkpt lat="45.1553908" lon="7.1708444"><ele>821.6666666666667</ele><time>2026-04-06T14:29:09.802Z</time></trkpt><trkpt lat="45.1553165" lon="7.1707435"><ele>824.3333333333334</ele><time>2026-04-06T14:29:11.802Z</time></trkpt><trkpt lat="45.1552552" lon="7.1706511"><ele>827.0</ele><time>2026-04-06T14:29:13.802Z</time></trkpt><trkpt lat="45.155275" lon="7.1705288"><ele>827.0</ele><time>2026-04-06T14:29:15.803Z</time></trkpt><trkpt lat="45.1553567" lon="7.1705447"><ele>827.0</ele><time>2026-04-06T14:29:17.802Z</time></trkpt><trkpt lat="45.1554072" lon="7.1706043"><ele>827.0</ele><time>2026-04-06T14:29:18.803Z</time></trkpt><trkpt lat="45.1554677" lon="7.1706647"><ele>827.0</ele><time>2026-04-06T14:29:19.803Z</time></trkpt><trkpt lat="45.1555318" lon="7.1707196"><ele>827.0</ele><time>2026-04-06T14:29:20.802Z</time></trkpt><trkpt lat="45.1555975" lon="7.1707756"><ele>827.0</ele><time>2026-04-06T14:29:21.803Z</time></trkpt><trkpt lat="45.155658" lon="7.1708322"><ele>827.0</ele><time>2026-04-06T14:29:22.802Z</time></trkpt><trkpt lat="45.1557087" lon="7.170895"><ele>832.1666666666667</ele><time>2026-04-06T14:29:23.802Z</time></trkpt><trkpt lat="45.155758" lon="7.1709664"><ele>837.3333333333334</ele><time>2026-04-06T14:29:24.802Z</time></trkpt><trkpt lat="45.1558023" lon="7.1710447"><ele>842.5</ele><time>2026-04-06T14:29:25.803Z</time></trkpt><trkpt lat="45.1558477" lon="7.1711269"><ele>847.6666666666667</ele><time>2026-04-06T14:29:26.803Z</time></trkpt><trkpt lat="45.1558933" lon="7.17121"><ele>852.8333333333334</ele><time>2026-04-06T14:29:27.803Z</time></trkpt><trkpt lat="45.1559564" lon="7.1713461"><ele>858.0</ele><time>2026-04-06T14:29:29.802Z</time></trkpt><trkpt lat="45.1560207" lon="7.1714503"><ele>858.0</ele><time>2026-04-06T14:29:31.803Z</time></trkpt><trkpt lat="45.1561046" lon="7.1714415"><ele>858.0</ele><time>2026-04-06T14:29:33.803Z</time></trkpt><trkpt lat="45.1561019" lon="7.1713195"><ele>858.0</ele><time>2026-04-06T14:29:35.802Z</time></trkpt><trkpt lat="45.15606" lon="7.1712413"><ele>858.0</ele><time>2026-04-06T14:29:36.802Z</time></trkpt><trkpt lat="45.1560259" lon="7.1711591"><ele>858.0</ele><time>2026-04-06T14:29:37.802Z</time></trkpt><trkpt lat="45.1559983" lon="7.171063"><ele>858.0</ele><time>2026-04-06T14:29:38.803Z</time></trkpt><trkpt lat="45.1559714" lon="7.1709703"><ele>858.0</ele><time>2026-04-06T14:29:39.802Z</time></trkpt><trkpt lat="45.1559508" lon="7.1708796"><ele>858.0</ele><time>2026-04-06T14:29:40.803Z</time></trkpt><trkpt lat="45.155933" lon="7.1707877"><ele>858.0</ele><time>2026-04-06T14:29:41.803Z</time></trkpt><trkpt lat="45.1559129" lon="7.1706995"><ele>858.0</ele><time>2026-04-06T14:29:42.803Z</time></trkpt><trkpt lat="45.1558938" lon="7.1706123"><ele>858.0</ele><time>2026-04-06T14:29:43.803Z</time></trkpt><trkpt lat="45.1558776" lon="7.1705252"><ele>858.0</ele><time>2026-04-06T14:29:44.802Z</time></trkpt><trkpt lat="45.1558745" lon="7.1703541"><ele>858.0</ele><time>2026-04-06T14:29:46.802Z</time></trkpt><trkpt lat="45.1559144" lon="7.1701954"><ele>859.6666666666666</ele><time>2026-04-06T14:29:48.803Z</time></trkpt><trkpt lat="45.1559854" lon="7.1700425"><ele>861.3333333333333</ele><time>2026-04-06T14:29:50.802Z</time></trkpt><trkpt lat="45.1560405" lon="7.1699741"><ele>863.0</ele><time>2026-04-06T14:29:51.802Z</time></trkpt><trkpt lat="45.1561004" lon="7.1699089"><ele>864.6666666666666</ele><time>2026-04-06T14:29:52.803Z</time></trkpt><trkpt lat="45.1561634" lon="7.169841"><ele>866.3333333333333</ele><time>2026-04-06T14:29:53.803Z</time></trkpt><trkpt lat="45.1562269" lon="7.1697685"><ele>868.0</ele><time>2026-04-06T14:29:54.804Z</time></trkpt><trkpt lat="45.1562909" lon="7.1696838"><ele>869.6666666666666</ele><time>2026-04-06T14:29:55.803Z</time></trkpt><trkpt lat="45.15635" lon="7.169593"><ele>871.3333333333333</ele><time>2026-04-06T14:29:56.804Z</time></trkpt><trkpt lat="45.1563998" lon="7.1694956"><ele>873.0</ele><time>2026-04-06T14:29:57.803Z</time></trkpt><trkpt lat="45.1564419" lon="7.1694038"><ele>874.6666666666667</ele><time>2026-04-06T14:29:58.802Z</time></trkpt><trkpt lat="45.1564721" lon="7.1693237"><ele>876.3333333333334</ele><time>2026-04-06T14:29:59.802Z</time></trkpt><trkpt lat="45.1565099" lon="7.1692004"><ele>878.0</ele><time>2026-04-06T14:30:01.803Z</time></trkpt><trkpt lat="45.1565311" lon="7.1690849"><ele>880.3333333333334</ele><time>2026-04-06T14:30:04.803Z</time></trkpt><trkpt lat="45.1565374" lon="7.1689631"><ele>882.6666666666667</ele><time>2026-04-06T14:30:07.802Z</time></trkpt><trkpt lat="45.1565169" lon="7.1688267"><ele>885.0</ele><time>2026-04-06T14:30:09.801Z</time></trkpt><trkpt lat="45.1564233" lon="7.1687302"><ele>887.3333333333333</ele><time>2026-04-06T14:30:11.803Z</time></trkpt><trkpt lat="45.1563572" lon="7.168736"><ele>889.6666666666666</ele><time>2026-04-06T14:30:12.801Z</time></trkpt><trkpt lat="45.1562776" lon="7.1687555"><ele>892.0</ele><time>2026-04-06T14:30:13.801Z</time></trkpt><trkpt lat="45.156189" lon="7.168784"><ele>891.9999999999999</ele><time>2026-04-06T14:30:14.802Z</time></trkpt><trkpt lat="45.1560992" lon="7.1688006"><ele>892.0</ele><time>2026-04-06T14:30:15.802Z</time></trkpt><trkpt lat="45.1560192" lon="7.1687964"><ele>892.0</ele><time>2026-04-06T14:30:16.802Z</time></trkpt><trkpt lat="45.155943" lon="7.1687708"><ele>892.0</ele><time>2026-04-06T14:30:17.802Z</time></trkpt><trkpt lat="45.1558732" lon="7.1687126"><ele>891.9999999999999</ele><time>2026-04-06T14:30:18.801Z</time></trkpt><trkpt lat="45.1558171" lon="7.1686276"><ele>892.0</ele><time>2026-04-06T14:30:19.803Z</time></trkpt><trkpt lat="45.1557707" lon="7.1685241"><ele>892.0</ele><time>2026-04-06T14:30:20.803Z</time></trkpt><trkpt lat="45.1557415" lon="7.1684108"><ele>892.0</ele><time>2026-04-06T14:30:21.801Z</time></trkpt><trkpt lat="45.155736" lon="7.1682839"><ele>892.0</ele><time>2026-04-06T14:30:22.801Z</time></trkpt><trkpt lat="45.1557362" lon="7.1681485"><ele>892.0</ele><time>2026-04-06T14:30:23.801Z</time></trkpt><trkpt lat="45.1557256" lon="7.1680084"><ele>892.0</ele><time>2026-04-06T14:30:24.802Z</time></trkpt><trkpt lat="45.1556977" lon="7.1678688"><ele>891.4000000000001</ele><time>2026-04-06T14:30:25.802Z</time></trkpt><trkpt lat="45.1556572" lon="7.1677246"><ele>890.8000000000001</ele><time>2026-04-06T14:30:26.801Z</time></trkpt><trkpt lat="45.1556098" lon="7.1675861"><ele>890.2</ele><time>2026-04-06T14:30:27.801Z</time></trkpt><trkpt lat="45.1555645" lon="7.1674494"><ele>889.6</ele><time>2026-04-06T14:30:28.802Z</time></trkpt><trkpt lat="45.1555228" lon="7.1673268"><ele>889.0</ele><time>2026-04-06T14:30:29.801Z</time></trkpt><trkpt lat="45.1554894" lon="7.1672261"><ele>889.0</ele><time>2026-04-06T14:30:30.802Z</time></trkpt><trkpt lat="45.155483" lon="7.1670758"><ele>889.0000000000001</ele><time>2026-04-06T14:30:32.802Z</time></trkpt><trkpt lat="45.1555447" lon="7.167053"><ele>889.0000000000001</ele><time>2026-04-06T14:30:34.802Z</time></trkpt><trkpt lat="45.1556167" lon="7.1671726"><ele>889.0</ele><time>2026-04-06T14:30:36.803Z</time></trkpt><trkpt lat="45.1556779" lon="7.1672645"><ele>889.0</ele><time>2026-04-06T14:30:37.802Z</time></trkpt><trkpt lat="45.1557551" lon="7.1673404"><ele>893.5</ele><time>2026-04-06T14:30:38.802Z</time></trkpt><trkpt lat="45.1558515" lon="7.1674147"><ele>898.0</ele><time>2026-04-06T14:30:39.801Z</time></trkpt><trkpt lat="45.1559588" lon="7.1674875"><ele>902.5</ele><time>2026-04-06T14:30:40.802Z</time></trkpt><trkpt lat="45.1560569" lon="7.1675775"><ele>907.0</ele><time>2026-04-06T14:30:41.803Z</time></trkpt><trkpt lat="45.1561323" lon="7.1676858"><ele>907.0</ele><time>2026-04-06T14:30:42.801Z</time></trkpt><trkpt lat="45.1561863" lon="7.1678083"><ele>907.0</ele><time>2026-04-06T14:30:43.802Z</time></trkpt><trkpt lat="45.1562465" lon="7.1678949"><ele>907.0</ele><time>2026-04-06T14:30:44.802Z</time></trkpt></trkseg><trkseg><trkpt lat="45.1577585" lon="7.1682138"><ele>912.2857142857143</ele><time>2026-04-06T14:47:25.797Z</time></trkpt><trkpt lat="45.1578034" lon="7.1681064"><ele>913.5714285714284</ele><time>2026-04-06T14:47:28.797Z</time></trkpt><trkpt lat="45.1578591" lon="7.1680389"><ele>914.8571428571428</ele><time>2026-04-06T14:47:30.796Z</time></trkpt><trkpt lat="45.1579072" lon="7.1679455"><ele>916.1428571428571</ele><time>2026-04-06T14:47:32.796Z</time></trkpt><trkpt lat="45.1579244" lon="7.1678564"><ele>917.4285714285713</ele><time>2026-04-06T14:47:34.796Z</time></trkpt><trkpt lat="45.157919" lon="7.1677643"><ele>918.7142857142856</ele><time>2026-04-06T14:47:37.797Z</time></trkpt><trkpt lat="45.1579797" lon="7.1677273"><ele>919.9999999999999</ele><time>2026-04-06T14:48:13.798Z</time></trkpt><trkpt lat="45.1580529" lon="7.1676744"><ele>920.0000000000001</ele><time>2026-04-06T14:48:15.796Z</time></trkpt><trkpt lat="45.1581402" lon="7.1675754"><ele>920.0</ele><time>2026-04-06T14:48:17.797Z</time></trkpt><trkpt lat="45.1581899" lon="7.1675066"><ele>920.0</ele><time>2026-04-06T14:48:18.797Z</time></trkpt><trkpt lat="45.1582371" lon="7.1674359"><ele>920.0</ele><time>2026-04-06T14:48:19.796Z</time></trkpt><trkpt lat="45.1582979" lon="7.1673793"><ele>920.0000000000001</ele><time>2026-04-06T14:48:20.797Z</time></trkpt><trkpt lat="45.1583569" lon="7.1673315"><ele>920.0</ele><time>2026-04-06T14:48:21.797Z</time></trkpt><trkpt lat="45.1584169" lon="7.1672848"><ele>922.8333333333334</ele><time>2026-04-06T14:48:22.798Z</time></trkpt><trkpt lat="45.1584727" lon="7.1672301"><ele>925.6666666666667</ele><time>2026-04-06T14:48:23.796Z</time></trkpt><trkpt lat="45.1585307" lon="7.1671821"><ele>928.5</ele><time>2026-04-06T14:48:24.798Z</time></trkpt><trkpt lat="45.1585884" lon="7.1671395"><ele>931.3333333333333</ele><time>2026-04-06T14:48:25.797Z</time></trkpt><trkpt lat="45.1586816" lon="7.1670607"><ele>934.1666666666666</ele><time>2026-04-06T14:48:27.798Z</time></trkpt><trkpt lat="45.1587589" lon="7.1669646"><ele>937.0</ele><time>2026-04-06T14:48:29.798Z</time></trkpt><trkpt lat="45.1588505" lon="7.1668649"><ele>937.0</ele><time>2026-04-06T14:48:31.797Z</time></trkpt><trkpt lat="45.158948" lon="7.1667705"><ele>937.0</ele><time>2026-04-06T14:48:33.797Z</time></trkpt><trkpt lat="45.1590012" lon="7.1667195"><ele>937.0</ele><time>2026-04-06T14:48:34.796Z</time></trkpt><trkpt lat="45.1590648" lon="7.1666702"><ele>937.0</ele><time>2026-04-06T14:48:35.797Z</time></trkpt><trkpt lat="45.1591887" lon="7.1666423"><ele>937.0</ele><time>2026-04-06T14:48:37.796Z</time></trkpt><trkpt lat="45.1592681" lon="7.1666891"><ele>939.8333333333333</ele><time>2026-04-06T14:48:38.796Z</time></trkpt><trkpt lat="45.1593766" lon="7.1667863"><ele>942.6666666666666</ele><time>2026-04-06T14:48:40.795Z</time></trkpt><trkpt lat="45.1594224" lon="7.1668762"><ele>945.5</ele><time>2026-04-06T14:48:41.795Z</time></trkpt><trkpt lat="45.1594624" lon="7.1669619"><ele>948.3333333333333</ele><time>2026-04-06T14:48:42.797Z</time></trkpt><trkpt lat="45.1594944" lon="7.1670664"><ele>951.1666666666666</ele><time>2026-04-06T14:48:43.796Z</time></trkpt><trkpt lat="45.1595152" lon="7.1671722"><ele>954.0</ele><time>2026-04-06T14:48:44.795Z</time></trkpt><trkpt lat="45.1595277" lon="7.1672728"><ele>954.0</ele><time>2026-04-06T14:48:45.795Z</time></trkpt><trkpt lat="45.1595587" lon="7.1673567"><ele>954.0</ele><time>2026-04-06T14:48:46.796Z</time></trkpt><trkpt lat="45.1596" lon="7.16743"><ele>954.0</ele><time>2026-04-06T14:48:47.795Z</time></trkpt><trkpt lat="45.1596351" lon="7.167511"><ele>954.0</ele><time>2026-04-06T14:48:48.795Z</time></trkpt><trkpt lat="45.159675" lon="7.1675831"><ele>954.0</ele><time>2026-04-06T14:48:49.795Z</time></trkpt><trkpt lat="45.1597705" lon="7.1676561"><ele>954.0</ele><time>2026-04-06T14:48:51.796Z</time></trkpt><trkpt lat="45.1598803" lon="7.1676286"><ele>957.1666666666666</ele><time>2026-04-06T14:48:53.796Z</time></trkpt><trkpt lat="45.1599928" lon="7.1675648"><ele>960.3333333333333</ele><time>2026-04-06T14:48:55.796Z</time></trkpt><trkpt lat="45.1600512" lon="7.167521"><ele>963.5</ele><time>2026-04-06T14:48:56.795Z</time></trkpt><trkpt lat="45.1601113" lon="7.1674697"><ele>966.6666666666666</ele><time>2026-04-06T14:48:57.795Z</time></trkpt><trkpt lat="45.1601669" lon="7.1673954"><ele>969.8333333333333</ele><time>2026-04-06T14:48:58.796Z</time></trkpt><trkpt lat="45.1602164" lon="7.167299"><ele>973.0</ele><time>2026-04-06T14:48:59.796Z</time></trkpt><trkpt lat="45.1602612" lon="7.1671993"><ele>972.9999999999999</ele><time>2026-04-06T14:49:00.797Z</time></trkpt><trkpt lat="45.160299" lon="7.1671025"><ele>973.0</ele><time>2026-04-06T14:49:01.795Z</time></trkpt><trkpt lat="45.1603393" lon="7.1670252"><ele>973.0</ele><time>2026-04-06T14:49:02.795Z</time></trkpt><trkpt lat="45.1603736" lon="7.1669476"><ele>973.0</ele><time>2026-04-06T14:49:03.796Z</time></trkpt><trkpt lat="45.1604219" lon="7.1668"><ele>972.9999999999999</ele><time>2026-04-06T14:49:05.796Z</time></trkpt><trkpt lat="45.1604286" lon="7.1666964"><ele>973.0</ele><time>2026-04-06T14:49:06.796Z</time></trkpt><trkpt lat="45.1604387" lon="7.1665983"><ele>971.2</ele><time>2026-04-06T14:49:07.796Z</time></trkpt><trkpt lat="45.1604826" lon="7.1665007"><ele>969.4</ele><time>2026-04-06T14:49:08.796Z</time></trkpt><trkpt lat="45.1605017" lon="7.1663909"><ele>967.6000000000001</ele><time>2026-04-06T14:49:09.796Z</time></trkpt><trkpt lat="45.1605294" lon="7.1662824"><ele>965.8000000000001</ele><time>2026-04-06T14:49:10.796Z</time></trkpt><trkpt lat="45.1606239" lon="7.1661326"><ele>964.0</ele><time>2026-04-06T14:49:12.795Z</time></trkpt><trkpt lat="45.1607062" lon="7.1661121"><ele>964.0</ele><time>2026-04-06T14:49:13.796Z</time></trkpt><trkpt lat="45.1608123" lon="7.1661274"><ele>964.0000000000001</ele><time>2026-04-06T14:49:15.796Z</time></trkpt><trkpt lat="45.16091" lon="7.1661994"><ele>964.0000000000001</ele><time>2026-04-06T14:49:16.795Z</time></trkpt><trkpt lat="45.1609688" lon="7.1662548"><ele>964.0</ele><time>2026-04-06T14:49:17.796Z</time></trkpt><trkpt lat="45.1610557" lon="7.1663482"><ele>964.0</ele><time>2026-04-06T14:49:18.796Z</time></trkpt><trkpt lat="45.1611335" lon="7.1664312"><ele>963.9999999999999</ele><time>2026-04-06T14:49:19.796Z</time></trkpt><trkpt lat="45.1611966" lon="7.1664749"><ele>964.0</ele><time>2026-04-06T14:49:20.796Z</time></trkpt><trkpt lat="45.1612719" lon="7.1665201"><ele>964.0</ele><time>2026-04-06T14:49:22.796Z</time></trkpt><trkpt lat="45.1613352" lon="7.1665277"><ele>964.0</ele><time>2026-04-06T14:49:23.796Z</time></trkpt><trkpt lat="45.161406" lon="7.1665516"><ele>963.9999999999999</ele><time>2026-04-06T14:49:24.796Z</time></trkpt><trkpt lat="45.1614854" lon="7.1665991"><ele>964.0</ele><time>2026-04-06T14:49:25.796Z</time></trkpt><trkpt lat="45.1615673" lon="7.1666532"><ele>965.4999999999999</ele><time>2026-04-06T14:49:26.796Z</time></trkpt><trkpt lat="45.1616429" lon="7.166669"><ele>967.0</ele><time>2026-04-06T14:49:27.796Z</time></trkpt><trkpt lat="45.16171" lon="7.1666694"><ele>968.5</ele><time>2026-04-06T14:49:28.795Z</time></trkpt><trkpt lat="45.1617732" lon="7.1666662"><ele>970.0</ele><time>2026-04-06T14:49:29.796Z</time></trkpt><trkpt lat="45.1618388" lon="7.1666496"><ele>971.4999999999999</ele><time>2026-04-06T14:49:30.796Z</time></trkpt><trkpt lat="45.1619409" lon="7.166551"><ele>973.0</ele><time>2026-04-06T14:49:32.796Z</time></trkpt><trkpt lat="45.1619562" lon="7.1664441"><ele>973.0</ele><time>2026-04-06T14:49:33.796Z</time></trkpt><trkpt lat="45.1620376" lon="7.1662543"><ele>973.0</ele><time>2026-04-06T14:49:35.796Z</time></trkpt><trkpt lat="45.1620951" lon="7.1661732"><ele>973.0</ele><time>2026-04-06T14:49:36.796Z</time></trkpt><trkpt lat="45.1621555" lon="7.1661073"><ele>973.0</ele><time>2026-04-06T14:49:37.796Z</time></trkpt><trkpt lat="45.162205" lon="7.1660469"><ele>973.0</ele><time>2026-04-06T14:49:38.796Z</time></trkpt><trkpt lat="45.1622877" lon="7.1659663"><ele>972.8333333333333</ele><time>2026-04-06T14:49:40.796Z</time></trkpt><trkpt lat="45.1624018" lon="7.1660828"><ele>972.6666666666666</ele><time>2026-04-06T14:49:42.795Z</time></trkpt><trkpt lat="45.1624473" lon="7.1661577"><ele>972.5</ele><time>2026-04-06T14:49:43.795Z</time></trkpt><trkpt lat="45.1624873" lon="7.1662751"><ele>972.3333333333333</ele><time>2026-04-06T14:49:44.796Z</time></trkpt><trkpt lat="45.1625164" lon="7.1663711"><ele>972.1666666666666</ele><time>2026-04-06T14:49:45.796Z</time></trkpt><trkpt lat="45.1625399" lon="7.166469"><ele>972.0</ele><time>2026-04-06T14:49:46.796Z</time></trkpt><trkpt lat="45.162575" lon="7.166623"><ele>968.2</ele><time>2026-04-06T14:49:48.795Z</time></trkpt><trkpt lat="45.1626464" lon="7.1666974"><ele>964.4000000000001</ele><time>2026-04-06T14:49:50.795Z</time></trkpt><trkpt lat="45.1627637" lon="7.1666875"><ele>960.5999999999999</ele><time>2026-04-06T14:49:52.796Z</time></trkpt><trkpt lat="45.1628296" lon="7.1667183"><ele>956.8</ele><time>2026-04-06T14:49:53.797Z</time></trkpt><trkpt lat="45.1628885" lon="7.1667744"><ele>953.0</ele><time>2026-04-06T14:49:54.797Z</time></trkpt><trkpt lat="45.1629583" lon="7.1669123"><ele>953.0</ele><time>2026-04-06T14:49:56.796Z</time></trkpt><trkpt lat="45.1630671" lon="7.1669687"><ele>953.0</ele><time>2026-04-06T14:49:58.797Z</time></trkpt><trkpt lat="45.1631395" lon="7.1669897"><ele>953.0</ele><time>2026-04-06T14:49:59.795Z</time></trkpt><trkpt lat="45.1632164" lon="7.1669847"><ele>953.0</ele><time>2026-04-06T14:50:00.796Z</time></trkpt><trkpt lat="45.1632886" lon="7.1669705"><ele>953.0</ele><time>2026-04-06T14:50:01.796Z</time></trkpt><trkpt lat="45.1633992" lon="7.1669109"><ele>955.0</ele><time>2026-04-06T14:50:03.796Z</time></trkpt><trkpt lat="45.1634634" lon="7.1667966"><ele>957.0</ele><time>2026-04-06T14:50:05.796Z</time></trkpt><trkpt lat="45.1635337" lon="7.1666594"><ele>959.0</ele><time>2026-04-06T14:50:07.796Z</time></trkpt><trkpt lat="45.1635911" lon="7.1665969"><ele>961.0</ele><time>2026-04-06T14:50:08.795Z</time></trkpt><trkpt lat="45.1636508" lon="7.1665243"><ele>963.0</ele><time>2026-04-06T14:50:09.796Z</time></trkpt><trkpt lat="45.1637277" lon="7.166478"><ele>963.0</ele><time>2026-04-06T14:50:10.796Z</time></trkpt><trkpt lat="45.163853" lon="7.1664838"><ele>963.0</ele><time>2026-04-06T14:50:12.796Z</time></trkpt><trkpt lat="45.1639101" lon="7.1665332"><ele>963.0</ele><time>2026-04-06T14:50:13.796Z</time></trkpt><trkpt lat="45.1639631" lon="7.1666041"><ele>963.0</ele><time>2026-04-06T14:50:15.796Z</time></trkpt><trkpt lat="45.164061" lon="7.1665986"><ele>963.0</ele><time>2026-04-06T14:50:17.796Z</time></trkpt><trkpt lat="45.1641265" lon="7.1665742"><ele>963.0</ele><time>2026-04-06T14:50:18.796Z</time></trkpt><trkpt lat="45.1642714" lon="7.1664592"><ele>968.3333333333334</ele><time>2026-04-06T14:50:20.796Z</time></trkpt><trkpt lat="45.1643596" lon="7.166413"><ele>973.6666666666667</ele><time>2026-04-06T14:50:21.795Z</time></trkpt><trkpt lat="45.1644383" lon="7.1663872"><ele>979.0</ele><time>2026-04-06T14:50:22.795Z</time></trkpt><trkpt lat="45.1645041" lon="7.1663708"><ele>984.3333333333334</ele><time>2026-04-06T14:50:23.797Z</time></trkpt><trkpt lat="45.1645876" lon="7.1663545"><ele>989.6666666666667</ele><time>2026-04-06T14:50:24.796Z</time></trkpt><trkpt lat="45.1646541" lon="7.1662823"><ele>995.0</ele><time>2026-04-06T14:50:26.797Z</time></trkpt><trkpt lat="45.1647266" lon="7.1661474"><ele>995.0000000000001</ele><time>2026-04-06T14:50:28.796Z</time></trkpt><trkpt lat="45.1647459" lon="7.1660591"><ele>995.0</ele><time>2026-04-06T14:50:29.795Z</time></trkpt><trkpt lat="45.1648482" lon="7.1659591"><ele>995.0</ele><time>2026-04-06T14:50:31.796Z</time></trkpt><trkpt lat="45.1649185" lon="7.1659138"><ele>995.0</ele><time>2026-04-06T14:50:32.795Z</time></trkpt><trkpt lat="45.1649873" lon="7.1658697"><ele>995.0000000000001</ele><time>2026-04-06T14:50:33.795Z</time></trkpt><trkpt lat="45.1650594" lon="7.165839"><ele>995.0</ele><time>2026-04-06T14:50:34.795Z</time></trkpt><trkpt lat="45.165143" lon="7.1658996"><ele>994.6666666666667</ele><time>2026-04-06T14:50:36.796Z</time></trkpt><trkpt lat="45.1651692" lon="7.1659969"><ele>994.3333333333334</ele><time>2026-04-06T14:50:38.796Z</time></trkpt><trkpt lat="45.1651323" lon="7.1660878"><ele>994.0</ele><time>2026-04-06T14:50:40.797Z</time></trkpt><trkpt lat="45.1650569" lon="7.1662097"><ele>993.6666666666667</ele><time>2026-04-06T14:50:42.795Z</time></trkpt><trkpt lat="45.1649815" lon="7.1663251"><ele>993.3333333333334</ele><time>2026-04-06T14:50:44.796Z</time></trkpt><trkpt lat="45.1649829" lon="7.1664272"><ele>993.0</ele><time>2026-04-06T14:50:45.796Z</time></trkpt><trkpt lat="45.1649855" lon="7.1666285"><ele>991.5714285714286</ele><time>2026-04-06T14:50:47.795Z</time></trkpt><trkpt lat="45.1649927" lon="7.1667303"><ele>990.1428571428571</ele><time>2026-04-06T14:50:48.796Z</time></trkpt><trkpt lat="45.1649903" lon="7.1668376"><ele>988.7142857142857</ele><time>2026-04-06T14:50:49.795Z</time></trkpt><trkpt lat="45.164982" lon="7.1669517"><ele>987.2857142857142</ele><time>2026-04-06T14:50:50.796Z</time></trkpt><trkpt lat="45.1649703" lon="7.1670568"><ele>985.8571428571429</ele><time>2026-04-06T14:50:51.795Z</time></trkpt><trkpt lat="45.1649565" lon="7.1671522"><ele>984.4285714285713</ele><time>2026-04-06T14:50:52.795Z</time></trkpt><trkpt lat="45.1649484" lon="7.1672564"><ele>982.9999999999999</ele><time>2026-04-06T14:50:53.795Z</time></trkpt><trkpt lat="45.1649955" lon="7.1673593"><ele>982.6666666666667</ele><time>2026-04-06T14:50:54.796Z</time></trkpt><trkpt lat="45.1650331" lon="7.1674566"><ele>982.3333333333334</ele><time>2026-04-06T14:50:55.796Z</time></trkpt><trkpt lat="45.1650683" lon="7.1675595"><ele>982.0</ele><time>2026-04-06T14:50:56.796Z</time></trkpt><trkpt lat="45.1651053" lon="7.1676781"><ele>981.6666666666667</ele><time>2026-04-06T14:50:57.796Z</time></trkpt><trkpt lat="45.1651333" lon="7.1678029"><ele>981.3333333333334</ele><time>2026-04-06T14:50:58.797Z</time></trkpt><trkpt lat="45.1651608" lon="7.1679126"><ele>981.0</ele><time>2026-04-06T14:50:59.796Z</time></trkpt><trkpt lat="45.1652045" lon="7.1680057"><ele>981.0</ele><time>2026-04-06T14:51:00.796Z</time></trkpt><trkpt lat="45.1652532" lon="7.1680984"><ele>981.0</ele><time>2026-04-06T14:51:01.796Z</time></trkpt><trkpt lat="45.1653052" lon="7.168171"><ele>981.0</ele><time>2026-04-06T14:51:02.796Z</time></trkpt><trkpt lat="45.1653672" lon="7.1682181"><ele>981.0</ele><time>2026-04-06T14:51:03.795Z</time></trkpt><trkpt lat="45.165439" lon="7.168235"><ele>981.0</ele><time>2026-04-06T14:51:04.795Z</time></trkpt><trkpt lat="45.1655126" lon="7.1682402"><ele>981.0</ele><time>2026-04-06T14:51:05.796Z</time></trkpt><trkpt lat="45.1655944" lon="7.1682555"><ele>980.0</ele><time>2026-04-06T14:51:06.796Z</time></trkpt><trkpt lat="45.1656701" lon="7.168285"><ele>979.0</ele><time>2026-04-06T14:51:07.796Z</time></trkpt><trkpt lat="45.165741" lon="7.1683025"><ele>978.0</ele><time>2026-04-06T14:51:08.796Z</time></trkpt><trkpt lat="45.1658097" lon="7.1683136"><ele>977.0</ele><time>2026-04-06T14:51:09.796Z</time></trkpt><trkpt lat="45.1658765" lon="7.1683038"><ele>976.0</ele><time>2026-04-06T14:51:10.796Z</time></trkpt><trkpt lat="45.1659554" lon="7.1682034"><ele>975.0</ele><time>2026-04-06T14:51:11.796Z</time></trkpt><trkpt lat="45.1660322" lon="7.1681756"><ele>981.1666666666666</ele><time>2026-04-06T14:51:12.795Z</time></trkpt><trkpt lat="45.1661059" lon="7.1681527"><ele>987.3333333333333</ele><time>2026-04-06T14:51:13.796Z</time></trkpt><trkpt lat="45.1661804" lon="7.1681316"><ele>993.5</ele><time>2026-04-06T14:51:14.796Z</time></trkpt><trkpt lat="45.1662494" lon="7.1681073"><ele>999.6666666666666</ele><time>2026-04-06T14:51:15.796Z</time></trkpt><trkpt lat="45.1663186" lon="7.1681005"><ele>1005.8333333333333</ele><time>2026-04-06T14:51:16.795Z</time></trkpt><trkpt lat="45.1664351" lon="7.1680364"><ele>1012.0</ele><time>2026-04-06T14:51:18.796Z</time></trkpt><trkpt lat="45.1665298" lon="7.1679566"><ele>1013.4000000000001</ele><time>2026-04-06T14:51:20.795Z</time></trkpt><trkpt lat="45.1666168" lon="7.1678975"><ele>1014.8000000000001</ele><time>2026-04-06T14:51:22.795Z</time></trkpt><trkpt lat="45.1667104" lon="7.1678287"><ele>1016.2</ele><time>2026-04-06T14:51:24.796Z</time></trkpt><trkpt lat="45.1667962" lon="7.1677795"><ele>1017.6</ele><time>2026-04-06T14:51:26.796Z</time></trkpt><trkpt lat="45.1669005" lon="7.1677661"><ele>1019.0</ele><time>2026-04-06T14:51:28.796Z</time></trkpt><trkpt lat="45.1669704" lon="7.1677192"><ele>1019.0</ele><time>2026-04-06T14:51:30.796Z</time></trkpt><trkpt lat="45.1669779" lon="7.1676192"><ele>1019.0000000000001</ele><time>2026-04-06T14:51:32.796Z</time></trkpt><trkpt lat="45.1668968" lon="7.1675454"><ele>1019.0000000000001</ele><time>2026-04-06T14:51:34.796Z</time></trkpt><trkpt lat="45.1667741" lon="7.167484"><ele>1019.0</ele><time>2026-04-06T14:51:36.796Z</time></trkpt><trkpt lat="45.1666827" lon="7.1674877"><ele>1019.0</ele><time>2026-04-06T14:51:37.794Z</time></trkpt><trkpt lat="45.1665991" lon="7.1674849"><ele>1017.8333333333334</ele><time>2026-04-06T14:51:38.795Z</time></trkpt><trkpt lat="45.1665208" lon="7.1674986"><ele>1016.6666666666667</ele><time>2026-04-06T14:51:39.795Z</time></trkpt><trkpt lat="45.1664131" lon="7.1674806"><ele>1015.5</ele><time>2026-04-06T14:51:40.795Z</time></trkpt><trkpt lat="45.1663354" lon="7.167475"><ele>1014.3333333333333</ele><time>2026-04-06T14:51:41.794Z</time></trkpt><trkpt lat="45.1662672" lon="7.1674732"><ele>1013.1666666666666</ele><time>2026-04-06T14:51:42.794Z</time></trkpt><trkpt lat="45.1662012" lon="7.1674717"><ele>1012.0</ele><time>2026-04-06T14:51:44.795Z</time></trkpt><trkpt lat="45.1662215" lon="7.1673634"><ele>1012.0</ele><time>2026-04-06T14:51:47.794Z</time></trkpt><trkpt lat="45.1663519" lon="7.1673679"><ele>1012.0</ele><time>2026-04-06T14:51:49.794Z</time></trkpt><trkpt lat="45.1664207" lon="7.167351"><ele>1012.0</ele><time>2026-04-06T14:51:50.795Z</time></trkpt><trkpt lat="45.1664981" lon="7.1672918"><ele>1012.0</ele><time>2026-04-06T14:51:51.795Z</time></trkpt><trkpt lat="45.1665651" lon="7.1672107"><ele>1012.0</ele><time>2026-04-06T14:51:52.794Z</time></trkpt><trkpt lat="45.166645" lon="7.1671539"><ele>1015.8333333333333</ele><time>2026-04-06T14:51:53.795Z</time></trkpt><trkpt lat="45.1667233" lon="7.1671033"><ele>1019.6666666666666</ele><time>2026-04-06T14:51:54.794Z</time></trkpt><trkpt lat="45.1668034" lon="7.1670473"><ele>1023.5</ele><time>2026-04-06T14:51:55.795Z</time></trkpt><trkpt lat="45.166879" lon="7.1670082"><ele>1027.3333333333333</ele><time>2026-04-06T14:51:56.795Z</time></trkpt><trkpt lat="45.1669595" lon="7.1670013"><ele>1031.1666666666667</ele><time>2026-04-06T14:51:57.794Z</time></trkpt><trkpt lat="45.1670363" lon="7.1669928"><ele>1035.0</ele><time>2026-04-06T14:51:58.796Z</time></trkpt><trkpt lat="45.1671056" lon="7.1670113"><ele>1035.0</ele><time>2026-04-06T14:51:59.794Z</time></trkpt><trkpt lat="45.1672122" lon="7.1669803"><ele>1035.0</ele><time>2026-04-06T14:52:01.795Z</time></trkpt><trkpt lat="45.1672206" lon="7.1668875"><ele>1035.0</ele><time>2026-04-06T14:52:02.794Z</time></trkpt><trkpt lat="45.1671885" lon="7.1667549"><ele>1035.0</ele><time>2026-04-06T14:52:04.794Z</time></trkpt><trkpt lat="45.1671386" lon="7.1666966"><ele>1035.0</ele><time>2026-04-06T14:52:05.795Z</time></trkpt><trkpt lat="45.1670687" lon="7.1666519"><ele>1035.0</ele><time>2026-04-06T14:52:06.794Z</time></trkpt><trkpt lat="45.1670009" lon="7.1666315"><ele>1035.0</ele><time>2026-04-06T14:52:07.795Z</time></trkpt><trkpt lat="45.1669364" lon="7.1666393"><ele>1035.0</ele><time>2026-04-06T14:52:08.795Z</time></trkpt><trkpt lat="45.1668712" lon="7.1666263"><ele>1035.0</ele><time>2026-04-06T14:52:09.794Z</time></trkpt><trkpt lat="45.1667863" lon="7.1665539"><ele>1035.0</ele><time>2026-04-06T14:52:11.795Z</time></trkpt><trkpt lat="45.1668296" lon="7.1664423"><ele>1035.0</ele><time>2026-04-06T14:52:13.794Z</time></trkpt><trkpt lat="45.16694" lon="7.1663453"><ele>1035.0</ele><time>2026-04-06T14:52:15.795Z</time></trkpt><trkpt lat="45.1670075" lon="7.1662962"><ele>1032.8333333333333</ele><time>2026-04-06T14:52:16.795Z</time></trkpt><trkpt lat="45.1670826" lon="7.1662606"><ele>1030.6666666666667</ele><time>2026-04-06T14:52:17.794Z</time></trkpt><trkpt lat="45.1671543" lon="7.1662562"><ele>1028.5</ele><time>2026-04-06T14:52:18.795Z</time></trkpt><trkpt lat="45.167224" lon="7.1662811"><ele>1026.3333333333335</ele><time>2026-04-06T14:52:19.795Z</time></trkpt><trkpt lat="45.1672896" lon="7.1663266"><ele>1024.1666666666667</ele><time>2026-04-06T14:52:20.794Z</time></trkpt><trkpt lat="45.16735" lon="7.1663959"><ele>1022.0</ele><time>2026-04-06T14:52:21.795Z</time></trkpt><trkpt lat="45.1674119" lon="7.1664639"><ele>1026.5</ele><time>2026-04-06T14:52:22.794Z</time></trkpt><trkpt lat="45.1674595" lon="7.1665412"><ele>1031.0</ele><time>2026-04-06T14:52:23.795Z</time></trkpt><trkpt lat="45.1675633" lon="7.1666388"><ele>1035.5</ele><time>2026-04-06T14:52:25.795Z</time></trkpt><trkpt lat="45.1676711" lon="7.1666255"><ele>1040.0</ele><time>2026-04-06T14:52:27.794Z</time></trkpt><trkpt lat="45.1677251" lon="7.1665724"><ele>1044.5</ele><time>2026-04-06T14:52:28.794Z</time></trkpt><trkpt lat="45.167762" lon="7.1664931"><ele>1049.0</ele><time>2026-04-06T14:52:29.795Z</time></trkpt><trkpt lat="45.1678024" lon="7.1664137"><ele>1050.1666666666667</ele><time>2026-04-06T14:52:30.795Z</time></trkpt><trkpt lat="45.1678563" lon="7.1663412"><ele>1051.3333333333335</ele><time>2026-04-06T14:52:31.794Z</time></trkpt><trkpt lat="45.1679254" lon="7.1662796"><ele>1052.5</ele><time>2026-04-06T14:52:32.795Z</time></trkpt><trkpt lat="45.1679952" lon="7.1662456"><ele>1053.6666666666667</ele><time>2026-04-06T14:52:33.795Z</time></trkpt><trkpt lat="45.1680763" lon="7.1662422"><ele>1054.8333333333333</ele><time>2026-04-06T14:52:34.794Z</time></trkpt><trkpt lat="45.1681591" lon="7.166267"><ele>1056.0</ele><time>2026-04-06T14:52:35.794Z</time></trkpt><trkpt lat="45.1682453" lon="7.1662769"><ele>1061.3999999999999</ele><time>2026-04-06T14:52:36.794Z</time></trkpt><trkpt lat="45.1683332" lon="7.1662902"><ele>1066.8</ele><time>2026-04-06T14:52:37.796Z</time></trkpt><trkpt lat="45.1684155" lon="7.1662461"><ele>1072.1999999999998</ele><time>2026-04-06T14:52:38.795Z</time></trkpt><trkpt lat="45.168516" lon="7.1662086"><ele>1077.6</ele><time>2026-04-06T14:52:39.794Z</time></trkpt><trkpt lat="45.1686024" lon="7.166176"><ele>1083.0</ele><time>2026-04-06T14:52:40.795Z</time></trkpt><trkpt lat="45.1686915" lon="7.1661557"><ele>1083.0</ele><time>2026-04-06T14:52:41.794Z</time></trkpt><trkpt lat="45.1687712" lon="7.1661467"><ele>1083.0</ele><time>2026-04-06T14:52:42.795Z</time></trkpt><trkpt lat="45.1688507" lon="7.1661842"><ele>1083.0</ele><time>2026-04-06T14:52:43.794Z</time></trkpt><trkpt lat="45.1689175" lon="7.1662382"><ele>1083.0</ele><time>2026-04-06T14:52:44.795Z</time></trkpt><trkpt lat="45.1689816" lon="7.1662991"><ele>1083.0</ele><time>2026-04-06T14:52:45.795Z</time></trkpt><trkpt lat="45.1690487" lon="7.1663342"><ele>1083.0</ele><time>2026-04-06T14:52:46.794Z</time></trkpt><trkpt lat="45.1691206" lon="7.1663576"><ele>1083.0</ele><time>2026-04-06T14:52:47.795Z</time></trkpt><trkpt lat="45.1691934" lon="7.1663655"><ele>1083.0</ele><time>2026-04-06T14:52:48.795Z</time></trkpt><trkpt lat="45.1693082" lon="7.1664132"><ele>1083.0</ele><time>2026-04-06T14:52:50.794Z</time></trkpt><trkpt lat="45.1693623" lon="7.1665792"><ele>1083.0</ele><time>2026-04-06T14:52:52.795Z</time></trkpt><trkpt lat="45.1694286" lon="7.1667014"><ele>1083.0</ele><time>2026-04-06T14:52:54.794Z</time></trkpt><trkpt lat="45.1695041" lon="7.1666862"><ele>1083.0</ele><time>2026-04-06T14:52:56.795Z</time></trkpt><trkpt lat="45.1695167" lon="7.1665384"><ele>1083.0</ele><time>2026-04-06T14:52:58.795Z</time></trkpt><trkpt lat="45.1694635" lon="7.1664486"><ele>1083.0</ele><time>2026-04-06T14:52:59.794Z</time></trkpt><trkpt lat="45.1694265" lon="7.166349"><ele>1083.0</ele><time>2026-04-06T14:53:00.794Z</time></trkpt><trkpt lat="45.1693822" lon="7.1662536"><ele>1083.0</ele><time>2026-04-06T14:53:01.795Z</time></trkpt><trkpt lat="45.1693142" lon="7.1661875"><ele>1083.0</ele><time>2026-04-06T14:53:02.794Z</time></trkpt><trkpt lat="45.1692423" lon="7.1661271"><ele>1083.0</ele><time>2026-04-06T14:53:03.795Z</time></trkpt><trkpt lat="45.1691711" lon="7.1660627"><ele>1083.0</ele><time>2026-04-06T14:53:04.794Z</time></trkpt><trkpt lat="45.1691077" lon="7.1659885"><ele>1083.0</ele><time>2026-04-06T14:53:05.794Z</time></trkpt><trkpt lat="45.1690469" lon="7.1659038"><ele>1083.0</ele><time>2026-04-06T14:53:06.794Z</time></trkpt><trkpt lat="45.1689865" lon="7.1658228"><ele>1083.0</ele><time>2026-04-06T14:53:07.796Z</time></trkpt><trkpt lat="45.1689339" lon="7.1657578"><ele>1083.0</ele><time>2026-04-06T14:53:08.795Z</time></trkpt><trkpt lat="45.168874" lon="7.1657017"><ele>1085.5</ele><time>2026-04-06T14:53:09.795Z</time></trkpt><trkpt lat="45.1688116" lon="7.1656555"><ele>1088.0</ele><time>2026-04-06T14:53:10.795Z</time></trkpt><trkpt lat="45.1687445" lon="7.1656247"><ele>1090.5</ele><time>2026-04-06T14:53:11.795Z</time></trkpt><trkpt lat="45.1686768" lon="7.1656064"><ele>1093.0</ele><time>2026-04-06T14:53:12.795Z</time></trkpt><trkpt lat="45.1686025" lon="7.1656049"><ele>1095.5</ele><time>2026-04-06T14:53:13.794Z</time></trkpt><trkpt lat="45.168523" lon="7.1655414"><ele>1098.0</ele><time>2026-04-06T14:53:15.795Z</time></trkpt><trkpt lat="45.1684822" lon="7.1654305"><ele>1098.0</ele><time>2026-04-06T14:53:17.795Z</time></trkpt><trkpt lat="45.1685465" lon="7.165362"><ele>1098.0</ele><time>2026-04-06T14:53:19.795Z</time></trkpt><trkpt lat="45.1686609" lon="7.1653776"><ele>1098.0</ele><time>2026-04-06T14:53:21.794Z</time></trkpt><trkpt lat="45.1687288" lon="7.1653979"><ele>1098.0</ele><time>2026-04-06T14:53:22.794Z</time></trkpt><trkpt lat="45.1688003" lon="7.1654206"><ele>1098.0</ele><time>2026-04-06T14:53:23.794Z</time></trkpt><trkpt lat="45.1688734" lon="7.1654493"><ele>1098.0</ele><time>2026-04-06T14:53:24.795Z</time></trkpt><trkpt lat="45.1689424" lon="7.1654927"><ele>1098.0</ele><time>2026-04-06T14:53:25.795Z</time></trkpt><trkpt lat="45.1690067" lon="7.1655424"><ele>1098.0</ele><time>2026-04-06T14:53:26.794Z</time></trkpt><trkpt lat="45.1691065" lon="7.165625"><ele>1098.0</ele><time>2026-04-06T14:53:28.794Z</time></trkpt><trkpt lat="45.1691683" lon="7.1656819"><ele>1098.0</ele><time>2026-04-06T14:53:48.794Z</time></trkpt><trkpt lat="45.1692325" lon="7.1657203"><ele>1098.0</ele><time>2026-04-06T14:53:50.794Z</time></trkpt><trkpt lat="45.1693279" lon="7.1657648"><ele>1098.0</ele><time>2026-04-06T14:53:52.795Z</time></trkpt><trkpt lat="45.1694385" lon="7.1658035"><ele>1100.6666666666667</ele><time>2026-04-06T14:53:54.794Z</time></trkpt><trkpt lat="45.1695019" lon="7.1658403"><ele>1103.3333333333333</ele><time>2026-04-06T14:53:55.794Z</time></trkpt><trkpt lat="45.1695624" lon="7.1658858"><ele>1106.0</ele><time>2026-04-06T14:53:56.795Z</time></trkpt><trkpt lat="45.16962" lon="7.1659421"><ele>1108.6666666666665</ele><time>2026-04-06T14:53:57.794Z</time></trkpt><trkpt lat="45.1696738" lon="7.1660072"><ele>1111.3333333333333</ele><time>2026-04-06T14:53:58.795Z</time></trkpt><trkpt lat="45.1697281" lon="7.1660772"><ele>1114.0</ele><time>2026-04-06T14:53:59.795Z</time></trkpt><trkpt lat="45.1698023" lon="7.1662199"><ele>1114.0</ele><time>2026-04-06T14:54:01.795Z</time></trkpt><trkpt lat="45.1698254" lon="7.1663248"><ele>1114.0</ele><time>2026-04-06T14:54:02.795Z</time></trkpt><trkpt lat="45.1698446" lon="7.1664263"><ele>1114.0</ele><time>2026-04-06T14:54:03.795Z</time></trkpt><trkpt lat="45.1698637" lon="7.1665209"><ele>1114.0</ele><time>2026-04-06T14:54:04.795Z</time></trkpt><trkpt lat="45.1698908" lon="7.1666157"><ele>1114.0</ele><time>2026-04-06T14:54:05.795Z</time></trkpt><trkpt lat="45.169926" lon="7.1667102"><ele>1114.0</ele><time>2026-04-06T14:54:06.795Z</time></trkpt><trkpt lat="45.1699581" lon="7.1668031"><ele>1114.0</ele><time>2026-04-06T14:54:07.795Z</time></trkpt><trkpt lat="45.1699901" lon="7.1669099"><ele>1115.8</ele><time>2026-04-06T14:54:08.795Z</time></trkpt><trkpt lat="45.1699971" lon="7.1670083"><ele>1117.6000000000001</ele><time>2026-04-06T14:54:09.794Z</time></trkpt><trkpt lat="45.1699729" lon="7.1671038"><ele>1119.4</ele><time>2026-04-06T14:54:10.796Z</time></trkpt><trkpt lat="45.1699923" lon="7.1672949"><ele>1121.2</ele><time>2026-04-06T14:54:12.795Z</time></trkpt><trkpt lat="45.1700346" lon="7.1673828"><ele>1123.0</ele><time>2026-04-06T14:54:13.796Z</time></trkpt><trkpt lat="45.1700899" lon="7.1675042"><ele>1123.0</ele><time>2026-04-06T14:54:15.794Z</time></trkpt><trkpt lat="45.1701565" lon="7.1675493"><ele>1123.0</ele><time>2026-04-06T14:54:16.795Z</time></trkpt><trkpt lat="45.1702797" lon="7.1676467"><ele>1123.0</ele><time>2026-04-06T14:54:18.796Z</time></trkpt><trkpt lat="45.1703569" lon="7.1676879"><ele>1123.0</ele><time>2026-04-06T14:54:19.795Z</time></trkpt><trkpt lat="45.1704572" lon="7.1677682"><ele>1123.0</ele><time>2026-04-06T14:54:20.795Z</time></trkpt><trkpt lat="45.1705313" lon="7.1678142"><ele>1123.0</ele><time>2026-04-06T14:54:21.795Z</time></trkpt><trkpt lat="45.1705948" lon="7.1678706"><ele>1123.0</ele><time>2026-04-06T14:54:22.795Z</time></trkpt><trkpt lat="45.1706623" lon="7.1679335"><ele>1123.0</ele><time>2026-04-06T14:54:23.795Z</time></trkpt><trkpt lat="45.1707376" lon="7.1680084"><ele>1123.0</ele><time>2026-04-06T14:54:24.794Z</time></trkpt><trkpt lat="45.1708586" lon="7.1680829"><ele>1123.0</ele><time>2026-04-06T14:54:26.794Z</time></trkpt><trkpt lat="45.1709358" lon="7.1680515"><ele>1123.0</ele><time>2026-04-06T14:54:28.796Z</time></trkpt><trkpt lat="45.1709102" lon="7.1679221"><ele>1123.0</ele><time>2026-04-06T14:54:30.794Z</time></trkpt><trkpt lat="45.1708653" lon="7.167834"><ele>1123.0</ele><time>2026-04-06T14:54:31.794Z</time></trkpt><trkpt lat="45.1708131" lon="7.167737"><ele>1123.0</ele><time>2026-04-06T14:54:32.794Z</time></trkpt><trkpt lat="45.1707468" lon="7.1676407"><ele>1123.0</ele><time>2026-04-06T14:54:33.796Z</time></trkpt><trkpt lat="45.170671" lon="7.167549"><ele>1123.0</ele><time>2026-04-06T14:54:34.795Z</time></trkpt><trkpt lat="45.170589" lon="7.1674737"><ele>1123.0</ele><time>2026-04-06T14:54:35.796Z</time></trkpt><trkpt lat="45.1705153" lon="7.167412"><ele>1123.0</ele><time>2026-04-06T14:54:36.795Z</time></trkpt><trkpt lat="45.1704624" lon="7.167347"><ele>1123.0</ele><time>2026-04-06T14:54:37.796Z</time></trkpt><trkpt lat="45.1704048" lon="7.1671918"><ele>1123.0</ele><time>2026-04-06T14:54:39.794Z</time></trkpt><trkpt lat="45.1703873" lon="7.1671031"><ele>1123.0</ele><time>2026-04-06T14:54:40.794Z</time></trkpt><trkpt lat="45.1703556" lon="7.1670063"><ele>1124.142857142857</ele><time>2026-04-06T14:54:41.794Z</time></trkpt><trkpt lat="45.1703386" lon="7.1669131"><ele>1125.2857142857142</ele><time>2026-04-06T14:54:42.794Z</time></trkpt><trkpt lat="45.170321" lon="7.1668188"><ele>1126.4285714285716</ele><time>2026-04-06T14:54:43.794Z</time></trkpt><trkpt lat="45.1703004" lon="7.1667235"><ele>1127.5714285714284</ele><time>2026-04-06T14:54:44.794Z</time></trkpt><trkpt lat="45.1703138" lon="7.1665979"><ele>1128.7142857142858</ele><time>2026-04-06T14:54:45.794Z</time></trkpt><trkpt lat="45.1702939" lon="7.1664964"><ele>1129.857142857143</ele><time>2026-04-06T14:54:46.795Z</time></trkpt><trkpt lat="45.1702785" lon="7.1663934"><ele>1131.0</ele><time>2026-04-06T14:54:47.795Z</time></trkpt><trkpt lat="45.1702708" lon="7.1662798"><ele>1134.5</ele><time>2026-04-06T14:54:48.795Z</time></trkpt><trkpt lat="45.1702728" lon="7.1661548"><ele>1138.0</ele><time>2026-04-06T14:54:49.795Z</time></trkpt><trkpt lat="45.1702779" lon="7.1660298"><ele>1141.5</ele><time>2026-04-06T14:54:50.795Z</time></trkpt><trkpt lat="45.170275" lon="7.1659013"><ele>1145.0</ele><time>2026-04-06T14:54:51.794Z</time></trkpt><trkpt lat="45.1702615" lon="7.1657834"><ele>1148.5</ele><time>2026-04-06T14:54:52.794Z</time></trkpt><trkpt lat="45.1702385" lon="7.1656634"><ele>1152.0</ele><time>2026-04-06T14:54:53.794Z</time></trkpt><trkpt lat="45.1701814" lon="7.1655513"><ele>1150.0</ele><time>2026-04-06T14:54:54.795Z</time></trkpt><trkpt lat="45.170128" lon="7.1654368"><ele>1148.0</ele><time>2026-04-06T14:54:55.795Z</time></trkpt><trkpt lat="45.1700663" lon="7.1653275"><ele>1146.0</ele><time>2026-04-06T14:54:56.795Z</time></trkpt><trkpt lat="45.17" lon="7.1652201"><ele>1144.0</ele><time>2026-04-06T14:54:57.795Z</time></trkpt><trkpt lat="45.1699284" lon="7.165116"><ele>1142.0</ele><time>2026-04-06T14:54:58.794Z</time></trkpt><trkpt lat="45.169857" lon="7.1650138"><ele>1142.0</ele><time>2026-04-06T14:54:59.794Z</time></trkpt><trkpt lat="45.1697843" lon="7.1649221"><ele>1142.0</ele><time>2026-04-06T14:55:00.794Z</time></trkpt><trkpt lat="45.1697163" lon="7.1648293"><ele>1142.0</ele><time>2026-04-06T14:55:01.794Z</time></trkpt><trkpt lat="45.169657" lon="7.1647305"><ele>1142.0</ele><time>2026-04-06T14:55:02.794Z</time></trkpt><trkpt lat="45.1696092" lon="7.1646208"><ele>1142.0</ele><time>2026-04-06T14:55:03.796Z</time></trkpt><trkpt lat="45.1695696" lon="7.164507"><ele>1144.4</ele><time>2026-04-06T14:55:04.795Z</time></trkpt><trkpt lat="45.1695377" lon="7.1643838"><ele>1146.8000000000002</ele><time>2026-04-06T14:55:05.794Z</time></trkpt><trkpt lat="45.1695072" lon="7.1642646"><ele>1149.2</ele><time>2026-04-06T14:55:06.794Z</time></trkpt><trkpt lat="45.16947" lon="7.1641478"><ele>1151.6000000000001</ele><time>2026-04-06T14:55:07.793Z</time></trkpt><trkpt lat="45.1694163" lon="7.1640404"><ele>1154.0</ele><time>2026-04-06T14:55:08.794Z</time></trkpt><trkpt lat="45.1693611" lon="7.1639322"><ele>1154.8333333333335</ele><time>2026-04-06T14:55:09.793Z</time></trkpt><trkpt lat="45.1693063" lon="7.1638229"><ele>1155.6666666666667</ele><time>2026-04-06T14:55:10.793Z</time></trkpt><trkpt lat="45.1692569" lon="7.1637271"><ele>1156.5</ele><time>2026-04-06T14:55:11.794Z</time></trkpt><trkpt lat="45.1692227" lon="7.163629"><ele>1157.3333333333333</ele><time>2026-04-06T14:55:12.794Z</time></trkpt><trkpt lat="45.169209" lon="7.1635342"><ele>1158.1666666666665</ele><time>2026-04-06T14:55:13.793Z</time></trkpt><trkpt lat="45.1692117" lon="7.1634341"><ele>1159.0</ele><time>2026-04-06T14:55:14.794Z</time></trkpt><trkpt lat="45.1692358" lon="7.1633392"><ele>1159.0</ele><time>2026-04-06T14:55:15.794Z</time></trkpt><trkpt lat="45.169258" lon="7.163234"><ele>1159.0</ele><time>2026-04-06T14:55:16.794Z</time></trkpt><trkpt lat="45.1692891" lon="7.1631215"><ele>1159.0</ele><time>2026-04-06T14:55:17.794Z</time></trkpt><trkpt lat="45.1693198" lon="7.1630032"><ele>1159.0</ele><time>2026-04-06T14:55:18.794Z</time></trkpt><trkpt lat="45.1693499" lon="7.1628826"><ele>1159.0</ele><time>2026-04-06T14:55:19.794Z</time></trkpt><trkpt lat="45.1693814" lon="7.162761"><ele>1159.0</ele><time>2026-04-06T14:55:20.794Z</time></trkpt><trkpt lat="45.169413" lon="7.1626387"><ele>1156.6666666666665</ele><time>2026-04-06T14:55:21.794Z</time></trkpt><trkpt lat="45.1694466" lon="7.1625157"><ele>1154.3333333333333</ele><time>2026-04-06T14:55:22.794Z</time></trkpt><trkpt lat="45.1694776" lon="7.1624032"><ele>1152.0</ele><time>2026-04-06T14:55:23.793Z</time></trkpt><trkpt lat="45.1695151" lon="7.1623113"><ele>1149.6666666666667</ele><time>2026-04-06T14:55:24.794Z</time></trkpt><trkpt lat="45.1695645" lon="7.162248"><ele>1147.3333333333335</ele><time>2026-04-06T14:55:25.793Z</time></trkpt><trkpt lat="45.1696283" lon="7.1622241"><ele>1145.0</ele><time>2026-04-06T14:55:26.794Z</time></trkpt><trkpt lat="45.1697014" lon="7.1622327"><ele>1142.0</ele><time>2026-04-06T14:55:27.794Z</time></trkpt><trkpt lat="45.1697841" lon="7.1622454"><ele>1139.0</ele><time>2026-04-06T14:55:28.794Z</time></trkpt><trkpt lat="45.1698771" lon="7.1622491"><ele>1136.0</ele><time>2026-04-06T14:55:29.794Z</time></trkpt><trkpt lat="45.1699689" lon="7.1622564"><ele>1133.0</ele><time>2026-04-06T14:55:30.794Z</time></trkpt><trkpt lat="45.1700518" lon="7.1622883"><ele>1130.0</ele><time>2026-04-06T14:55:31.795Z</time></trkpt><trkpt lat="45.1701159" lon="7.1623452"><ele>1127.0</ele><time>2026-04-06T14:55:32.794Z</time></trkpt><trkpt lat="45.1701638" lon="7.1624213"><ele>1138.8</ele><time>2026-04-06T14:55:33.795Z</time></trkpt><trkpt lat="45.1702493" lon="7.1624751"><ele>1150.6</ele><time>2026-04-06T14:55:35.793Z</time></trkpt><trkpt lat="45.1702857" lon="7.1623879"><ele>1162.3999999999999</ele><time>2026-04-06T14:55:37.794Z</time></trkpt><trkpt lat="45.1702691" lon="7.1622151"><ele>1174.2</ele><time>2026-04-06T14:55:39.794Z</time></trkpt><trkpt lat="45.1702658" lon="7.1620921"><ele>1186.0</ele><time>2026-04-06T14:55:40.793Z</time></trkpt><trkpt lat="45.1702676" lon="7.1619692"><ele>1186.0</ele><time>2026-04-06T14:55:41.793Z</time></trkpt><trkpt lat="45.1702688" lon="7.1618343"><ele>1186.0</ele><time>2026-04-06T14:55:42.793Z</time></trkpt><trkpt lat="45.170275" lon="7.1616939"><ele>1186.0</ele><time>2026-04-06T14:55:43.793Z</time></trkpt><trkpt lat="45.1702795" lon="7.1615524"><ele>1186.0</ele><time>2026-04-06T14:55:44.794Z</time></trkpt><trkpt lat="45.1702787" lon="7.1614137"><ele>1186.0</ele><time>2026-04-06T14:55:45.794Z</time></trkpt><trkpt lat="45.1702642" lon="7.1612967"><ele>1185.6</ele><time>2026-04-06T14:55:46.794Z</time></trkpt><trkpt lat="45.1702617" lon="7.1611409"><ele>1185.1999999999998</ele><time>2026-04-06T14:55:48.794Z</time></trkpt><trkpt lat="45.1703329" lon="7.1610534"><ele>1184.8000000000002</ele><time>2026-04-06T14:55:50.793Z</time></trkpt><trkpt lat="45.1704616" lon="7.1611115"><ele>1184.4</ele><time>2026-04-06T14:55:52.794Z</time></trkpt><trkpt lat="45.1705212" lon="7.1611964"><ele>1184.0</ele><time>2026-04-06T14:55:53.794Z</time></trkpt><trkpt lat="45.170574" lon="7.1613002"><ele>1184.0</ele><time>2026-04-06T14:55:54.794Z</time></trkpt><trkpt lat="45.1706171" lon="7.1614317"><ele>1184.0</ele><time>2026-04-06T14:55:55.794Z</time></trkpt><trkpt lat="45.1706632" lon="7.1615565"><ele>1184.0</ele><time>2026-04-06T14:55:56.793Z</time></trkpt><trkpt lat="45.1706666" lon="7.161736"><ele>1184.0</ele><time>2026-04-06T14:55:57.793Z</time></trkpt><trkpt lat="45.1706976" lon="7.1618916"><ele>1184.0</ele><time>2026-04-06T14:55:58.793Z</time></trkpt><trkpt lat="45.1707219" lon="7.1620445"><ele>1191.2857142857142</ele><time>2026-04-06T14:55:59.793Z</time></trkpt><trkpt lat="45.1707351" lon="7.1621716"><ele>1198.5714285714284</ele><time>2026-04-06T14:56:00.794Z</time></trkpt><trkpt lat="45.1707378" lon="7.1622778"><ele>1205.8571428571427</ele><time>2026-04-06T14:56:01.794Z</time></trkpt><trkpt lat="45.1707389" lon="7.1623745"><ele>1213.142857142857</ele><time>2026-04-06T14:56:02.794Z</time></trkpt><trkpt lat="45.1707784" lon="7.1624591"><ele>1220.4285714285713</ele><time>2026-04-06T14:56:04.794Z</time></trkpt><trkpt lat="45.1708431" lon="7.162445"><ele>1227.7142857142856</ele><time>2026-04-06T14:56:06.794Z</time></trkpt><trkpt lat="45.1708657" lon="7.1623387"><ele>1235.0</ele><time>2026-04-06T14:56:07.793Z</time></trkpt><trkpt lat="45.1708934" lon="7.1621758"><ele>1235.0</ele><time>2026-04-06T14:56:09.793Z</time></trkpt><trkpt lat="45.1709288" lon="7.1620559"><ele>1235.0</ele><time>2026-04-06T14:56:10.793Z</time></trkpt><trkpt lat="45.1709596" lon="7.1619258"><ele>1235.0</ele><time>2026-04-06T14:56:11.794Z</time></trkpt><trkpt lat="45.1710023" lon="7.1617988"><ele>1235.0</ele><time>2026-04-06T14:56:12.793Z</time></trkpt><trkpt lat="45.171041" lon="7.1616578"><ele>1235.0</ele><time>2026-04-06T14:56:13.794Z</time></trkpt><trkpt lat="45.171083" lon="7.161515"><ele>1234.4</ele><time>2026-04-06T14:56:14.795Z</time></trkpt><trkpt lat="45.1711348" lon="7.1613766"><ele>1233.8</ele><time>2026-04-06T14:56:15.794Z</time></trkpt><trkpt lat="45.1711819" lon="7.161233"><ele>1233.2</ele><time>2026-04-06T14:56:16.794Z</time></trkpt><trkpt lat="45.171237" lon="7.1610999"><ele>1232.6</ele><time>2026-04-06T14:56:17.794Z</time></trkpt><trkpt lat="45.1712888" lon="7.1609665"><ele>1232.0</ele><time>2026-04-06T14:56:18.794Z</time></trkpt><trkpt lat="45.171331" lon="7.1608235"><ele>1229.4</ele><time>2026-04-06T14:56:19.794Z</time></trkpt><trkpt lat="45.171374" lon="7.1606769"><ele>1226.8000000000002</ele><time>2026-04-06T14:56:20.794Z</time></trkpt><trkpt lat="45.1714249" lon="7.1605359"><ele>1224.2</ele><time>2026-04-06T14:56:21.793Z</time></trkpt><trkpt lat="45.1714825" lon="7.1604015"><ele>1221.6000000000001</ele><time>2026-04-06T14:56:22.793Z</time></trkpt><trkpt lat="45.1715332" lon="7.1602726"><ele>1219.0</ele><time>2026-04-06T14:56:23.794Z</time></trkpt><trkpt lat="45.1716226" lon="7.1601907"><ele>1224.0</ele><time>2026-04-06T14:56:24.793Z</time></trkpt><trkpt lat="45.171681" lon="7.1600772"><ele>1229.0</ele><time>2026-04-06T14:56:25.794Z</time></trkpt><trkpt lat="45.1717178" lon="7.1599925"><ele>1234.0</ele><time>2026-04-06T14:56:26.794Z</time></trkpt><trkpt lat="45.1717497" lon="7.1598969"><ele>1239.0</ele><time>2026-04-06T14:56:27.794Z</time></trkpt><trkpt lat="45.1718223" lon="7.1598047"><ele>1244.0</ele><time>2026-04-06T14:56:29.794Z</time></trkpt><trkpt lat="45.1718412" lon="7.1598904"><ele>1249.0</ele><time>2026-04-06T14:56:32.793Z</time></trkpt><trkpt lat="45.1717889" lon="7.1600698"><ele>1251.6000000000001</ele><time>2026-04-06T14:56:34.793Z</time></trkpt><trkpt lat="45.1717455" lon="7.1601901"><ele>1254.2</ele><time>2026-04-06T14:56:35.793Z</time></trkpt><trkpt lat="45.1717146" lon="7.1603139"><ele>1256.8000000000002</ele><time>2026-04-06T14:56:36.793Z</time></trkpt><trkpt lat="45.1716857" lon="7.1604643"><ele>1259.4</ele><time>2026-04-06T14:56:37.793Z</time></trkpt><trkpt lat="45.1716598" lon="7.1606219"><ele>1262.0</ele><time>2026-04-06T14:56:38.793Z</time></trkpt><trkpt lat="45.1716412" lon="7.1607859"><ele>1265.75</ele><time>2026-04-06T14:56:39.793Z</time></trkpt><trkpt lat="45.1716258" lon="7.1609448"><ele>1269.5</ele><time>2026-04-06T14:56:40.793Z</time></trkpt><trkpt lat="45.1716149" lon="7.1611111"><ele>1273.25</ele><time>2026-04-06T14:56:41.793Z</time></trkpt><trkpt lat="45.1715996" lon="7.1612857"><ele>1277.0</ele><time>2026-04-06T14:56:42.793Z</time></trkpt><trkpt lat="45.1715983" lon="7.1614504"><ele>1280.0</ele><time>2026-04-06T14:56:43.793Z</time></trkpt><trkpt lat="45.1716215" lon="7.1616354"><ele>1283.0</ele><time>2026-04-06T14:56:44.793Z</time></trkpt><trkpt lat="45.171633" lon="7.161809"><ele>1286.0</ele><time>2026-04-06T14:56:45.794Z</time></trkpt><trkpt lat="45.1716265" lon="7.1619731"><ele>1289.0</ele><time>2026-04-06T14:56:46.793Z</time></trkpt><trkpt lat="45.1716263" lon="7.1621398"><ele>1289.0</ele><time>2026-04-06T14:56:47.793Z</time></trkpt><trkpt lat="45.1716099" lon="7.1622614"><ele>1289.0</ele><time>2026-04-06T14:56:48.793Z</time></trkpt><trkpt lat="45.1715975" lon="7.1624176"><ele>1289.0</ele><time>2026-04-06T14:56:49.793Z</time></trkpt><trkpt lat="45.1715763" lon="7.1625288"><ele>1289.0</ele><time>2026-04-06T14:56:50.794Z</time></trkpt><trkpt lat="45.1715569" lon="7.1626144"><ele>1289.0</ele><time>2026-04-06T14:56:51.794Z</time></trkpt><trkpt lat="45.1715309" lon="7.1627622"><ele>1291.0</ele><time>2026-04-06T14:56:53.794Z</time></trkpt><trkpt lat="45.1715646" lon="7.162855"><ele>1293.0</ele><time>2026-04-06T14:56:55.795Z</time></trkpt><trkpt lat="45.1716456" lon="7.1628181"><ele>1295.0</ele><time>2026-04-06T14:56:57.793Z</time></trkpt><trkpt lat="45.1716509" lon="7.162718"><ele>1297.0</ele><time>2026-04-06T14:56:58.793Z</time></trkpt><trkpt lat="45.1716768" lon="7.162623"><ele>1299.0</ele><time>2026-04-06T14:56:59.793Z</time></trkpt><trkpt lat="45.1717101" lon="7.1625217"><ele>1301.0</ele><time>2026-04-06T14:57:00.793Z</time></trkpt><trkpt lat="45.1717415" lon="7.162405"><ele>1298.6</ele><time>2026-04-06T14:57:01.794Z</time></trkpt><trkpt lat="45.1717751" lon="7.1622746"><ele>1296.1999999999998</ele><time>2026-04-06T14:57:02.793Z</time></trkpt><trkpt lat="45.1718232" lon="7.1621455"><ele>1293.8000000000002</ele><time>2026-04-06T14:57:03.794Z</time></trkpt><trkpt lat="45.1718762" lon="7.1620106"><ele>1291.4</ele><time>2026-04-06T14:57:04.795Z</time></trkpt><trkpt lat="45.1719166" lon="7.1619171"><ele>1289.0</ele><time>2026-04-06T14:57:05.794Z</time></trkpt><trkpt lat="45.1719611" lon="7.1617969"><ele>1289.0</ele><time>2026-04-06T14:57:06.794Z</time></trkpt><trkpt lat="45.1719951" lon="7.1616953"><ele>1289.0</ele><time>2026-04-06T14:57:07.793Z</time></trkpt><trkpt lat="45.1720451" lon="7.1615988"><ele>1289.0</ele><time>2026-04-06T14:57:08.793Z</time></trkpt><trkpt lat="45.1720916" lon="7.1614793"><ele>1289.0</ele><time>2026-04-06T14:57:09.794Z</time></trkpt><trkpt lat="45.1721164" lon="7.1613399"><ele>1289.0</ele><time>2026-04-06T14:57:10.794Z</time></trkpt><trkpt lat="45.1721544" lon="7.1612266"><ele>1286.6000000000001</ele><time>2026-04-06T14:57:11.794Z</time></trkpt><trkpt lat="45.1722097" lon="7.1610449"><ele>1284.2</ele><time>2026-04-06T14:57:13.793Z</time></trkpt><trkpt lat="45.1722534" lon="7.1609549"><ele>1281.8000000000002</ele><time>2026-04-06T14:57:14.793Z</time></trkpt><trkpt lat="45.1723106" lon="7.1608733"><ele>1279.4</ele><time>2026-04-06T14:57:15.794Z</time></trkpt><trkpt lat="45.1723952" lon="7.1607989"><ele>1277.0</ele><time>2026-04-06T14:57:16.794Z</time></trkpt><trkpt lat="45.1724588" lon="7.1606962"><ele>1282.4</ele><time>2026-04-06T14:57:17.794Z</time></trkpt><trkpt lat="45.1725433" lon="7.1606205"><ele>1287.8000000000002</ele><time>2026-04-06T14:57:18.794Z</time></trkpt><trkpt lat="45.1726313" lon="7.1605375"><ele>1293.2</ele><time>2026-04-06T14:57:19.794Z</time></trkpt><trkpt lat="45.1727003" lon="7.1604524"><ele>1298.6000000000001</ele><time>2026-04-06T14:57:20.795Z</time></trkpt><trkpt lat="45.1727799" lon="7.1603712"><ele>1304.0</ele><time>2026-04-06T14:57:21.793Z</time></trkpt><trkpt lat="45.1728515" lon="7.1602665"><ele>1304.0</ele><time>2026-04-06T14:57:22.793Z</time></trkpt><trkpt lat="45.1729388" lon="7.1601705"><ele>1304.0</ele><time>2026-04-06T14:57:23.794Z</time></trkpt><trkpt lat="45.1730283" lon="7.1600932"><ele>1304.0</ele><time>2026-04-06T14:57:24.794Z</time></trkpt><trkpt lat="45.1731044" lon="7.1600033"><ele>1304.0</ele><time>2026-04-06T14:57:25.794Z</time></trkpt><trkpt lat="45.1731822" lon="7.1599349"><ele>1304.0</ele><time>2026-04-06T14:57:26.794Z</time></trkpt><trkpt lat="45.1732406" lon="7.159873"><ele>1307.4</ele><time>2026-04-06T14:57:27.794Z</time></trkpt><trkpt lat="45.1733039" lon="7.1598057"><ele>1310.8000000000002</ele><time>2026-04-06T14:57:28.793Z</time></trkpt><trkpt lat="45.173456" lon="7.1597302"><ele>1314.1999999999998</ele><time>2026-04-06T14:57:30.793Z</time></trkpt><trkpt lat="45.1735402" lon="7.1596762"><ele>1317.6</ele><time>2026-04-06T14:57:31.793Z</time></trkpt><trkpt lat="45.1736058" lon="7.1595937"><ele>1321.0</ele><time>2026-04-06T14:57:32.793Z</time></trkpt><trkpt lat="45.1736617" lon="7.1595291"><ele>1321.0</ele><time>2026-04-06T14:57:33.794Z</time></trkpt><trkpt lat="45.1737062" lon="7.1594579"><ele>1321.0</ele><time>2026-04-06T14:57:34.793Z</time></trkpt><trkpt lat="45.1737273" lon="7.1593662"><ele>1321.0</ele><time>2026-04-06T14:57:35.793Z</time></trkpt><trkpt lat="45.1737233" lon="7.1592566"><ele>1321.0</ele><time>2026-04-06T14:57:36.793Z</time></trkpt><trkpt lat="45.1737176" lon="7.1591274"><ele>1321.0</ele><time>2026-04-06T14:57:37.793Z</time></trkpt><trkpt lat="45.1737075" lon="7.1589866"><ele>1321.0</ele><time>2026-04-06T14:57:38.794Z</time></trkpt><trkpt lat="45.1737024" lon="7.1588475"><ele>1321.5</ele><time>2026-04-06T14:57:39.794Z</time></trkpt><trkpt lat="45.1736911" lon="7.1587072"><ele>1322.0</ele><time>2026-04-06T14:57:40.794Z</time></trkpt><trkpt lat="45.1736856" lon="7.1585883"><ele>1322.5</ele><time>2026-04-06T14:57:41.794Z</time></trkpt><trkpt lat="45.1736927" lon="7.1584759"><ele>1323.0</ele><time>2026-04-06T14:57:42.794Z</time></trkpt><trkpt lat="45.1737134" lon="7.1583592"><ele>1323.5</ele><time>2026-04-06T14:57:43.794Z</time></trkpt><trkpt lat="45.173748" lon="7.1582462"><ele>1324.0</ele><time>2026-04-06T14:57:44.795Z</time></trkpt><trkpt lat="45.1737939" lon="7.1581258"><ele>1324.2</ele><time>2026-04-06T14:57:45.794Z</time></trkpt><trkpt lat="45.1738376" lon="7.1580044"><ele>1324.4</ele><time>2026-04-06T14:57:46.794Z</time></trkpt><trkpt lat="45.1738848" lon="7.157884"><ele>1324.6</ele><time>2026-04-06T14:57:47.794Z</time></trkpt><trkpt lat="45.1739303" lon="7.1577651"><ele>1324.8</ele><time>2026-04-06T14:57:48.794Z</time></trkpt><trkpt lat="45.1739771" lon="7.157656"><ele>1325.0</ele><time>2026-04-06T14:57:49.793Z</time></trkpt><trkpt lat="45.174017" lon="7.1575459"><ele>1337.0</ele><time>2026-04-06T14:57:50.794Z</time></trkpt><trkpt lat="45.1740518" lon="7.157446"><ele>1349.0</ele><time>2026-04-06T14:57:51.793Z</time></trkpt><trkpt lat="45.1741031" lon="7.1572916"><ele>1361.0</ele><time>2026-04-06T14:57:53.793Z</time></trkpt><trkpt lat="45.1741774" lon="7.1610018"><ele>1362.0</ele><time>2026-04-06T14:58:58.793Z</time></trkpt><trkpt lat="45.1741137" lon="7.1611338"><ele>1363.0</ele><time>2026-04-06T14:58:59.793Z</time></trkpt><trkpt lat="45.1740331" lon="7.1612394"><ele>1364.0</ele><time>2026-04-06T14:59:00.793Z</time></trkpt><trkpt lat="45.1739605" lon="7.1613539"><ele>1365.0</ele><time>2026-04-06T14:59:01.792Z</time></trkpt><trkpt lat="45.1738682" lon="7.1614488"><ele>1366.0</ele><time>2026-04-06T14:59:02.792Z</time></trkpt><trkpt lat="45.1737905" lon="7.1615577"><ele>1372.25</ele><time>2026-04-06T14:59:03.792Z</time></trkpt><trkpt lat="45.1736494" lon="7.1617283"><ele>1378.5</ele><time>2026-04-06T14:59:05.792Z</time></trkpt><trkpt lat="45.1735858" lon="7.1618357"><ele>1384.75</ele><time>2026-04-06T14:59:06.793Z</time></trkpt><trkpt lat="45.1735292" lon="7.1619341"><ele>1391.0</ele><time>2026-04-06T14:59:07.793Z</time></trkpt><trkpt lat="45.1735017" lon="7.1620724"><ele>1391.0</ele><time>2026-04-06T14:59:08.793Z</time></trkpt><trkpt lat="45.1734834" lon="7.162191"><ele>1391.0</ele><time>2026-04-06T14:59:09.793Z</time></trkpt><trkpt lat="45.1734408" lon="7.1622719"><ele>1391.0</ele><time>2026-04-06T14:59:10.793Z</time></trkpt><trkpt lat="45.1734215" lon="7.1623659"><ele>1391.0</ele><time>2026-04-06T14:59:11.793Z</time></trkpt><trkpt lat="45.173403" lon="7.1624755"><ele>1391.0</ele><time>2026-04-06T14:59:12.793Z</time></trkpt><trkpt lat="45.1733759" lon="7.1625629"><ele>1391.0</ele><time>2026-04-06T14:59:13.793Z</time></trkpt><trkpt lat="45.1733559" lon="7.1626646"><ele>1391.0</ele><time>2026-04-06T14:59:15.793Z</time></trkpt><trkpt lat="45.1734417" lon="7.1626562"><ele>1391.0</ele><time>2026-04-06T14:59:17.793Z</time></trkpt><trkpt lat="45.1735166" lon="7.162608"><ele>1391.0</ele><time>2026-04-06T14:59:19.793Z</time></trkpt><trkpt lat="45.1735443" lon="7.162474"><ele>1391.0</ele><time>2026-04-06T14:59:21.792Z</time></trkpt><trkpt lat="45.1735831" lon="7.1623316"><ele>1391.0</ele><time>2026-04-06T14:59:23.792Z</time></trkpt><trkpt lat="45.1736224" lon="7.1621926"><ele>1391.0</ele><time>2026-04-06T14:59:25.792Z</time></trkpt><trkpt lat="45.1737498" lon="7.1623509"><ele>1395.6</ele><time>2026-04-06T14:59:30.793Z</time></trkpt><trkpt lat="45.1736883" lon="7.1624332"><ele>1400.1999999999998</ele><time>2026-04-06T14:59:32.793Z</time></trkpt><trkpt lat="45.1736738" lon="7.1625899"><ele>1404.8000000000002</ele><time>2026-04-06T14:59:34.793Z</time></trkpt><trkpt lat="45.1736953" lon="7.1627712"><ele>1409.4</ele><time>2026-04-06T14:59:36.793Z</time></trkpt><trkpt lat="45.1736909" lon="7.162873"><ele>1414.0</ele><time>2026-04-06T14:59:37.793Z</time></trkpt><trkpt lat="45.1737087" lon="7.1629696"><ele>1414.0</ele><time>2026-04-06T14:59:38.793Z</time></trkpt><trkpt lat="45.173728" lon="7.1630566"><ele>1414.0</ele><time>2026-04-06T14:59:39.792Z</time></trkpt><trkpt lat="45.1737783" lon="7.1631373"><ele>1414.0</ele><time>2026-04-06T14:59:40.793Z</time></trkpt><trkpt lat="45.1737415" lon="7.1632862"><ele>1414.0</ele><time>2026-04-06T14:59:42.793Z</time></trkpt><trkpt lat="45.1736748" lon="7.1634132"><ele>1414.0</ele><time>2026-04-06T14:59:44.793Z</time></trkpt><trkpt lat="45.1736493" lon="7.1635441"><ele>1414.5</ele><time>2026-04-06T14:59:46.793Z</time></trkpt><trkpt lat="45.1737329" lon="7.1636641"><ele>1415.0</ele><time>2026-04-06T14:59:49.792Z</time></trkpt><trkpt lat="45.1738172" lon="7.1636014"><ele>1415.5</ele><time>2026-04-06T14:59:52.793Z</time></trkpt><trkpt lat="45.1738546" lon="7.1635198"><ele>1416.0</ele><time>2026-04-06T14:59:53.793Z</time></trkpt><trkpt lat="45.1738958" lon="7.1634521"><ele>1416.5</ele><time>2026-04-06T14:59:54.793Z</time></trkpt><trkpt lat="45.1739391" lon="7.1633838"><ele>1417.0</ele><time>2026-04-06T14:59:55.792Z</time></trkpt><trkpt lat="45.1739756" lon="7.163302"><ele>1421.2857142857142</ele><time>2026-04-06T14:59:56.792Z</time></trkpt><trkpt lat="45.1740225" lon="7.1632175"><ele>1425.5714285714284</ele><time>2026-04-06T14:59:57.792Z</time></trkpt><trkpt lat="45.1740374" lon="7.1631248"><ele>1429.8571428571427</ele><time>2026-04-06T14:59:58.792Z</time></trkpt><trkpt lat="45.1740666" lon="7.1630379"><ele>1434.142857142857</ele><time>2026-04-06T14:59:59.792Z</time></trkpt><trkpt lat="45.1741062" lon="7.1629666"><ele>1438.4285714285716</ele><time>2026-04-06T15:00:00.794Z</time></trkpt><trkpt lat="45.1740932" lon="7.1628756"><ele>1442.7142857142856</ele><time>2026-04-06T15:00:01.793Z</time></trkpt><trkpt lat="45.1740939" lon="7.1627835"><ele>1447.0</ele><time>2026-04-06T15:00:02.792Z</time></trkpt><trkpt lat="45.1741322" lon="7.1627084"><ele>1447.0</ele><time>2026-04-06T15:00:03.793Z</time></trkpt><trkpt lat="45.1741706" lon="7.1626288"><ele>1447.0</ele><time>2026-04-06T15:00:04.793Z</time></trkpt><trkpt lat="45.1742103" lon="7.1625448"><ele>1447.0</ele><time>2026-04-06T15:00:05.793Z</time></trkpt><trkpt lat="45.1742621" lon="7.1624575"><ele>1447.0</ele><time>2026-04-06T15:00:06.793Z</time></trkpt><trkpt lat="45.1743029" lon="7.1623804"><ele>1447.0</ele><time>2026-04-06T15:00:07.793Z</time></trkpt><trkpt lat="45.1744223" lon="7.1622585"><ele>1447.0</ele><time>2026-04-06T15:00:09.793Z</time></trkpt><trkpt lat="45.1744912" lon="7.1622209"><ele>1448.8333333333333</ele><time>2026-04-06T15:00:10.793Z</time></trkpt><trkpt lat="45.1745469" lon="7.1621519"><ele>1450.6666666666665</ele><time>2026-04-06T15:00:11.793Z</time></trkpt><trkpt lat="45.1746023" lon="7.1620936"><ele>1452.5</ele><time>2026-04-06T15:00:12.793Z</time></trkpt><trkpt lat="45.1746749" lon="7.16205"><ele>1454.3333333333333</ele><time>2026-04-06T15:00:13.792Z</time></trkpt><trkpt lat="45.1747906" lon="7.1619508"><ele>1456.1666666666667</ele><time>2026-04-06T15:00:15.792Z</time></trkpt><trkpt lat="45.1748356" lon="7.1618495"><ele>1458.0</ele><time>2026-04-06T15:00:16.793Z</time></trkpt><trkpt lat="45.1748792" lon="7.161781"><ele>1458.0</ele><time>2026-04-06T15:00:17.792Z</time></trkpt><trkpt lat="45.1749327" lon="7.1616968"><ele>1458.0</ele><time>2026-04-06T15:00:18.792Z</time></trkpt><trkpt lat="45.1749867" lon="7.161614"><ele>1458.0</ele><time>2026-04-06T15:00:19.793Z</time></trkpt><trkpt lat="45.1750635" lon="7.1615873"><ele>1458.0</ele><time>2026-04-06T15:00:20.792Z</time></trkpt><trkpt lat="45.1751537" lon="7.1615363"><ele>1458.0</ele><time>2026-04-06T15:00:21.792Z</time></trkpt><trkpt lat="45.1752418" lon="7.1614653"><ele>1458.0</ele><time>2026-04-06T15:00:22.793Z</time></trkpt><trkpt lat="45.175325" lon="7.1614191"><ele>1461.8000000000002</ele><time>2026-04-06T15:00:23.793Z</time></trkpt><trkpt lat="45.1754142" lon="7.1613624"><ele>1465.6</ele><time>2026-04-06T15:00:24.793Z</time></trkpt><trkpt lat="45.1754888" lon="7.1612799"><ele>1469.4</ele><time>2026-04-06T15:00:25.792Z</time></trkpt><trkpt lat="45.175562" lon="7.1612053"><ele>1473.1999999999998</ele><time>2026-04-06T15:00:26.792Z</time></trkpt><trkpt lat="45.175635" lon="7.1611312"><ele>1477.0</ele><time>2026-04-06T15:00:27.793Z</time></trkpt><trkpt lat="45.1757127" lon="7.1610627"><ele>1477.0</ele><time>2026-04-06T15:00:28.793Z</time></trkpt><trkpt lat="45.1758735" lon="7.1609398"><ele>1477.0</ele><time>2026-04-06T15:00:30.794Z</time></trkpt><trkpt lat="45.1759422" lon="7.1608838"><ele>1477.0</ele><time>2026-04-06T15:00:31.793Z</time></trkpt><trkpt lat="45.175998" lon="7.1608326"><ele>1477.0</ele><time>2026-04-06T15:00:32.793Z</time></trkpt><trkpt lat="45.1760486" lon="7.1607747"><ele>1477.0</ele><time>2026-04-06T15:00:33.793Z</time></trkpt><trkpt lat="45.1761535" lon="7.1606599"><ele>1474.1666666666665</ele><time>2026-04-06T15:00:35.793Z</time></trkpt><trkpt lat="45.1762054" lon="7.1605902"><ele>1471.3333333333333</ele><time>2026-04-06T15:00:36.792Z</time></trkpt><trkpt lat="45.1762716" lon="7.1605241"><ele>1468.5</ele><time>2026-04-06T15:00:37.792Z</time></trkpt><trkpt lat="45.1763166" lon="7.1604328"><ele>1465.6666666666667</ele><time>2026-04-06T15:00:38.793Z</time></trkpt><trkpt lat="45.1763588" lon="7.1603501"><ele>1462.8333333333335</ele><time>2026-04-06T15:00:39.793Z</time></trkpt><trkpt lat="45.1763841" lon="7.1602599"><ele>1460.0</ele><time>2026-04-06T15:00:40.793Z</time></trkpt><trkpt lat="45.176416" lon="7.1600732"><ele>1460.0</ele><time>2026-04-06T15:00:42.792Z</time></trkpt><trkpt lat="45.1764254" lon="7.159968"><ele>1460.0</ele><time>2026-04-06T15:00:43.792Z</time></trkpt><trkpt lat="45.1764339" lon="7.1598491"><ele>1460.0</ele><time>2026-04-06T15:00:44.792Z</time></trkpt><trkpt lat="45.1764554" lon="7.1597118"><ele>1460.0</ele><time>2026-04-06T15:00:45.792Z</time></trkpt><trkpt lat="45.1764638" lon="7.1595773"><ele>1460.0</ele><time>2026-04-06T15:00:46.792Z</time></trkpt><trkpt lat="45.1764564" lon="7.1594543"><ele>1460.0</ele><time>2026-04-06T15:00:47.793Z</time></trkpt><trkpt lat="45.1764627" lon="7.1593375"><ele>1460.6</ele><time>2026-04-06T15:00:48.793Z</time></trkpt><trkpt lat="45.176464" lon="7.1592311"><ele>1461.2</ele><time>2026-04-06T15:00:49.793Z</time></trkpt><trkpt lat="45.1764723" lon="7.1590167"><ele>1461.8000000000002</ele><time>2026-04-06T15:00:51.793Z</time></trkpt><trkpt lat="45.1764834" lon="7.158899"><ele>1462.4</ele><time>2026-04-06T15:00:52.793Z</time></trkpt><trkpt lat="45.1765085" lon="7.1587616"><ele>1463.0</ele><time>2026-04-06T15:00:53.792Z</time></trkpt><trkpt lat="45.1765679" lon="7.1586019"><ele>1471.8000000000002</ele><time>2026-04-06T15:00:55.792Z</time></trkpt><trkpt lat="45.1766111" lon="7.1584988"><ele>1480.6</ele><time>2026-04-06T15:00:57.793Z</time></trkpt><trkpt lat="45.1766852" lon="7.158524"><ele>1489.4</ele><time>2026-04-06T15:01:00.792Z</time></trkpt><trkpt lat="45.1766476" lon="7.15863"><ele>1498.1999999999998</ele><time>2026-04-06T15:01:02.793Z</time></trkpt><trkpt lat="45.1766071" lon="7.1587907"><ele>1507.0</ele><time>2026-04-06T15:01:04.792Z</time></trkpt><trkpt lat="45.1766186" lon="7.1589277"><ele>1507.5</ele><time>2026-04-06T15:01:05.792Z</time></trkpt><trkpt lat="45.176615" lon="7.1590401"><ele>1508.0</ele><time>2026-04-06T15:01:06.792Z</time></trkpt><trkpt lat="45.1766397" lon="7.159154"><ele>1508.5</ele><time>2026-04-06T15:01:07.793Z</time></trkpt><trkpt lat="45.1766608" lon="7.1592712"><ele>1509.0</ele><time>2026-04-06T15:01:08.793Z</time></trkpt><trkpt lat="45.1766926" lon="7.1593992"><ele>1509.5</ele><time>2026-04-06T15:01:09.792Z</time></trkpt><trkpt lat="45.1767284" lon="7.1595237"><ele>1510.0</ele><time>2026-04-06T15:01:10.794Z</time></trkpt><trkpt lat="45.1767868" lon="7.1597686"><ele>1509.8</ele><time>2026-04-06T15:01:12.792Z</time></trkpt><trkpt lat="45.1768091" lon="7.1598968"><ele>1509.6</ele><time>2026-04-06T15:01:13.793Z</time></trkpt><trkpt lat="45.1768342" lon="7.160012"><ele>1509.4</ele><time>2026-04-06T15:01:14.793Z</time></trkpt><trkpt lat="45.1768672" lon="7.1601326"><ele>1509.2</ele><time>2026-04-06T15:01:15.793Z</time></trkpt><trkpt lat="45.1768962" lon="7.1602595"><ele>1509.0</ele><time>2026-04-06T15:01:16.792Z</time></trkpt><trkpt lat="45.1769167" lon="7.1603807"><ele>1509.0</ele><time>2026-04-06T15:01:17.792Z</time></trkpt><trkpt lat="45.176931" lon="7.1605165"><ele>1509.0</ele><time>2026-04-06T15:01:18.793Z</time></trkpt><trkpt lat="45.1769455" lon="7.1606575"><ele>1509.0</ele><time>2026-04-06T15:01:19.793Z</time></trkpt><trkpt lat="45.1769575" lon="7.1607925"><ele>1509.0</ele><time>2026-04-06T15:01:20.792Z</time></trkpt><trkpt lat="45.1769641" lon="7.1609252"><ele>1509.0</ele><time>2026-04-06T15:01:21.793Z</time></trkpt><trkpt lat="45.1769687" lon="7.161033"><ele>1509.6</ele><time>2026-04-06T15:01:22.792Z</time></trkpt><trkpt lat="45.1769772" lon="7.1611995"><ele>1510.2</ele><time>2026-04-06T15:01:24.793Z</time></trkpt><trkpt lat="45.1769807" lon="7.1613641"><ele>1510.8</ele><time>2026-04-06T15:01:26.792Z</time></trkpt><trkpt lat="45.1769604" lon="7.1615047"><ele>1511.3999999999999</ele><time>2026-04-06T15:01:28.792Z</time></trkpt><trkpt lat="45.1769129" lon="7.1616307"><ele>1512.0</ele><time>2026-04-06T15:01:30.793Z</time></trkpt><trkpt lat="45.1768639" lon="7.161739"><ele>1514.1999999999998</ele><time>2026-04-06T15:01:32.793Z</time></trkpt><trkpt lat="45.1768156" lon="7.1619658"><ele>1516.4</ele><time>2026-04-06T15:01:36.793Z</time></trkpt><trkpt lat="45.1768068" lon="7.1621385"><ele>1518.6</ele><time>2026-04-06T15:01:38.794Z</time></trkpt><trkpt lat="45.1768028" lon="7.1622341"><ele>1520.8000000000002</ele><time>2026-04-06T15:01:39.792Z</time></trkpt><trkpt lat="45.1767987" lon="7.1623338"><ele>1523.0</ele><time>2026-04-06T15:01:40.793Z</time></trkpt><trkpt lat="45.1768017" lon="7.1624354"><ele>1524.8333333333335</ele><time>2026-04-06T15:01:41.793Z</time></trkpt><trkpt lat="45.1768067" lon="7.1625391"><ele>1526.6666666666667</ele><time>2026-04-06T15:01:42.792Z</time></trkpt><trkpt lat="45.1768115" lon="7.1626485"><ele>1528.5</ele><time>2026-04-06T15:01:43.792Z</time></trkpt><trkpt lat="45.1768132" lon="7.1627708"><ele>1530.3333333333333</ele><time>2026-04-06T15:01:44.793Z</time></trkpt><trkpt lat="45.1768096" lon="7.1628973"><ele>1532.1666666666665</ele><time>2026-04-06T15:01:45.792Z</time></trkpt><trkpt lat="45.1768019" lon="7.1630361"><ele>1534.0</ele><time>2026-04-06T15:01:46.792Z</time></trkpt><trkpt lat="45.1767923" lon="7.1631764"><ele>1536.6</ele><time>2026-04-06T15:01:47.792Z</time></trkpt><trkpt lat="45.1767774" lon="7.1632883"><ele>1539.2</ele><time>2026-04-06T15:01:48.792Z</time></trkpt><trkpt lat="45.1767626" lon="7.1633787"><ele>1541.8</ele><time>2026-04-06T15:01:49.792Z</time></trkpt><trkpt lat="45.1767387" lon="7.1634861"><ele>1544.3999999999999</ele><time>2026-04-06T15:01:51.793Z</time></trkpt><trkpt lat="45.1767379" lon="7.1635807"><ele>1547.0</ele><time>2026-04-06T15:01:54.793Z</time></trkpt><trkpt lat="45.1768589" lon="7.1634272"><ele>1546.9999999999998</ele><time>2026-04-06T15:01:59.793Z</time></trkpt><trkpt lat="45.1768911" lon="7.1633472"><ele>1547.0</ele><time>2026-04-06T15:02:00.792Z</time></trkpt><trkpt lat="45.1769313" lon="7.1632666"><ele>1547.0</ele><time>2026-04-06T15:02:01.793Z</time></trkpt><trkpt lat="45.1769842" lon="7.1631865"><ele>1547.0</ele><time>2026-04-06T15:02:02.792Z</time></trkpt><trkpt lat="45.1770485" lon="7.1631145"><ele>1546.9999999999998</ele><time>2026-04-06T15:02:03.793Z</time></trkpt><trkpt lat="45.1771175" lon="7.1630471"><ele>1547.0</ele><time>2026-04-06T15:02:04.792Z</time></trkpt><trkpt lat="45.1771939" lon="7.1629947"><ele>1548.3333333333333</ele><time>2026-04-06T15:02:05.792Z</time></trkpt><trkpt lat="45.1772738" lon="7.1629512"><ele>1549.6666666666665</ele><time>2026-04-06T15:02:06.793Z</time></trkpt><trkpt lat="45.1773596" lon="7.1629182"><ele>1551.0</ele><time>2026-04-06T15:02:07.792Z</time></trkpt><trkpt lat="45.1774442" lon="7.1628928"><ele>1552.3333333333335</ele><time>2026-04-06T15:02:08.793Z</time></trkpt><trkpt lat="45.1775314" lon="7.1628886"><ele>1553.6666666666667</ele><time>2026-04-06T15:02:09.792Z</time></trkpt><trkpt lat="45.1776033" lon="7.1628801"><ele>1555.0</ele><time>2026-04-06T15:02:10.793Z</time></trkpt><trkpt lat="45.1776648" lon="7.1628479"><ele>1555.0</ele><time>2026-04-06T15:02:11.792Z</time></trkpt><trkpt lat="45.1777215" lon="7.1627941"><ele>1555.0</ele><time>2026-04-06T15:02:12.793Z</time></trkpt><trkpt lat="45.1777664" lon="7.1627215"><ele>1555.0</ele><time>2026-04-06T15:02:13.794Z</time></trkpt><trkpt lat="45.1778101" lon="7.1626323"><ele>1555.0</ele><time>2026-04-06T15:02:14.793Z</time></trkpt><trkpt lat="45.1778584" lon="7.1625326"><ele>1555.0</ele><time>2026-04-06T15:02:15.794Z</time></trkpt><trkpt lat="45.1779243" lon="7.1622926"><ele>1554.3333333333335</ele><time>2026-04-06T15:02:17.792Z</time></trkpt><trkpt lat="45.177939" lon="7.1621708"><ele>1553.6666666666667</ele><time>2026-04-06T15:02:18.793Z</time></trkpt><trkpt lat="45.17795" lon="7.1620648"><ele>1553.0</ele><time>2026-04-06T15:02:19.792Z</time></trkpt><trkpt lat="45.1779755" lon="7.1619332"><ele>1552.3333333333335</ele><time>2026-04-06T15:02:21.793Z</time></trkpt><trkpt lat="45.1780484" lon="7.1619185"><ele>1551.6666666666667</ele><time>2026-04-06T15:02:24.793Z</time></trkpt><trkpt lat="45.1780665" lon="7.1620264"><ele>1551.0</ele><time>2026-04-06T15:02:26.793Z</time></trkpt><trkpt lat="45.1780686" lon="7.1621226"><ele>1551.0</ele><time>2026-04-06T15:02:27.792Z</time></trkpt><trkpt lat="45.1780797" lon="7.1622331"><ele>1551.0</ele><time>2026-04-06T15:02:28.792Z</time></trkpt><trkpt lat="45.1781017" lon="7.162354"><ele>1551.0</ele><time>2026-04-06T15:02:29.792Z</time></trkpt><trkpt lat="45.1781318" lon="7.1624865"><ele>1551.0</ele><time>2026-04-06T15:02:30.792Z</time></trkpt><trkpt lat="45.1781556" lon="7.1626315"><ele>1551.0</ele><time>2026-04-06T15:02:31.793Z</time></trkpt><trkpt lat="45.1781693" lon="7.1627804"><ele>1551.8</ele><time>2026-04-06T15:02:32.793Z</time></trkpt><trkpt lat="45.1781832" lon="7.1629339"><ele>1552.6</ele><time>2026-04-06T15:02:33.792Z</time></trkpt><trkpt lat="45.1781941" lon="7.1630854"><ele>1553.4</ele><time>2026-04-06T15:02:34.792Z</time></trkpt><trkpt lat="45.1782062" lon="7.1632327"><ele>1554.2</ele><time>2026-04-06T15:02:35.792Z</time></trkpt><trkpt lat="45.1782077" lon="7.1633649"><ele>1555.0</ele><time>2026-04-06T15:02:36.792Z</time></trkpt><trkpt lat="45.1781865" lon="7.1635677"><ele>1557.4</ele><time>2026-04-06T15:02:38.792Z</time></trkpt><trkpt lat="45.1781672" lon="7.1637111"><ele>1559.8</ele><time>2026-04-06T15:02:40.793Z</time></trkpt><trkpt lat="45.1781739" lon="7.16384"><ele>1562.1999999999998</ele><time>2026-04-06T15:02:42.792Z</time></trkpt><trkpt lat="45.1782111" lon="7.1639627"><ele>1564.6</ele><time>2026-04-06T15:02:44.794Z</time></trkpt><trkpt lat="45.1782893" lon="7.1640622"><ele>1567.0</ele><time>2026-04-06T15:02:46.793Z</time></trkpt><trkpt lat="45.1783834" lon="7.164117"><ele>1570.1999999999998</ele><time>2026-04-06T15:02:48.793Z</time></trkpt><trkpt lat="45.1784892" lon="7.1641234"><ele>1573.4</ele><time>2026-04-06T15:02:50.792Z</time></trkpt><trkpt lat="45.1785899" lon="7.1641199"><ele>1576.6</ele><time>2026-04-06T15:02:52.794Z</time></trkpt><trkpt lat="45.178705" lon="7.164119"><ele>1579.8000000000002</ele><time>2026-04-06T15:02:54.791Z</time></trkpt><trkpt lat="45.1788257" lon="7.1641286"><ele>1583.0</ele><time>2026-04-06T15:02:56.791Z</time></trkpt><trkpt lat="45.1789387" lon="7.1641414"><ele>1586.25</ele><time>2026-04-06T15:02:58.792Z</time></trkpt><trkpt lat="45.1791443" lon="7.164181"><ele>1589.5</ele><time>2026-04-06T15:03:02.792Z</time></trkpt><trkpt lat="45.1792304" lon="7.1642132"><ele>1592.75</ele><time>2026-04-06T15:03:04.791Z</time></trkpt><trkpt lat="45.1793068" lon="7.1642483"><ele>1596.0</ele><time>2026-04-06T15:03:07.793Z</time></trkpt><trkpt lat="45.1793699" lon="7.1643419"><ele>1596.0</ele><time>2026-04-06T15:03:10.791Z</time></trkpt><trkpt lat="45.1793925" lon="7.1644259"><ele>1596.0</ele><time>2026-04-06T15:03:12.792Z</time></trkpt><trkpt lat="45.179443" lon="7.1645171"><ele>1596.0</ele><time>2026-04-06T15:03:14.792Z</time></trkpt><trkpt lat="45.1794704" lon="7.1646431"><ele>1596.0</ele><time>2026-04-06T15:03:16.792Z</time></trkpt><trkpt lat="45.1795132" lon="7.1647244"><ele>1596.0</ele><time>2026-04-06T15:03:18.792Z</time></trkpt><trkpt lat="45.1795961" lon="7.1647841"><ele>1596.0</ele><time>2026-04-06T15:03:21.792Z</time></trkpt><trkpt lat="45.1797494" lon="7.1648953"><ele>1597.0</ele><time>2026-04-06T15:03:26.792Z</time></trkpt><trkpt lat="45.1798241" lon="7.1650132"><ele>1598.0</ele><time>2026-04-06T15:03:28.792Z</time></trkpt><trkpt lat="45.1798738" lon="7.1651453"><ele>1599.0</ele><time>2026-04-06T15:03:30.791Z</time></trkpt><trkpt lat="45.1799212" lon="7.1653168"><ele>1600.0</ele><time>2026-04-06T15:03:32.791Z</time></trkpt><trkpt lat="45.1799485" lon="7.1654134"><ele>1601.0</ele><time>2026-04-06T15:03:33.792Z</time></trkpt><trkpt lat="45.1799708" lon="7.1655189"><ele>1601.0</ele><time>2026-04-06T15:03:34.793Z</time></trkpt><trkpt lat="45.1799836" lon="7.1656208"><ele>1601.0</ele><time>2026-04-06T15:03:35.793Z</time></trkpt><trkpt lat="45.1799865" lon="7.165725"><ele>1601.0</ele><time>2026-04-06T15:03:36.792Z</time></trkpt><trkpt lat="45.1799886" lon="7.1658286"><ele>1601.0</ele><time>2026-04-06T15:03:37.792Z</time></trkpt><trkpt lat="45.1799916" lon="7.1659252"><ele>1601.0</ele><time>2026-04-06T15:03:38.791Z</time></trkpt><trkpt lat="45.1799906" lon="7.166022"><ele>1601.0</ele><time>2026-04-06T15:03:39.792Z</time></trkpt><trkpt lat="45.1799867" lon="7.1661227"><ele>1601.0</ele><time>2026-04-06T15:03:40.793Z</time></trkpt><trkpt lat="45.1799813" lon="7.1662148"><ele>1597.0</ele><time>2026-04-06T15:03:41.792Z</time></trkpt><trkpt lat="45.1799719" lon="7.1663666"><ele>1597.0</ele><time>2026-04-06T15:03:43.792Z</time></trkpt></trkseg><trkseg><trkpt lat="45.1802285" lon="7.1662741"><ele>1597.0</ele><time>2026-04-06T15:49:43.782Z</time></trkpt><trkpt lat="45.1802017" lon="7.1663556"><ele>1597.0</ele><time>2026-04-06T15:50:36.781Z</time></trkpt><trkpt lat="45.180192" lon="7.166448"><ele>1597.0</ele><time>2026-04-06T15:50:41.782Z</time></trkpt><trkpt lat="45.1801793" lon="7.1665518"><ele>1597.0</ele><time>2026-04-06T15:50:45.782Z</time></trkpt><trkpt lat="45.1801228" lon="7.1665981"><ele>1597.0</ele><time>2026-04-06T15:50:49.782Z</time></trkpt><trkpt lat="45.180062" lon="7.1666226"><ele>1597.0</ele><time>2026-04-06T15:50:59.781Z</time></trkpt><trkpt lat="45.1800145" lon="7.1665602"><ele>1597.0</ele><time>2026-04-06T15:51:32.78Z</time></trkpt><trkpt lat="45.180001" lon="7.1664685"><ele>1597.0000000000002</ele><time>2026-04-06T15:51:34.781Z</time></trkpt><trkpt lat="45.1800007" lon="7.1663581"><ele>1597.0</ele><time>2026-04-06T15:51:36.78Z</time></trkpt><trkpt lat="45.1800071" lon="7.1662468"><ele>1597.0</ele><time>2026-04-06T15:51:38.782Z</time></trkpt><trkpt lat="45.1800124" lon="7.1660937"><ele>1597.0</ele><time>2026-04-06T15:51:40.781Z</time></trkpt><trkpt lat="45.1800144" lon="7.1660033"><ele>1597.0000000000002</ele><time>2026-04-06T15:51:41.781Z</time></trkpt><trkpt lat="45.1800178" lon="7.1659061"><ele>1597.0</ele><time>2026-04-06T15:51:42.78Z</time></trkpt><trkpt lat="45.180019" lon="7.1658118"><ele>1597.0000000000002</ele><time>2026-04-06T15:51:43.781Z</time></trkpt><trkpt lat="45.1800182" lon="7.1657204"><ele>1597.0</ele><time>2026-04-06T15:51:44.781Z</time></trkpt><trkpt lat="45.1800192" lon="7.1656274"><ele>1597.0</ele><time>2026-04-06T15:51:45.78Z</time></trkpt><trkpt lat="45.1800077" lon="7.1655346"><ele>1597.0</ele><time>2026-04-06T15:51:46.781Z</time></trkpt><trkpt lat="45.179969" lon="7.1653784"><ele>1597.0000000000002</ele><time>2026-04-06T15:51:48.781Z</time></trkpt><trkpt lat="45.1799207" lon="7.1652203"><ele>1597.0</ele><time>2026-04-06T15:51:50.781Z</time></trkpt><trkpt lat="45.1798677" lon="7.1650836"><ele>1596.8333333333335</ele><time>2026-04-06T15:51:52.781Z</time></trkpt><trkpt lat="45.17981" lon="7.1649777"><ele>1596.6666666666667</ele><time>2026-04-06T15:51:54.78Z</time></trkpt><trkpt lat="45.1797546" lon="7.1649037"><ele>1596.5</ele><time>2026-04-06T15:51:56.78Z</time></trkpt><trkpt lat="45.1796956" lon="7.1648565"><ele>1596.3333333333335</ele><time>2026-04-06T15:51:59.781Z</time></trkpt><trkpt lat="45.1796326" lon="7.164807"><ele>1596.1666666666667</ele><time>2026-04-06T15:52:02.781Z</time></trkpt><trkpt lat="45.1795742" lon="7.1647416"><ele>1596.0</ele><time>2026-04-06T15:52:04.781Z</time></trkpt><trkpt lat="45.1795209" lon="7.1646435"><ele>1596.0</ele><time>2026-04-06T15:52:06.781Z</time></trkpt><trkpt lat="45.1794975" lon="7.1645476"><ele>1596.0</ele><time>2026-04-06T15:52:08.78Z</time></trkpt><trkpt lat="45.1794545" lon="7.164444"><ele>1596.0</ele><time>2026-04-06T15:52:11.78Z</time></trkpt><trkpt lat="45.1794221" lon="7.1643623"><ele>1596.0</ele><time>2026-04-06T15:52:13.781Z</time></trkpt><trkpt lat="45.1793808" lon="7.1642885"><ele>1596.0</ele><time>2026-04-06T15:52:15.78Z</time></trkpt><trkpt lat="45.1792799" lon="7.1642313"><ele>1596.0</ele><time>2026-04-06T15:52:17.781Z</time></trkpt><trkpt lat="45.1791704" lon="7.1641734"><ele>1596.0</ele><time>2026-04-06T15:52:19.781Z</time></trkpt><trkpt lat="45.1790511" lon="7.1641359"><ele>1596.0</ele><time>2026-04-06T15:52:21.781Z</time></trkpt><trkpt lat="45.1789273" lon="7.1641195"><ele>1596.0</ele><time>2026-04-06T15:52:23.78Z</time></trkpt><trkpt lat="45.1788599" lon="7.1641115"><ele>1596.0</ele><time>2026-04-06T15:52:24.781Z</time></trkpt><trkpt lat="45.1787941" lon="7.1641031"><ele>1596.0</ele><time>2026-04-06T15:52:25.78Z</time></trkpt><trkpt lat="45.1786774" lon="7.164102"><ele>1593.8</ele><time>2026-04-06T15:52:27.781Z</time></trkpt><trkpt lat="45.1785621" lon="7.1641082"><ele>1591.6</ele><time>2026-04-06T15:52:29.781Z</time></trkpt><trkpt lat="45.1784463" lon="7.1641038"><ele>1589.4</ele><time>2026-04-06T15:52:31.78Z</time></trkpt><trkpt lat="45.1783485" lon="7.1640773"><ele>1587.2</ele><time>2026-04-06T15:52:33.781Z</time></trkpt><trkpt lat="45.178259" lon="7.1640014"><ele>1585.0</ele><time>2026-04-06T15:52:35.78Z</time></trkpt><trkpt lat="45.178204" lon="7.1638973"><ele>1585.0000000000002</ele><time>2026-04-06T15:52:37.781Z</time></trkpt><trkpt lat="45.1781741" lon="7.1637963"><ele>1585.0</ele><time>2026-04-06T15:52:39.78Z</time></trkpt><trkpt lat="45.1781668" lon="7.1636597"><ele>1585.0</ele><time>2026-04-06T15:52:41.781Z</time></trkpt><trkpt lat="45.178182" lon="7.1635694"><ele>1585.0</ele><time>2026-04-06T15:52:42.781Z</time></trkpt><trkpt lat="45.1781994" lon="7.1634685"><ele>1585.0000000000002</ele><time>2026-04-06T15:52:43.78Z</time></trkpt><trkpt lat="45.1782124" lon="7.163356"><ele>1585.0</ele><time>2026-04-06T15:52:44.781Z</time></trkpt><trkpt lat="45.178213" lon="7.1632418"><ele>1585.1666666666667</ele><time>2026-04-06T15:52:45.78Z</time></trkpt><trkpt lat="45.1782092" lon="7.1631285"><ele>1585.3333333333335</ele><time>2026-04-06T15:52:46.781Z</time></trkpt><trkpt lat="45.1781963" lon="7.1630173"><ele>1585.5</ele><time>2026-04-06T15:52:47.781Z</time></trkpt><trkpt lat="45.1781823" lon="7.1629064"><ele>1585.6666666666665</ele><time>2026-04-06T15:52:48.78Z</time></trkpt><trkpt lat="45.1781741" lon="7.1627963"><ele>1585.8333333333333</ele><time>2026-04-06T15:52:49.78Z</time></trkpt><trkpt lat="45.1781666" lon="7.1626838"><ele>1586.0</ele><time>2026-04-06T15:52:50.781Z</time></trkpt><trkpt lat="45.1781592" lon="7.1625747"><ele>1580.8333333333333</ele><time>2026-04-06T15:52:51.782Z</time></trkpt><trkpt lat="45.1781389" lon="7.1624692"><ele>1575.6666666666665</ele><time>2026-04-06T15:52:52.78Z</time></trkpt><trkpt lat="45.1781144" lon="7.162362"><ele>1570.5</ele><time>2026-04-06T15:52:53.781Z</time></trkpt><trkpt lat="45.1780908" lon="7.162258"><ele>1565.3333333333335</ele><time>2026-04-06T15:52:54.78Z</time></trkpt><trkpt lat="45.1780764" lon="7.1621592"><ele>1560.1666666666667</ele><time>2026-04-06T15:52:55.782Z</time></trkpt><trkpt lat="45.1780746" lon="7.1620632"><ele>1555.0</ele><time>2026-04-06T15:52:56.78Z</time></trkpt><trkpt lat="45.1780701" lon="7.16192"><ele>1555.0000000000002</ele><time>2026-04-06T15:52:58.78Z</time></trkpt><trkpt lat="45.1780125" lon="7.1618719"><ele>1555.0</ele><time>2026-04-06T15:53:00.781Z</time></trkpt><trkpt lat="45.1779743" lon="7.162021"><ele>1555.0</ele><time>2026-04-06T15:53:03.781Z</time></trkpt><trkpt lat="45.1779678" lon="7.1621155"><ele>1555.0</ele><time>2026-04-06T15:53:04.78Z</time></trkpt><trkpt lat="45.1779518" lon="7.1622193"><ele>1555.0000000000002</ele><time>2026-04-06T15:53:05.78Z</time></trkpt><trkpt lat="45.1779285" lon="7.1623366"><ele>1555.0</ele><time>2026-04-06T15:53:06.78Z</time></trkpt><trkpt lat="45.177898" lon="7.1624543"><ele>1555.0000000000002</ele><time>2026-04-06T15:53:07.781Z</time></trkpt><trkpt lat="45.1778519" lon="7.1625624"><ele>1555.0</ele><time>2026-04-06T15:53:08.781Z</time></trkpt><trkpt lat="45.1777971" lon="7.1626594"><ele>1555.0</ele><time>2026-04-06T15:53:09.78Z</time></trkpt><trkpt lat="45.1777502" lon="7.1627437"><ele>1555.0</ele><time>2026-04-06T15:53:10.782Z</time></trkpt><trkpt lat="45.1777001" lon="7.1628097"><ele>1555.0000000000002</ele><time>2026-04-06T15:53:11.781Z</time></trkpt><trkpt lat="45.1776373" lon="7.1628442"><ele>1555.0</ele><time>2026-04-06T15:53:12.782Z</time></trkpt><trkpt lat="45.1775693" lon="7.1628593"><ele>1555.0</ele><time>2026-04-06T15:53:13.781Z</time></trkpt><trkpt lat="45.1775021" lon="7.1628614"><ele>1555.0</ele><time>2026-04-06T15:53:14.78Z</time></trkpt><trkpt lat="45.1774354" lon="7.1628628"><ele>1555.0</ele><time>2026-04-06T15:53:15.781Z</time></trkpt><trkpt lat="45.1773636" lon="7.1628857"><ele>1555.0</ele><time>2026-04-06T15:53:16.78Z</time></trkpt><trkpt lat="45.1772902" lon="7.1629166"><ele>1555.0</ele><time>2026-04-06T15:53:17.781Z</time></trkpt><trkpt lat="45.1772178" lon="7.1629558"><ele>1555.0</ele><time>2026-04-06T15:53:18.78Z</time></trkpt><trkpt lat="45.1771464" lon="7.1630037"><ele>1555.0</ele><time>2026-04-06T15:53:19.782Z</time></trkpt><trkpt lat="45.1770805" lon="7.1630632"><ele>1553.6666666666667</ele><time>2026-04-06T15:53:20.781Z</time></trkpt><trkpt lat="45.1770183" lon="7.1631315"><ele>1552.3333333333335</ele><time>2026-04-06T15:53:21.78Z</time></trkpt><trkpt lat="45.17696" lon="7.1632078"><ele>1551.0</ele><time>2026-04-06T15:53:22.781Z</time></trkpt><trkpt lat="45.1769123" lon="7.1632843"><ele>1549.6666666666665</ele><time>2026-04-06T15:53:23.78Z</time></trkpt><trkpt lat="45.1768625" lon="7.1634304"><ele>1548.3333333333333</ele><time>2026-04-06T15:53:25.781Z</time></trkpt><trkpt lat="45.1768275" lon="7.1635467"><ele>1547.0</ele><time>2026-04-06T15:53:27.781Z</time></trkpt><trkpt lat="45.1767626" lon="7.1635648"><ele>1546.9999999999998</ele><time>2026-04-06T15:53:29.78Z</time></trkpt><trkpt lat="45.1767542" lon="7.1634177"><ele>1547.0</ele><time>2026-04-06T15:53:32.781Z</time></trkpt><trkpt lat="45.1767811" lon="7.163323"><ele>1547.0</ele><time>2026-04-06T15:53:33.78Z</time></trkpt><trkpt lat="45.176799" lon="7.1632179"><ele>1547.0</ele><time>2026-04-06T15:53:34.78Z</time></trkpt><trkpt lat="45.1768039" lon="7.1630977"><ele>1546.9999999999998</ele><time>2026-04-06T15:53:35.781Z</time></trkpt><trkpt lat="45.1768078" lon="7.1629663"><ele>1547.0</ele><time>2026-04-06T15:53:36.78Z</time></trkpt><trkpt lat="45.1768146" lon="7.1628315"><ele>1544.3999999999999</ele><time>2026-04-06T15:53:37.781Z</time></trkpt><trkpt lat="45.1768154" lon="7.1626907"><ele>1541.8</ele><time>2026-04-06T15:53:38.781Z</time></trkpt><trkpt lat="45.1768082" lon="7.1625503"><ele>1539.2</ele><time>2026-04-06T15:53:39.781Z</time></trkpt><trkpt lat="45.1767961" lon="7.1624067"><ele>1536.6</ele><time>2026-04-06T15:53:40.781Z</time></trkpt><trkpt lat="45.1767966" lon="7.1622606"><ele>1534.0</ele><time>2026-04-06T15:53:41.78Z</time></trkpt><trkpt lat="45.1768034" lon="7.1621119"><ele>1531.8000000000002</ele><time>2026-04-06T15:53:42.781Z</time></trkpt><trkpt lat="45.1768212" lon="7.1619648"><ele>1529.6000000000001</ele><time>2026-04-06T15:53:43.78Z</time></trkpt><trkpt lat="45.1768554" lon="7.1618253"><ele>1527.4</ele><time>2026-04-06T15:53:44.781Z</time></trkpt><trkpt lat="45.1768986" lon="7.1616877"><ele>1525.2</ele><time>2026-04-06T15:53:45.78Z</time></trkpt><trkpt lat="45.1769438" lon="7.1615572"><ele>1523.0</ele><time>2026-04-06T15:53:46.781Z</time></trkpt><trkpt lat="45.1769717" lon="7.1614131"><ele>1520.8000000000002</ele><time>2026-04-06T15:53:47.781Z</time></trkpt><trkpt lat="45.1769726" lon="7.1612639"><ele>1518.6</ele><time>2026-04-06T15:53:48.78Z</time></trkpt><trkpt lat="45.1769686" lon="7.16111"><ele>1516.4</ele><time>2026-04-06T15:53:49.78Z</time></trkpt><trkpt lat="45.1769631" lon="7.1609517"><ele>1514.1999999999998</ele><time>2026-04-06T15:53:50.781Z</time></trkpt><trkpt lat="45.1769569" lon="7.1607921"><ele>1512.0</ele><time>2026-04-06T15:53:51.782Z</time></trkpt><trkpt lat="45.1769467" lon="7.1606399"><ele>1511.3999999999999</ele><time>2026-04-06T15:53:52.781Z</time></trkpt><trkpt lat="45.1769268" lon="7.1604938"><ele>1510.8</ele><time>2026-04-06T15:53:53.781Z</time></trkpt><trkpt lat="45.1769063" lon="7.1603594"><ele>1510.2</ele><time>2026-04-06T15:53:54.78Z</time></trkpt><trkpt lat="45.1768834" lon="7.1602422"><ele>1509.6</ele><time>2026-04-06T15:53:55.78Z</time></trkpt><trkpt lat="45.1768603" lon="7.1601239"><ele>1509.0</ele><time>2026-04-06T15:53:56.781Z</time></trkpt><trkpt lat="45.1768394" lon="7.1600067"><ele>1509.0</ele><time>2026-04-06T15:53:57.781Z</time></trkpt><trkpt lat="45.1768138" lon="7.1598857"><ele>1509.0</ele><time>2026-04-06T15:53:58.78Z</time></trkpt><trkpt lat="45.1767907" lon="7.159764"><ele>1509.0</ele><time>2026-04-06T15:53:59.781Z</time></trkpt><trkpt lat="45.1767644" lon="7.159644"><ele>1509.0</ele><time>2026-04-06T15:54:00.781Z</time></trkpt><trkpt lat="45.1767293" lon="7.1595239"><ele>1509.0</ele><time>2026-04-06T15:54:01.78Z</time></trkpt><trkpt lat="45.1766982" lon="7.1594071"><ele>1509.0</ele><time>2026-04-06T15:54:02.781Z</time></trkpt><trkpt lat="45.1766681" lon="7.1592985"><ele>1509.1666666666667</ele><time>2026-04-06T15:54:03.781Z</time></trkpt><trkpt lat="45.1766327" lon="7.1591784"><ele>1509.3333333333333</ele><time>2026-04-06T15:54:04.782Z</time></trkpt><trkpt lat="45.1766231" lon="7.1590733"><ele>1509.5</ele><time>2026-04-06T15:54:05.782Z</time></trkpt><trkpt lat="45.1766218" lon="7.158946"><ele>1509.6666666666665</ele><time>2026-04-06T15:54:06.781Z</time></trkpt><trkpt lat="45.1766246" lon="7.158838"><ele>1509.8333333333333</ele><time>2026-04-06T15:54:07.78Z</time></trkpt><trkpt lat="45.1766158" lon="7.1587407"><ele>1510.0</ele><time>2026-04-06T15:54:08.782Z</time></trkpt><trkpt lat="45.1766333" lon="7.1586393"><ele>1509.4</ele><time>2026-04-06T15:54:09.78Z</time></trkpt><trkpt lat="45.1766718" lon="7.158512"><ele>1508.8</ele><time>2026-04-06T15:54:11.781Z</time></trkpt><trkpt lat="45.1766004" lon="7.1585096"><ele>1508.1999999999998</ele><time>2026-04-06T15:54:14.78Z</time></trkpt><trkpt lat="45.1765393" lon="7.1586599"><ele>1507.6</ele><time>2026-04-06T15:54:16.78Z</time></trkpt><trkpt lat="45.1765139" lon="7.15876"><ele>1507.0</ele><time>2026-04-06T15:54:17.78Z</time></trkpt><trkpt lat="45.1764911" lon="7.1588809"><ele>1492.3333333333333</ele><time>2026-04-06T15:54:18.78Z</time></trkpt><trkpt lat="45.1764514" lon="7.1591416"><ele>1477.6666666666667</ele><time>2026-04-06T15:54:20.779Z</time></trkpt><trkpt lat="45.176428" lon="7.1594087"><ele>1463.0</ele><time>2026-04-06T15:54:22.779Z</time></trkpt><trkpt lat="45.1764133" lon="7.1595447"><ele>1463.0</ele><time>2026-04-06T15:54:23.779Z</time></trkpt><trkpt lat="45.1763974" lon="7.1596899"><ele>1463.0</ele><time>2026-04-06T15:54:24.779Z</time></trkpt><trkpt lat="45.1763896" lon="7.1598342"><ele>1463.0</ele><time>2026-04-06T15:54:25.779Z</time></trkpt><trkpt lat="45.1763659" lon="7.15994"><ele>1463.0</ele><time>2026-04-06T15:54:26.779Z</time></trkpt><trkpt lat="45.1763669" lon="7.1600646"><ele>1463.0</ele><time>2026-04-06T15:54:27.781Z</time></trkpt><trkpt lat="45.1763423" lon="7.1601573"><ele>1463.0</ele><time>2026-04-06T15:54:28.781Z</time></trkpt><trkpt lat="45.1763278" lon="7.1602608"><ele>1462.5</ele><time>2026-04-06T15:54:29.78Z</time></trkpt><trkpt lat="45.1762923" lon="7.1603577"><ele>1462.0</ele><time>2026-04-06T15:54:30.78Z</time></trkpt><trkpt lat="45.1762347" lon="7.1604214"><ele>1461.5</ele><time>2026-04-06T15:54:31.78Z</time></trkpt><trkpt lat="45.1761933" lon="7.1605112"><ele>1461.0</ele><time>2026-04-06T15:54:32.779Z</time></trkpt><trkpt lat="45.1761568" lon="7.1606365"><ele>1460.5</ele><time>2026-04-06T15:54:33.779Z</time></trkpt><trkpt lat="45.1760707" lon="7.1606954"><ele>1460.0</ele><time>2026-04-06T15:54:34.779Z</time></trkpt><trkpt lat="45.1759996" lon="7.16077"><ele>1462.8333333333335</ele><time>2026-04-06T15:54:35.779Z</time></trkpt><trkpt lat="45.1759391" lon="7.1608472"><ele>1465.6666666666667</ele><time>2026-04-06T15:54:36.779Z</time></trkpt><trkpt lat="45.1758656" lon="7.1609148"><ele>1468.5</ele><time>2026-04-06T15:54:37.78Z</time></trkpt><trkpt lat="45.1757855" lon="7.1609769"><ele>1471.3333333333333</ele><time>2026-04-06T15:54:38.779Z</time></trkpt><trkpt lat="45.1757042" lon="7.1610413"><ele>1474.1666666666665</ele><time>2026-04-06T15:54:39.779Z</time></trkpt><trkpt lat="45.1756198" lon="7.1611054"><ele>1477.0</ele><time>2026-04-06T15:54:40.78Z</time></trkpt><trkpt lat="45.175538" lon="7.1611903"><ele>1469.0</ele><time>2026-04-06T15:54:41.78Z</time></trkpt><trkpt lat="45.1754648" lon="7.1612847"><ele>1461.0</ele><time>2026-04-06T15:54:42.78Z</time></trkpt><trkpt lat="45.1753829" lon="7.1613569"><ele>1453.0</ele><time>2026-04-06T15:54:43.78Z</time></trkpt><trkpt lat="45.175299" lon="7.1614139"><ele>1445.0</ele><time>2026-04-06T15:54:44.78Z</time></trkpt><trkpt lat="45.175214" lon="7.1614658"><ele>1437.0</ele><time>2026-04-06T15:54:45.78Z</time></trkpt><trkpt lat="45.1751455" lon="7.1615167"><ele>1435.0</ele><time>2026-04-06T15:54:46.78Z</time></trkpt><trkpt lat="45.1750733" lon="7.1615666"><ele>1433.0</ele><time>2026-04-06T15:54:47.781Z</time></trkpt><trkpt lat="45.1750062" lon="7.1616019"><ele>1431.0</ele><time>2026-04-06T15:54:48.779Z</time></trkpt><trkpt lat="45.1749432" lon="7.1616467"><ele>1429.0</ele><time>2026-04-06T15:54:49.779Z</time></trkpt><trkpt lat="45.1748749" lon="7.1617291"><ele>1427.0</ele><time>2026-04-06T15:54:50.78Z</time></trkpt><trkpt lat="45.174814" lon="7.1618186"><ele>1425.0</ele><time>2026-04-06T15:54:51.781Z</time></trkpt><trkpt lat="45.1747722" lon="7.1619153"><ele>1425.0</ele><time>2026-04-06T15:54:52.78Z</time></trkpt><trkpt lat="45.1747232" lon="7.1619861"><ele>1425.0</ele><time>2026-04-06T15:54:53.781Z</time></trkpt><trkpt lat="45.1746518" lon="7.1620334"><ele>1425.0</ele><time>2026-04-06T15:54:54.78Z</time></trkpt><trkpt lat="45.1745556" lon="7.162095"><ele>1425.0</ele><time>2026-04-06T15:54:55.78Z</time></trkpt><trkpt lat="45.174479" lon="7.1621643"><ele>1425.0</ele><time>2026-04-06T15:54:56.78Z</time></trkpt><trkpt lat="45.1744042" lon="7.1622226"><ele>1425.0</ele><time>2026-04-06T15:54:57.78Z</time></trkpt><trkpt lat="45.1742912" lon="7.1623359"><ele>1423.1666666666667</ele><time>2026-04-06T15:54:59.78Z</time></trkpt><trkpt lat="45.174226" lon="7.1624022"><ele>1421.3333333333333</ele><time>2026-04-06T15:55:00.779Z</time></trkpt><trkpt lat="45.1741661" lon="7.1624812"><ele>1419.5</ele><time>2026-04-06T15:55:01.779Z</time></trkpt><trkpt lat="45.1741336" lon="7.1625664"><ele>1417.6666666666665</ele><time>2026-04-06T15:55:02.779Z</time></trkpt><trkpt lat="45.1740788" lon="7.1626623"><ele>1415.8333333333333</ele><time>2026-04-06T15:55:03.779Z</time></trkpt><trkpt lat="45.1740492" lon="7.1627562"><ele>1414.0</ele><time>2026-04-06T15:55:04.779Z</time></trkpt><trkpt lat="45.174009" lon="7.1628645"><ele>1414.0</ele><time>2026-04-06T15:55:05.779Z</time></trkpt><trkpt lat="45.1739824" lon="7.162977"><ele>1414.0</ele><time>2026-04-06T15:55:06.779Z</time></trkpt><trkpt lat="45.1739586" lon="7.1630732"><ele>1414.0</ele><time>2026-04-06T15:55:07.779Z</time></trkpt><trkpt lat="45.1738931" lon="7.1632349"><ele>1414.0</ele><time>2026-04-06T15:55:09.78Z</time></trkpt><trkpt lat="45.1738406" lon="7.1633212"><ele>1414.0</ele><time>2026-04-06T15:55:10.78Z</time></trkpt><trkpt lat="45.1737964" lon="7.1634159"><ele>1414.0</ele><time>2026-04-06T15:55:11.78Z</time></trkpt><trkpt lat="45.1737504" lon="7.1635591"><ele>1414.0</ele><time>2026-04-06T15:55:13.78Z</time></trkpt><trkpt lat="45.1737026" lon="7.1636579"><ele>1414.0</ele><time>2026-04-06T15:55:15.78Z</time></trkpt><trkpt lat="45.1736912" lon="7.163545"><ele>1414.0</ele><time>2026-04-06T15:55:19.78Z</time></trkpt><trkpt lat="45.1737312" lon="7.1633931"><ele>1414.0</ele><time>2026-04-06T15:55:21.78Z</time></trkpt><trkpt lat="45.1737542" lon="7.1633077"><ele>1414.0</ele><time>2026-04-06T15:55:22.78Z</time></trkpt><trkpt lat="45.1737849" lon="7.1632257"><ele>1414.0</ele><time>2026-04-06T15:55:23.78Z</time></trkpt><trkpt lat="45.1737922" lon="7.1631308"><ele>1414.0</ele><time>2026-04-06T15:55:24.78Z</time></trkpt><trkpt lat="45.1737695" lon="7.1630169"><ele>1414.0</ele><time>2026-04-06T15:55:25.78Z</time></trkpt><trkpt lat="45.17372" lon="7.1628612"><ele>1414.0</ele><time>2026-04-06T15:55:27.78Z</time></trkpt><trkpt lat="45.1736999" lon="7.162768"><ele>1414.0</ele><time>2026-04-06T15:55:28.78Z</time></trkpt><trkpt lat="45.1736984" lon="7.1626786"><ele>1414.0</ele><time>2026-04-06T15:55:29.78Z</time></trkpt><trkpt lat="45.1736907" lon="7.16258"><ele>1414.0</ele><time>2026-04-06T15:55:30.779Z</time></trkpt><trkpt lat="45.1736793" lon="7.1624752"><ele>1414.0</ele><time>2026-04-06T15:55:31.779Z</time></trkpt><trkpt lat="45.1737172" lon="7.1623627"><ele>1414.0</ele><time>2026-04-06T15:55:33.779Z</time></trkpt><trkpt lat="45.1737343" lon="7.1622369"><ele>1414.0</ele><time>2026-04-06T15:55:35.78Z</time></trkpt><trkpt lat="45.1736611" lon="7.162203"><ele>1414.0</ele><time>2026-04-06T15:55:37.78Z</time></trkpt><trkpt lat="45.1735957" lon="7.1622722"><ele>1414.0</ele><time>2026-04-06T15:55:39.78Z</time></trkpt><trkpt lat="45.1735079" lon="7.162384"><ele>1414.0</ele><time>2026-04-06T15:55:41.78Z</time></trkpt><trkpt lat="45.1735053" lon="7.1624831"><ele>1414.0</ele><time>2026-04-06T15:55:42.779Z</time></trkpt><trkpt lat="45.1734899" lon="7.1626321"><ele>1414.0</ele><time>2026-04-06T15:55:44.779Z</time></trkpt><trkpt lat="45.1734394" lon="7.1627066"><ele>1414.0</ele><time>2026-04-06T15:55:46.78Z</time></trkpt><trkpt lat="45.1733946" lon="7.1626142"><ele>1414.0</ele><time>2026-04-06T15:55:48.779Z</time></trkpt><trkpt lat="45.1734322" lon="7.1625264"><ele>1414.0</ele><time>2026-04-06T15:55:49.78Z</time></trkpt><trkpt lat="45.1734185" lon="7.1623836"><ele>1410.1666666666665</ele><time>2026-04-06T15:55:51.779Z</time></trkpt><trkpt lat="45.1734471" lon="7.1622751"><ele>1406.3333333333333</ele><time>2026-04-06T15:55:52.779Z</time></trkpt><trkpt lat="45.1734717" lon="7.162191"><ele>1402.5</ele><time>2026-04-06T15:55:53.78Z</time></trkpt><trkpt lat="45.1734981" lon="7.1620857"><ele>1398.6666666666667</ele><time>2026-04-06T15:55:54.78Z</time></trkpt><trkpt lat="45.1735223" lon="7.1619747"><ele>1394.8333333333335</ele><time>2026-04-06T15:55:55.78Z</time></trkpt><trkpt lat="45.173553" lon="7.1618869"><ele>1391.0</ele><time>2026-04-06T15:55:56.781Z</time></trkpt><trkpt lat="45.1735749" lon="7.1617783"><ele>1391.0</ele><time>2026-04-06T15:55:57.78Z</time></trkpt><trkpt lat="45.1736527" lon="7.161627"><ele>1391.0</ele><time>2026-04-06T15:55:59.779Z</time></trkpt><trkpt lat="45.1737286" lon="7.1615593"><ele>1391.0</ele><time>2026-04-06T15:56:00.78Z</time></trkpt><trkpt lat="45.1737971" lon="7.1614712"><ele>1391.0</ele><time>2026-04-06T15:56:01.78Z</time></trkpt><trkpt lat="45.1738613" lon="7.1613808"><ele>1391.0</ele><time>2026-04-06T15:56:02.78Z</time></trkpt><trkpt lat="45.1739387" lon="7.1613173"><ele>1393.0</ele><time>2026-04-06T15:56:03.78Z</time></trkpt><trkpt lat="45.174004" lon="7.1612228"><ele>1395.0</ele><time>2026-04-06T15:56:04.78Z</time></trkpt><trkpt lat="45.174077" lon="7.1611353"><ele>1397.0</ele><time>2026-04-06T15:56:05.78Z</time></trkpt><trkpt lat="45.1741153" lon="7.160998"><ele>1399.0</ele><time>2026-04-06T15:56:06.78Z</time></trkpt><trkpt lat="45.1741746" lon="7.1608804"><ele>1401.0</ele><time>2026-04-06T15:56:07.78Z</time></trkpt><trkpt lat="45.1742267" lon="7.1607562"><ele>1395.6</ele><time>2026-04-06T15:56:08.78Z</time></trkpt><trkpt lat="45.1743024" lon="7.1606411"><ele>1390.1999999999998</ele><time>2026-04-06T15:56:09.781Z</time></trkpt><trkpt lat="45.1743601" lon="7.1605154"><ele>1384.8000000000002</ele><time>2026-04-06T15:56:10.78Z</time></trkpt><trkpt lat="45.1744229" lon="7.1603905"><ele>1379.4</ele><time>2026-04-06T15:56:11.78Z</time></trkpt><trkpt lat="45.1744851" lon="7.1602701"><ele>1374.0</ele><time>2026-04-06T15:56:12.78Z</time></trkpt><trkpt lat="45.1745417" lon="7.1601569"><ele>1374.0</ele><time>2026-04-06T15:56:13.78Z</time></trkpt><trkpt lat="45.174602" lon="7.1600507"><ele>1374.0</ele><time>2026-04-06T15:56:14.78Z</time></trkpt><trkpt lat="45.174636" lon="7.1599636"><ele>1374.0</ele><time>2026-04-06T15:56:15.78Z</time></trkpt><trkpt lat="45.1746588" lon="7.1598719"><ele>1374.0</ele><time>2026-04-06T15:56:16.78Z</time></trkpt><trkpt lat="45.1746611" lon="7.1597787"><ele>1374.0</ele><time>2026-04-06T15:56:17.78Z</time></trkpt><trkpt lat="45.1746915" lon="7.1596147"><ele>1374.0</ele><time>2026-04-06T15:56:19.78Z</time></trkpt><trkpt lat="45.1746377" lon="7.159474"><ele>1371.0</ele><time>2026-04-06T15:56:20.78Z</time></trkpt><trkpt lat="45.1745994" lon="7.1593523"><ele>1368.0</ele><time>2026-04-06T15:56:21.78Z</time></trkpt><trkpt lat="45.1745259" lon="7.159232"><ele>1365.0</ele><time>2026-04-06T15:56:22.78Z</time></trkpt><trkpt lat="45.17398" lon="7.1576072"><ele>1357.0</ele><time>2026-04-06T15:56:45.779Z</time></trkpt><trkpt lat="45.1739312" lon="7.1577154"><ele>1349.0</ele><time>2026-04-06T15:56:46.78Z</time></trkpt><trkpt lat="45.1738836" lon="7.1578382"><ele>1341.0</ele><time>2026-04-06T15:56:47.781Z</time></trkpt><trkpt lat="45.1738343" lon="7.1579705"><ele>1333.0</ele><time>2026-04-06T15:56:48.78Z</time></trkpt><trkpt lat="45.1737825" lon="7.1581094"><ele>1325.0</ele><time>2026-04-06T15:56:49.78Z</time></trkpt><trkpt lat="45.1737025" lon="7.1583657"><ele>1324.8</ele><time>2026-04-06T15:56:51.779Z</time></trkpt><trkpt lat="45.1736886" lon="7.1584925"><ele>1324.6</ele><time>2026-04-06T15:56:52.78Z</time></trkpt><trkpt lat="45.1736873" lon="7.158627"><ele>1324.4</ele><time>2026-04-06T15:56:53.779Z</time></trkpt><trkpt lat="45.1736952" lon="7.158763"><ele>1324.2</ele><time>2026-04-06T15:56:54.779Z</time></trkpt><trkpt lat="45.1737051" lon="7.1589044"><ele>1324.0</ele><time>2026-04-06T15:56:55.781Z</time></trkpt><trkpt lat="45.1737151" lon="7.1590481"><ele>1323.5</ele><time>2026-04-06T15:56:56.78Z</time></trkpt><trkpt lat="45.1737236" lon="7.1591928"><ele>1323.0</ele><time>2026-04-06T15:56:57.781Z</time></trkpt><trkpt lat="45.1737203" lon="7.1593272"><ele>1322.5</ele><time>2026-04-06T15:56:58.781Z</time></trkpt><trkpt lat="45.1736869" lon="7.1594363"><ele>1322.0</ele><time>2026-04-06T15:56:59.78Z</time></trkpt><trkpt lat="45.1736256" lon="7.1595125"><ele>1321.5</ele><time>2026-04-06T15:57:00.78Z</time></trkpt><trkpt lat="45.1735527" lon="7.159576"><ele>1321.0</ele><time>2026-04-06T15:57:01.78Z</time></trkpt><trkpt lat="45.1734718" lon="7.1596314"><ele>1321.0</ele><time>2026-04-06T15:57:02.78Z</time></trkpt><trkpt lat="45.1733907" lon="7.1596721"><ele>1321.0</ele><time>2026-04-06T15:57:03.78Z</time></trkpt><trkpt lat="45.1733081" lon="7.1597116"><ele>1321.0</ele><time>2026-04-06T15:57:04.78Z</time></trkpt><trkpt lat="45.1732329" lon="7.1597563"><ele>1321.0</ele><time>2026-04-06T15:57:05.78Z</time></trkpt><trkpt lat="45.1731711" lon="7.1598017"><ele>1321.0</ele><time>2026-04-06T15:57:06.781Z</time></trkpt><trkpt lat="45.1730557" lon="7.1599057"><ele>1316.75</ele><time>2026-04-06T15:57:07.78Z</time></trkpt><trkpt lat="45.1729657" lon="7.1599679"><ele>1312.5</ele><time>2026-04-06T15:57:08.78Z</time></trkpt><trkpt lat="45.172875" lon="7.1600764"><ele>1308.25</ele><time>2026-04-06T15:57:09.78Z</time></trkpt><trkpt lat="45.1727851" lon="7.1601807"><ele>1304.0</ele><time>2026-04-06T15:57:10.78Z</time></trkpt><trkpt lat="45.172619" lon="7.1603931"><ele>1304.0</ele><time>2026-04-06T15:57:12.78Z</time></trkpt><trkpt lat="45.1725354" lon="7.1604983"><ele>1304.0</ele><time>2026-04-06T15:57:13.78Z</time></trkpt><trkpt lat="45.172459" lon="7.160579"><ele>1304.0</ele><time>2026-04-06T15:57:14.78Z</time></trkpt><trkpt lat="45.1723691" lon="7.1606748"><ele>1304.0</ele><time>2026-04-06T15:57:15.78Z</time></trkpt><trkpt lat="45.1722972" lon="7.1607639"><ele>1304.0</ele><time>2026-04-06T15:57:16.78Z</time></trkpt><trkpt lat="45.172216" lon="7.1608554"><ele>1298.6000000000001</ele><time>2026-04-06T15:57:17.779Z</time></trkpt><trkpt lat="45.1721662" lon="7.1609892"><ele>1293.2</ele><time>2026-04-06T15:57:18.779Z</time></trkpt><trkpt lat="45.1721268" lon="7.1610744"><ele>1287.8000000000002</ele><time>2026-04-06T15:57:19.779Z</time></trkpt><trkpt lat="45.1720833" lon="7.161171"><ele>1282.4</ele><time>2026-04-06T15:57:20.779Z</time></trkpt><trkpt lat="45.1720388" lon="7.161368"><ele>1277.0</ele><time>2026-04-06T15:57:21.78Z</time></trkpt><trkpt lat="45.1719898" lon="7.1615063"><ele>1279.4</ele><time>2026-04-06T15:57:22.78Z</time></trkpt><trkpt lat="45.1719423" lon="7.1616401"><ele>1281.8000000000002</ele><time>2026-04-06T15:57:23.78Z</time></trkpt><trkpt lat="45.1719043" lon="7.1617884"><ele>1284.2</ele><time>2026-04-06T15:57:24.78Z</time></trkpt><trkpt lat="45.1718555" lon="7.161923"><ele>1286.6000000000001</ele><time>2026-04-06T15:57:25.78Z</time></trkpt><trkpt lat="45.1718099" lon="7.1620797"><ele>1289.0</ele><time>2026-04-06T15:57:26.78Z</time></trkpt><trkpt lat="45.1717774" lon="7.1622237"><ele>1289.0</ele><time>2026-04-06T15:57:27.78Z</time></trkpt><trkpt lat="45.1717315" lon="7.1623452"><ele>1289.0</ele><time>2026-04-06T15:57:28.781Z</time></trkpt><trkpt lat="45.1716889" lon="7.1624611"><ele>1289.0</ele><time>2026-04-06T15:57:29.78Z</time></trkpt><trkpt lat="45.1716723" lon="7.1625659"><ele>1289.0</ele><time>2026-04-06T15:57:30.78Z</time></trkpt><trkpt lat="45.1716491" lon="7.1626744"><ele>1289.0</ele><time>2026-04-06T15:57:31.779Z</time></trkpt><trkpt lat="45.1715687" lon="7.1628263"><ele>1289.0</ele><time>2026-04-06T15:57:33.78Z</time></trkpt><trkpt lat="45.1715197" lon="7.1627409"><ele>1289.0</ele><time>2026-04-06T15:57:35.779Z</time></trkpt><trkpt lat="45.1715238" lon="7.1626298"><ele>1289.0</ele><time>2026-04-06T15:57:37.779Z</time></trkpt><trkpt lat="45.1715277" lon="7.1625277"><ele>1289.0</ele><time>2026-04-06T15:57:38.78Z</time></trkpt><trkpt lat="45.1715268" lon="7.1624144"><ele>1289.0</ele><time>2026-04-06T15:57:39.78Z</time></trkpt><trkpt lat="45.1715499" lon="7.162277"><ele>1289.0</ele><time>2026-04-06T15:57:40.781Z</time></trkpt><trkpt lat="45.1715609" lon="7.162138"><ele>1289.0</ele><time>2026-04-06T15:57:41.781Z</time></trkpt><trkpt lat="45.1715667" lon="7.1619917"><ele>1289.0</ele><time>2026-04-06T15:57:42.78Z</time></trkpt><trkpt lat="45.1715784" lon="7.1618037"><ele>1289.0</ele><time>2026-04-06T15:57:43.779Z</time></trkpt><trkpt lat="45.1715789" lon="7.1616436"><ele>1289.0</ele><time>2026-04-06T15:57:44.78Z</time></trkpt><trkpt lat="45.1715662" lon="7.1614536"><ele>1286.0</ele><time>2026-04-06T15:57:45.78Z</time></trkpt><trkpt lat="45.1715821" lon="7.1612864"><ele>1283.0</ele><time>2026-04-06T15:57:46.78Z</time></trkpt><trkpt lat="45.1715903" lon="7.161119"><ele>1280.0</ele><time>2026-04-06T15:57:47.779Z</time></trkpt><trkpt lat="45.1716115" lon="7.1609473"><ele>1277.0</ele><time>2026-04-06T15:57:48.778Z</time></trkpt><trkpt lat="45.1716172" lon="7.1607536"><ele>1273.25</ele><time>2026-04-06T15:57:49.778Z</time></trkpt><trkpt lat="45.1716236" lon="7.1605851"><ele>1269.5</ele><time>2026-04-06T15:57:50.778Z</time></trkpt><trkpt lat="45.1716606" lon="7.1604425"><ele>1265.75</ele><time>2026-04-06T15:57:51.779Z</time></trkpt><trkpt lat="45.17169" lon="7.1602988"><ele>1262.0</ele><time>2026-04-06T15:57:52.779Z</time></trkpt><trkpt lat="45.171768" lon="7.1600221"><ele>1262.0</ele><time>2026-04-06T15:57:54.78Z</time></trkpt><trkpt lat="45.1718057" lon="7.1599381"><ele>1262.0</ele><time>2026-04-06T15:57:55.779Z</time></trkpt><trkpt lat="45.1718" lon="7.1598002"><ele>1262.0</ele><time>2026-04-06T15:57:57.779Z</time></trkpt><trkpt lat="45.1717164" lon="7.1598623"><ele>1262.0</ele><time>2026-04-06T15:58:00.779Z</time></trkpt><trkpt lat="45.1716702" lon="7.1599716"><ele>1262.0</ele><time>2026-04-06T15:58:01.779Z</time></trkpt><trkpt lat="45.1716066" lon="7.1600858"><ele>1262.0</ele><time>2026-04-06T15:58:02.778Z</time></trkpt><trkpt lat="45.1715447" lon="7.1602095"><ele>1262.0</ele><time>2026-04-06T15:58:03.778Z</time></trkpt><trkpt lat="45.1714671" lon="7.1603223"><ele>1262.0</ele><time>2026-04-06T15:58:04.778Z</time></trkpt><trkpt lat="45.1713891" lon="7.1604397"><ele>1262.0</ele><time>2026-04-06T15:58:05.778Z</time></trkpt><trkpt lat="45.1713085" lon="7.1605665"><ele>1254.5</ele><time>2026-04-06T15:58:06.778Z</time></trkpt><trkpt lat="45.1712538" lon="7.1607329"><ele>1247.0</ele><time>2026-04-06T15:58:07.778Z</time></trkpt><trkpt lat="45.1712242" lon="7.1609643"><ele>1239.5</ele><time>2026-04-06T15:58:08.779Z</time></trkpt><trkpt lat="45.171156" lon="7.1611433"><ele>1232.0</ele><time>2026-04-06T15:58:09.78Z</time></trkpt><trkpt lat="45.1710991" lon="7.1613229"><ele>1232.0</ele><time>2026-04-06T15:58:10.78Z</time></trkpt><trkpt lat="45.1710482" lon="7.1615092"><ele>1232.0</ele><time>2026-04-06T15:58:11.779Z</time></trkpt><trkpt lat="45.1709941" lon="7.1616875"><ele>1232.0</ele><time>2026-04-06T15:58:12.778Z</time></trkpt><trkpt lat="45.1709455" lon="7.161853"><ele>1232.0</ele><time>2026-04-06T15:58:13.779Z</time></trkpt><trkpt lat="45.1708582" lon="7.1621379"><ele>1232.5</ele><time>2026-04-06T15:58:15.779Z</time></trkpt><trkpt lat="45.1708401" lon="7.1622496"><ele>1233.0</ele><time>2026-04-06T15:58:16.778Z</time></trkpt><trkpt lat="45.1708225" lon="7.1623457"><ele>1233.5</ele><time>2026-04-06T15:58:17.78Z</time></trkpt><trkpt lat="45.1707553" lon="7.162382"><ele>1234.0</ele><time>2026-04-06T15:58:20.779Z</time></trkpt><trkpt lat="45.1707598" lon="7.1622833"><ele>1234.5</ele><time>2026-04-06T15:58:22.778Z</time></trkpt><trkpt lat="45.1707524" lon="7.1621556"><ele>1235.0</ele><time>2026-04-06T15:58:23.778Z</time></trkpt><trkpt lat="45.1707438" lon="7.1620348"><ele>1235.0</ele><time>2026-04-06T15:58:24.78Z</time></trkpt><trkpt lat="45.1707136" lon="7.1618417"><ele>1235.0</ele><time>2026-04-06T15:58:25.779Z</time></trkpt><trkpt lat="45.1706875" lon="7.1616829"><ele>1235.0</ele><time>2026-04-06T15:58:26.778Z</time></trkpt><trkpt lat="45.1706578" lon="7.1615288"><ele>1235.0</ele><time>2026-04-06T15:58:27.778Z</time></trkpt><trkpt lat="45.1706205" lon="7.1613841"><ele>1226.5</ele><time>2026-04-06T15:58:28.779Z</time></trkpt><trkpt lat="45.1705696" lon="7.161263"><ele>1218.0</ele><time>2026-04-06T15:58:29.779Z</time></trkpt><trkpt lat="45.1705172" lon="7.1611668"><ele>1209.5</ele><time>2026-04-06T15:58:30.779Z</time></trkpt><trkpt lat="45.1704582" lon="7.1610955"><ele>1201.0</ele><time>2026-04-06T15:58:31.779Z</time></trkpt><trkpt lat="45.1703973" lon="7.1610457"><ele>1192.5</ele><time>2026-04-06T15:58:32.779Z</time></trkpt><trkpt lat="45.1703349" lon="7.161031"><ele>1184.0</ele><time>2026-04-06T15:58:33.779Z</time></trkpt><trkpt lat="45.1702466" lon="7.1611159"><ele>1184.0</ele><time>2026-04-06T15:58:35.778Z</time></trkpt><trkpt lat="45.1702561" lon="7.1614579"><ele>1184.0</ele><time>2026-04-06T15:58:38.778Z</time></trkpt><trkpt lat="45.1702526" lon="7.1616225"><ele>1184.0</ele><time>2026-04-06T15:58:39.779Z</time></trkpt><trkpt lat="45.1702524" lon="7.1617867"><ele>1184.4</ele><time>2026-04-06T15:58:40.778Z</time></trkpt><trkpt lat="45.1702523" lon="7.1619496"><ele>1184.8000000000002</ele><time>2026-04-06T15:58:41.779Z</time></trkpt><trkpt lat="45.1702525" lon="7.162091"><ele>1185.1999999999998</ele><time>2026-04-06T15:58:42.778Z</time></trkpt><trkpt lat="45.1702616" lon="7.1622007"><ele>1185.6</ele><time>2026-04-06T15:58:43.778Z</time></trkpt><trkpt lat="45.17028" lon="7.1622916"><ele>1186.0</ele><time>2026-04-06T15:58:44.779Z</time></trkpt><trkpt lat="45.1703057" lon="7.162444"><ele>1186.0</ele><time>2026-04-06T15:58:46.779Z</time></trkpt><trkpt lat="45.1702096" lon="7.1624408"><ele>1186.0</ele><time>2026-04-06T15:58:48.778Z</time></trkpt><trkpt lat="45.1701035" lon="7.1623111"><ele>1186.0</ele><time>2026-04-06T15:58:50.778Z</time></trkpt><trkpt lat="45.1700157" lon="7.1622661"><ele>1186.0</ele><time>2026-04-06T15:58:51.778Z</time></trkpt><trkpt lat="45.1699195" lon="7.1622482"><ele>1186.0</ele><time>2026-04-06T15:58:52.78Z</time></trkpt><trkpt lat="45.169823" lon="7.1622416"><ele>1177.8</ele><time>2026-04-06T15:58:53.779Z</time></trkpt><trkpt lat="45.1697291" lon="7.1622195"><ele>1169.6</ele><time>2026-04-06T15:58:54.779Z</time></trkpt><trkpt lat="45.1696549" lon="7.1622024"><ele>1161.4</ele><time>2026-04-06T15:58:55.779Z</time></trkpt><trkpt lat="45.1695845" lon="7.1622353"><ele>1153.2</ele><time>2026-04-06T15:58:56.778Z</time></trkpt><trkpt lat="45.1694799" lon="7.1624039"><ele>1145.0</ele><time>2026-04-06T15:58:58.78Z</time></trkpt><trkpt lat="45.1694392" lon="7.162531"><ele>1145.0</ele><time>2026-04-06T15:58:59.779Z</time></trkpt><trkpt lat="45.1694028" lon="7.1626851"><ele>1145.0</ele><time>2026-04-06T15:59:00.779Z</time></trkpt><trkpt lat="45.1693565" lon="7.1628509"><ele>1145.0</ele><time>2026-04-06T15:59:01.778Z</time></trkpt><trkpt lat="45.1693118" lon="7.1630132"><ele>1145.0</ele><time>2026-04-06T15:59:02.778Z</time></trkpt><trkpt lat="45.169272" lon="7.1631711"><ele>1147.8</ele><time>2026-04-06T15:59:03.779Z</time></trkpt><trkpt lat="45.1692364" lon="7.1633172"><ele>1150.6</ele><time>2026-04-06T15:59:04.78Z</time></trkpt><trkpt lat="45.1692086" lon="7.1634412"><ele>1153.4</ele><time>2026-04-06T15:59:05.779Z</time></trkpt><trkpt lat="45.1692065" lon="7.163563"><ele>1156.2</ele><time>2026-04-06T15:59:06.779Z</time></trkpt><trkpt lat="45.1692406" lon="7.1636786"><ele>1159.0</ele><time>2026-04-06T15:59:07.778Z</time></trkpt><trkpt lat="45.1692886" lon="7.1637889"><ele>1159.0</ele><time>2026-04-06T15:59:08.779Z</time></trkpt><trkpt lat="45.1693404" lon="7.1638914"><ele>1159.0</ele><time>2026-04-06T15:59:09.779Z</time></trkpt><trkpt lat="45.1693918" lon="7.1639963"><ele>1159.0</ele><time>2026-04-06T15:59:10.779Z</time></trkpt><trkpt lat="45.169436" lon="7.1640967"><ele>1159.0</ele><time>2026-04-06T15:59:11.778Z</time></trkpt><trkpt lat="45.1694791" lon="7.1641988"><ele>1159.0</ele><time>2026-04-06T15:59:12.778Z</time></trkpt><trkpt lat="45.1695135" lon="7.164306"><ele>1159.0</ele><time>2026-04-06T15:59:13.779Z</time></trkpt><trkpt lat="45.1695384" lon="7.1644152"><ele>1158.0</ele><time>2026-04-06T15:59:14.779Z</time></trkpt><trkpt lat="45.1695687" lon="7.1645236"><ele>1157.0</ele><time>2026-04-06T15:59:15.779Z</time></trkpt><trkpt lat="45.1696028" lon="7.1646286"><ele>1156.0</ele><time>2026-04-06T15:59:16.778Z</time></trkpt><trkpt lat="45.1696499" lon="7.1647246"><ele>1155.0</ele><time>2026-04-06T15:59:17.778Z</time></trkpt><trkpt lat="45.1697693" lon="7.1648981"><ele>1154.0</ele><time>2026-04-06T15:59:19.779Z</time></trkpt><trkpt lat="45.1698404" lon="7.164991"><ele>1158.0</ele><time>2026-04-06T15:59:20.779Z</time></trkpt><trkpt lat="45.1699071" lon="7.1650839"><ele>1162.0</ele><time>2026-04-06T15:59:21.779Z</time></trkpt><trkpt lat="45.1699701" lon="7.1651836"><ele>1166.0</ele><time>2026-04-06T15:59:22.779Z</time></trkpt><trkpt lat="45.1700288" lon="7.1652826"><ele>1170.0</ele><time>2026-04-06T15:59:23.778Z</time></trkpt><trkpt lat="45.1700847" lon="7.165384"><ele>1174.0</ele><time>2026-04-06T15:59:24.779Z</time></trkpt><trkpt lat="45.1701382" lon="7.1654855"><ele>1174.0</ele><time>2026-04-06T15:59:25.779Z</time></trkpt><trkpt lat="45.1701893" lon="7.1655887"><ele>1174.0</ele><time>2026-04-06T15:59:26.779Z</time></trkpt><trkpt lat="45.1702351" lon="7.1656983"><ele>1174.0</ele><time>2026-04-06T15:59:27.778Z</time></trkpt><trkpt lat="45.1702656" lon="7.1658142"><ele>1174.0</ele><time>2026-04-06T15:59:28.778Z</time></trkpt><trkpt lat="45.1702733" lon="7.1659382"><ele>1174.0</ele><time>2026-04-06T15:59:29.778Z</time></trkpt><trkpt lat="45.1702695" lon="7.1660581"><ele>1174.0</ele><time>2026-04-06T15:59:30.778Z</time></trkpt><trkpt lat="45.1702635" lon="7.1661772"><ele>1170.3333333333333</ele><time>2026-04-06T15:59:31.778Z</time></trkpt><trkpt lat="45.1702678" lon="7.1663011"><ele>1166.6666666666665</ele><time>2026-04-06T15:59:32.778Z</time></trkpt><trkpt lat="45.170291" lon="7.1664251"><ele>1163.0</ele><time>2026-04-06T15:59:33.779Z</time></trkpt><trkpt lat="45.1703098" lon="7.1665518"><ele>1159.3333333333333</ele><time>2026-04-06T15:59:34.779Z</time></trkpt><trkpt lat="45.1703222" lon="7.1666758"><ele>1155.6666666666667</ele><time>2026-04-06T15:59:35.779Z</time></trkpt><trkpt lat="45.1703175" lon="7.1667806"><ele>1152.0</ele><time>2026-04-06T15:59:36.778Z</time></trkpt><trkpt lat="45.1703335" lon="7.166885"><ele>1147.8</ele><time>2026-04-06T15:59:37.778Z</time></trkpt><trkpt lat="45.1703522" lon="7.1669948"><ele>1143.6</ele><time>2026-04-06T15:59:38.778Z</time></trkpt><trkpt lat="45.1704031" lon="7.1672153"><ele>1139.3999999999999</ele><time>2026-04-06T15:59:40.778Z</time></trkpt><trkpt lat="45.1704593" lon="7.1673602"><ele>1135.2</ele><time>2026-04-06T15:59:42.778Z</time></trkpt><trkpt lat="45.170526" lon="7.1674121"><ele>1131.0</ele><time>2026-04-06T15:59:43.779Z</time></trkpt><trkpt lat="45.1705966" lon="7.167472"><ele>1129.6666666666667</ele><time>2026-04-06T15:59:44.779Z</time></trkpt><trkpt lat="45.1706675" lon="7.1675472"><ele>1128.3333333333333</ele><time>2026-04-06T15:59:45.779Z</time></trkpt><trkpt lat="45.1707321" lon="7.1676314"><ele>1127.0</ele><time>2026-04-06T15:59:46.778Z</time></trkpt><trkpt lat="45.1707885" lon="7.167721"><ele>1125.6666666666665</ele><time>2026-04-06T15:59:47.778Z</time></trkpt><trkpt lat="45.170837" lon="7.1678045"><ele>1124.3333333333333</ele><time>2026-04-06T15:59:48.778Z</time></trkpt><trkpt lat="45.1708772" lon="7.1678742"><ele>1123.0</ele><time>2026-04-06T15:59:49.778Z</time></trkpt><trkpt lat="45.1709211" lon="7.1680015"><ele>1123.0</ele><time>2026-04-06T15:59:51.779Z</time></trkpt><trkpt lat="45.1708653" lon="7.1680817"><ele>1123.0</ele><time>2026-04-06T15:59:53.778Z</time></trkpt><trkpt lat="45.1707478" lon="7.1680198"><ele>1123.0</ele><time>2026-04-06T15:59:55.779Z</time></trkpt><trkpt lat="45.170674" lon="7.1679425"><ele>1123.0</ele><time>2026-04-06T15:59:56.779Z</time></trkpt><trkpt lat="45.1705939" lon="7.1678626"><ele>1123.0</ele><time>2026-04-06T15:59:57.778Z</time></trkpt><trkpt lat="45.1705123" lon="7.1677833"><ele>1123.0</ele><time>2026-04-06T15:59:58.779Z</time></trkpt><trkpt lat="45.1704242" lon="7.1677335"><ele>1123.0</ele><time>2026-04-06T15:59:59.78Z</time></trkpt><trkpt lat="45.1702508" lon="7.1676265"><ele>1123.0</ele><time>2026-04-06T16:00:01.778Z</time></trkpt><trkpt lat="45.1701824" lon="7.1675849"><ele>1123.0</ele><time>2026-04-06T16:00:02.779Z</time></trkpt><trkpt lat="45.1700987" lon="7.1675235"><ele>1123.0</ele><time>2026-04-06T16:00:03.778Z</time></trkpt><trkpt lat="45.1700522" lon="7.1674593"><ele>1123.0</ele><time>2026-04-06T16:00:04.779Z</time></trkpt><trkpt lat="45.1700221" lon="7.1673434"><ele>1123.0</ele><time>2026-04-06T16:00:05.778Z</time></trkpt><trkpt lat="45.1699774" lon="7.1671717"><ele>1123.0</ele><time>2026-04-06T16:00:07.779Z</time></trkpt><trkpt lat="45.1699728" lon="7.1670665"><ele>1123.0</ele><time>2026-04-06T16:00:08.779Z</time></trkpt><trkpt lat="45.1699903" lon="7.166963"><ele>1123.0</ele><time>2026-04-06T16:00:09.778Z</time></trkpt><trkpt lat="45.1699573" lon="7.1667738"><ele>1124.3333333333333</ele><time>2026-04-06T16:00:11.778Z</time></trkpt><trkpt lat="45.1699278" lon="7.1666773"><ele>1125.6666666666665</ele><time>2026-04-06T16:00:12.779Z</time></trkpt><trkpt lat="45.1699012" lon="7.1665705"><ele>1127.0</ele><time>2026-04-06T16:00:13.778Z</time></trkpt><trkpt lat="45.1698776" lon="7.1664472"><ele>1128.3333333333333</ele><time>2026-04-06T16:00:14.778Z</time></trkpt><trkpt lat="45.1698573" lon="7.1663368"><ele>1129.6666666666667</ele><time>2026-04-06T16:00:15.779Z</time></trkpt><trkpt lat="45.1698301" lon="7.1662327"><ele>1131.0</ele><time>2026-04-06T16:00:16.779Z</time></trkpt><trkpt lat="45.1697967" lon="7.1661408"><ele>1126.75</ele><time>2026-04-06T16:00:17.779Z</time></trkpt><trkpt lat="45.1697523" lon="7.1660542"><ele>1122.5</ele><time>2026-04-06T16:00:18.779Z</time></trkpt><trkpt lat="45.1696805" lon="7.1659685"><ele>1118.25</ele><time>2026-04-06T16:00:19.78Z</time></trkpt><trkpt lat="45.1695778" lon="7.1658888"><ele>1114.0</ele><time>2026-04-06T16:00:20.779Z</time></trkpt><trkpt lat="45.1693871" lon="7.1657805"><ele>1114.0</ele><time>2026-04-06T16:00:22.778Z</time></trkpt><trkpt lat="45.1692909" lon="7.1657335"><ele>1114.0</ele><time>2026-04-06T16:00:23.778Z</time></trkpt><trkpt lat="45.1691979" lon="7.1656905"><ele>1114.0</ele><time>2026-04-06T16:00:24.779Z</time></trkpt><trkpt lat="45.1691172" lon="7.165626"><ele>1114.0</ele><time>2026-04-06T16:00:25.779Z</time></trkpt><trkpt lat="45.1690437" lon="7.1655544"><ele>1114.0</ele><time>2026-04-06T16:00:26.779Z</time></trkpt><trkpt lat="45.168966" lon="7.1654907"><ele>1111.3333333333333</ele><time>2026-04-06T16:00:27.779Z</time></trkpt><trkpt lat="45.1688772" lon="7.1654382"><ele>1108.6666666666665</ele><time>2026-04-06T16:00:28.779Z</time></trkpt><trkpt lat="45.1687882" lon="7.1654032"><ele>1106.0</ele><time>2026-04-06T16:00:29.778Z</time></trkpt><trkpt lat="45.1687078" lon="7.1653714"><ele>1103.3333333333333</ele><time>2026-04-06T16:00:30.778Z</time></trkpt><trkpt lat="45.1686392" lon="7.1653425"><ele>1100.6666666666667</ele><time>2026-04-06T16:00:31.778Z</time></trkpt><trkpt lat="45.1685764" lon="7.165327"><ele>1098.0</ele><time>2026-04-06T16:00:32.778Z</time></trkpt><trkpt lat="45.1684894" lon="7.1653715"><ele>1098.0</ele><time>2026-04-06T16:00:34.776Z</time></trkpt><trkpt lat="45.1684848" lon="7.1655002"><ele>1098.0</ele><time>2026-04-06T16:00:36.778Z</time></trkpt><trkpt lat="45.1685518" lon="7.1655786"><ele>1098.0</ele><time>2026-04-06T16:00:38.778Z</time></trkpt><trkpt lat="45.1686504" lon="7.1656046"><ele>1098.0</ele><time>2026-04-06T16:00:40.778Z</time></trkpt><trkpt lat="45.1687443" lon="7.1656341"><ele>1098.0</ele><time>2026-04-06T16:00:42.78Z</time></trkpt><trkpt lat="45.1689791" lon="7.1658346"><ele>1101.2</ele><time>2026-04-06T16:02:54.78Z</time></trkpt><trkpt lat="45.1690496" lon="7.1659167"><ele>1104.4</ele><time>2026-04-06T16:02:57.779Z</time></trkpt><trkpt lat="45.1691229" lon="7.1660121"><ele>1107.6000000000001</ele><time>2026-04-06T16:02:59.779Z</time></trkpt><trkpt lat="45.1692248" lon="7.1661153"><ele>1110.8</ele><time>2026-04-06T16:03:01.779Z</time></trkpt><trkpt lat="45.1692861" lon="7.1661636"><ele>1114.0</ele><time>2026-04-06T16:03:02.779Z</time></trkpt><trkpt lat="45.1693383" lon="7.166222"><ele>1114.0</ele><time>2026-04-06T16:03:03.779Z</time></trkpt><trkpt lat="45.1693816" lon="7.1662891"><ele>1114.0</ele><time>2026-04-06T16:03:04.779Z</time></trkpt><trkpt lat="45.169416" lon="7.1663647"><ele>1114.0</ele><time>2026-04-06T16:03:05.779Z</time></trkpt><trkpt lat="45.1694776" lon="7.1665013"><ele>1114.0</ele><time>2026-04-06T16:03:07.779Z</time></trkpt><trkpt lat="45.1694998" lon="7.1666124"><ele>1114.0</ele><time>2026-04-06T16:03:09.778Z</time></trkpt><trkpt lat="45.1694386" lon="7.1666633"><ele>1114.0</ele><time>2026-04-06T16:03:11.778Z</time></trkpt><trkpt lat="45.1693735" lon="7.1665749"><ele>1114.0</ele><time>2026-04-06T16:03:13.778Z</time></trkpt><trkpt lat="45.1693065" lon="7.1664314"><ele>1114.0</ele><time>2026-04-06T16:03:15.778Z</time></trkpt><trkpt lat="45.1692243" lon="7.1664116"><ele>1114.0</ele><time>2026-04-06T16:03:16.779Z</time></trkpt><trkpt lat="45.1691564" lon="7.166379"><ele>1114.0</ele><time>2026-04-06T16:03:17.779Z</time></trkpt><trkpt lat="45.1690777" lon="7.1663717"><ele>1114.0</ele><time>2026-04-06T16:03:18.779Z</time></trkpt><trkpt lat="45.1690081" lon="7.1663387"><ele>1114.0</ele><time>2026-04-06T16:03:19.78Z</time></trkpt><trkpt lat="45.168939" lon="7.1662874"><ele>1108.8333333333333</ele><time>2026-04-06T16:03:20.779Z</time></trkpt><trkpt lat="45.1688691" lon="7.1662217"><ele>1103.6666666666665</ele><time>2026-04-06T16:03:21.78Z</time></trkpt><trkpt lat="45.1687986" lon="7.1661842"><ele>1098.5</ele><time>2026-04-06T16:03:22.779Z</time></trkpt><trkpt lat="45.1687301" lon="7.1661633"><ele>1093.3333333333333</ele><time>2026-04-06T16:03:23.779Z</time></trkpt><trkpt lat="45.168653" lon="7.1661815"><ele>1088.1666666666667</ele><time>2026-04-06T16:03:24.779Z</time></trkpt><trkpt lat="45.1685814" lon="7.1662075"><ele>1083.0</ele><time>2026-04-06T16:03:25.779Z</time></trkpt><trkpt lat="45.1685008" lon="7.1662408"><ele>1083.0</ele><time>2026-04-06T16:03:26.78Z</time></trkpt><trkpt lat="45.1684208" lon="7.1662774"><ele>1083.0</ele><time>2026-04-06T16:03:27.779Z</time></trkpt><trkpt lat="45.1683256" lon="7.1663003"><ele>1083.0</ele><time>2026-04-06T16:03:28.778Z</time></trkpt><trkpt lat="45.16823" lon="7.1662991"><ele>1083.0</ele><time>2026-04-06T16:03:29.779Z</time></trkpt><trkpt lat="45.1681292" lon="7.1662804"><ele>1083.0</ele><time>2026-04-06T16:03:30.778Z</time></trkpt><trkpt lat="45.1680326" lon="7.1662716"><ele>1078.5</ele><time>2026-04-06T16:03:31.779Z</time></trkpt><trkpt lat="45.1679446" lon="7.1662643"><ele>1074.0</ele><time>2026-04-06T16:03:32.778Z</time></trkpt><trkpt lat="45.1678539" lon="7.1662867"><ele>1069.5</ele><time>2026-04-06T16:03:33.779Z</time></trkpt><trkpt lat="45.1678228" lon="7.1664076"><ele>1065.0</ele><time>2026-04-06T16:03:34.778Z</time></trkpt><trkpt lat="45.1677671" lon="7.1664886"><ele>1060.5</ele><time>2026-04-06T16:03:35.779Z</time></trkpt><trkpt lat="45.1677179" lon="7.1665721"><ele>1056.0</ele><time>2026-04-06T16:03:36.778Z</time></trkpt><trkpt lat="45.1676643" lon="7.1666274"><ele>1056.0</ele><time>2026-04-06T16:03:37.779Z</time></trkpt><trkpt lat="45.1675359" lon="7.166639"><ele>1056.0</ele><time>2026-04-06T16:03:39.779Z</time></trkpt><trkpt lat="45.1674731" lon="7.1665863"><ele>1056.0</ele><time>2026-04-06T16:03:40.779Z</time></trkpt><trkpt lat="45.1674014" lon="7.1665175"><ele>1056.0</ele><time>2026-04-06T16:03:41.778Z</time></trkpt><trkpt lat="45.1673477" lon="7.1664235"><ele>1056.0</ele><time>2026-04-06T16:03:42.779Z</time></trkpt><trkpt lat="45.1672721" lon="7.1663457"><ele>1050.3333333333333</ele><time>2026-04-06T16:03:43.778Z</time></trkpt><trkpt lat="45.167206" lon="7.1662738"><ele>1044.6666666666667</ele><time>2026-04-06T16:03:44.778Z</time></trkpt><trkpt lat="45.1671347" lon="7.166261"><ele>1039.0</ele><time>2026-04-06T16:03:45.778Z</time></trkpt><trkpt lat="45.1670423" lon="7.1662596"><ele>1033.3333333333335</ele><time>2026-04-06T16:03:46.779Z</time></trkpt><trkpt lat="45.1669842" lon="7.1663444"><ele>1027.6666666666667</ele><time>2026-04-06T16:03:47.779Z</time></trkpt><trkpt lat="45.166914" lon="7.1663735"><ele>1022.0</ele><time>2026-04-06T16:03:48.778Z</time></trkpt><trkpt lat="45.1668596" lon="7.1664268"><ele>1024.6</ele><time>2026-04-06T16:03:49.779Z</time></trkpt><trkpt lat="45.1668067" lon="7.1665372"><ele>1027.2</ele><time>2026-04-06T16:03:51.78Z</time></trkpt><trkpt lat="45.1668638" lon="7.1666162"><ele>1029.8</ele><time>2026-04-06T16:03:53.778Z</time></trkpt><trkpt lat="45.1669949" lon="7.1666128"><ele>1032.4</ele><time>2026-04-06T16:03:55.779Z</time></trkpt><trkpt lat="45.1670619" lon="7.1666189"><ele>1035.0</ele><time>2026-04-06T16:03:56.779Z</time></trkpt><trkpt lat="45.1671693" lon="7.1667126"><ele>1035.0</ele><time>2026-04-06T16:03:58.778Z</time></trkpt><trkpt lat="45.1672262" lon="7.1668388"><ele>1035.0</ele><time>2026-04-06T16:04:00.779Z</time></trkpt><trkpt lat="45.1671956" lon="7.1669566"><ele>1035.0</ele><time>2026-04-06T16:04:02.778Z</time></trkpt><trkpt lat="45.1670813" lon="7.166996"><ele>1035.0</ele><time>2026-04-06T16:04:04.779Z</time></trkpt><trkpt lat="45.1669955" lon="7.1670042"><ele>1035.0</ele><time>2026-04-06T16:04:05.778Z</time></trkpt><trkpt lat="45.1668995" lon="7.1670353"><ele>1035.0</ele><time>2026-04-06T16:04:06.777Z</time></trkpt><trkpt lat="45.1667963" lon="7.1670727"><ele>1035.0</ele><time>2026-04-06T16:04:07.777Z</time></trkpt><trkpt lat="45.1667047" lon="7.1671575"><ele>1035.0</ele><time>2026-04-06T16:04:08.777Z</time></trkpt><trkpt lat="45.1665977" lon="7.1672093"><ele>1035.0</ele><time>2026-04-06T16:04:09.777Z</time></trkpt><trkpt lat="45.1665134" lon="7.1672908"><ele>1035.0</ele><time>2026-04-06T16:04:10.777Z</time></trkpt><trkpt lat="45.1664568" lon="7.16737"><ele>1030.4</ele><time>2026-04-06T16:04:11.778Z</time></trkpt><trkpt lat="45.1663827" lon="7.1674068"><ele>1025.8</ele><time>2026-04-06T16:04:12.778Z</time></trkpt><trkpt lat="45.1663058" lon="7.1674191"><ele>1021.2</ele><time>2026-04-06T16:04:13.777Z</time></trkpt><trkpt lat="45.1662333" lon="7.1674359"><ele>1016.6</ele><time>2026-04-06T16:04:14.778Z</time></trkpt><trkpt lat="45.1661686" lon="7.1675156"><ele>1012.0</ele><time>2026-04-06T16:04:16.779Z</time></trkpt><trkpt lat="45.1663028" lon="7.1675361"><ele>1011.9999999999999</ele><time>2026-04-06T16:04:18.778Z</time></trkpt><trkpt lat="45.1663749" lon="7.167533"><ele>1012.0</ele><time>2026-04-06T16:04:19.778Z</time></trkpt><trkpt lat="45.1664584" lon="7.1675458"><ele>1012.0</ele><time>2026-04-06T16:04:20.779Z</time></trkpt><trkpt lat="45.1665522" lon="7.1675491"><ele>1012.0</ele><time>2026-04-06T16:04:21.778Z</time></trkpt><trkpt lat="45.1666461" lon="7.1675349"><ele>1011.9999999999999</ele><time>2026-04-06T16:04:22.777Z</time></trkpt><trkpt lat="45.1667261" lon="7.1675398"><ele>1012.0</ele><time>2026-04-06T16:04:23.777Z</time></trkpt><trkpt lat="45.1668065" lon="7.1675445"><ele>1013.4000000000001</ele><time>2026-04-06T16:04:24.778Z</time></trkpt><trkpt lat="45.1668773" lon="7.1675467"><ele>1014.8000000000001</ele><time>2026-04-06T16:04:25.778Z</time></trkpt><trkpt lat="45.1669621" lon="7.1675806"><ele>1016.2</ele><time>2026-04-06T16:04:27.778Z</time></trkpt><trkpt lat="45.1669397" lon="7.167718"><ele>1017.6</ele><time>2026-04-06T16:04:29.778Z</time></trkpt><trkpt lat="45.1668185" lon="7.167776"><ele>1019.0</ele><time>2026-04-06T16:04:31.778Z</time></trkpt><trkpt lat="45.1667408" lon="7.1678223"><ele>1019.0</ele><time>2026-04-06T16:04:32.777Z</time></trkpt><trkpt lat="45.1666524" lon="7.1678768"><ele>1019.0000000000001</ele><time>2026-04-06T16:04:33.778Z</time></trkpt><trkpt lat="45.1665659" lon="7.1679433"><ele>1019.0000000000001</ele><time>2026-04-06T16:04:34.778Z</time></trkpt><trkpt lat="45.1664754" lon="7.1680089"><ele>1019.0</ele><time>2026-04-06T16:04:35.778Z</time></trkpt><trkpt lat="45.1663747" lon="7.1680724"><ele>1019.0</ele><time>2026-04-06T16:04:36.778Z</time></trkpt><trkpt lat="45.1662633" lon="7.1680956"><ele>1017.6</ele><time>2026-04-06T16:04:37.778Z</time></trkpt><trkpt lat="45.166161" lon="7.1681122"><ele>1016.2</ele><time>2026-04-06T16:04:38.777Z</time></trkpt><trkpt lat="45.1660557" lon="7.168139"><ele>1014.8000000000001</ele><time>2026-04-06T16:04:39.777Z</time></trkpt><trkpt lat="45.1659608" lon="7.1681871"><ele>1013.4000000000001</ele><time>2026-04-06T16:04:40.777Z</time></trkpt><trkpt lat="45.1658797" lon="7.1682293"><ele>1012.0</ele><time>2026-04-06T16:04:41.779Z</time></trkpt><trkpt lat="45.1658106" lon="7.1682704"><ele>1008.4999999999999</ele><time>2026-04-06T16:04:42.778Z</time></trkpt><trkpt lat="45.1657433" lon="7.1682857"><ele>1005.0</ele><time>2026-04-06T16:04:43.777Z</time></trkpt><trkpt lat="45.1656617" lon="7.1682574"><ele>1001.5</ele><time>2026-04-06T16:04:44.778Z</time></trkpt><trkpt lat="45.1655677" lon="7.1682386"><ele>998.0</ele><time>2026-04-06T16:04:45.778Z</time></trkpt><trkpt lat="45.1654806" lon="7.1682311"><ele>994.4999999999999</ele><time>2026-04-06T16:04:46.779Z</time></trkpt><trkpt lat="45.165404" lon="7.1682268"><ele>991.0</ele><time>2026-04-06T16:04:47.777Z</time></trkpt><trkpt lat="45.1653372" lon="7.1681872"><ele>989.3333333333333</ele><time>2026-04-06T16:04:48.778Z</time></trkpt><trkpt lat="45.1652708" lon="7.1681146"><ele>987.6666666666666</ele><time>2026-04-06T16:04:49.777Z</time></trkpt><trkpt lat="45.1652183" lon="7.1680244"><ele>986.0</ele><time>2026-04-06T16:04:50.778Z</time></trkpt><trkpt lat="45.1651782" lon="7.167928"><ele>984.3333333333333</ele><time>2026-04-06T16:04:51.778Z</time></trkpt><trkpt lat="45.1651387" lon="7.1678115"><ele>982.6666666666666</ele><time>2026-04-06T16:04:52.778Z</time></trkpt><trkpt lat="45.1651126" lon="7.1676776"><ele>981.0</ele><time>2026-04-06T16:04:53.779Z</time></trkpt><trkpt lat="45.1650795" lon="7.1675488"><ele>981.0</ele><time>2026-04-06T16:04:54.779Z</time></trkpt><trkpt lat="45.1650378" lon="7.1674495"><ele>981.0</ele><time>2026-04-06T16:04:55.778Z</time></trkpt><trkpt lat="45.1650062" lon="7.1673558"><ele>981.0</ele><time>2026-04-06T16:04:56.777Z</time></trkpt><trkpt lat="45.1649805" lon="7.1672593"><ele>981.0</ele><time>2026-04-06T16:04:57.777Z</time></trkpt><trkpt lat="45.1649719" lon="7.1671263"><ele>981.0</ele><time>2026-04-06T16:04:58.777Z</time></trkpt><trkpt lat="45.1650078" lon="7.1669972"><ele>981.0</ele><time>2026-04-06T16:04:59.777Z</time></trkpt><trkpt lat="45.1650083" lon="7.1668585"><ele>981.4</ele><time>2026-04-06T16:05:00.778Z</time></trkpt><trkpt lat="45.1649976" lon="7.1667189"><ele>981.8</ele><time>2026-04-06T16:05:01.779Z</time></trkpt><trkpt lat="45.1649966" lon="7.1665853"><ele>982.1999999999999</ele><time>2026-04-06T16:05:02.778Z</time></trkpt><trkpt lat="45.1650011" lon="7.1664544"><ele>982.5999999999999</ele><time>2026-04-06T16:05:03.778Z</time></trkpt><trkpt lat="45.1650253" lon="7.1663269"><ele>983.0</ele><time>2026-04-06T16:05:04.777Z</time></trkpt><trkpt lat="45.1650577" lon="7.1661971"><ele>985.0</ele><time>2026-04-06T16:05:05.777Z</time></trkpt><trkpt lat="45.1651474" lon="7.1661044"><ele>987.0</ele><time>2026-04-06T16:05:07.777Z</time></trkpt><trkpt lat="45.1651748" lon="7.1659833"><ele>989.0</ele><time>2026-04-06T16:05:09.778Z</time></trkpt><trkpt lat="45.1651009" lon="7.1658923"><ele>991.0</ele><time>2026-04-06T16:05:11.777Z</time></trkpt><trkpt lat="45.1650136" lon="7.1658666"><ele>993.0</ele><time>2026-04-06T16:05:13.777Z</time></trkpt><trkpt lat="45.1648962" lon="7.1659554"><ele>993.4</ele><time>2026-04-06T16:05:14.778Z</time></trkpt><trkpt lat="45.1648456" lon="7.1660428"><ele>993.8</ele><time>2026-04-06T16:05:15.777Z</time></trkpt><trkpt lat="45.1647948" lon="7.1661146"><ele>994.2</ele><time>2026-04-06T16:05:16.778Z</time></trkpt><trkpt lat="45.1647215" lon="7.1662733"><ele>994.6</ele><time>2026-04-06T16:05:18.777Z</time></trkpt><trkpt lat="45.1646561" lon="7.1663671"><ele>995.0</ele><time>2026-04-06T16:05:20.779Z</time></trkpt><trkpt lat="45.1645837" lon="7.1664022"><ele>995.0000000000001</ele><time>2026-04-06T16:05:21.777Z</time></trkpt><trkpt lat="45.1644925" lon="7.1664208"><ele>995.0</ele><time>2026-04-06T16:05:22.778Z</time></trkpt><trkpt lat="45.164389" lon="7.1664496"><ele>995.0</ele><time>2026-04-06T16:05:23.778Z</time></trkpt><trkpt lat="45.1643059" lon="7.1665138"><ele>995.0</ele><time>2026-04-06T16:05:24.778Z</time></trkpt><trkpt lat="45.1642303" lon="7.1665658"><ele>995.0000000000001</ele><time>2026-04-06T16:05:25.777Z</time></trkpt><trkpt lat="45.1641708" lon="7.1666065"><ele>995.0</ele><time>2026-04-06T16:05:26.779Z</time></trkpt><trkpt lat="45.1641064" lon="7.1666403"><ele>995.0</ele><time>2026-04-06T16:05:27.778Z</time></trkpt><trkpt lat="45.1639949" lon="7.1666557"><ele>995.0</ele><time>2026-04-06T16:05:29.777Z</time></trkpt><trkpt lat="45.1638984" lon="7.1665579"><ele>995.0</ele><time>2026-04-06T16:05:31.778Z</time></trkpt><trkpt lat="45.1638434" lon="7.166482"><ele>995.0</ele><time>2026-04-06T16:05:32.777Z</time></trkpt><trkpt lat="45.1637188" lon="7.1664934"><ele>995.0</ele><time>2026-04-06T16:05:34.778Z</time></trkpt><trkpt lat="45.1636467" lon="7.1665462"><ele>989.6666666666667</ele><time>2026-04-06T16:05:35.778Z</time></trkpt><trkpt lat="45.1635759" lon="7.1666032"><ele>984.3333333333334</ele><time>2026-04-06T16:05:36.779Z</time></trkpt><trkpt lat="45.1635217" lon="7.1666922"><ele>979.0</ele><time>2026-04-06T16:05:37.778Z</time></trkpt><trkpt lat="45.1634633" lon="7.1667705"><ele>973.6666666666667</ele><time>2026-04-06T16:05:38.779Z</time></trkpt><trkpt lat="45.1634183" lon="7.1668662"><ele>968.3333333333334</ele><time>2026-04-06T16:05:39.778Z</time></trkpt><trkpt lat="45.1633327" lon="7.1669428"><ele>963.0</ele><time>2026-04-06T16:05:41.778Z</time></trkpt><trkpt lat="45.1632565" lon="7.1669694"><ele>961.0</ele><time>2026-04-06T16:05:42.777Z</time></trkpt><trkpt lat="45.1631518" lon="7.1669555"><ele>959.0</ele><time>2026-04-06T16:05:43.777Z</time></trkpt><trkpt lat="45.163074" lon="7.1669576"><ele>957.0</ele><time>2026-04-06T16:05:44.778Z</time></trkpt><trkpt lat="45.1629715" lon="7.16686"><ele>955.0</ele><time>2026-04-06T16:05:46.778Z</time></trkpt><trkpt lat="45.1629197" lon="7.1667929"><ele>953.0</ele><time>2026-04-06T16:05:47.777Z</time></trkpt><trkpt lat="45.1628449" lon="7.1667363"><ele>953.0000000000001</ele><time>2026-04-06T16:05:48.777Z</time></trkpt><trkpt lat="45.1627895" lon="7.166693"><ele>953.0</ele><time>2026-04-06T16:05:49.777Z</time></trkpt><trkpt lat="45.1627168" lon="7.166646"><ele>953.0</ele><time>2026-04-06T16:05:50.777Z</time></trkpt><trkpt lat="45.162653" lon="7.1666732"><ele>953.0</ele><time>2026-04-06T16:05:51.777Z</time></trkpt><trkpt lat="45.1625813" lon="7.1665582"><ele>953.0000000000001</ele><time>2026-04-06T16:05:53.777Z</time></trkpt><trkpt lat="45.1625622" lon="7.1664625"><ele>953.0</ele><time>2026-04-06T16:05:54.778Z</time></trkpt><trkpt lat="45.1625384" lon="7.1663476"><ele>956.8</ele><time>2026-04-06T16:05:55.778Z</time></trkpt><trkpt lat="45.162503" lon="7.1662506"><ele>960.5999999999999</ele><time>2026-04-06T16:05:56.778Z</time></trkpt><trkpt lat="45.1624652" lon="7.1661634"><ele>964.4000000000001</ele><time>2026-04-06T16:05:57.778Z</time></trkpt><trkpt lat="45.1624261" lon="7.1660856"><ele>968.2</ele><time>2026-04-06T16:05:58.778Z</time></trkpt><trkpt lat="45.1623358" lon="7.1659704"><ele>972.0</ele><time>2026-04-06T16:06:00.777Z</time></trkpt><trkpt lat="45.1622331" lon="7.1660515"><ele>972.1666666666666</ele><time>2026-04-06T16:06:02.777Z</time></trkpt><trkpt lat="45.1621652" lon="7.1661093"><ele>972.3333333333333</ele><time>2026-04-06T16:06:03.778Z</time></trkpt><trkpt lat="45.162079" lon="7.1661954"><ele>972.5</ele><time>2026-04-06T16:06:04.778Z</time></trkpt><trkpt lat="45.1620168" lon="7.1662943"><ele>972.6666666666666</ele><time>2026-04-06T16:06:05.778Z</time></trkpt><trkpt lat="45.1619946" lon="7.1664031"><ele>972.8333333333333</ele><time>2026-04-06T16:06:06.779Z</time></trkpt><trkpt lat="45.1619501" lon="7.1664932"><ele>973.0</ele><time>2026-04-06T16:06:07.778Z</time></trkpt><trkpt lat="45.1618574" lon="7.1666178"><ele>969.1666666666666</ele><time>2026-04-06T16:06:09.777Z</time></trkpt><trkpt lat="45.161796" lon="7.1666565"><ele>965.3333333333333</ele><time>2026-04-06T16:06:10.777Z</time></trkpt><trkpt lat="45.1617243" lon="7.1666811"><ele>961.5</ele><time>2026-04-06T16:06:11.777Z</time></trkpt><trkpt lat="45.1616579" lon="7.1666625"><ele>957.6666666666667</ele><time>2026-04-06T16:06:12.777Z</time></trkpt><trkpt lat="45.1615811" lon="7.1666381"><ele>953.8333333333334</ele><time>2026-04-06T16:06:13.777Z</time></trkpt><trkpt lat="45.1614928" lon="7.1666114"><ele>950.0</ele><time>2026-04-06T16:06:14.778Z</time></trkpt><trkpt lat="45.1613979" lon="7.1665787"><ele>948.2</ele><time>2026-04-06T16:06:15.778Z</time></trkpt><trkpt lat="45.161299" lon="7.1665617"><ele>946.4</ele><time>2026-04-06T16:06:16.777Z</time></trkpt><trkpt lat="45.161228" lon="7.166517"><ele>944.5999999999999</ele><time>2026-04-06T16:06:17.777Z</time></trkpt><trkpt lat="45.1611479" lon="7.166424"><ele>942.8</ele><time>2026-04-06T16:06:18.777Z</time></trkpt><trkpt lat="45.1610689" lon="7.1663397"><ele>941.0</ele><time>2026-04-06T16:06:19.779Z</time></trkpt><trkpt lat="45.1609869" lon="7.1662549"><ele>944.8333333333334</ele><time>2026-04-06T16:06:20.779Z</time></trkpt><trkpt lat="45.1609037" lon="7.1661834"><ele>948.6666666666667</ele><time>2026-04-06T16:06:21.778Z</time></trkpt><trkpt lat="45.1608232" lon="7.1661258"><ele>952.5</ele><time>2026-04-06T16:06:22.778Z</time></trkpt><trkpt lat="45.1607573" lon="7.1660947"><ele>956.3333333333333</ele><time>2026-04-06T16:06:23.778Z</time></trkpt><trkpt lat="45.1606864" lon="7.1660982"><ele>960.1666666666666</ele><time>2026-04-06T16:06:24.778Z</time></trkpt><trkpt lat="45.1605751" lon="7.1661523"><ele>964.0</ele><time>2026-04-06T16:06:26.778Z</time></trkpt><trkpt lat="45.1605269" lon="7.1662358"><ele>965.8000000000001</ele><time>2026-04-06T16:06:27.778Z</time></trkpt><trkpt lat="45.1604869" lon="7.1663757"><ele>967.6000000000001</ele><time>2026-04-06T16:06:28.778Z</time></trkpt><trkpt lat="45.1604443" lon="7.1664895"><ele>969.4</ele><time>2026-04-06T16:06:29.778Z</time></trkpt><trkpt lat="45.1604471" lon="7.1666012"><ele>971.2</ele><time>2026-04-06T16:06:30.778Z</time></trkpt><trkpt lat="45.1604691" lon="7.1666971"><ele>973.0</ele><time>2026-04-06T16:06:31.778Z</time></trkpt><trkpt lat="45.1604503" lon="7.1668529"><ele>973.0</ele><time>2026-04-06T16:06:33.778Z</time></trkpt><trkpt lat="45.1603924" lon="7.1669873"><ele>973.0</ele><time>2026-04-06T16:06:35.778Z</time></trkpt><trkpt lat="45.160348" lon="7.1670695"><ele>973.0</ele><time>2026-04-06T16:06:36.778Z</time></trkpt><trkpt lat="45.1602786" lon="7.1671997"><ele>973.0</ele><time>2026-04-06T16:06:38.778Z</time></trkpt><trkpt lat="45.1602196" lon="7.1672944"><ele>973.0</ele><time>2026-04-06T16:06:40.777Z</time></trkpt><trkpt lat="45.1601671" lon="7.1673842"><ele>966.4999999999999</ele><time>2026-04-06T16:06:42.777Z</time></trkpt><trkpt lat="45.1601076" lon="7.1674661"><ele>960.0</ele><time>2026-04-06T16:06:44.777Z</time></trkpt><trkpt lat="45.1600335" lon="7.1675308"><ele>953.5</ele><time>2026-04-06T16:06:46.778Z</time></trkpt><trkpt lat="45.1599583" lon="7.1675725"><ele>947.0</ele><time>2026-04-06T16:06:48.778Z</time></trkpt><trkpt lat="45.1598861" lon="7.1676135"><ele>940.4999999999999</ele><time>2026-04-06T16:06:50.777Z</time></trkpt><trkpt lat="45.1598043" lon="7.1676386"><ele>934.0</ele><time>2026-04-06T16:06:52.779Z</time></trkpt><trkpt lat="45.1597214" lon="7.1675844"><ele>931.6</ele><time>2026-04-06T16:06:54.779Z</time></trkpt><trkpt lat="45.1596517" lon="7.1674693"><ele>929.2</ele><time>2026-04-06T16:06:56.779Z</time></trkpt><trkpt lat="45.1595988" lon="7.1673482"><ele>926.8000000000001</ele><time>2026-04-06T16:06:58.778Z</time></trkpt><trkpt lat="45.1595666" lon="7.1672208"><ele>924.4000000000001</ele><time>2026-04-06T16:07:00.778Z</time></trkpt><trkpt lat="45.1595386" lon="7.1670739"><ele>922.0</ele><time>2026-04-06T16:07:02.778Z</time></trkpt><trkpt lat="45.1594988" lon="7.1669447"><ele>928.4000000000001</ele><time>2026-04-06T16:07:04.778Z</time></trkpt><trkpt lat="45.1594437" lon="7.1668349"><ele>934.8000000000001</ele><time>2026-04-06T16:07:06.777Z</time></trkpt><trkpt lat="45.1593683" lon="7.1667362"><ele>941.2</ele><time>2026-04-06T16:07:08.778Z</time></trkpt><trkpt lat="45.1592719" lon="7.1666708"><ele>947.6</ele><time>2026-04-06T16:07:10.778Z</time></trkpt><trkpt lat="45.1592085" lon="7.1666385"><ele>954.0</ele><time>2026-04-06T16:07:11.779Z</time></trkpt><trkpt lat="45.1591167" lon="7.1666222"><ele>954.0</ele><time>2026-04-06T16:07:12.778Z</time></trkpt><trkpt lat="45.1590513" lon="7.1666481"><ele>954.0</ele><time>2026-04-06T16:07:13.778Z</time></trkpt><trkpt lat="45.159012" lon="7.1667207"><ele>954.0</ele><time>2026-04-06T16:07:14.777Z</time></trkpt><trkpt lat="45.1589018" lon="7.1668148"><ele>954.0</ele><time>2026-04-06T16:07:16.778Z</time></trkpt><trkpt lat="45.1588396" lon="7.1668787"><ele>954.0</ele><time>2026-04-06T16:07:17.778Z</time></trkpt><trkpt lat="45.1587882" lon="7.1669335"><ele>954.0</ele><time>2026-04-06T16:07:18.778Z</time></trkpt><trkpt lat="45.1587382" lon="7.1669979"><ele>951.1666666666666</ele><time>2026-04-06T16:07:19.778Z</time></trkpt><trkpt lat="45.1586787" lon="7.1670578"><ele>948.3333333333333</ele><time>2026-04-06T16:07:20.778Z</time></trkpt><trkpt lat="45.1586172" lon="7.1671177"><ele>945.5</ele><time>2026-04-06T16:07:21.778Z</time></trkpt><trkpt lat="45.1585411" lon="7.1671643"><ele>942.6666666666666</ele><time>2026-04-06T16:07:22.777Z</time></trkpt><trkpt lat="45.1584687" lon="7.1672169"><ele>939.8333333333333</ele><time>2026-04-06T16:07:23.778Z</time></trkpt><trkpt lat="45.1583979" lon="7.1672737"><ele>937.0</ele><time>2026-04-06T16:07:24.778Z</time></trkpt><trkpt lat="45.1583322" lon="7.1673344"><ele>934.8333333333333</ele><time>2026-04-06T16:07:25.778Z</time></trkpt><trkpt lat="45.1582766" lon="7.1673915"><ele>932.6666666666666</ele><time>2026-04-06T16:07:26.778Z</time></trkpt><trkpt lat="45.1582222" lon="7.1674562"><ele>930.5</ele><time>2026-04-06T16:07:27.777Z</time></trkpt><trkpt lat="45.158172" lon="7.167522"><ele>928.3333333333333</ele><time>2026-04-06T16:07:28.778Z</time></trkpt><trkpt lat="45.1580914" lon="7.1676361"><ele>926.1666666666666</ele><time>2026-04-06T16:07:30.777Z</time></trkpt><trkpt lat="45.1580312" lon="7.1677008"><ele>924.0</ele><time>2026-04-06T16:07:32.777Z</time></trkpt><trkpt lat="45.1579642" lon="7.1677435"><ele>920.0</ele><time>2026-04-06T16:07:36.778Z</time></trkpt></trkseg></trk></gpx>